<?xml version="1.0" encoding="UTF-8" standalone="no" ?>
<gpx xmlns="http://www.topografix.com/GPX/1/1" xmlns:xsi="http://www.w3.org/2001/XMLSchema-instance" xsi:schemaLocation="http://www.topografix.com/GPX/1/1 http://www.topografix.com/GPX/1/1/gpx.xsd" version="1.1" creator="VisuGPX - https://www.visugpx.com">
  <metadata>
    <name>lundi 2015 03 09</name>
    <desc><![CDATA[rando du lundi]]></desc>
  </metadata>
  <trk>
    <name><![CDATA[09/03/2015 20:19]]></name>
    <desc><![CDATA[]]></desc>
    <trkseg>
      <trkpt lat="48.85735" lon="2.34719">
        <ele>89.4</ele>
        <time>2015-03-09T19:19:49.134Z</time>
      </trkpt>
      <trkpt lat="48.85736" lon="2.34723">
        <ele>90.2</ele>
        <time>2015-03-09T19:20:40.249Z</time>
      </trkpt>
      <trkpt lat="48.85736" lon="2.34723">
        <ele>90</ele>
        <time>2015-03-09T19:20:41.255Z</time>
      </trkpt>
      <trkpt lat="48.85736" lon="2.34722">
        <ele>89.8</ele>
        <time>2015-03-09T19:20:42.265Z</time>
      </trkpt>
      <trkpt lat="48.85736" lon="2.34722">
        <ele>89.6</ele>
        <time>2015-03-09T19:20:43.268Z</time>
      </trkpt>
      <trkpt lat="48.85743" lon="2.34714">
        <ele>88.8</ele>
        <time>2015-03-09T19:20:54.238Z</time>
      </trkpt>
      <trkpt lat="48.85744" lon="2.34714">
        <ele>88.6</ele>
        <time>2015-03-09T19:20:55.292Z</time>
      </trkpt>
      <trkpt lat="48.85751" lon="2.34715">
        <ele>89.4</ele>
        <time>2015-03-09T19:21:01.299Z</time>
      </trkpt>
      <trkpt lat="48.85753" lon="2.34716">
        <ele>89.4</ele>
        <time>2015-03-09T19:21:02.223Z</time>
      </trkpt>
      <trkpt lat="48.85762" lon="2.34717">
        <ele>89.7</ele>
        <time>2015-03-09T19:21:06.195Z</time>
      </trkpt>
      <trkpt lat="48.85766" lon="2.34717">
        <ele>89.5</ele>
        <time>2015-03-09T19:21:07.606Z</time>
      </trkpt>
      <trkpt lat="48.85772" lon="2.34715">
        <ele>89.4</ele>
        <time>2015-03-09T19:21:09.224Z</time>
      </trkpt>
      <trkpt lat="48.85775" lon="2.34713">
        <ele>89.2</ele>
        <time>2015-03-09T19:21:10.231Z</time>
      </trkpt>
      <trkpt lat="48.85783" lon="2.34709">
        <ele>88.9</ele>
        <time>2015-03-09T19:21:12.247Z</time>
      </trkpt>
      <trkpt lat="48.85787" lon="2.34706">
        <ele>88.6</ele>
        <time>2015-03-09T19:21:13.245Z</time>
      </trkpt>
      <trkpt lat="48.85795" lon="2.347">
        <ele>88.4</ele>
        <time>2015-03-09T19:21:15.274Z</time>
      </trkpt>
      <trkpt lat="48.85796" lon="2.34693">
        <ele>88.1</ele>
        <time>2015-03-09T19:21:16.298Z</time>
      </trkpt>
      <trkpt lat="48.858" lon="2.34685">
        <ele>88.1</ele>
        <time>2015-03-09T19:21:18.364Z</time>
      </trkpt>
      <trkpt lat="48.85801" lon="2.34679">
        <ele>88</ele>
        <time>2015-03-09T19:21:19.275Z</time>
      </trkpt>
      <trkpt lat="48.85804" lon="2.34668">
        <ele>88.1</ele>
        <time>2015-03-09T19:21:21.251Z</time>
      </trkpt>
      <trkpt lat="48.85806" lon="2.34662">
        <ele>87.9</ele>
        <time>2015-03-09T19:21:22.220Z</time>
      </trkpt>
      <trkpt lat="48.8581" lon="2.3465">
        <ele>87.5</ele>
        <time>2015-03-09T19:21:24.274Z</time>
      </trkpt>
      <trkpt lat="48.85811" lon="2.34645">
        <ele>87.3</ele>
        <time>2015-03-09T19:21:25.285Z</time>
      </trkpt>
      <trkpt lat="48.85814" lon="2.34636">
        <ele>87.2</ele>
        <time>2015-03-09T19:21:27.225Z</time>
      </trkpt>
      <trkpt lat="48.85815" lon="2.34631">
        <ele>87.3</ele>
        <time>2015-03-09T19:21:28.234Z</time>
      </trkpt>
      <trkpt lat="48.85817" lon="2.34621">
        <ele>87.7</ele>
        <time>2015-03-09T19:21:30.227Z</time>
      </trkpt>
      <trkpt lat="48.85818" lon="2.34616">
        <ele>88</ele>
        <time>2015-03-09T19:21:31.392Z</time>
      </trkpt>
      <trkpt lat="48.8582" lon="2.34605">
        <ele>88.2</ele>
        <time>2015-03-09T19:21:33.235Z</time>
      </trkpt>
      <trkpt lat="48.85821" lon="2.34602">
        <ele>88.3</ele>
        <time>2015-03-09T19:21:34.296Z</time>
      </trkpt>
      <trkpt lat="48.85829" lon="2.34604">
        <ele>88.5</ele>
        <time>2015-03-09T19:21:38.316Z</time>
      </trkpt>
      <trkpt lat="48.85831" lon="2.34607">
        <ele>88.8</ele>
        <time>2015-03-09T19:21:39.315Z</time>
      </trkpt>
      <trkpt lat="48.85838" lon="2.34609">
        <ele>89.2</ele>
        <time>2015-03-09T19:21:41.249Z</time>
      </trkpt>
      <trkpt lat="48.85841" lon="2.3461">
        <ele>89.4</ele>
        <time>2015-03-09T19:21:42.282Z</time>
      </trkpt>
      <trkpt lat="48.85848" lon="2.3461">
        <ele>90.4</ele>
        <time>2015-03-09T19:21:44.358Z</time>
      </trkpt>
      <trkpt lat="48.85851" lon="2.34612">
        <ele>90.8</ele>
        <time>2015-03-09T19:21:45.316Z</time>
      </trkpt>
      <trkpt lat="48.8586" lon="2.3461">
        <ele>91</ele>
        <time>2015-03-09T19:21:50.283Z</time>
      </trkpt>
      <trkpt lat="48.85862" lon="2.34607">
        <ele>91</ele>
        <time>2015-03-09T19:21:51.294Z</time>
      </trkpt>
      <trkpt lat="48.85866" lon="2.346">
        <ele>90.7</ele>
        <time>2015-03-09T19:21:54.221Z</time>
      </trkpt>
      <trkpt lat="48.85868" lon="2.34597">
        <ele>90.7</ele>
        <time>2015-03-09T19:21:55.258Z</time>
      </trkpt>
      <trkpt lat="48.85872" lon="2.34587">
        <ele>90.5</ele>
        <time>2015-03-09T19:21:58.271Z</time>
      </trkpt>
      <trkpt lat="48.85875" lon="2.34584">
        <ele>90.6</ele>
        <time>2015-03-09T19:21:59.285Z</time>
      </trkpt>
      <trkpt lat="48.85877" lon="2.34575">
        <ele>90.5</ele>
        <time>2015-03-09T19:22:01.291Z</time>
      </trkpt>
      <trkpt lat="48.85879" lon="2.34569">
        <ele>90.2</ele>
        <time>2015-03-09T19:22:02.283Z</time>
      </trkpt>
      <trkpt lat="48.85881" lon="2.3456">
        <ele>90</ele>
        <time>2015-03-09T19:22:04.204Z</time>
      </trkpt>
      <trkpt lat="48.85885" lon="2.34549">
        <ele>89.6</ele>
        <time>2015-03-09T19:22:06.279Z</time>
      </trkpt>
      <trkpt lat="48.85888" lon="2.34538">
        <ele>88.9</ele>
        <time>2015-03-09T19:22:08.280Z</time>
      </trkpt>
      <trkpt lat="48.85887" lon="2.34533">
        <ele>88.6</ele>
        <time>2015-03-09T19:22:09.283Z</time>
      </trkpt>
      <trkpt lat="48.85882" lon="2.34526">
        <ele>88.4</ele>
        <time>2015-03-09T19:22:12.213Z</time>
      </trkpt>
      <trkpt lat="48.85878" lon="2.34523">
        <ele>88.3</ele>
        <time>2015-03-09T19:22:13.285Z</time>
      </trkpt>
      <trkpt lat="48.85871" lon="2.34517">
        <ele>88.5</ele>
        <time>2015-03-09T19:22:15.217Z</time>
      </trkpt>
      <trkpt lat="48.85868" lon="2.34515">
        <ele>88.6</ele>
        <time>2015-03-09T19:22:16.214Z</time>
      </trkpt>
      <trkpt lat="48.85862" lon="2.34511">
        <ele>88.6</ele>
        <time>2015-03-09T19:22:18.280Z</time>
      </trkpt>
      <trkpt lat="48.85859" lon="2.34509">
        <ele>88.8</ele>
        <time>2015-03-09T19:22:19.337Z</time>
      </trkpt>
      <trkpt lat="48.85852" lon="2.34501">
        <ele>88.9</ele>
        <time>2015-03-09T19:22:21.307Z</time>
      </trkpt>
      <trkpt lat="48.85849" lon="2.34499">
        <ele>88.9</ele>
        <time>2015-03-09T19:22:22.231Z</time>
      </trkpt>
      <trkpt lat="48.85846" lon="2.34496">
        <ele>89</ele>
        <time>2015-03-09T19:22:23.249Z</time>
      </trkpt>
      <trkpt lat="48.85839" lon="2.3449">
        <ele>89</ele>
        <time>2015-03-09T19:22:26.205Z</time>
      </trkpt>
      <trkpt lat="48.85835" lon="2.34478">
        <ele>88.3</ele>
        <time>2015-03-09T19:22:31.247Z</time>
      </trkpt>
      <trkpt lat="48.85836" lon="2.34474">
        <ele>88.1</ele>
        <time>2015-03-09T19:22:32.333Z</time>
      </trkpt>
      <trkpt lat="48.85841" lon="2.34463">
        <ele>87.1</ele>
        <time>2015-03-09T19:22:34.206Z</time>
      </trkpt>
      <trkpt lat="48.85843" lon="2.34458">
        <ele>86.8</ele>
        <time>2015-03-09T19:22:35.208Z</time>
      </trkpt>
      <trkpt lat="48.85847" lon="2.34447">
        <ele>86.2</ele>
        <time>2015-03-09T19:22:37.282Z</time>
      </trkpt>
      <trkpt lat="48.85848" lon="2.34442">
        <ele>86</ele>
        <time>2015-03-09T19:22:38.207Z</time>
      </trkpt>
      <trkpt lat="48.8585" lon="2.34431">
        <ele>86</ele>
        <time>2015-03-09T19:22:41.243Z</time>
      </trkpt>
      <trkpt lat="48.85848" lon="2.34427">
        <ele>86.4</ele>
        <time>2015-03-09T19:22:42.289Z</time>
      </trkpt>
      <trkpt lat="48.85844" lon="2.3442">
        <ele>87.6</ele>
        <time>2015-03-09T19:22:44.200Z</time>
      </trkpt>
      <trkpt lat="48.85843" lon="2.34415">
        <ele>88.5</ele>
        <time>2015-03-09T19:22:45.199Z</time>
      </trkpt>
      <trkpt lat="48.85838" lon="2.34408">
        <ele>89.7</ele>
        <time>2015-03-09T19:22:47.246Z</time>
      </trkpt>
      <trkpt lat="48.85836" lon="2.34404">
        <ele>90.5</ele>
        <time>2015-03-09T19:22:48.257Z</time>
      </trkpt>
      <trkpt lat="48.85831" lon="2.34398">
        <ele>91</ele>
        <time>2015-03-09T19:22:50.225Z</time>
      </trkpt>
      <trkpt lat="48.85828" lon="2.34395">
        <ele>91.2</ele>
        <time>2015-03-09T19:22:51.243Z</time>
      </trkpt>
      <trkpt lat="48.85823" lon="2.34386">
        <ele>91.8</ele>
        <time>2015-03-09T19:22:54.241Z</time>
      </trkpt>
      <trkpt lat="48.85822" lon="2.34383">
        <ele>91.7</ele>
        <time>2015-03-09T19:22:55.264Z</time>
      </trkpt>
      <trkpt lat="48.85822" lon="2.34372">
        <ele>91.1</ele>
        <time>2015-03-09T19:22:58.289Z</time>
      </trkpt>
      <trkpt lat="48.85823" lon="2.34368">
        <ele>91</ele>
        <time>2015-03-09T19:22:59.311Z</time>
      </trkpt>
      <trkpt lat="48.85826" lon="2.34356">
        <ele>90.6</ele>
        <time>2015-03-09T19:23:01.281Z</time>
      </trkpt>
      <trkpt lat="48.85827" lon="2.3435">
        <ele>90.4</ele>
        <time>2015-03-09T19:23:02.381Z</time>
      </trkpt>
      <trkpt lat="48.85829" lon="2.34344">
        <ele>90.1</ele>
        <time>2015-03-09T19:23:03.210Z</time>
      </trkpt>
      <trkpt lat="48.85833" lon="2.34337">
        <ele>89.8</ele>
        <time>2015-03-09T19:23:04.213Z</time>
      </trkpt>
      <trkpt lat="48.85835" lon="2.34332">
        <ele>89.4</ele>
        <time>2015-03-09T19:23:05.260Z</time>
      </trkpt>
      <trkpt lat="48.85838" lon="2.34326">
        <ele>89.2</ele>
        <time>2015-03-09T19:23:06.300Z</time>
      </trkpt>
      <trkpt lat="48.85844" lon="2.34317">
        <ele>89.8</ele>
        <time>2015-03-09T19:23:07.352Z</time>
      </trkpt>
      <trkpt lat="48.85847" lon="2.34311">
        <ele>89.4</ele>
        <time>2015-03-09T19:23:08.194Z</time>
      </trkpt>
      <trkpt lat="48.8585" lon="2.34301">
        <ele>89.3</ele>
        <time>2015-03-09T19:23:10.224Z</time>
      </trkpt>
      <trkpt lat="48.85849" lon="2.34298">
        <ele>89.4</ele>
        <time>2015-03-09T19:23:11.260Z</time>
      </trkpt>
      <trkpt lat="48.85848" lon="2.34296">
        <ele>89.6</ele>
        <time>2015-03-09T19:23:12.302Z</time>
      </trkpt>
      <trkpt lat="48.85845" lon="2.34285">
        <ele>89.6</ele>
        <time>2015-03-09T19:23:20.291Z</time>
      </trkpt>
      <trkpt lat="48.85845" lon="2.34284">
        <ele>89.7</ele>
        <time>2015-03-09T19:23:21.215Z</time>
      </trkpt>
      <trkpt lat="48.85845" lon="2.34283">
        <ele>89.9</ele>
        <time>2015-03-09T19:23:24.217Z</time>
      </trkpt>
      <trkpt lat="48.85845" lon="2.3428">
        <ele>91.9</ele>
        <time>2015-03-09T19:23:25.252Z</time>
      </trkpt>
      <trkpt lat="48.85845" lon="2.34266">
        <ele>93.3</ele>
        <time>2015-03-09T19:23:30.240Z</time>
      </trkpt>
      <trkpt lat="48.85845" lon="2.34263">
        <ele>93.4</ele>
        <time>2015-03-09T19:23:31.263Z</time>
      </trkpt>
      <trkpt lat="48.8585" lon="2.34255">
        <ele>93.1</ele>
        <time>2015-03-09T19:23:35.235Z</time>
      </trkpt>
      <trkpt lat="48.85855" lon="2.34258">
        <ele>91.2</ele>
        <time>2015-03-09T19:23:36.246Z</time>
      </trkpt>
      <trkpt lat="48.85861" lon="2.34265">
        <ele>89.7</ele>
        <time>2015-03-09T19:23:38.274Z</time>
      </trkpt>
      <trkpt lat="48.85863" lon="2.34268">
        <ele>89.9</ele>
        <time>2015-03-09T19:23:39.285Z</time>
      </trkpt>
      <trkpt lat="48.8587" lon="2.34276">
        <ele>91.6</ele>
        <time>2015-03-09T19:23:42.228Z</time>
      </trkpt>
      <trkpt lat="48.85872" lon="2.34279">
        <ele>91.8</ele>
        <time>2015-03-09T19:23:43.265Z</time>
      </trkpt>
      <trkpt lat="48.85878" lon="2.34285">
        <ele>92.8</ele>
        <time>2015-03-09T19:23:46.289Z</time>
      </trkpt>
      <trkpt lat="48.85879" lon="2.34286">
        <ele>92.9</ele>
        <time>2015-03-09T19:23:47.325Z</time>
      </trkpt>
      <trkpt lat="48.85884" lon="2.34295">
        <ele>93.5</ele>
        <time>2015-03-09T19:23:51.275Z</time>
      </trkpt>
      <trkpt lat="48.85887" lon="2.34298">
        <ele>93.7</ele>
        <time>2015-03-09T19:23:52.220Z</time>
      </trkpt>
      <trkpt lat="48.85894" lon="2.34304">
        <ele>93.6</ele>
        <time>2015-03-09T19:23:54.264Z</time>
      </trkpt>
      <trkpt lat="48.85898" lon="2.34306">
        <ele>93.7</ele>
        <time>2015-03-09T19:23:55.279Z</time>
      </trkpt>
      <trkpt lat="48.85901" lon="2.34308">
        <ele>93.8</ele>
        <time>2015-03-09T19:23:56.208Z</time>
      </trkpt>
      <trkpt lat="48.85907" lon="2.34311">
        <ele>94</ele>
        <time>2015-03-09T19:23:57.263Z</time>
      </trkpt>
      <trkpt lat="48.85914" lon="2.34313">
        <ele>94.4</ele>
        <time>2015-03-09T19:23:58.247Z</time>
      </trkpt>
      <trkpt lat="48.85919" lon="2.34315">
        <ele>94.6</ele>
        <time>2015-03-09T19:23:59.255Z</time>
      </trkpt>
      <trkpt lat="48.85926" lon="2.34313">
        <ele>94.2</ele>
        <time>2015-03-09T19:24:00.256Z</time>
      </trkpt>
      <trkpt lat="48.85932" lon="2.34311">
        <ele>93.9</ele>
        <time>2015-03-09T19:24:01.275Z</time>
      </trkpt>
      <trkpt lat="48.85942" lon="2.34306">
        <ele>92.3</ele>
        <time>2015-03-09T19:24:02.207Z</time>
      </trkpt>
      <trkpt lat="48.85951" lon="2.34302">
        <ele>91.3</ele>
        <time>2015-03-09T19:24:04.342Z</time>
      </trkpt>
      <trkpt lat="48.85954" lon="2.34302">
        <ele>91.6</ele>
        <time>2015-03-09T19:24:05.246Z</time>
      </trkpt>
      <trkpt lat="48.85961" lon="2.343">
        <ele>92</ele>
        <time>2015-03-09T19:24:07.289Z</time>
      </trkpt>
      <trkpt lat="48.85963" lon="2.34299">
        <ele>92.6</ele>
        <time>2015-03-09T19:24:08.307Z</time>
      </trkpt>
      <trkpt lat="48.85971" lon="2.34298">
        <ele>95.7</ele>
        <time>2015-03-09T19:24:15.221Z</time>
      </trkpt>
      <trkpt lat="48.85972" lon="2.34293">
        <ele>96.2</ele>
        <time>2015-03-09T19:24:16.245Z</time>
      </trkpt>
      <trkpt lat="48.85971" lon="2.34285">
        <ele>96.1</ele>
        <time>2015-03-09T19:24:18.274Z</time>
      </trkpt>
      <trkpt lat="48.85971" lon="2.34279">
        <ele>95.9</ele>
        <time>2015-03-09T19:24:19.288Z</time>
      </trkpt>
      <trkpt lat="48.85971" lon="2.34265">
        <ele>94.8</ele>
        <time>2015-03-09T19:24:22.242Z</time>
      </trkpt>
      <trkpt lat="48.85972" lon="2.34262">
        <ele>94.7</ele>
        <time>2015-03-09T19:24:23.290Z</time>
      </trkpt>
      <trkpt lat="48.8597" lon="2.34254">
        <ele>94.2</ele>
        <time>2015-03-09T19:24:28.291Z</time>
      </trkpt>
      <trkpt lat="48.85969" lon="2.34253">
        <ele>94.2</ele>
        <time>2015-03-09T19:24:29.197Z</time>
      </trkpt>
      <trkpt lat="48.85968" lon="2.34252">
        <ele>94.1</ele>
        <time>2015-03-09T19:24:30.220Z</time>
      </trkpt>
      <trkpt lat="48.85961" lon="2.34248">
        <ele>92.8</ele>
        <time>2015-03-09T19:24:34.201Z</time>
      </trkpt>
      <trkpt lat="48.85959" lon="2.34247">
        <ele>92.5</ele>
        <time>2015-03-09T19:24:35.201Z</time>
      </trkpt>
      <trkpt lat="48.85954" lon="2.34243">
        <ele>91.5</ele>
        <time>2015-03-09T19:24:37.240Z</time>
      </trkpt>
      <trkpt lat="48.85951" lon="2.34242">
        <ele>91.3</ele>
        <time>2015-03-09T19:24:38.210Z</time>
      </trkpt>
      <trkpt lat="48.85944" lon="2.34238">
        <ele>91.1</ele>
        <time>2015-03-09T19:24:40.242Z</time>
      </trkpt>
      <trkpt lat="48.85941" lon="2.34235">
        <ele>90.8</ele>
        <time>2015-03-09T19:24:41.251Z</time>
      </trkpt>
      <trkpt lat="48.85936" lon="2.34231">
        <ele>90.2</ele>
        <time>2015-03-09T19:24:43.288Z</time>
      </trkpt>
      <trkpt lat="48.85932" lon="2.34229">
        <ele>89.9</ele>
        <time>2015-03-09T19:24:44.203Z</time>
      </trkpt>
      <trkpt lat="48.85926" lon="2.3422">
        <ele>89.8</ele>
        <time>2015-03-09T19:24:50.295Z</time>
      </trkpt>
      <trkpt lat="48.85928" lon="2.34213">
        <ele>89.3</ele>
        <time>2015-03-09T19:24:51.205Z</time>
      </trkpt>
      <trkpt lat="48.85932" lon="2.34206">
        <ele>88.7</ele>
        <time>2015-03-09T19:24:52.201Z</time>
      </trkpt>
      <trkpt lat="48.85935" lon="2.34196">
        <ele>88.6</ele>
        <time>2015-03-09T19:24:53.217Z</time>
      </trkpt>
      <trkpt lat="48.85937" lon="2.34187">
        <ele>88.8</ele>
        <time>2015-03-09T19:24:54.280Z</time>
      </trkpt>
      <trkpt lat="48.85938" lon="2.34177">
        <ele>89</ele>
        <time>2015-03-09T19:24:55.292Z</time>
      </trkpt>
      <trkpt lat="48.8594" lon="2.34167">
        <ele>88.9</ele>
        <time>2015-03-09T19:24:56.193Z</time>
      </trkpt>
      <trkpt lat="48.85942" lon="2.34159">
        <ele>88.8</ele>
        <time>2015-03-09T19:24:57.194Z</time>
      </trkpt>
      <trkpt lat="48.85943" lon="2.34151">
        <ele>88.7</ele>
        <time>2015-03-09T19:24:58.220Z</time>
      </trkpt>
      <trkpt lat="48.85945" lon="2.34145">
        <ele>89</ele>
        <time>2015-03-09T19:24:59.211Z</time>
      </trkpt>
      <trkpt lat="48.85947" lon="2.34133">
        <ele>89.7</ele>
        <time>2015-03-09T19:25:01.249Z</time>
      </trkpt>
      <trkpt lat="48.85948" lon="2.34127">
        <ele>89.6</ele>
        <time>2015-03-09T19:25:02.253Z</time>
      </trkpt>
      <trkpt lat="48.85952" lon="2.34117">
        <ele>89.2</ele>
        <time>2015-03-09T19:25:04.196Z</time>
      </trkpt>
      <trkpt lat="48.85954" lon="2.34112">
        <ele>89.4</ele>
        <time>2015-03-09T19:25:05.232Z</time>
      </trkpt>
      <trkpt lat="48.85958" lon="2.34104">
        <ele>89.6</ele>
        <time>2015-03-09T19:25:07.287Z</time>
      </trkpt>
      <trkpt lat="48.8596" lon="2.341">
        <ele>89.7</ele>
        <time>2015-03-09T19:25:08.201Z</time>
      </trkpt>
      <trkpt lat="48.85965" lon="2.34093">
        <ele>88.9</ele>
        <time>2015-03-09T19:25:11.241Z</time>
      </trkpt>
      <trkpt lat="48.85967" lon="2.34091">
        <ele>88.5</ele>
        <time>2015-03-09T19:25:12.277Z</time>
      </trkpt>
      <trkpt lat="48.85973" lon="2.34088">
        <ele>86.3</ele>
        <time>2015-03-09T19:25:19.271Z</time>
      </trkpt>
      <trkpt lat="48.85977" lon="2.34087">
        <ele>86.1</ele>
        <time>2015-03-09T19:25:20.282Z</time>
      </trkpt>
      <trkpt lat="48.85984" lon="2.34088">
        <ele>86.2</ele>
        <time>2015-03-09T19:25:23.215Z</time>
      </trkpt>
      <trkpt lat="48.85988" lon="2.34089">
        <ele>86.4</ele>
        <time>2015-03-09T19:25:24.221Z</time>
      </trkpt>
      <trkpt lat="48.85995" lon="2.34091">
        <ele>86.7</ele>
        <time>2015-03-09T19:25:28.222Z</time>
      </trkpt>
      <trkpt lat="48.85997" lon="2.34092">
        <ele>86.7</ele>
        <time>2015-03-09T19:25:29.251Z</time>
      </trkpt>
      <trkpt lat="48.86003" lon="2.34096">
        <ele>86.9</ele>
        <time>2015-03-09T19:25:32.332Z</time>
      </trkpt>
      <trkpt lat="48.86005" lon="2.34098">
        <ele>87.2</ele>
        <time>2015-03-09T19:25:33.290Z</time>
      </trkpt>
      <trkpt lat="48.86012" lon="2.34103">
        <ele>87.1</ele>
        <time>2015-03-09T19:25:36.226Z</time>
      </trkpt>
      <trkpt lat="48.86015" lon="2.34103">
        <ele>87.2</ele>
        <time>2015-03-09T19:25:37.313Z</time>
      </trkpt>
      <trkpt lat="48.86023" lon="2.34098">
        <ele>86.9</ele>
        <time>2015-03-09T19:25:40.213Z</time>
      </trkpt>
      <trkpt lat="48.86026" lon="2.34096">
        <ele>87.1</ele>
        <time>2015-03-09T19:25:41.325Z</time>
      </trkpt>
      <trkpt lat="48.86032" lon="2.34087">
        <ele>87.3</ele>
        <time>2015-03-09T19:25:44.211Z</time>
      </trkpt>
      <trkpt lat="48.86032" lon="2.34083">
        <ele>87.3</ele>
        <time>2015-03-09T19:25:45.222Z</time>
      </trkpt>
      <trkpt lat="48.86037" lon="2.34073">
        <ele>87.8</ele>
        <time>2015-03-09T19:25:49.258Z</time>
      </trkpt>
      <trkpt lat="48.86038" lon="2.34072">
        <ele>88.1</ele>
        <time>2015-03-09T19:25:50.211Z</time>
      </trkpt>
      <trkpt lat="48.86042" lon="2.34062">
        <ele>91.5</ele>
        <time>2015-03-09T19:26:09.198Z</time>
      </trkpt>
      <trkpt lat="48.86044" lon="2.3406">
        <ele>91.8</ele>
        <time>2015-03-09T19:26:10.263Z</time>
      </trkpt>
      <trkpt lat="48.8605" lon="2.34055">
        <ele>92</ele>
        <time>2015-03-09T19:26:13.211Z</time>
      </trkpt>
      <trkpt lat="48.86052" lon="2.34054">
        <ele>92.3</ele>
        <time>2015-03-09T19:26:14.264Z</time>
      </trkpt>
      <trkpt lat="48.8606" lon="2.34052">
        <ele>93.4</ele>
        <time>2015-03-09T19:26:18.239Z</time>
      </trkpt>
      <trkpt lat="48.86062" lon="2.34053">
        <ele>93.7</ele>
        <time>2015-03-09T19:26:19.362Z</time>
      </trkpt>
      <trkpt lat="48.86069" lon="2.34054">
        <ele>94.3</ele>
        <time>2015-03-09T19:26:22.233Z</time>
      </trkpt>
      <trkpt lat="48.86071" lon="2.34055">
        <ele>94.4</ele>
        <time>2015-03-09T19:26:23.249Z</time>
      </trkpt>
      <trkpt lat="48.86079" lon="2.34055">
        <ele>94.4</ele>
        <time>2015-03-09T19:26:26.317Z</time>
      </trkpt>
      <trkpt lat="48.86081" lon="2.34054">
        <ele>94.5</ele>
        <time>2015-03-09T19:26:27.228Z</time>
      </trkpt>
      <trkpt lat="48.86089" lon="2.34049">
        <ele>95.1</ele>
        <time>2015-03-09T19:26:30.327Z</time>
      </trkpt>
      <trkpt lat="48.86092" lon="2.34046">
        <ele>95.9</ele>
        <time>2015-03-09T19:26:31.369Z</time>
      </trkpt>
      <trkpt lat="48.86096" lon="2.34037">
        <ele>96.8</ele>
        <time>2015-03-09T19:26:34.267Z</time>
      </trkpt>
      <trkpt lat="48.86097" lon="2.34034">
        <ele>96.9</ele>
        <time>2015-03-09T19:26:35.283Z</time>
      </trkpt>
      <trkpt lat="48.86102" lon="2.34025">
        <ele>97.1</ele>
        <time>2015-03-09T19:26:38.429Z</time>
      </trkpt>
      <trkpt lat="48.86103" lon="2.34022">
        <ele>97</ele>
        <time>2015-03-09T19:26:39.259Z</time>
      </trkpt>
      <trkpt lat="48.86106" lon="2.34012">
        <ele>97.3</ele>
        <time>2015-03-09T19:26:41.302Z</time>
      </trkpt>
      <trkpt lat="48.86108" lon="2.34006">
        <ele>97.3</ele>
        <time>2015-03-09T19:26:42.349Z</time>
      </trkpt>
      <trkpt lat="48.86109" lon="2.33999">
        <ele>97</ele>
        <time>2015-03-09T19:26:43.444Z</time>
      </trkpt>
      <trkpt lat="48.86111" lon="2.33993">
        <ele>96.9</ele>
        <time>2015-03-09T19:26:44.245Z</time>
      </trkpt>
      <trkpt lat="48.86114" lon="2.33981">
        <ele>96.6</ele>
        <time>2015-03-09T19:26:46.270Z</time>
      </trkpt>
      <trkpt lat="48.86116" lon="2.33975">
        <ele>96.6</ele>
        <time>2015-03-09T19:26:47.278Z</time>
      </trkpt>
      <trkpt lat="48.8612" lon="2.33964">
        <ele>96.4</ele>
        <time>2015-03-09T19:26:49.240Z</time>
      </trkpt>
      <trkpt lat="48.86122" lon="2.33958">
        <ele>96.1</ele>
        <time>2015-03-09T19:26:50.232Z</time>
      </trkpt>
      <trkpt lat="48.86126" lon="2.33946">
        <ele>96</ele>
        <time>2015-03-09T19:26:52.283Z</time>
      </trkpt>
      <trkpt lat="48.86127" lon="2.3394">
        <ele>95.8</ele>
        <time>2015-03-09T19:26:53.219Z</time>
      </trkpt>
      <trkpt lat="48.86131" lon="2.3393">
        <ele>95.3</ele>
        <time>2015-03-09T19:26:55.233Z</time>
      </trkpt>
      <trkpt lat="48.86133" lon="2.33925">
        <ele>95.2</ele>
        <time>2015-03-09T19:26:56.243Z</time>
      </trkpt>
      <trkpt lat="48.86136" lon="2.33913">
        <ele>95.4</ele>
        <time>2015-03-09T19:26:58.201Z</time>
      </trkpt>
      <trkpt lat="48.86138" lon="2.33908">
        <ele>95.4</ele>
        <time>2015-03-09T19:26:59.356Z</time>
      </trkpt>
      <trkpt lat="48.86141" lon="2.33898">
        <ele>95.6</ele>
        <time>2015-03-09T19:27:01.248Z</time>
      </trkpt>
      <trkpt lat="48.86142" lon="2.33893">
        <ele>95.4</ele>
        <time>2015-03-09T19:27:02.263Z</time>
      </trkpt>
      <trkpt lat="48.86145" lon="2.33885">
        <ele>95.1</ele>
        <time>2015-03-09T19:27:04.288Z</time>
      </trkpt>
      <trkpt lat="48.86146" lon="2.3388">
        <ele>95</ele>
        <time>2015-03-09T19:27:05.296Z</time>
      </trkpt>
      <trkpt lat="48.8615" lon="2.33871">
        <ele>94.1</ele>
        <time>2015-03-09T19:27:07.315Z</time>
      </trkpt>
      <trkpt lat="48.86152" lon="2.33866">
        <ele>94</ele>
        <time>2015-03-09T19:27:08.224Z</time>
      </trkpt>
      <trkpt lat="48.86156" lon="2.33855">
        <ele>93.7</ele>
        <time>2015-03-09T19:27:10.245Z</time>
      </trkpt>
      <trkpt lat="48.86158" lon="2.3385">
        <ele>93.6</ele>
        <time>2015-03-09T19:27:11.252Z</time>
      </trkpt>
      <trkpt lat="48.86162" lon="2.3384">
        <ele>94</ele>
        <time>2015-03-09T19:27:13.273Z</time>
      </trkpt>
      <trkpt lat="48.86164" lon="2.33834">
        <ele>94.1</ele>
        <time>2015-03-09T19:27:14.299Z</time>
      </trkpt>
      <trkpt lat="48.86168" lon="2.33822">
        <ele>94.1</ele>
        <time>2015-03-09T19:27:16.213Z</time>
      </trkpt>
      <trkpt lat="48.86169" lon="2.33817">
        <ele>94</ele>
        <time>2015-03-09T19:27:17.226Z</time>
      </trkpt>
      <trkpt lat="48.86173" lon="2.33809">
        <ele>93.7</ele>
        <time>2015-03-09T19:27:19.261Z</time>
      </trkpt>
      <trkpt lat="48.86174" lon="2.33805">
        <ele>93.5</ele>
        <time>2015-03-09T19:27:20.472Z</time>
      </trkpt>
      <trkpt lat="48.86176" lon="2.33792">
        <ele>93.2</ele>
        <time>2015-03-09T19:27:23.297Z</time>
      </trkpt>
      <trkpt lat="48.86177" lon="2.33787">
        <ele>93.3</ele>
        <time>2015-03-09T19:27:24.206Z</time>
      </trkpt>
      <trkpt lat="48.8618" lon="2.33777">
        <ele>93.2</ele>
        <time>2015-03-09T19:27:26.214Z</time>
      </trkpt>
      <trkpt lat="48.86181" lon="2.33772">
        <ele>93.1</ele>
        <time>2015-03-09T19:27:27.309Z</time>
      </trkpt>
      <trkpt lat="48.86184" lon="2.33763">
        <ele>92.9</ele>
        <time>2015-03-09T19:27:29.243Z</time>
      </trkpt>
      <trkpt lat="48.86185" lon="2.33758">
        <ele>92.8</ele>
        <time>2015-03-09T19:27:30.257Z</time>
      </trkpt>
      <trkpt lat="48.86187" lon="2.33749">
        <ele>92.6</ele>
        <time>2015-03-09T19:27:32.294Z</time>
      </trkpt>
      <trkpt lat="48.86189" lon="2.33744">
        <ele>92.4</ele>
        <time>2015-03-09T19:27:33.191Z</time>
      </trkpt>
      <trkpt lat="48.86192" lon="2.33735">
        <ele>92.1</ele>
        <time>2015-03-09T19:27:35.221Z</time>
      </trkpt>
      <trkpt lat="48.86194" lon="2.33729">
        <ele>91.9</ele>
        <time>2015-03-09T19:27:36.253Z</time>
      </trkpt>
      <trkpt lat="48.86199" lon="2.33721">
        <ele>91.3</ele>
        <time>2015-03-09T19:27:38.283Z</time>
      </trkpt>
      <trkpt lat="48.86202" lon="2.33717">
        <ele>91.1</ele>
        <time>2015-03-09T19:27:39.292Z</time>
      </trkpt>
      <trkpt lat="48.86206" lon="2.33709">
        <ele>90.8</ele>
        <time>2015-03-09T19:27:41.266Z</time>
      </trkpt>
      <trkpt lat="48.8621" lon="2.33706">
        <ele>90.8</ele>
        <time>2015-03-09T19:27:42.294Z</time>
      </trkpt>
      <trkpt lat="48.86218" lon="2.33706">
        <ele>90.8</ele>
        <time>2015-03-09T19:27:44.208Z</time>
      </trkpt>
      <trkpt lat="48.86224" lon="2.33707">
        <ele>90.6</ele>
        <time>2015-03-09T19:27:45.210Z</time>
      </trkpt>
      <trkpt lat="48.86232" lon="2.33706">
        <ele>90.7</ele>
        <time>2015-03-09T19:27:47.248Z</time>
      </trkpt>
      <trkpt lat="48.86234" lon="2.33703">
        <ele>90.3</ele>
        <time>2015-03-09T19:27:48.256Z</time>
      </trkpt>
      <trkpt lat="48.86241" lon="2.33702">
        <ele>90.3</ele>
        <time>2015-03-09T19:27:50.205Z</time>
      </trkpt>
      <trkpt lat="48.86245" lon="2.33703">
        <ele>90.6</ele>
        <time>2015-03-09T19:27:51.282Z</time>
      </trkpt>
      <trkpt lat="48.86253" lon="2.33706">
        <ele>91.3</ele>
        <time>2015-03-09T19:27:55.261Z</time>
      </trkpt>
      <trkpt lat="48.86255" lon="2.33707">
        <ele>91.3</ele>
        <time>2015-03-09T19:27:56.259Z</time>
      </trkpt>
      <trkpt lat="48.86263" lon="2.33712">
        <ele>93</ele>
        <time>2015-03-09T19:28:01.344Z</time>
      </trkpt>
      <trkpt lat="48.86264" lon="2.33713">
        <ele>93.2</ele>
        <time>2015-03-09T19:28:02.190Z</time>
      </trkpt>
      <trkpt lat="48.86267" lon="2.33724">
        <ele>93.3</ele>
        <time>2015-03-09T19:28:06.249Z</time>
      </trkpt>
      <trkpt lat="48.86267" lon="2.33726">
        <ele>93</ele>
        <time>2015-03-09T19:28:07.289Z</time>
      </trkpt>
      <trkpt lat="48.86268" lon="2.33737">
        <ele>92.8</ele>
        <time>2015-03-09T19:28:11.311Z</time>
      </trkpt>
      <trkpt lat="48.86268" lon="2.3374">
        <ele>92.7</ele>
        <time>2015-03-09T19:28:12.221Z</time>
      </trkpt>
      <trkpt lat="48.86272" lon="2.33749">
        <ele>93.2</ele>
        <time>2015-03-09T19:28:16.300Z</time>
      </trkpt>
      <trkpt lat="48.86274" lon="2.33752">
        <ele>93.6</ele>
        <time>2015-03-09T19:28:17.503Z</time>
      </trkpt>
      <trkpt lat="48.8628" lon="2.33755">
        <ele>93.8</ele>
        <time>2015-03-09T19:28:19.234Z</time>
      </trkpt>
      <trkpt lat="48.86283" lon="2.33757">
        <ele>93.8</ele>
        <time>2015-03-09T19:28:20.257Z</time>
      </trkpt>
      <trkpt lat="48.86291" lon="2.33759">
        <ele>93.8</ele>
        <time>2015-03-09T19:28:22.317Z</time>
      </trkpt>
      <trkpt lat="48.86301" lon="2.3376">
        <ele>93.8</ele>
        <time>2015-03-09T19:28:25.298Z</time>
      </trkpt>
      <trkpt lat="48.86309" lon="2.33761">
        <ele>93.7</ele>
        <time>2015-03-09T19:28:27.265Z</time>
      </trkpt>
      <trkpt lat="48.86313" lon="2.33762">
        <ele>93.7</ele>
        <time>2015-03-09T19:28:28.289Z</time>
      </trkpt>
      <trkpt lat="48.86321" lon="2.33767">
        <ele>93.1</ele>
        <time>2015-03-09T19:28:30.204Z</time>
      </trkpt>
      <trkpt lat="48.86323" lon="2.33769">
        <ele>93.1</ele>
        <time>2015-03-09T19:28:31.260Z</time>
      </trkpt>
      <trkpt lat="48.86329" lon="2.33772">
        <ele>93.1</ele>
        <time>2015-03-09T19:28:33.205Z</time>
      </trkpt>
      <trkpt lat="48.86335" lon="2.33776">
        <ele>93</ele>
        <time>2015-03-09T19:28:35.196Z</time>
      </trkpt>
      <trkpt lat="48.86342" lon="2.33779">
        <ele>92.9</ele>
        <time>2015-03-09T19:28:37.210Z</time>
      </trkpt>
      <trkpt lat="48.86367" lon="2.33791">
        <ele>92.7</ele>
        <time>2015-03-09T19:28:44.247Z</time>
      </trkpt>
      <trkpt lat="48.86374" lon="2.33796">
        <ele>92.7</ele>
        <time>2015-03-09T19:28:46.250Z</time>
      </trkpt>
      <trkpt lat="48.86377" lon="2.33797">
        <ele>92.7</ele>
        <time>2015-03-09T19:28:47.194Z</time>
      </trkpt>
      <trkpt lat="48.86383" lon="2.33801">
        <ele>92.6</ele>
        <time>2015-03-09T19:28:50.279Z</time>
      </trkpt>
      <trkpt lat="48.86387" lon="2.33802">
        <ele>92.5</ele>
        <time>2015-03-09T19:28:50.316Z</time>
      </trkpt>
      <trkpt lat="48.86391" lon="2.33804">
        <ele>92.4</ele>
        <time>2015-03-09T19:28:51.190Z</time>
      </trkpt>
      <trkpt lat="48.86396" lon="2.33806">
        <ele>92.3</ele>
        <time>2015-03-09T19:28:52.199Z</time>
      </trkpt>
      <trkpt lat="48.86404" lon="2.33811">
        <ele>92.2</ele>
        <time>2015-03-09T19:28:54.273Z</time>
      </trkpt>
      <trkpt lat="48.86408" lon="2.33814">
        <ele>92.2</ele>
        <time>2015-03-09T19:28:55.311Z</time>
      </trkpt>
      <trkpt lat="48.86412" lon="2.33817">
        <ele>92.1</ele>
        <time>2015-03-09T19:28:56.203Z</time>
      </trkpt>
      <trkpt lat="48.86416" lon="2.33821">
        <ele>92</ele>
        <time>2015-03-09T19:28:57.219Z</time>
      </trkpt>
      <trkpt lat="48.8642" lon="2.33824">
        <ele>91.8</ele>
        <time>2015-03-09T19:28:58.236Z</time>
      </trkpt>
      <trkpt lat="48.86424" lon="2.33827">
        <ele>91.7</ele>
        <time>2015-03-09T19:28:59.271Z</time>
      </trkpt>
      <trkpt lat="48.86428" lon="2.33829">
        <ele>91.6</ele>
        <time>2015-03-09T19:29:00.172Z</time>
      </trkpt>
      <trkpt lat="48.86433" lon="2.33831">
        <ele>91.5</ele>
        <time>2015-03-09T19:29:01.236Z</time>
      </trkpt>
      <trkpt lat="48.86444" lon="2.33835">
        <ele>91.6</ele>
        <time>2015-03-09T19:29:03.298Z</time>
      </trkpt>
      <trkpt lat="48.86449" lon="2.33838">
        <ele>91.6</ele>
        <time>2015-03-09T19:29:04.238Z</time>
      </trkpt>
      <trkpt lat="48.86454" lon="2.3384">
        <ele>91.6</ele>
        <time>2015-03-09T19:29:05.250Z</time>
      </trkpt>
      <trkpt lat="48.86461" lon="2.33846">
        <ele>91.5</ele>
        <time>2015-03-09T19:29:07.207Z</time>
      </trkpt>
      <trkpt lat="48.86466" lon="2.33849">
        <ele>91.5</ele>
        <time>2015-03-09T19:29:08.227Z</time>
      </trkpt>
      <trkpt lat="48.86472" lon="2.33855">
        <ele>91.5</ele>
        <time>2015-03-09T19:29:10.507Z</time>
      </trkpt>
      <trkpt lat="48.86476" lon="2.33858">
        <ele>91.4</ele>
        <time>2015-03-09T19:29:11.220Z</time>
      </trkpt>
      <trkpt lat="48.86484" lon="2.33863">
        <ele>91.5</ele>
        <time>2015-03-09T19:29:13.498Z</time>
      </trkpt>
      <trkpt lat="48.86488" lon="2.33864">
        <ele>91.6</ele>
        <time>2015-03-09T19:29:14.227Z</time>
      </trkpt>
      <trkpt lat="48.86493" lon="2.33864">
        <ele>91.6</ele>
        <time>2015-03-09T19:29:15.261Z</time>
      </trkpt>
      <trkpt lat="48.86502" lon="2.33865">
        <ele>91.7</ele>
        <time>2015-03-09T19:29:16.261Z</time>
      </trkpt>
      <trkpt lat="48.86511" lon="2.33865">
        <ele>91.9</ele>
        <time>2015-03-09T19:29:17.191Z</time>
      </trkpt>
      <trkpt lat="48.86519" lon="2.33866">
        <ele>91.9</ele>
        <time>2015-03-09T19:29:18.203Z</time>
      </trkpt>
      <trkpt lat="48.86525" lon="2.33867">
        <ele>91.9</ele>
        <time>2015-03-09T19:29:19.234Z</time>
      </trkpt>
      <trkpt lat="48.86575" lon="2.33871">
        <ele>92.2</ele>
        <time>2015-03-09T19:29:28.201Z</time>
      </trkpt>
      <trkpt lat="48.86584" lon="2.33877">
        <ele>93</ele>
        <time>2015-03-09T19:29:30.234Z</time>
      </trkpt>
      <trkpt lat="48.86592" lon="2.33875">
        <ele>93.6</ele>
        <time>2015-03-09T19:29:33.231Z</time>
      </trkpt>
      <trkpt lat="48.86595" lon="2.33875">
        <ele>93.6</ele>
        <time>2015-03-09T19:29:34.261Z</time>
      </trkpt>
      <trkpt lat="48.86604" lon="2.33874">
        <ele>93.7</ele>
        <time>2015-03-09T19:29:38.311Z</time>
      </trkpt>
      <trkpt lat="48.86604" lon="2.33875">
        <ele>93.8</ele>
        <time>2015-03-09T19:29:39.266Z</time>
      </trkpt>
      <trkpt lat="48.86602" lon="2.33876">
        <ele>94</ele>
        <time>2015-03-09T19:29:46.231Z</time>
      </trkpt>
      <trkpt lat="48.86602" lon="2.33876">
        <ele>94</ele>
        <time>2015-03-09T19:29:47.249Z</time>
      </trkpt>
      <trkpt lat="48.86602" lon="2.33877">
        <ele>94</ele>
        <time>2015-03-09T19:29:48.269Z</time>
      </trkpt>
      <trkpt lat="48.86603" lon="2.33876">
        <ele>94</ele>
        <time>2015-03-09T19:29:49.285Z</time>
      </trkpt>
      <trkpt lat="48.86605" lon="2.33877">
        <ele>94</ele>
        <time>2015-03-09T19:29:51.188Z</time>
      </trkpt>
      <trkpt lat="48.86611" lon="2.33885">
        <ele>94</ele>
        <time>2015-03-09T19:30:00.163Z</time>
      </trkpt>
      <trkpt lat="48.8661" lon="2.33895">
        <ele>93.9</ele>
        <time>2015-03-09T19:30:01.308Z</time>
      </trkpt>
      <trkpt lat="48.86611" lon="2.33896">
        <ele>93.9</ele>
        <time>2015-03-09T19:30:04.203Z</time>
      </trkpt>
      <trkpt lat="48.86612" lon="2.33902">
        <ele>93.7</ele>
        <time>2015-03-09T19:30:05.232Z</time>
      </trkpt>
      <trkpt lat="48.86615" lon="2.3391">
        <ele>93.9</ele>
        <time>2015-03-09T19:30:08.266Z</time>
      </trkpt>
      <trkpt lat="48.86614" lon="2.33913">
        <ele>94.2</ele>
        <time>2015-03-09T19:30:09.287Z</time>
      </trkpt>
      <trkpt lat="48.86613" lon="2.33916">
        <ele>94.6</ele>
        <time>2015-03-09T19:30:12.214Z</time>
      </trkpt>
      <trkpt lat="48.86612" lon="2.33918">
        <ele>94.6</ele>
        <time>2015-03-09T19:30:13.234Z</time>
      </trkpt>
      <trkpt lat="48.86616" lon="2.3392">
        <ele>96.2</ele>
        <time>2015-03-09T19:30:25.191Z</time>
      </trkpt>
      <trkpt lat="48.86616" lon="2.33919">
        <ele>96.4</ele>
        <time>2015-03-09T19:30:26.189Z</time>
      </trkpt>
      <trkpt lat="48.86616" lon="2.33919">
        <ele>96.4</ele>
        <time>2015-03-09T19:30:27.206Z</time>
      </trkpt>
      <trkpt lat="48.86616" lon="2.33918">
        <ele>96.4</ele>
        <time>2015-03-09T19:30:28.228Z</time>
      </trkpt>
      <trkpt lat="48.86617" lon="2.33918">
        <ele>96.4</ele>
        <time>2015-03-09T19:30:29.174Z</time>
      </trkpt>
      <trkpt lat="48.86624" lon="2.33913">
        <ele>96.3</ele>
        <time>2015-03-09T19:30:35.203Z</time>
      </trkpt>
      <trkpt lat="48.86626" lon="2.33912">
        <ele>96.4</ele>
        <time>2015-03-09T19:30:36.209Z</time>
      </trkpt>
      <trkpt lat="48.86634" lon="2.33909">
        <ele>96.4</ele>
        <time>2015-03-09T19:30:39.240Z</time>
      </trkpt>
      <trkpt lat="48.86637" lon="2.33907">
        <ele>96.5</ele>
        <time>2015-03-09T19:30:40.292Z</time>
      </trkpt>
      <trkpt lat="48.86643" lon="2.33898">
        <ele>96</ele>
        <time>2015-03-09T19:30:42.195Z</time>
      </trkpt>
      <trkpt lat="48.86646" lon="2.33893">
        <ele>95.7</ele>
        <time>2015-03-09T19:30:43.248Z</time>
      </trkpt>
      <trkpt lat="48.86654" lon="2.33889">
        <ele>95.8</ele>
        <time>2015-03-09T19:30:47.246Z</time>
      </trkpt>
      <trkpt lat="48.86656" lon="2.33891">
        <ele>96.1</ele>
        <time>2015-03-09T19:30:48.260Z</time>
      </trkpt>
      <trkpt lat="48.86661" lon="2.33897">
        <ele>96.5</ele>
        <time>2015-03-09T19:30:50.171Z</time>
      </trkpt>
      <trkpt lat="48.86663" lon="2.339">
        <ele>96.7</ele>
        <time>2015-03-09T19:30:51.186Z</time>
      </trkpt>
      <trkpt lat="48.8667" lon="2.33909">
        <ele>96.9</ele>
        <time>2015-03-09T19:30:53.249Z</time>
      </trkpt>
      <trkpt lat="48.86674" lon="2.33911">
        <ele>96.8</ele>
        <time>2015-03-09T19:30:54.255Z</time>
      </trkpt>
      <trkpt lat="48.8668" lon="2.33907">
        <ele>98.1</ele>
        <time>2015-03-09T19:30:55.273Z</time>
      </trkpt>
      <trkpt lat="48.86683" lon="2.33907">
        <ele>98.3</ele>
        <time>2015-03-09T19:30:56.272Z</time>
      </trkpt>
      <trkpt lat="48.86689" lon="2.33906">
        <ele>99.1</ele>
        <time>2015-03-09T19:30:58.194Z</time>
      </trkpt>
      <trkpt lat="48.86693" lon="2.33905">
        <ele>99.3</ele>
        <time>2015-03-09T19:30:59.266Z</time>
      </trkpt>
      <trkpt lat="48.867" lon="2.33907">
        <ele>99.3</ele>
        <time>2015-03-09T19:31:01.297Z</time>
      </trkpt>
      <trkpt lat="48.86704" lon="2.33908">
        <ele>99.4</ele>
        <time>2015-03-09T19:31:02.204Z</time>
      </trkpt>
      <trkpt lat="48.86708" lon="2.3391">
        <ele>99.3</ele>
        <time>2015-03-09T19:31:03.213Z</time>
      </trkpt>
      <trkpt lat="48.86713" lon="2.33912">
        <ele>99.5</ele>
        <time>2015-03-09T19:31:04.289Z</time>
      </trkpt>
      <trkpt lat="48.86718" lon="2.33915">
        <ele>99.5</ele>
        <time>2015-03-09T19:31:05.185Z</time>
      </trkpt>
      <trkpt lat="48.86724" lon="2.33918">
        <ele>99.5</ele>
        <time>2015-03-09T19:31:06.179Z</time>
      </trkpt>
      <trkpt lat="48.8673" lon="2.33919">
        <ele>99.6</ele>
        <time>2015-03-09T19:31:07.224Z</time>
      </trkpt>
      <trkpt lat="48.86735" lon="2.3392">
        <ele>99.6</ele>
        <time>2015-03-09T19:31:08.231Z</time>
      </trkpt>
      <trkpt lat="48.86741" lon="2.33921">
        <ele>99.5</ele>
        <time>2015-03-09T19:31:09.255Z</time>
      </trkpt>
      <trkpt lat="48.86746" lon="2.33922">
        <ele>99.5</ele>
        <time>2015-03-09T19:31:10.264Z</time>
      </trkpt>
      <trkpt lat="48.86752" lon="2.33924">
        <ele>99.4</ele>
        <time>2015-03-09T19:31:11.263Z</time>
      </trkpt>
      <trkpt lat="48.86757" lon="2.33927">
        <ele>99.3</ele>
        <time>2015-03-09T19:31:12.193Z</time>
      </trkpt>
      <trkpt lat="48.86762" lon="2.33929">
        <ele>99.1</ele>
        <time>2015-03-09T19:31:13.217Z</time>
      </trkpt>
      <trkpt lat="48.86768" lon="2.33931">
        <ele>98.8</ele>
        <time>2015-03-09T19:31:14.221Z</time>
      </trkpt>
      <trkpt lat="48.86774" lon="2.33933">
        <ele>98.6</ele>
        <time>2015-03-09T19:31:15.258Z</time>
      </trkpt>
      <trkpt lat="48.8678" lon="2.33938">
        <ele>98.5</ele>
        <time>2015-03-09T19:31:16.280Z</time>
      </trkpt>
      <trkpt lat="48.86785" lon="2.33943">
        <ele>98.2</ele>
        <time>2015-03-09T19:31:17.169Z</time>
      </trkpt>
      <trkpt lat="48.86791" lon="2.33948">
        <ele>98.1</ele>
        <time>2015-03-09T19:31:18.189Z</time>
      </trkpt>
      <trkpt lat="48.86795" lon="2.33952">
        <ele>98</ele>
        <time>2015-03-09T19:31:19.243Z</time>
      </trkpt>
      <trkpt lat="48.868" lon="2.33956">
        <ele>97.8</ele>
        <time>2015-03-09T19:31:20.243Z</time>
      </trkpt>
      <trkpt lat="48.86806" lon="2.33961">
        <ele>97.5</ele>
        <time>2015-03-09T19:31:21.251Z</time>
      </trkpt>
      <trkpt lat="48.8681" lon="2.33965">
        <ele>97.2</ele>
        <time>2015-03-09T19:31:22.264Z</time>
      </trkpt>
      <trkpt lat="48.86814" lon="2.33969">
        <ele>96.9</ele>
        <time>2015-03-09T19:31:23.190Z</time>
      </trkpt>
      <trkpt lat="48.86819" lon="2.33973">
        <ele>96.3</ele>
        <time>2015-03-09T19:31:24.190Z</time>
      </trkpt>
      <trkpt lat="48.86831" lon="2.33977">
        <ele>93.8</ele>
        <time>2015-03-09T19:31:25.224Z</time>
      </trkpt>
      <trkpt lat="48.86839" lon="2.33981">
        <ele>92.5</ele>
        <time>2015-03-09T19:31:26.243Z</time>
      </trkpt>
      <trkpt lat="48.86846" lon="2.33985">
        <ele>91.6</ele>
        <time>2015-03-09T19:31:27.249Z</time>
      </trkpt>
      <trkpt lat="48.86854" lon="2.33988">
        <ele>90.9</ele>
        <time>2015-03-09T19:31:28.205Z</time>
      </trkpt>
      <trkpt lat="48.8686" lon="2.33995">
        <ele>90.4</ele>
        <time>2015-03-09T19:31:29.220Z</time>
      </trkpt>
      <trkpt lat="48.86866" lon="2.34">
        <ele>90.1</ele>
        <time>2015-03-09T19:31:30.257Z</time>
      </trkpt>
      <trkpt lat="48.86872" lon="2.34004">
        <ele>90.3</ele>
        <time>2015-03-09T19:31:31.280Z</time>
      </trkpt>
      <trkpt lat="48.86879" lon="2.34006">
        <ele>89.8</ele>
        <time>2015-03-09T19:31:32.190Z</time>
      </trkpt>
      <trkpt lat="48.86884" lon="2.34008">
        <ele>89.4</ele>
        <time>2015-03-09T19:31:33.196Z</time>
      </trkpt>
      <trkpt lat="48.86888" lon="2.34011">
        <ele>89.4</ele>
        <time>2015-03-09T19:31:34.209Z</time>
      </trkpt>
      <trkpt lat="48.86892" lon="2.34013">
        <ele>89.3</ele>
        <time>2015-03-09T19:31:35.211Z</time>
      </trkpt>
      <trkpt lat="48.86901" lon="2.34017">
        <ele>89.3</ele>
        <time>2015-03-09T19:31:37.296Z</time>
      </trkpt>
      <trkpt lat="48.86904" lon="2.3402">
        <ele>89.5</ele>
        <time>2015-03-09T19:31:38.197Z</time>
      </trkpt>
      <trkpt lat="48.86912" lon="2.34024">
        <ele>89.5</ele>
        <time>2015-03-09T19:31:40.269Z</time>
      </trkpt>
      <trkpt lat="48.86914" lon="2.34026">
        <ele>89.6</ele>
        <time>2015-03-09T19:31:41.195Z</time>
      </trkpt>
      <trkpt lat="48.86921" lon="2.34029">
        <ele>90.3</ele>
        <time>2015-03-09T19:31:47.191Z</time>
      </trkpt>
      <trkpt lat="48.86925" lon="2.34026">
        <ele>90</ele>
        <time>2015-03-09T19:31:48.211Z</time>
      </trkpt>
      <trkpt lat="48.86927" lon="2.34025">
        <ele>89</ele>
        <time>2015-03-09T19:31:50.249Z</time>
      </trkpt>
      <trkpt lat="48.86928" lon="2.34027">
        <ele>89.3</ele>
        <time>2015-03-09T19:31:51.251Z</time>
      </trkpt>
      <trkpt lat="48.86929" lon="2.34028">
        <ele>89.8</ele>
        <time>2015-03-09T19:31:55.250Z</time>
      </trkpt>
      <trkpt lat="48.86931" lon="2.34029">
        <ele>90</ele>
        <time>2015-03-09T19:31:56.254Z</time>
      </trkpt>
      <trkpt lat="48.86937" lon="2.34023">
        <ele>89.3</ele>
        <time>2015-03-09T19:32:03.273Z</time>
      </trkpt>
      <trkpt lat="48.86939" lon="2.34022">
        <ele>89.2</ele>
        <time>2015-03-09T19:32:04.375Z</time>
      </trkpt>
      <trkpt lat="48.86944" lon="2.34011">
        <ele>88.8</ele>
        <time>2015-03-09T19:32:08.358Z</time>
      </trkpt>
      <trkpt lat="48.86946" lon="2.34008">
        <ele>88.7</ele>
        <time>2015-03-09T19:32:09.213Z</time>
      </trkpt>
      <trkpt lat="48.86949" lon="2.33997">
        <ele>88.3</ele>
        <time>2015-03-09T19:32:12.266Z</time>
      </trkpt>
      <trkpt lat="48.8695" lon="2.33993">
        <ele>88.1</ele>
        <time>2015-03-09T19:32:13.327Z</time>
      </trkpt>
      <trkpt lat="48.86952" lon="2.3398">
        <ele>87.7</ele>
        <time>2015-03-09T19:32:16.235Z</time>
      </trkpt>
      <trkpt lat="48.86953" lon="2.33976">
        <ele>87.9</ele>
        <time>2015-03-09T19:32:17.253Z</time>
      </trkpt>
      <trkpt lat="48.86955" lon="2.33965">
        <ele>88.8</ele>
        <time>2015-03-09T19:32:22.241Z</time>
      </trkpt>
      <trkpt lat="48.86957" lon="2.33964">
        <ele>89.1</ele>
        <time>2015-03-09T19:32:23.263Z</time>
      </trkpt>
      <trkpt lat="48.86962" lon="2.33954">
        <ele>88.6</ele>
        <time>2015-03-09T19:32:26.231Z</time>
      </trkpt>
      <trkpt lat="48.86964" lon="2.33952">
        <ele>88.4</ele>
        <time>2015-03-09T19:32:27.266Z</time>
      </trkpt>
      <trkpt lat="48.86967" lon="2.33943">
        <ele>88.2</ele>
        <time>2015-03-09T19:32:30.215Z</time>
      </trkpt>
      <trkpt lat="48.86969" lon="2.33939">
        <ele>88.2</ele>
        <time>2015-03-09T19:32:31.253Z</time>
      </trkpt>
      <trkpt lat="48.8697" lon="2.33927">
        <ele>89.4</ele>
        <time>2015-03-09T19:32:35.260Z</time>
      </trkpt>
      <trkpt lat="48.86971" lon="2.33926">
        <ele>89.8</ele>
        <time>2015-03-09T19:32:36.279Z</time>
      </trkpt>
      <trkpt lat="48.86978" lon="2.33921">
        <ele>92.1</ele>
        <time>2015-03-09T19:32:39.213Z</time>
      </trkpt>
      <trkpt lat="48.8698" lon="2.3392">
        <ele>92.7</ele>
        <time>2015-03-09T19:32:40.232Z</time>
      </trkpt>
      <trkpt lat="48.86988" lon="2.33918">
        <ele>93.9</ele>
        <time>2015-03-09T19:32:43.334Z</time>
      </trkpt>
      <trkpt lat="48.86989" lon="2.33919">
        <ele>94.6</ele>
        <time>2015-03-09T19:32:44.213Z</time>
      </trkpt>
      <trkpt lat="48.86998" lon="2.33919">
        <ele>97.4</ele>
        <time>2015-03-09T19:32:49.288Z</time>
      </trkpt>
      <trkpt lat="48.87001" lon="2.33919">
        <ele>97.7</ele>
        <time>2015-03-09T19:32:50.304Z</time>
      </trkpt>
      <trkpt lat="48.87009" lon="2.33922">
        <ele>98.4</ele>
        <time>2015-03-09T19:32:52.210Z</time>
      </trkpt>
      <trkpt lat="48.87011" lon="2.33923">
        <ele>98.6</ele>
        <time>2015-03-09T19:32:53.235Z</time>
      </trkpt>
      <trkpt lat="48.87017" lon="2.33925">
        <ele>99</ele>
        <time>2015-03-09T19:32:55.322Z</time>
      </trkpt>
      <trkpt lat="48.8702" lon="2.33926">
        <ele>99.2</ele>
        <time>2015-03-09T19:32:56.199Z</time>
      </trkpt>
      <trkpt lat="48.87028" lon="2.33929">
        <ele>99.4</ele>
        <time>2015-03-09T19:32:59.230Z</time>
      </trkpt>
      <trkpt lat="48.8703" lon="2.33931">
        <ele>99.3</ele>
        <time>2015-03-09T19:33:00.320Z</time>
      </trkpt>
      <trkpt lat="48.87037" lon="2.33926">
        <ele>97.9</ele>
        <time>2015-03-09T19:33:02.234Z</time>
      </trkpt>
      <trkpt lat="48.87039" lon="2.33925">
        <ele>97.9</ele>
        <time>2015-03-09T19:33:03.253Z</time>
      </trkpt>
      <trkpt lat="48.87044" lon="2.33919">
        <ele>97.5</ele>
        <time>2015-03-09T19:33:06.303Z</time>
      </trkpt>
      <trkpt lat="48.87046" lon="2.33915">
        <ele>97.1</ele>
        <time>2015-03-09T19:33:07.239Z</time>
      </trkpt>
      <trkpt lat="48.87051" lon="2.33904">
        <ele>96</ele>
        <time>2015-03-09T19:33:10.385Z</time>
      </trkpt>
      <trkpt lat="48.87052" lon="2.33901">
        <ele>95.8</ele>
        <time>2015-03-09T19:33:11.216Z</time>
      </trkpt>
      <trkpt lat="48.87054" lon="2.3389">
        <ele>95</ele>
        <time>2015-03-09T19:33:14.296Z</time>
      </trkpt>
      <trkpt lat="48.87056" lon="2.33886">
        <ele>94.7</ele>
        <time>2015-03-09T19:33:15.201Z</time>
      </trkpt>
      <trkpt lat="48.8706" lon="2.33877">
        <ele>95</ele>
        <time>2015-03-09T19:33:17.216Z</time>
      </trkpt>
      <trkpt lat="48.87062" lon="2.33872">
        <ele>95</ele>
        <time>2015-03-09T19:33:18.188Z</time>
      </trkpt>
      <trkpt lat="48.87066" lon="2.33865">
        <ele>94.6</ele>
        <time>2015-03-09T19:33:20.189Z</time>
      </trkpt>
      <trkpt lat="48.87068" lon="2.33862">
        <ele>94.6</ele>
        <time>2015-03-09T19:33:21.204Z</time>
      </trkpt>
      <trkpt lat="48.87069" lon="2.33853">
        <ele>93.8</ele>
        <time>2015-03-09T19:33:24.243Z</time>
      </trkpt>
      <trkpt lat="48.87068" lon="2.33849">
        <ele>93.3</ele>
        <time>2015-03-09T19:33:25.284Z</time>
      </trkpt>
      <trkpt lat="48.87067" lon="2.33837">
        <ele>93</ele>
        <time>2015-03-09T19:33:27.194Z</time>
      </trkpt>
      <trkpt lat="48.87067" lon="2.33829">
        <ele>93.4</ele>
        <time>2015-03-09T19:33:28.206Z</time>
      </trkpt>
      <trkpt lat="48.87067" lon="2.33818">
        <ele>93.7</ele>
        <time>2015-03-09T19:33:31.276Z</time>
      </trkpt>
      <trkpt lat="48.87066" lon="2.33816">
        <ele>93.8</ele>
        <time>2015-03-09T19:33:32.292Z</time>
      </trkpt>
      <trkpt lat="48.87061" lon="2.33808">
        <ele>94.5</ele>
        <time>2015-03-09T19:33:35.228Z</time>
      </trkpt>
      <trkpt lat="48.87058" lon="2.33806">
        <ele>94.7</ele>
        <time>2015-03-09T19:33:36.243Z</time>
      </trkpt>
      <trkpt lat="48.87052" lon="2.33803">
        <ele>95.1</ele>
        <time>2015-03-09T19:33:38.182Z</time>
      </trkpt>
      <trkpt lat="48.87049" lon="2.33803">
        <ele>95.1</ele>
        <time>2015-03-09T19:33:39.204Z</time>
      </trkpt>
      <trkpt lat="48.87042" lon="2.33803">
        <ele>95.3</ele>
        <time>2015-03-09T19:33:41.232Z</time>
      </trkpt>
      <trkpt lat="48.87039" lon="2.33803">
        <ele>95.4</ele>
        <time>2015-03-09T19:33:42.263Z</time>
      </trkpt>
      <trkpt lat="48.87032" lon="2.33803">
        <ele>96</ele>
        <time>2015-03-09T19:33:44.263Z</time>
      </trkpt>
      <trkpt lat="48.87028" lon="2.33804">
        <ele>96.5</ele>
        <time>2015-03-09T19:33:45.195Z</time>
      </trkpt>
      <trkpt lat="48.87028" lon="2.33793">
        <ele>96.2</ele>
        <time>2015-03-09T19:33:48.234Z</time>
      </trkpt>
      <trkpt lat="48.87029" lon="2.3379">
        <ele>96.3</ele>
        <time>2015-03-09T19:33:49.268Z</time>
      </trkpt>
      <trkpt lat="48.87035" lon="2.33782">
        <ele>96.1</ele>
        <time>2015-03-09T19:33:52.205Z</time>
      </trkpt>
      <trkpt lat="48.87038" lon="2.33777">
        <ele>96.4</ele>
        <time>2015-03-09T19:33:53.205Z</time>
      </trkpt>
      <trkpt lat="48.87043" lon="2.33768">
        <ele>96.9</ele>
        <time>2015-03-09T19:33:56.291Z</time>
      </trkpt>
      <trkpt lat="48.87044" lon="2.33766">
        <ele>96.9</ele>
        <time>2015-03-09T19:33:57.302Z</time>
      </trkpt>
      <trkpt lat="48.87047" lon="2.33755">
        <ele>97.8</ele>
        <time>2015-03-09T19:34:01.242Z</time>
      </trkpt>
      <trkpt lat="48.87048" lon="2.33751">
        <ele>98.2</ele>
        <time>2015-03-09T19:34:02.252Z</time>
      </trkpt>
      <trkpt lat="48.87056" lon="2.33746">
        <ele>99.4</ele>
        <time>2015-03-09T19:34:06.242Z</time>
      </trkpt>
      <trkpt lat="48.87059" lon="2.33746">
        <ele>99.8</ele>
        <time>2015-03-09T19:34:07.306Z</time>
      </trkpt>
      <trkpt lat="48.87068" lon="2.33744">
        <ele>101</ele>
        <time>2015-03-09T19:34:10.216Z</time>
      </trkpt>
      <trkpt lat="48.87072" lon="2.33744">
        <ele>101.2</ele>
        <time>2015-03-09T19:34:11.231Z</time>
      </trkpt>
      <trkpt lat="48.87079" lon="2.33745">
        <ele>101.7</ele>
        <time>2015-03-09T19:34:13.224Z</time>
      </trkpt>
      <trkpt lat="48.87083" lon="2.33745">
        <ele>102</ele>
        <time>2015-03-09T19:34:14.230Z</time>
      </trkpt>
      <trkpt lat="48.87088" lon="2.33744">
        <ele>102.3</ele>
        <time>2015-03-09T19:34:15.262Z</time>
      </trkpt>
      <trkpt lat="48.87093" lon="2.33742">
        <ele>102.5</ele>
        <time>2015-03-09T19:34:16.267Z</time>
      </trkpt>
      <trkpt lat="48.87097" lon="2.3374">
        <ele>102.6</ele>
        <time>2015-03-09T19:34:17.278Z</time>
      </trkpt>
      <trkpt lat="48.87102" lon="2.33737">
        <ele>102.1</ele>
        <time>2015-03-09T19:34:18.284Z</time>
      </trkpt>
      <trkpt lat="48.87108" lon="2.33733">
        <ele>101.7</ele>
        <time>2015-03-09T19:34:19.291Z</time>
      </trkpt>
      <trkpt lat="48.87114" lon="2.3373">
        <ele>101.4</ele>
        <time>2015-03-09T19:34:20.200Z</time>
      </trkpt>
      <trkpt lat="48.87122" lon="2.33725">
        <ele>100.3</ele>
        <time>2015-03-09T19:34:21.234Z</time>
      </trkpt>
      <trkpt lat="48.87128" lon="2.3372">
        <ele>99.9</ele>
        <time>2015-03-09T19:34:22.257Z</time>
      </trkpt>
      <trkpt lat="48.87134" lon="2.33715">
        <ele>99.8</ele>
        <time>2015-03-09T19:34:24.189Z</time>
      </trkpt>
      <trkpt lat="48.87134" lon="2.33711">
        <ele>99.5</ele>
        <time>2015-03-09T19:34:25.238Z</time>
      </trkpt>
      <trkpt lat="48.87137" lon="2.33702">
        <ele>98.5</ele>
        <time>2015-03-09T19:34:27.250Z</time>
      </trkpt>
      <trkpt lat="48.87139" lon="2.33694">
        <ele>97.5</ele>
        <time>2015-03-09T19:34:28.279Z</time>
      </trkpt>
      <trkpt lat="48.87139" lon="2.33686">
        <ele>97</ele>
        <time>2015-03-09T19:34:29.203Z</time>
      </trkpt>
      <trkpt lat="48.87139" lon="2.33677">
        <ele>96.8</ele>
        <time>2015-03-09T19:34:30.230Z</time>
      </trkpt>
      <trkpt lat="48.87138" lon="2.33667">
        <ele>96.6</ele>
        <time>2015-03-09T19:34:31.266Z</time>
      </trkpt>
      <trkpt lat="48.87137" lon="2.33659">
        <ele>96.3</ele>
        <time>2015-03-09T19:34:32.199Z</time>
      </trkpt>
      <trkpt lat="48.87137" lon="2.33651">
        <ele>96</ele>
        <time>2015-03-09T19:34:33.227Z</time>
      </trkpt>
      <trkpt lat="48.87136" lon="2.33643">
        <ele>95.6</ele>
        <time>2015-03-09T19:34:34.268Z</time>
      </trkpt>
      <trkpt lat="48.87135" lon="2.33635">
        <ele>95.4</ele>
        <time>2015-03-09T19:34:35.280Z</time>
      </trkpt>
      <trkpt lat="48.87134" lon="2.33628">
        <ele>95.3</ele>
        <time>2015-03-09T19:34:36.301Z</time>
      </trkpt>
      <trkpt lat="48.87134" lon="2.3362">
        <ele>95.1</ele>
        <time>2015-03-09T19:34:37.245Z</time>
      </trkpt>
      <trkpt lat="48.87133" lon="2.33612">
        <ele>94.9</ele>
        <time>2015-03-09T19:34:38.253Z</time>
      </trkpt>
      <trkpt lat="48.87132" lon="2.33605">
        <ele>94.8</ele>
        <time>2015-03-09T19:34:39.305Z</time>
      </trkpt>
      <trkpt lat="48.87131" lon="2.33597">
        <ele>94.6</ele>
        <time>2015-03-09T19:34:40.323Z</time>
      </trkpt>
      <trkpt lat="48.87129" lon="2.3359">
        <ele>94.6</ele>
        <time>2015-03-09T19:34:41.225Z</time>
      </trkpt>
      <trkpt lat="48.87128" lon="2.33583">
        <ele>94.5</ele>
        <time>2015-03-09T19:34:42.208Z</time>
      </trkpt>
      <trkpt lat="48.87127" lon="2.33576">
        <ele>94.4</ele>
        <time>2015-03-09T19:34:43.234Z</time>
      </trkpt>
      <trkpt lat="48.87126" lon="2.33568">
        <ele>94.2</ele>
        <time>2015-03-09T19:34:44.252Z</time>
      </trkpt>
      <trkpt lat="48.87125" lon="2.33561">
        <ele>94.1</ele>
        <time>2015-03-09T19:34:45.271Z</time>
      </trkpt>
      <trkpt lat="48.87123" lon="2.33554">
        <ele>94.1</ele>
        <time>2015-03-09T19:34:46.190Z</time>
      </trkpt>
      <trkpt lat="48.87122" lon="2.33547">
        <ele>93.9</ele>
        <time>2015-03-09T19:34:47.185Z</time>
      </trkpt>
      <trkpt lat="48.87122" lon="2.3354">
        <ele>93.8</ele>
        <time>2015-03-09T19:34:48.190Z</time>
      </trkpt>
      <trkpt lat="48.8712" lon="2.33527">
        <ele>93.1</ele>
        <time>2015-03-09T19:34:50.251Z</time>
      </trkpt>
      <trkpt lat="48.87119" lon="2.3352">
        <ele>92.9</ele>
        <time>2015-03-09T19:34:51.254Z</time>
      </trkpt>
      <trkpt lat="48.87117" lon="2.33514">
        <ele>92.6</ele>
        <time>2015-03-09T19:34:52.226Z</time>
      </trkpt>
      <trkpt lat="48.87115" lon="2.33507">
        <ele>92.2</ele>
        <time>2015-03-09T19:34:53.231Z</time>
      </trkpt>
      <trkpt lat="48.87112" lon="2.33501">
        <ele>91.4</ele>
        <time>2015-03-09T19:34:54.255Z</time>
      </trkpt>
      <trkpt lat="48.87111" lon="2.33495">
        <ele>90.8</ele>
        <time>2015-03-09T19:34:55.278Z</time>
      </trkpt>
      <trkpt lat="48.87109" lon="2.33483">
        <ele>90.4</ele>
        <time>2015-03-09T19:34:57.195Z</time>
      </trkpt>
      <trkpt lat="48.87109" lon="2.33477">
        <ele>90.3</ele>
        <time>2015-03-09T19:34:58.213Z</time>
      </trkpt>
      <trkpt lat="48.87109" lon="2.33464">
        <ele>90.3</ele>
        <time>2015-03-09T19:35:00.264Z</time>
      </trkpt>
      <trkpt lat="48.8711" lon="2.33458">
        <ele>90</ele>
        <time>2015-03-09T19:35:01.300Z</time>
      </trkpt>
      <trkpt lat="48.8711" lon="2.33445">
        <ele>89.7</ele>
        <time>2015-03-09T19:35:03.200Z</time>
      </trkpt>
      <trkpt lat="48.87109" lon="2.33438">
        <ele>89.4</ele>
        <time>2015-03-09T19:35:04.214Z</time>
      </trkpt>
      <trkpt lat="48.87106" lon="2.33431">
        <ele>89</ele>
        <time>2015-03-09T19:35:05.225Z</time>
      </trkpt>
      <trkpt lat="48.87103" lon="2.33424">
        <ele>88.7</ele>
        <time>2015-03-09T19:35:06.236Z</time>
      </trkpt>
      <trkpt lat="48.871" lon="2.33417">
        <ele>88.2</ele>
        <time>2015-03-09T19:35:07.254Z</time>
      </trkpt>
      <trkpt lat="48.87098" lon="2.3341">
        <ele>87.9</ele>
        <time>2015-03-09T19:35:08.265Z</time>
      </trkpt>
      <trkpt lat="48.87096" lon="2.33403">
        <ele>87.4</ele>
        <time>2015-03-09T19:35:09.294Z</time>
      </trkpt>
      <trkpt lat="48.87094" lon="2.33396">
        <ele>87.1</ele>
        <time>2015-03-09T19:35:10.209Z</time>
      </trkpt>
      <trkpt lat="48.87091" lon="2.33383">
        <ele>86.6</ele>
        <time>2015-03-09T19:35:12.257Z</time>
      </trkpt>
      <trkpt lat="48.87091" lon="2.33377">
        <ele>86.4</ele>
        <time>2015-03-09T19:35:13.278Z</time>
      </trkpt>
      <trkpt lat="48.87091" lon="2.33365">
        <ele>86</ele>
        <time>2015-03-09T19:35:15.203Z</time>
      </trkpt>
      <trkpt lat="48.8709" lon="2.3336">
        <ele>85.8</ele>
        <time>2015-03-09T19:35:16.205Z</time>
      </trkpt>
      <trkpt lat="48.8709" lon="2.33348">
        <ele>85.6</ele>
        <time>2015-03-09T19:35:18.242Z</time>
      </trkpt>
      <trkpt lat="48.87087" lon="2.33344">
        <ele>85.3</ele>
        <time>2015-03-09T19:35:19.248Z</time>
      </trkpt>
      <trkpt lat="48.87085" lon="2.3333">
        <ele>84.7</ele>
        <time>2015-03-09T19:35:21.178Z</time>
      </trkpt>
      <trkpt lat="48.87084" lon="2.33325">
        <ele>84.7</ele>
        <time>2015-03-09T19:35:22.205Z</time>
      </trkpt>
      <trkpt lat="48.87082" lon="2.33315">
        <ele>84</ele>
        <time>2015-03-09T19:35:24.216Z</time>
      </trkpt>
      <trkpt lat="48.8708" lon="2.3331">
        <ele>83.6</ele>
        <time>2015-03-09T19:35:25.256Z</time>
      </trkpt>
      <trkpt lat="48.87077" lon="2.33301">
        <ele>83.2</ele>
        <time>2015-03-09T19:35:27.267Z</time>
      </trkpt>
      <trkpt lat="48.87076" lon="2.33297">
        <ele>83</ele>
        <time>2015-03-09T19:35:28.248Z</time>
      </trkpt>
      <trkpt lat="48.87074" lon="2.33286">
        <ele>82.7</ele>
        <time>2015-03-09T19:35:30.267Z</time>
      </trkpt>
      <trkpt lat="48.87073" lon="2.33281">
        <ele>82.7</ele>
        <time>2015-03-09T19:35:31.294Z</time>
      </trkpt>
      <trkpt lat="48.87073" lon="2.33271">
        <ele>82.9</ele>
        <time>2015-03-09T19:35:33.203Z</time>
      </trkpt>
      <trkpt lat="48.87074" lon="2.33266">
        <ele>83.2</ele>
        <time>2015-03-09T19:35:34.226Z</time>
      </trkpt>
      <trkpt lat="48.87073" lon="2.33256">
        <ele>83.8</ele>
        <time>2015-03-09T19:35:36.403Z</time>
      </trkpt>
      <trkpt lat="48.87073" lon="2.3325">
        <ele>84</ele>
        <time>2015-03-09T19:35:37.316Z</time>
      </trkpt>
      <trkpt lat="48.87072" lon="2.33239">
        <ele>85</ele>
        <time>2015-03-09T19:35:39.351Z</time>
      </trkpt>
      <trkpt lat="48.87071" lon="2.33234">
        <ele>85</ele>
        <time>2015-03-09T19:35:40.357Z</time>
      </trkpt>
      <trkpt lat="48.87069" lon="2.33223">
        <ele>85.1</ele>
        <time>2015-03-09T19:35:42.376Z</time>
      </trkpt>
      <trkpt lat="48.87068" lon="2.33218">
        <ele>85.1</ele>
        <time>2015-03-09T19:35:43.309Z</time>
      </trkpt>
      <trkpt lat="48.87066" lon="2.33205">
        <ele>85</ele>
        <time>2015-03-09T19:35:45.282Z</time>
      </trkpt>
      <trkpt lat="48.87065" lon="2.33199">
        <ele>84.9</ele>
        <time>2015-03-09T19:35:46.220Z</time>
      </trkpt>
      <trkpt lat="48.87064" lon="2.33192">
        <ele>84.8</ele>
        <time>2015-03-09T19:35:47.253Z</time>
      </trkpt>
      <trkpt lat="48.87063" lon="2.33185">
        <ele>85</ele>
        <time>2015-03-09T19:35:48.185Z</time>
      </trkpt>
      <trkpt lat="48.87062" lon="2.33178">
        <ele>85</ele>
        <time>2015-03-09T19:35:49.258Z</time>
      </trkpt>
      <trkpt lat="48.8706" lon="2.33172">
        <ele>84.7</ele>
        <time>2015-03-09T19:35:50.258Z</time>
      </trkpt>
      <trkpt lat="48.87058" lon="2.33166">
        <ele>84.4</ele>
        <time>2015-03-09T19:35:51.277Z</time>
      </trkpt>
      <trkpt lat="48.87055" lon="2.3316">
        <ele>84.2</ele>
        <time>2015-03-09T19:35:52.294Z</time>
      </trkpt>
      <trkpt lat="48.87053" lon="2.33153">
        <ele>84.5</ele>
        <time>2015-03-09T19:35:53.255Z</time>
      </trkpt>
      <trkpt lat="48.87051" lon="2.33147">
        <ele>84.3</ele>
        <time>2015-03-09T19:35:54.277Z</time>
      </trkpt>
      <trkpt lat="48.87049" lon="2.33141">
        <ele>84.2</ele>
        <time>2015-03-09T19:35:55.296Z</time>
      </trkpt>
      <trkpt lat="48.87047" lon="2.33134">
        <ele>84.1</ele>
        <time>2015-03-09T19:35:56.209Z</time>
      </trkpt>
      <trkpt lat="48.87044" lon="2.33128">
        <ele>83.8</ele>
        <time>2015-03-09T19:35:57.269Z</time>
      </trkpt>
      <trkpt lat="48.87042" lon="2.33121">
        <ele>83.6</ele>
        <time>2015-03-09T19:35:58.276Z</time>
      </trkpt>
      <trkpt lat="48.87038" lon="2.33109">
        <ele>83.2</ele>
        <time>2015-03-09T19:36:00.182Z</time>
      </trkpt>
      <trkpt lat="48.87037" lon="2.33103">
        <ele>83.4</ele>
        <time>2015-03-09T19:36:01.324Z</time>
      </trkpt>
      <trkpt lat="48.87033" lon="2.33092">
        <ele>83.4</ele>
        <time>2015-03-09T19:36:03.206Z</time>
      </trkpt>
      <trkpt lat="48.87031" lon="2.33086">
        <ele>83.3</ele>
        <time>2015-03-09T19:36:04.226Z</time>
      </trkpt>
      <trkpt lat="48.87028" lon="2.33075">
        <ele>82.9</ele>
        <time>2015-03-09T19:36:06.210Z</time>
      </trkpt>
      <trkpt lat="48.87027" lon="2.33069">
        <ele>82.8</ele>
        <time>2015-03-09T19:36:07.248Z</time>
      </trkpt>
      <trkpt lat="48.87025" lon="2.33056">
        <ele>82.6</ele>
        <time>2015-03-09T19:36:09.256Z</time>
      </trkpt>
      <trkpt lat="48.87024" lon="2.33049">
        <ele>82.5</ele>
        <time>2015-03-09T19:36:10.268Z</time>
      </trkpt>
      <trkpt lat="48.87025" lon="2.33037">
        <ele>82.2</ele>
        <time>2015-03-09T19:36:12.215Z</time>
      </trkpt>
      <trkpt lat="48.87023" lon="2.33031">
        <ele>82.2</ele>
        <time>2015-03-09T19:36:13.236Z</time>
      </trkpt>
      <trkpt lat="48.87021" lon="2.33021">
        <ele>82.3</ele>
        <time>2015-03-09T19:36:15.294Z</time>
      </trkpt>
      <trkpt lat="48.87019" lon="2.33015">
        <ele>82.4</ele>
        <time>2015-03-09T19:36:16.212Z</time>
      </trkpt>
      <trkpt lat="48.87017" lon="2.33004">
        <ele>82.2</ele>
        <time>2015-03-09T19:36:18.237Z</time>
      </trkpt>
      <trkpt lat="48.87015" lon="2.32999">
        <ele>82.1</ele>
        <time>2015-03-09T19:36:19.263Z</time>
      </trkpt>
      <trkpt lat="48.87012" lon="2.32989">
        <ele>81.7</ele>
        <time>2015-03-09T19:36:22.204Z</time>
      </trkpt>
      <trkpt lat="48.87011" lon="2.32985">
        <ele>81.6</ele>
        <time>2015-03-09T19:36:23.235Z</time>
      </trkpt>
      <trkpt lat="48.87009" lon="2.32975">
        <ele>81.3</ele>
        <time>2015-03-09T19:36:25.268Z</time>
      </trkpt>
      <trkpt lat="48.87009" lon="2.32969">
        <ele>81.1</ele>
        <time>2015-03-09T19:36:26.276Z</time>
      </trkpt>
      <trkpt lat="48.87008" lon="2.32959">
        <ele>80.9</ele>
        <time>2015-03-09T19:36:28.209Z</time>
      </trkpt>
      <trkpt lat="48.87008" lon="2.32954">
        <ele>80.7</ele>
        <time>2015-03-09T19:36:29.242Z</time>
      </trkpt>
      <trkpt lat="48.87007" lon="2.32941">
        <ele>80.4</ele>
        <time>2015-03-09T19:36:31.304Z</time>
      </trkpt>
      <trkpt lat="48.87007" lon="2.32934">
        <ele>80.3</ele>
        <time>2015-03-09T19:36:32.207Z</time>
      </trkpt>
      <trkpt lat="48.87008" lon="2.32921">
        <ele>79.9</ele>
        <time>2015-03-09T19:36:34.231Z</time>
      </trkpt>
      <trkpt lat="48.87008" lon="2.32914">
        <ele>79.8</ele>
        <time>2015-03-09T19:36:35.258Z</time>
      </trkpt>
      <trkpt lat="48.87007" lon="2.32906">
        <ele>79.6</ele>
        <time>2015-03-09T19:36:36.206Z</time>
      </trkpt>
      <trkpt lat="48.87006" lon="2.32898">
        <ele>79.4</ele>
        <time>2015-03-09T19:36:37.245Z</time>
      </trkpt>
      <trkpt lat="48.87005" lon="2.3289">
        <ele>79.3</ele>
        <time>2015-03-09T19:36:38.248Z</time>
      </trkpt>
      <trkpt lat="48.87004" lon="2.32883">
        <ele>78.9</ele>
        <time>2015-03-09T19:36:39.260Z</time>
      </trkpt>
      <trkpt lat="48.87" lon="2.32876">
        <ele>78.3</ele>
        <time>2015-03-09T19:36:40.207Z</time>
      </trkpt>
      <trkpt lat="48.86998" lon="2.32869">
        <ele>77.8</ele>
        <time>2015-03-09T19:36:41.206Z</time>
      </trkpt>
      <trkpt lat="48.86998" lon="2.32861">
        <ele>77.6</ele>
        <time>2015-03-09T19:36:42.214Z</time>
      </trkpt>
      <trkpt lat="48.86997" lon="2.32854">
        <ele>77.3</ele>
        <time>2015-03-09T19:36:43.255Z</time>
      </trkpt>
      <trkpt lat="48.86997" lon="2.32846">
        <ele>77.2</ele>
        <time>2015-03-09T19:36:44.201Z</time>
      </trkpt>
      <trkpt lat="48.86996" lon="2.32838">
        <ele>77.3</ele>
        <time>2015-03-09T19:36:45.194Z</time>
      </trkpt>
      <trkpt lat="48.86995" lon="2.3283">
        <ele>77.8</ele>
        <time>2015-03-09T19:36:46.207Z</time>
      </trkpt>
      <trkpt lat="48.86995" lon="2.32822">
        <ele>77.9</ele>
        <time>2015-03-09T19:36:47.210Z</time>
      </trkpt>
      <trkpt lat="48.86994" lon="2.32809">
        <ele>78.1</ele>
        <time>2015-03-09T19:36:49.296Z</time>
      </trkpt>
      <trkpt lat="48.86993" lon="2.32802">
        <ele>78.6</ele>
        <time>2015-03-09T19:36:50.220Z</time>
      </trkpt>
      <trkpt lat="48.86993" lon="2.32794">
        <ele>79.3</ele>
        <time>2015-03-09T19:36:51.227Z</time>
      </trkpt>
      <trkpt lat="48.86993" lon="2.32787">
        <ele>79.4</ele>
        <time>2015-03-09T19:36:52.242Z</time>
      </trkpt>
      <trkpt lat="48.86991" lon="2.3278">
        <ele>79.2</ele>
        <time>2015-03-09T19:36:53.190Z</time>
      </trkpt>
      <trkpt lat="48.8699" lon="2.32773">
        <ele>79</ele>
        <time>2015-03-09T19:36:54.191Z</time>
      </trkpt>
      <trkpt lat="48.86988" lon="2.32766">
        <ele>78.7</ele>
        <time>2015-03-09T19:36:55.232Z</time>
      </trkpt>
      <trkpt lat="48.86984" lon="2.3276">
        <ele>78.4</ele>
        <time>2015-03-09T19:36:56.269Z</time>
      </trkpt>
      <trkpt lat="48.86983" lon="2.32752">
        <ele>78.2</ele>
        <time>2015-03-09T19:36:57.193Z</time>
      </trkpt>
      <trkpt lat="48.86982" lon="2.32745">
        <ele>78</ele>
        <time>2015-03-09T19:36:58.191Z</time>
      </trkpt>
      <trkpt lat="48.86981" lon="2.32737">
        <ele>77.8</ele>
        <time>2015-03-09T19:36:59.244Z</time>
      </trkpt>
      <trkpt lat="48.86981" lon="2.3273">
        <ele>77.8</ele>
        <time>2015-03-09T19:37:00.251Z</time>
      </trkpt>
      <trkpt lat="48.86978" lon="2.32717">
        <ele>77.8</ele>
        <time>2015-03-09T19:37:02.318Z</time>
      </trkpt>
      <trkpt lat="48.86975" lon="2.32712">
        <ele>77.6</ele>
        <time>2015-03-09T19:37:03.319Z</time>
      </trkpt>
      <trkpt lat="48.86971" lon="2.327">
        <ele>77.6</ele>
        <time>2015-03-09T19:37:05.347Z</time>
      </trkpt>
      <trkpt lat="48.8697" lon="2.32694">
        <ele>77.6</ele>
        <time>2015-03-09T19:37:06.395Z</time>
      </trkpt>
      <trkpt lat="48.86969" lon="2.32687">
        <ele>77.5</ele>
        <time>2015-03-09T19:37:07.305Z</time>
      </trkpt>
      <trkpt lat="48.86968" lon="2.3268">
        <ele>77.4</ele>
        <time>2015-03-09T19:37:08.307Z</time>
      </trkpt>
      <trkpt lat="48.86966" lon="2.32668">
        <ele>77.4</ele>
        <time>2015-03-09T19:37:10.183Z</time>
      </trkpt>
      <trkpt lat="48.86965" lon="2.32662">
        <ele>77.4</ele>
        <time>2015-03-09T19:37:11.190Z</time>
      </trkpt>
      <trkpt lat="48.86963" lon="2.32649">
        <ele>77.3</ele>
        <time>2015-03-09T19:37:13.219Z</time>
      </trkpt>
      <trkpt lat="48.86963" lon="2.32643">
        <ele>77.3</ele>
        <time>2015-03-09T19:37:14.165Z</time>
      </trkpt>
      <trkpt lat="48.86959" lon="2.32631">
        <ele>77.1</ele>
        <time>2015-03-09T19:37:16.221Z</time>
      </trkpt>
      <trkpt lat="48.86957" lon="2.32626">
        <ele>76.7</ele>
        <time>2015-03-09T19:37:17.348Z</time>
      </trkpt>
      <trkpt lat="48.86953" lon="2.32616">
        <ele>76.5</ele>
        <time>2015-03-09T19:37:19.220Z</time>
      </trkpt>
      <trkpt lat="48.8695" lon="2.32611">
        <ele>76.4</ele>
        <time>2015-03-09T19:37:20.227Z</time>
      </trkpt>
      <trkpt lat="48.86948" lon="2.326">
        <ele>76.1</ele>
        <time>2015-03-09T19:37:22.194Z</time>
      </trkpt>
      <trkpt lat="48.86947" lon="2.32595">
        <ele>75.8</ele>
        <time>2015-03-09T19:37:23.205Z</time>
      </trkpt>
      <trkpt lat="48.86945" lon="2.32583">
        <ele>75.4</ele>
        <time>2015-03-09T19:37:25.234Z</time>
      </trkpt>
      <trkpt lat="48.86945" lon="2.32577">
        <ele>75.3</ele>
        <time>2015-03-09T19:37:26.261Z</time>
      </trkpt>
      <trkpt lat="48.86945" lon="2.32565">
        <ele>75.2</ele>
        <time>2015-03-09T19:37:28.277Z</time>
      </trkpt>
      <trkpt lat="48.86946" lon="2.3256">
        <ele>75.3</ele>
        <time>2015-03-09T19:37:29.399Z</time>
      </trkpt>
      <trkpt lat="48.86947" lon="2.32551">
        <ele>75.1</ele>
        <time>2015-03-09T19:37:31.246Z</time>
      </trkpt>
      <trkpt lat="48.86947" lon="2.32546">
        <ele>75.4</ele>
        <time>2015-03-09T19:37:32.250Z</time>
      </trkpt>
      <trkpt lat="48.86951" lon="2.32534">
        <ele>76.1</ele>
        <time>2015-03-09T19:37:34.268Z</time>
      </trkpt>
      <trkpt lat="48.86954" lon="2.32528">
        <ele>76.5</ele>
        <time>2015-03-09T19:37:35.608Z</time>
      </trkpt>
      <trkpt lat="48.86958" lon="2.32523">
        <ele>77.2</ele>
        <time>2015-03-09T19:37:36.408Z</time>
      </trkpt>
      <trkpt lat="48.86962" lon="2.3252">
        <ele>78</ele>
        <time>2015-03-09T19:37:37.290Z</time>
      </trkpt>
      <trkpt lat="48.86968" lon="2.32517">
        <ele>79.4</ele>
        <time>2015-03-09T19:37:39.305Z</time>
      </trkpt>
      <trkpt lat="48.86971" lon="2.32518">
        <ele>80.2</ele>
        <time>2015-03-09T19:37:40.310Z</time>
      </trkpt>
      <trkpt lat="48.86979" lon="2.32521">
        <ele>82</ele>
        <time>2015-03-09T19:37:43.206Z</time>
      </trkpt>
      <trkpt lat="48.86982" lon="2.32522">
        <ele>82.5</ele>
        <time>2015-03-09T19:37:44.200Z</time>
      </trkpt>
      <trkpt lat="48.86989" lon="2.32524">
        <ele>83.8</ele>
        <time>2015-03-09T19:37:46.226Z</time>
      </trkpt>
      <trkpt lat="48.86992" lon="2.32525">
        <ele>84.3</ele>
        <time>2015-03-09T19:37:47.179Z</time>
      </trkpt>
      <trkpt lat="48.86999" lon="2.32527">
        <ele>85.8</ele>
        <time>2015-03-09T19:37:50.227Z</time>
      </trkpt>
      <trkpt lat="48.87002" lon="2.32527">
        <ele>86.1</ele>
        <time>2015-03-09T19:37:51.248Z</time>
      </trkpt>
      <trkpt lat="48.87008" lon="2.32527">
        <ele>86.9</ele>
        <time>2015-03-09T19:37:53.174Z</time>
      </trkpt>
      <trkpt lat="48.87012" lon="2.32527">
        <ele>87.2</ele>
        <time>2015-03-09T19:37:54.190Z</time>
      </trkpt>
      <trkpt lat="48.8702" lon="2.32531">
        <ele>87.9</ele>
        <time>2015-03-09T19:37:56.274Z</time>
      </trkpt>
      <trkpt lat="48.87023" lon="2.32533">
        <ele>88.2</ele>
        <time>2015-03-09T19:37:57.351Z</time>
      </trkpt>
      <trkpt lat="48.87029" lon="2.32535">
        <ele>88.9</ele>
        <time>2015-03-09T19:37:59.209Z</time>
      </trkpt>
      <trkpt lat="48.87033" lon="2.32535">
        <ele>89.2</ele>
        <time>2015-03-09T19:38:00.236Z</time>
      </trkpt>
      <trkpt lat="48.87041" lon="2.32535">
        <ele>89.3</ele>
        <time>2015-03-09T19:38:02.303Z</time>
      </trkpt>
      <trkpt lat="48.87047" lon="2.32535">
        <ele>89.6</ele>
        <time>2015-03-09T19:38:03.316Z</time>
      </trkpt>
      <trkpt lat="48.87053" lon="2.32533">
        <ele>89.8</ele>
        <time>2015-03-09T19:38:04.325Z</time>
      </trkpt>
      <trkpt lat="48.87059" lon="2.32531">
        <ele>90</ele>
        <time>2015-03-09T19:38:05.326Z</time>
      </trkpt>
      <trkpt lat="48.87063" lon="2.32527">
        <ele>90.2</ele>
        <time>2015-03-09T19:38:06.360Z</time>
      </trkpt>
      <trkpt lat="48.87067" lon="2.32523">
        <ele>90.4</ele>
        <time>2015-03-09T19:38:07.301Z</time>
      </trkpt>
      <trkpt lat="48.87071" lon="2.32518">
        <ele>90.6</ele>
        <time>2015-03-09T19:38:08.310Z</time>
      </trkpt>
      <trkpt lat="48.87074" lon="2.32513">
        <ele>91.1</ele>
        <time>2015-03-09T19:38:09.344Z</time>
      </trkpt>
      <trkpt lat="48.87078" lon="2.32507">
        <ele>91.5</ele>
        <time>2015-03-09T19:38:10.362Z</time>
      </trkpt>
      <trkpt lat="48.87081" lon="2.32502">
        <ele>91.8</ele>
        <time>2015-03-09T19:38:11.399Z</time>
      </trkpt>
      <trkpt lat="48.87084" lon="2.32496">
        <ele>92.1</ele>
        <time>2015-03-09T19:38:12.490Z</time>
      </trkpt>
      <trkpt lat="48.87087" lon="2.3249">
        <ele>92.4</ele>
        <time>2015-03-09T19:38:13.273Z</time>
      </trkpt>
      <trkpt lat="48.87089" lon="2.32484">
        <ele>92.8</ele>
        <time>2015-03-09T19:38:14.298Z</time>
      </trkpt>
      <trkpt lat="48.87091" lon="2.32477">
        <ele>93.3</ele>
        <time>2015-03-09T19:38:15.205Z</time>
      </trkpt>
      <trkpt lat="48.87093" lon="2.32471">
        <ele>93.8</ele>
        <time>2015-03-09T19:38:16.231Z</time>
      </trkpt>
      <trkpt lat="48.87095" lon="2.32465">
        <ele>93.9</ele>
        <time>2015-03-09T19:38:17.238Z</time>
      </trkpt>
      <trkpt lat="48.87099" lon="2.32454">
        <ele>93.7</ele>
        <time>2015-03-09T19:38:19.279Z</time>
      </trkpt>
      <trkpt lat="48.87101" lon="2.32448">
        <ele>93.7</ele>
        <time>2015-03-09T19:38:20.205Z</time>
      </trkpt>
      <trkpt lat="48.87105" lon="2.32437">
        <ele>93.9</ele>
        <time>2015-03-09T19:38:22.232Z</time>
      </trkpt>
      <trkpt lat="48.87107" lon="2.32432">
        <ele>94.1</ele>
        <time>2015-03-09T19:38:23.246Z</time>
      </trkpt>
      <trkpt lat="48.87111" lon="2.32422">
        <ele>93.9</ele>
        <time>2015-03-09T19:38:25.272Z</time>
      </trkpt>
      <trkpt lat="48.87113" lon="2.32418">
        <ele>93.6</ele>
        <time>2015-03-09T19:38:26.388Z</time>
      </trkpt>
      <trkpt lat="48.87117" lon="2.32409">
        <ele>93.5</ele>
        <time>2015-03-09T19:38:28.207Z</time>
      </trkpt>
      <trkpt lat="48.87118" lon="2.32404">
        <ele>93.6</ele>
        <time>2015-03-09T19:38:29.215Z</time>
      </trkpt>
      <trkpt lat="48.8712" lon="2.32394">
        <ele>93.5</ele>
        <time>2015-03-09T19:38:31.255Z</time>
      </trkpt>
      <trkpt lat="48.87121" lon="2.32389">
        <ele>93.5</ele>
        <time>2015-03-09T19:38:32.292Z</time>
      </trkpt>
      <trkpt lat="48.87122" lon="2.32379">
        <ele>93.4</ele>
        <time>2015-03-09T19:38:34.187Z</time>
      </trkpt>
      <trkpt lat="48.87122" lon="2.32374">
        <ele>93.4</ele>
        <time>2015-03-09T19:38:35.297Z</time>
      </trkpt>
      <trkpt lat="48.87123" lon="2.32363">
        <ele>93.4</ele>
        <time>2015-03-09T19:38:37.178Z</time>
      </trkpt>
      <trkpt lat="48.87122" lon="2.32356">
        <ele>93.4</ele>
        <time>2015-03-09T19:38:38.198Z</time>
      </trkpt>
      <trkpt lat="48.87124" lon="2.32345">
        <ele>93.3</ele>
        <time>2015-03-09T19:38:40.215Z</time>
      </trkpt>
      <trkpt lat="48.87128" lon="2.3234">
        <ele>93.1</ele>
        <time>2015-03-09T19:38:41.226Z</time>
      </trkpt>
      <trkpt lat="48.87132" lon="2.32329">
        <ele>93</ele>
        <time>2015-03-09T19:38:43.258Z</time>
      </trkpt>
      <trkpt lat="48.87134" lon="2.32324">
        <ele>93</ele>
        <time>2015-03-09T19:38:44.276Z</time>
      </trkpt>
      <trkpt lat="48.87139" lon="2.32313">
        <ele>93</ele>
        <time>2015-03-09T19:38:46.185Z</time>
      </trkpt>
      <trkpt lat="48.87143" lon="2.32309">
        <ele>92.8</ele>
        <time>2015-03-09T19:38:47.195Z</time>
      </trkpt>
      <trkpt lat="48.87147" lon="2.32304">
        <ele>92.8</ele>
        <time>2015-03-09T19:38:48.201Z</time>
      </trkpt>
      <trkpt lat="48.87149" lon="2.32299">
        <ele>92.8</ele>
        <time>2015-03-09T19:38:49.271Z</time>
      </trkpt>
      <trkpt lat="48.87155" lon="2.32291">
        <ele>93</ele>
        <time>2015-03-09T19:38:51.176Z</time>
      </trkpt>
      <trkpt lat="48.87158" lon="2.32287">
        <ele>93</ele>
        <time>2015-03-09T19:38:52.191Z</time>
      </trkpt>
      <trkpt lat="48.87164" lon="2.32279">
        <ele>93.1</ele>
        <time>2015-03-09T19:38:54.180Z</time>
      </trkpt>
      <trkpt lat="48.87167" lon="2.32275">
        <ele>93.1</ele>
        <time>2015-03-09T19:38:55.188Z</time>
      </trkpt>
      <trkpt lat="48.87171" lon="2.32268">
        <ele>93</ele>
        <time>2015-03-09T19:38:57.230Z</time>
      </trkpt>
      <trkpt lat="48.87172" lon="2.32263">
        <ele>92.8</ele>
        <time>2015-03-09T19:38:58.368Z</time>
      </trkpt>
      <trkpt lat="48.87172" lon="2.32257">
        <ele>92.7</ele>
        <time>2015-03-09T19:38:59.173Z</time>
      </trkpt>
      <trkpt lat="48.87172" lon="2.32249">
        <ele>92.4</ele>
        <time>2015-03-09T19:39:00.171Z</time>
      </trkpt>
      <trkpt lat="48.87173" lon="2.32241">
        <ele>92.5</ele>
        <time>2015-03-09T19:39:01.205Z</time>
      </trkpt>
      <trkpt lat="48.87174" lon="2.32234">
        <ele>92.8</ele>
        <time>2015-03-09T19:39:02.214Z</time>
      </trkpt>
      <trkpt lat="48.87176" lon="2.32228">
        <ele>93.1</ele>
        <time>2015-03-09T19:39:03.228Z</time>
      </trkpt>
      <trkpt lat="48.87179" lon="2.32223">
        <ele>93.3</ele>
        <time>2015-03-09T19:39:04.242Z</time>
      </trkpt>
      <trkpt lat="48.87186" lon="2.32214">
        <ele>93.8</ele>
        <time>2015-03-09T19:39:06.258Z</time>
      </trkpt>
      <trkpt lat="48.87191" lon="2.32211">
        <ele>93.9</ele>
        <time>2015-03-09T19:39:07.291Z</time>
      </trkpt>
      <trkpt lat="48.87195" lon="2.32208">
        <ele>94.2</ele>
        <time>2015-03-09T19:39:08.319Z</time>
      </trkpt>
      <trkpt lat="48.87199" lon="2.32205">
        <ele>94.4</ele>
        <time>2015-03-09T19:39:09.268Z</time>
      </trkpt>
      <trkpt lat="48.87207" lon="2.322">
        <ele>95</ele>
        <time>2015-03-09T19:39:11.288Z</time>
      </trkpt>
      <trkpt lat="48.8721" lon="2.32197">
        <ele>95.4</ele>
        <time>2015-03-09T19:39:12.363Z</time>
      </trkpt>
      <trkpt lat="48.87217" lon="2.32191">
        <ele>96.3</ele>
        <time>2015-03-09T19:39:14.210Z</time>
      </trkpt>
      <trkpt lat="48.87221" lon="2.32188">
        <ele>96.6</ele>
        <time>2015-03-09T19:39:15.220Z</time>
      </trkpt>
      <trkpt lat="48.87227" lon="2.32182">
        <ele>97.2</ele>
        <time>2015-03-09T19:39:17.260Z</time>
      </trkpt>
      <trkpt lat="48.87231" lon="2.32178">
        <ele>97.7</ele>
        <time>2015-03-09T19:39:18.221Z</time>
      </trkpt>
      <trkpt lat="48.87235" lon="2.32172">
        <ele>98.7</ele>
        <time>2015-03-09T19:39:20.197Z</time>
      </trkpt>
      <trkpt lat="48.87238" lon="2.32169">
        <ele>99.1</ele>
        <time>2015-03-09T19:39:21.236Z</time>
      </trkpt>
      <trkpt lat="48.87243" lon="2.32164">
        <ele>100.1</ele>
        <time>2015-03-09T19:39:23.255Z</time>
      </trkpt>
      <trkpt lat="48.87246" lon="2.32159">
        <ele>101.1</ele>
        <time>2015-03-09T19:39:24.269Z</time>
      </trkpt>
      <trkpt lat="48.87252" lon="2.32151">
        <ele>102.9</ele>
        <time>2015-03-09T19:39:26.194Z</time>
      </trkpt>
      <trkpt lat="48.87255" lon="2.32147">
        <ele>103.4</ele>
        <time>2015-03-09T19:39:27.207Z</time>
      </trkpt>
      <trkpt lat="48.87261" lon="2.32141">
        <ele>104.2</ele>
        <time>2015-03-09T19:39:29.233Z</time>
      </trkpt>
      <trkpt lat="48.87265" lon="2.32139">
        <ele>104.6</ele>
        <time>2015-03-09T19:39:30.240Z</time>
      </trkpt>
      <trkpt lat="48.87272" lon="2.32134">
        <ele>105.7</ele>
        <time>2015-03-09T19:39:32.259Z</time>
      </trkpt>
      <trkpt lat="48.87274" lon="2.32132">
        <ele>105.8</ele>
        <time>2015-03-09T19:39:33.204Z</time>
      </trkpt>
      <trkpt lat="48.87282" lon="2.32124">
        <ele>106.1</ele>
        <time>2015-03-09T19:39:36.231Z</time>
      </trkpt>
      <trkpt lat="48.87284" lon="2.32122">
        <ele>106.3</ele>
        <time>2015-03-09T19:39:37.248Z</time>
      </trkpt>
      <trkpt lat="48.87291" lon="2.32118">
        <ele>106.7</ele>
        <time>2015-03-09T19:39:39.265Z</time>
      </trkpt>
      <trkpt lat="48.87294" lon="2.32116">
        <ele>107</ele>
        <time>2015-03-09T19:39:40.175Z</time>
      </trkpt>
      <trkpt lat="48.87301" lon="2.32113">
        <ele>107.5</ele>
        <time>2015-03-09T19:39:42.200Z</time>
      </trkpt>
      <trkpt lat="48.87304" lon="2.32112">
        <ele>107.9</ele>
        <time>2015-03-09T19:39:43.207Z</time>
      </trkpt>
      <trkpt lat="48.87311" lon="2.32111">
        <ele>108.3</ele>
        <time>2015-03-09T19:39:45.279Z</time>
      </trkpt>
      <trkpt lat="48.87314" lon="2.3211">
        <ele>108.5</ele>
        <time>2015-03-09T19:39:46.301Z</time>
      </trkpt>
      <trkpt lat="48.87321" lon="2.32107">
        <ele>108.9</ele>
        <time>2015-03-09T19:39:48.213Z</time>
      </trkpt>
      <trkpt lat="48.87325" lon="2.32106">
        <ele>109</ele>
        <time>2015-03-09T19:39:49.303Z</time>
      </trkpt>
      <trkpt lat="48.8733" lon="2.32102">
        <ele>109.4</ele>
        <time>2015-03-09T19:39:51.308Z</time>
      </trkpt>
      <trkpt lat="48.87333" lon="2.32099">
        <ele>109.4</ele>
        <time>2015-03-09T19:39:52.308Z</time>
      </trkpt>
      <trkpt lat="48.87339" lon="2.32094">
        <ele>109.3</ele>
        <time>2015-03-09T19:39:54.241Z</time>
      </trkpt>
      <trkpt lat="48.87341" lon="2.32092">
        <ele>109.3</ele>
        <time>2015-03-09T19:39:55.276Z</time>
      </trkpt>
      <trkpt lat="48.87346" lon="2.32085">
        <ele>110.3</ele>
        <time>2015-03-09T19:39:58.208Z</time>
      </trkpt>
      <trkpt lat="48.87348" lon="2.32082">
        <ele>110.8</ele>
        <time>2015-03-09T19:39:59.230Z</time>
      </trkpt>
      <trkpt lat="48.87356" lon="2.32077">
        <ele>111.5</ele>
        <time>2015-03-09T19:40:02.247Z</time>
      </trkpt>
      <trkpt lat="48.87359" lon="2.32075">
        <ele>111.7</ele>
        <time>2015-03-09T19:40:03.258Z</time>
      </trkpt>
      <trkpt lat="48.87363" lon="2.32072">
        <ele>112.1</ele>
        <time>2015-03-09T19:40:05.188Z</time>
      </trkpt>
      <trkpt lat="48.87367" lon="2.32069">
        <ele>112.6</ele>
        <time>2015-03-09T19:40:06.205Z</time>
      </trkpt>
      <trkpt lat="48.87372" lon="2.32062">
        <ele>113.6</ele>
        <time>2015-03-09T19:40:08.196Z</time>
      </trkpt>
      <trkpt lat="48.87375" lon="2.32059">
        <ele>114.1</ele>
        <time>2015-03-09T19:40:09.210Z</time>
      </trkpt>
      <trkpt lat="48.87382" lon="2.32056">
        <ele>114.6</ele>
        <time>2015-03-09T19:40:11.237Z</time>
      </trkpt>
      <trkpt lat="48.87385" lon="2.32054">
        <ele>114.5</ele>
        <time>2015-03-09T19:40:12.276Z</time>
      </trkpt>
      <trkpt lat="48.87392" lon="2.32051">
        <ele>114.6</ele>
        <time>2015-03-09T19:40:14.305Z</time>
      </trkpt>
      <trkpt lat="48.87397" lon="2.32049">
        <ele>114.7</ele>
        <time>2015-03-09T19:40:15.216Z</time>
      </trkpt>
      <trkpt lat="48.87403" lon="2.32046">
        <ele>115</ele>
        <time>2015-03-09T19:40:17.220Z</time>
      </trkpt>
      <trkpt lat="48.87406" lon="2.32045">
        <ele>115.2</ele>
        <time>2015-03-09T19:40:18.230Z</time>
      </trkpt>
      <trkpt lat="48.87412" lon="2.32043">
        <ele>115.4</ele>
        <time>2015-03-09T19:40:20.262Z</time>
      </trkpt>
      <trkpt lat="48.87415" lon="2.32042">
        <ele>115.5</ele>
        <time>2015-03-09T19:40:21.270Z</time>
      </trkpt>
      <trkpt lat="48.87422" lon="2.32039">
        <ele>115.8</ele>
        <time>2015-03-09T19:40:23.291Z</time>
      </trkpt>
      <trkpt lat="48.87425" lon="2.32036">
        <ele>116</ele>
        <time>2015-03-09T19:40:24.203Z</time>
      </trkpt>
      <trkpt lat="48.87431" lon="2.32032">
        <ele>116.2</ele>
        <time>2015-03-09T19:40:26.247Z</time>
      </trkpt>
      <trkpt lat="48.87435" lon="2.3203">
        <ele>116.5</ele>
        <time>2015-03-09T19:40:27.256Z</time>
      </trkpt>
      <trkpt lat="48.87441" lon="2.32026">
        <ele>116.8</ele>
        <time>2015-03-09T19:40:29.288Z</time>
      </trkpt>
      <trkpt lat="48.87444" lon="2.32026">
        <ele>116.7</ele>
        <time>2015-03-09T19:40:30.204Z</time>
      </trkpt>
      <trkpt lat="48.8745" lon="2.32024">
        <ele>117</ele>
        <time>2015-03-09T19:40:32.301Z</time>
      </trkpt>
      <trkpt lat="48.87453" lon="2.32023">
        <ele>117.3</ele>
        <time>2015-03-09T19:40:33.301Z</time>
      </trkpt>
      <trkpt lat="48.87461" lon="2.32018">
        <ele>118.1</ele>
        <time>2015-03-09T19:40:35.318Z</time>
      </trkpt>
      <trkpt lat="48.87464" lon="2.32014">
        <ele>118.3</ele>
        <time>2015-03-09T19:40:36.353Z</time>
      </trkpt>
      <trkpt lat="48.87471" lon="2.32009">
        <ele>118.8</ele>
        <time>2015-03-09T19:40:38.309Z</time>
      </trkpt>
      <trkpt lat="48.87474" lon="2.32006">
        <ele>118.7</ele>
        <time>2015-03-09T19:40:39.325Z</time>
      </trkpt>
      <trkpt lat="48.8748" lon="2.31999">
        <ele>119.3</ele>
        <time>2015-03-09T19:40:42.381Z</time>
      </trkpt>
      <trkpt lat="48.8748" lon="2.31996">
        <ele>119.3</ele>
        <time>2015-03-09T19:40:43.371Z</time>
      </trkpt>
      <trkpt lat="48.87484" lon="2.32003">
        <ele>116.3</ele>
        <time>2015-03-09T19:40:46.305Z</time>
      </trkpt>
      <trkpt lat="48.87484" lon="2.32003">
        <ele>116.4</ele>
        <time>2015-03-09T19:40:47.346Z</time>
      </trkpt>
      <trkpt lat="48.87484" lon="2.32003">
        <ele>116.2</ele>
        <time>2015-03-09T19:40:48.371Z</time>
      </trkpt>
      <trkpt lat="48.87483" lon="2.32012">
        <ele>99.4</ele>
        <time>2015-03-09T19:41:17.292Z</time>
      </trkpt>
      <trkpt lat="48.87483" lon="2.32011">
        <ele>99.4</ele>
        <time>2015-03-09T19:41:18.434Z</time>
      </trkpt>
      <trkpt lat="48.87483" lon="2.32011">
        <ele>99.4</ele>
        <time>2015-03-09T19:41:19.309Z</time>
      </trkpt>
      <trkpt lat="48.87489" lon="2.32003">
        <ele>99.1</ele>
        <time>2015-03-09T19:41:23.323Z</time>
      </trkpt>
      <trkpt lat="48.87491" lon="2.31999">
        <ele>99.1</ele>
        <time>2015-03-09T19:41:24.423Z</time>
      </trkpt>
      <trkpt lat="48.87495" lon="2.31991">
        <ele>99.2</ele>
        <time>2015-03-09T19:41:26.318Z</time>
      </trkpt>
      <trkpt lat="48.87497" lon="2.31988">
        <ele>99.4</ele>
        <time>2015-03-09T19:41:27.309Z</time>
      </trkpt>
      <trkpt lat="48.87503" lon="2.31981">
        <ele>99.6</ele>
        <time>2015-03-09T19:41:29.339Z</time>
      </trkpt>
      <trkpt lat="48.87505" lon="2.31978">
        <ele>99.6</ele>
        <time>2015-03-09T19:41:30.361Z</time>
      </trkpt>
      <trkpt lat="48.8751" lon="2.3197">
        <ele>99.4</ele>
        <time>2015-03-09T19:41:32.298Z</time>
      </trkpt>
      <trkpt lat="48.87512" lon="2.31967">
        <ele>99.4</ele>
        <time>2015-03-09T19:41:33.293Z</time>
      </trkpt>
      <trkpt lat="48.87517" lon="2.31957">
        <ele>99.3</ele>
        <time>2015-03-09T19:41:35.338Z</time>
      </trkpt>
      <trkpt lat="48.8752" lon="2.31953">
        <ele>99.4</ele>
        <time>2015-03-09T19:41:36.365Z</time>
      </trkpt>
      <trkpt lat="48.87524" lon="2.31945">
        <ele>99.5</ele>
        <time>2015-03-09T19:41:38.305Z</time>
      </trkpt>
      <trkpt lat="48.87526" lon="2.31939">
        <ele>99.7</ele>
        <time>2015-03-09T19:41:39.279Z</time>
      </trkpt>
      <trkpt lat="48.87527" lon="2.31932">
        <ele>101</ele>
        <time>2015-03-09T19:41:40.312Z</time>
      </trkpt>
      <trkpt lat="48.8753" lon="2.31925">
        <ele>101.4</ele>
        <time>2015-03-09T19:41:41.310Z</time>
      </trkpt>
      <trkpt lat="48.87535" lon="2.31915">
        <ele>101.6</ele>
        <time>2015-03-09T19:41:43.346Z</time>
      </trkpt>
      <trkpt lat="48.87538" lon="2.31911">
        <ele>101.9</ele>
        <time>2015-03-09T19:41:44.365Z</time>
      </trkpt>
      <trkpt lat="48.87544" lon="2.31905">
        <ele>102</ele>
        <time>2015-03-09T19:41:46.298Z</time>
      </trkpt>
      <trkpt lat="48.87547" lon="2.31903">
        <ele>101.9</ele>
        <time>2015-03-09T19:41:47.320Z</time>
      </trkpt>
      <trkpt lat="48.87555" lon="2.31898">
        <ele>101.6</ele>
        <time>2015-03-09T19:41:50.386Z</time>
      </trkpt>
      <trkpt lat="48.87557" lon="2.31895">
        <ele>101.7</ele>
        <time>2015-03-09T19:41:51.418Z</time>
      </trkpt>
      <trkpt lat="48.87562" lon="2.31891">
        <ele>101.7</ele>
        <time>2015-03-09T19:41:53.335Z</time>
      </trkpt>
      <trkpt lat="48.87565" lon="2.3189">
        <ele>101.7</ele>
        <time>2015-03-09T19:41:54.408Z</time>
      </trkpt>
      <trkpt lat="48.87571" lon="2.31884">
        <ele>101.9</ele>
        <time>2015-03-09T19:41:57.317Z</time>
      </trkpt>
      <trkpt lat="48.87573" lon="2.31882">
        <ele>101.8</ele>
        <time>2015-03-09T19:41:58.336Z</time>
      </trkpt>
      <trkpt lat="48.8758" lon="2.31877">
        <ele>101.9</ele>
        <time>2015-03-09T19:42:02.351Z</time>
      </trkpt>
      <trkpt lat="48.87584" lon="2.31873">
        <ele>101.7</ele>
        <time>2015-03-09T19:42:03.394Z</time>
      </trkpt>
      <trkpt lat="48.8759" lon="2.31865">
        <ele>101.8</ele>
        <time>2015-03-09T19:42:06.400Z</time>
      </trkpt>
      <trkpt lat="48.87591" lon="2.31862">
        <ele>101.8</ele>
        <time>2015-03-09T19:42:07.324Z</time>
      </trkpt>
      <trkpt lat="48.87596" lon="2.31854">
        <ele>102</ele>
        <time>2015-03-09T19:42:09.388Z</time>
      </trkpt>
      <trkpt lat="48.87597" lon="2.31849">
        <ele>102.7</ele>
        <time>2015-03-09T19:42:10.396Z</time>
      </trkpt>
      <trkpt lat="48.87602" lon="2.31841">
        <ele>103.3</ele>
        <time>2015-03-09T19:42:12.355Z</time>
      </trkpt>
      <trkpt lat="48.87605" lon="2.31836">
        <ele>103.6</ele>
        <time>2015-03-09T19:42:13.396Z</time>
      </trkpt>
      <trkpt lat="48.87611" lon="2.31827">
        <ele>104.2</ele>
        <time>2015-03-09T19:42:15.391Z</time>
      </trkpt>
      <trkpt lat="48.87614" lon="2.31822">
        <ele>104.4</ele>
        <time>2015-03-09T19:42:16.464Z</time>
      </trkpt>
      <trkpt lat="48.87621" lon="2.31813">
        <ele>105.2</ele>
        <time>2015-03-09T19:42:18.345Z</time>
      </trkpt>
      <trkpt lat="48.87624" lon="2.31808">
        <ele>105.3</ele>
        <time>2015-03-09T19:42:19.356Z</time>
      </trkpt>
      <trkpt lat="48.87628" lon="2.31803">
        <ele>105.4</ele>
        <time>2015-03-09T19:42:20.307Z</time>
      </trkpt>
      <trkpt lat="48.87632" lon="2.31799">
        <ele>105.3</ele>
        <time>2015-03-09T19:42:21.301Z</time>
      </trkpt>
      <trkpt lat="48.87639" lon="2.31792">
        <ele>105.2</ele>
        <time>2015-03-09T19:42:23.334Z</time>
      </trkpt>
      <trkpt lat="48.87643" lon="2.31789">
        <ele>105.2</ele>
        <time>2015-03-09T19:42:24.358Z</time>
      </trkpt>
      <trkpt lat="48.87649" lon="2.31786">
        <ele>104.9</ele>
        <time>2015-03-09T19:42:26.386Z</time>
      </trkpt>
      <trkpt lat="48.87653" lon="2.31783">
        <ele>104.6</ele>
        <time>2015-03-09T19:42:27.398Z</time>
      </trkpt>
      <trkpt lat="48.87658" lon="2.31775">
        <ele>104.4</ele>
        <time>2015-03-09T19:42:29.302Z</time>
      </trkpt>
      <trkpt lat="48.8766" lon="2.31772">
        <ele>104.5</ele>
        <time>2015-03-09T19:42:30.362Z</time>
      </trkpt>
      <trkpt lat="48.87665" lon="2.31764">
        <ele>104.9</ele>
        <time>2015-03-09T19:42:33.406Z</time>
      </trkpt>
      <trkpt lat="48.87666" lon="2.31761">
        <ele>105</ele>
        <time>2015-03-09T19:42:34.312Z</time>
      </trkpt>
      <trkpt lat="48.87673" lon="2.31755">
        <ele>105.1</ele>
        <time>2015-03-09T19:42:37.386Z</time>
      </trkpt>
      <trkpt lat="48.87676" lon="2.31753">
        <ele>105.2</ele>
        <time>2015-03-09T19:42:38.306Z</time>
      </trkpt>
      <trkpt lat="48.87682" lon="2.31749">
        <ele>105.3</ele>
        <time>2015-03-09T19:42:40.325Z</time>
      </trkpt>
      <trkpt lat="48.87684" lon="2.31746">
        <ele>105.3</ele>
        <time>2015-03-09T19:42:41.331Z</time>
      </trkpt>
      <trkpt lat="48.87692" lon="2.31741">
        <ele>105.4</ele>
        <time>2015-03-09T19:42:44.401Z</time>
      </trkpt>
      <trkpt lat="48.87695" lon="2.31739">
        <ele>105.5</ele>
        <time>2015-03-09T19:42:45.313Z</time>
      </trkpt>
      <trkpt lat="48.87701" lon="2.31734">
        <ele>105.6</ele>
        <time>2015-03-09T19:42:47.346Z</time>
      </trkpt>
      <trkpt lat="48.87704" lon="2.31732">
        <ele>105.5</ele>
        <time>2015-03-09T19:42:48.352Z</time>
      </trkpt>
      <trkpt lat="48.87711" lon="2.31724">
        <ele>105.4</ele>
        <time>2015-03-09T19:42:51.323Z</time>
      </trkpt>
      <trkpt lat="48.87713" lon="2.31721">
        <ele>105.4</ele>
        <time>2015-03-09T19:42:52.372Z</time>
      </trkpt>
      <trkpt lat="48.87718" lon="2.31715">
        <ele>105.7</ele>
        <time>2015-03-09T19:42:54.341Z</time>
      </trkpt>
      <trkpt lat="48.87721" lon="2.31712">
        <ele>105.9</ele>
        <time>2015-03-09T19:42:55.341Z</time>
      </trkpt>
      <trkpt lat="48.87727" lon="2.31704">
        <ele>105.9</ele>
        <time>2015-03-09T19:42:57.374Z</time>
      </trkpt>
      <trkpt lat="48.8773" lon="2.317">
        <ele>105.9</ele>
        <time>2015-03-09T19:42:58.389Z</time>
      </trkpt>
      <trkpt lat="48.87735" lon="2.31694">
        <ele>105.9</ele>
        <time>2015-03-09T19:43:00.445Z</time>
      </trkpt>
      <trkpt lat="48.87737" lon="2.31691">
        <ele>105.9</ele>
        <time>2015-03-09T19:43:01.389Z</time>
      </trkpt>
      <trkpt lat="48.87742" lon="2.31685">
        <ele>106</ele>
        <time>2015-03-09T19:43:03.315Z</time>
      </trkpt>
      <trkpt lat="48.87745" lon="2.31682">
        <ele>106</ele>
        <time>2015-03-09T19:43:04.340Z</time>
      </trkpt>
      <trkpt lat="48.8775" lon="2.31677">
        <ele>106.2</ele>
        <time>2015-03-09T19:43:06.394Z</time>
      </trkpt>
      <trkpt lat="48.87753" lon="2.31675">
        <ele>106.3</ele>
        <time>2015-03-09T19:43:07.362Z</time>
      </trkpt>
      <trkpt lat="48.87758" lon="2.3167">
        <ele>106.3</ele>
        <time>2015-03-09T19:43:09.416Z</time>
      </trkpt>
      <trkpt lat="48.87761" lon="2.31668">
        <ele>106.4</ele>
        <time>2015-03-09T19:43:10.315Z</time>
      </trkpt>
      <trkpt lat="48.87767" lon="2.31663">
        <ele>106.4</ele>
        <time>2015-03-09T19:43:12.428Z</time>
      </trkpt>
      <trkpt lat="48.87769" lon="2.3166">
        <ele>106.2</ele>
        <time>2015-03-09T19:43:13.422Z</time>
      </trkpt>
      <trkpt lat="48.87775" lon="2.3165">
        <ele>105.6</ele>
        <time>2015-03-09T19:43:16.354Z</time>
      </trkpt>
      <trkpt lat="48.87776" lon="2.31647">
        <ele>105.6</ele>
        <time>2015-03-09T19:43:17.343Z</time>
      </trkpt>
      <trkpt lat="48.87778" lon="2.31642">
        <ele>105.4</ele>
        <time>2015-03-09T19:43:19.319Z</time>
      </trkpt>
      <trkpt lat="48.87776" lon="2.31643">
        <ele>103.8</ele>
        <time>2015-03-09T19:43:20.328Z</time>
      </trkpt>
      <trkpt lat="48.87775" lon="2.31644">
        <ele>103</ele>
        <time>2015-03-09T19:43:21.368Z</time>
      </trkpt>
      <trkpt lat="48.87779" lon="2.31652">
        <ele>103.1</ele>
        <time>2015-03-09T19:43:26.397Z</time>
      </trkpt>
      <trkpt lat="48.87781" lon="2.31654">
        <ele>103</ele>
        <time>2015-03-09T19:43:27.317Z</time>
      </trkpt>
      <trkpt lat="48.87786" lon="2.31662">
        <ele>101.4</ele>
        <time>2015-03-09T19:43:31.312Z</time>
      </trkpt>
      <trkpt lat="48.87786" lon="2.31665">
        <ele>101</ele>
        <time>2015-03-09T19:43:32.350Z</time>
      </trkpt>
      <trkpt lat="48.87788" lon="2.31677">
        <ele>99.9</ele>
        <time>2015-03-09T19:43:36.366Z</time>
      </trkpt>
      <trkpt lat="48.87788" lon="2.3168">
        <ele>99.6</ele>
        <time>2015-03-09T19:43:37.280Z</time>
      </trkpt>
      <trkpt lat="48.87785" lon="2.31693">
        <ele>97.7</ele>
        <time>2015-03-09T19:43:40.284Z</time>
      </trkpt>
      <trkpt lat="48.87785" lon="2.31697">
        <ele>97.2</ele>
        <time>2015-03-09T19:43:41.251Z</time>
      </trkpt>
      <trkpt lat="48.87784" lon="2.31707">
        <ele>96.1</ele>
        <time>2015-03-09T19:43:43.318Z</time>
      </trkpt>
      <trkpt lat="48.87784" lon="2.31712">
        <ele>95.7</ele>
        <time>2015-03-09T19:43:44.320Z</time>
      </trkpt>
      <trkpt lat="48.87779" lon="2.31723">
        <ele>95.2</ele>
        <time>2015-03-09T19:43:46.348Z</time>
      </trkpt>
      <trkpt lat="48.87776" lon="2.3173">
        <ele>95.3</ele>
        <time>2015-03-09T19:43:47.267Z</time>
      </trkpt>
      <trkpt lat="48.87772" lon="2.31742">
        <ele>94.8</ele>
        <time>2015-03-09T19:43:49.294Z</time>
      </trkpt>
      <trkpt lat="48.87771" lon="2.31746">
        <ele>94.5</ele>
        <time>2015-03-09T19:43:50.322Z</time>
      </trkpt>
      <trkpt lat="48.87771" lon="2.31756">
        <ele>94.1</ele>
        <time>2015-03-09T19:43:52.325Z</time>
      </trkpt>
      <trkpt lat="48.87771" lon="2.31761">
        <ele>93.7</ele>
        <time>2015-03-09T19:43:53.336Z</time>
      </trkpt>
      <trkpt lat="48.87772" lon="2.31771">
        <ele>93.3</ele>
        <time>2015-03-09T19:43:55.270Z</time>
      </trkpt>
      <trkpt lat="48.87772" lon="2.31776">
        <ele>93.2</ele>
        <time>2015-03-09T19:43:56.282Z</time>
      </trkpt>
      <trkpt lat="48.87773" lon="2.31785">
        <ele>92.7</ele>
        <time>2015-03-09T19:43:58.272Z</time>
      </trkpt>
      <trkpt lat="48.87773" lon="2.3179">
        <ele>92.6</ele>
        <time>2015-03-09T19:43:59.289Z</time>
      </trkpt>
      <trkpt lat="48.87774" lon="2.31802">
        <ele>92.8</ele>
        <time>2015-03-09T19:44:02.342Z</time>
      </trkpt>
      <trkpt lat="48.87774" lon="2.31807">
        <ele>92.9</ele>
        <time>2015-03-09T19:44:03.380Z</time>
      </trkpt>
      <trkpt lat="48.87778" lon="2.31816">
        <ele>93.1</ele>
        <time>2015-03-09T19:44:06.323Z</time>
      </trkpt>
      <trkpt lat="48.87778" lon="2.31819">
        <ele>93.1</ele>
        <time>2015-03-09T19:44:07.338Z</time>
      </trkpt>
      <trkpt lat="48.87782" lon="2.31829">
        <ele>92.5</ele>
        <time>2015-03-09T19:44:11.347Z</time>
      </trkpt>
      <trkpt lat="48.87784" lon="2.31831">
        <ele>92.1</ele>
        <time>2015-03-09T19:44:12.364Z</time>
      </trkpt>
      <trkpt lat="48.87787" lon="2.31843">
        <ele>90.9</ele>
        <time>2015-03-09T19:44:15.286Z</time>
      </trkpt>
      <trkpt lat="48.87788" lon="2.31847">
        <ele>90.8</ele>
        <time>2015-03-09T19:44:16.289Z</time>
      </trkpt>
      <trkpt lat="48.87786" lon="2.31859">
        <ele>90.2</ele>
        <time>2015-03-09T19:44:19.294Z</time>
      </trkpt>
      <trkpt lat="48.87785" lon="2.31864">
        <ele>90</ele>
        <time>2015-03-09T19:44:20.308Z</time>
      </trkpt>
      <trkpt lat="48.87783" lon="2.31874">
        <ele>89.7</ele>
        <time>2015-03-09T19:44:22.340Z</time>
      </trkpt>
      <trkpt lat="48.87784" lon="2.31879">
        <ele>89.7</ele>
        <time>2015-03-09T19:44:23.248Z</time>
      </trkpt>
      <trkpt lat="48.87784" lon="2.31889">
        <ele>89.6</ele>
        <time>2015-03-09T19:44:25.313Z</time>
      </trkpt>
      <trkpt lat="48.87785" lon="2.31894">
        <ele>89.4</ele>
        <time>2015-03-09T19:44:26.356Z</time>
      </trkpt>
      <trkpt lat="48.87785" lon="2.31906">
        <ele>89.2</ele>
        <time>2015-03-09T19:44:29.060Z</time>
      </trkpt>
      <trkpt lat="48.87786" lon="2.31912">
        <ele>89.2</ele>
        <time>2015-03-09T19:44:29.250Z</time>
      </trkpt>
      <trkpt lat="48.87787" lon="2.31923">
        <ele>89.2</ele>
        <time>2015-03-09T19:44:31.280Z</time>
      </trkpt>
      <trkpt lat="48.8779" lon="2.31927">
        <ele>89.3</ele>
        <time>2015-03-09T19:44:32.295Z</time>
      </trkpt>
      <trkpt lat="48.87791" lon="2.31937">
        <ele>89.5</ele>
        <time>2015-03-09T19:44:34.466Z</time>
      </trkpt>
      <trkpt lat="48.87792" lon="2.31943">
        <ele>89.5</ele>
        <time>2015-03-09T19:44:35.398Z</time>
      </trkpt>
      <trkpt lat="48.87795" lon="2.31955">
        <ele>89.4</ele>
        <time>2015-03-09T19:44:37.300Z</time>
      </trkpt>
      <trkpt lat="48.87795" lon="2.3196">
        <ele>89.6</ele>
        <time>2015-03-09T19:44:38.313Z</time>
      </trkpt>
      <trkpt lat="48.87798" lon="2.3197">
        <ele>89.8</ele>
        <time>2015-03-09T19:44:40.932Z</time>
      </trkpt>
      <trkpt lat="48.87797" lon="2.31975">
        <ele>90</ele>
        <time>2015-03-09T19:44:41.370Z</time>
      </trkpt>
      <trkpt lat="48.87797" lon="2.3198">
        <ele>90.1</ele>
        <time>2015-03-09T19:44:42.392Z</time>
      </trkpt>
      <trkpt lat="48.87796" lon="2.3199">
        <ele>90.2</ele>
        <time>2015-03-09T19:44:44.266Z</time>
      </trkpt>
      <trkpt lat="48.87797" lon="2.32002">
        <ele>89.5</ele>
        <time>2015-03-09T19:44:46.299Z</time>
      </trkpt>
      <trkpt lat="48.87797" lon="2.32008">
        <ele>89.4</ele>
        <time>2015-03-09T19:44:47.318Z</time>
      </trkpt>
      <trkpt lat="48.87799" lon="2.32015">
        <ele>89.2</ele>
        <time>2015-03-09T19:44:49.267Z</time>
      </trkpt>
      <trkpt lat="48.87801" lon="2.32021">
        <ele>89.2</ele>
        <time>2015-03-09T19:44:49.359Z</time>
      </trkpt>
      <trkpt lat="48.87803" lon="2.32029">
        <ele>89.2</ele>
        <time>2015-03-09T19:44:50.377Z</time>
      </trkpt>
      <trkpt lat="48.87806" lon="2.32036">
        <ele>89.4</ele>
        <time>2015-03-09T19:44:51.288Z</time>
      </trkpt>
      <trkpt lat="48.87809" lon="2.32042">
        <ele>89.8</ele>
        <time>2015-03-09T19:44:52.289Z</time>
      </trkpt>
      <trkpt lat="48.87811" lon="2.32049">
        <ele>89.8</ele>
        <time>2015-03-09T19:44:53.291Z</time>
      </trkpt>
      <trkpt lat="48.87813" lon="2.32055">
        <ele>89.7</ele>
        <time>2015-03-09T19:44:54.432Z</time>
      </trkpt>
      <trkpt lat="48.87815" lon="2.32061">
        <ele>89.8</ele>
        <time>2015-03-09T19:44:55.285Z</time>
      </trkpt>
      <trkpt lat="48.87816" lon="2.32068">
        <ele>89.8</ele>
        <time>2015-03-09T19:44:56.286Z</time>
      </trkpt>
      <trkpt lat="48.87817" lon="2.32075">
        <ele>89.8</ele>
        <time>2015-03-09T19:44:57.316Z</time>
      </trkpt>
      <trkpt lat="48.87817" lon="2.32083">
        <ele>90</ele>
        <time>2015-03-09T19:44:58.344Z</time>
      </trkpt>
      <trkpt lat="48.87818" lon="2.32091">
        <ele>90</ele>
        <time>2015-03-09T19:44:59.356Z</time>
      </trkpt>
      <trkpt lat="48.87818" lon="2.32098">
        <ele>90</ele>
        <time>2015-03-09T19:45:00.366Z</time>
      </trkpt>
      <trkpt lat="48.87819" lon="2.32106">
        <ele>90</ele>
        <time>2015-03-09T19:45:01.284Z</time>
      </trkpt>
      <trkpt lat="48.8782" lon="2.32113">
        <ele>90.2</ele>
        <time>2015-03-09T19:45:02.300Z</time>
      </trkpt>
      <trkpt lat="48.87822" lon="2.32119">
        <ele>90.4</ele>
        <time>2015-03-09T19:45:03.303Z</time>
      </trkpt>
      <trkpt lat="48.87823" lon="2.32126">
        <ele>90.2</ele>
        <time>2015-03-09T19:45:04.476Z</time>
      </trkpt>
      <trkpt lat="48.87824" lon="2.32133">
        <ele>90</ele>
        <time>2015-03-09T19:45:05.320Z</time>
      </trkpt>
      <trkpt lat="48.87825" lon="2.3214">
        <ele>89.8</ele>
        <time>2015-03-09T19:45:06.332Z</time>
      </trkpt>
      <trkpt lat="48.87826" lon="2.32147">
        <ele>89.7</ele>
        <time>2015-03-09T19:45:07.340Z</time>
      </trkpt>
      <trkpt lat="48.87829" lon="2.32159">
        <ele>89.1</ele>
        <time>2015-03-09T19:45:09.502Z</time>
      </trkpt>
      <trkpt lat="48.87832" lon="2.32165">
        <ele>88.8</ele>
        <time>2015-03-09T19:45:10.356Z</time>
      </trkpt>
      <trkpt lat="48.87835" lon="2.32178">
        <ele>88.5</ele>
        <time>2015-03-09T19:45:12.389Z</time>
      </trkpt>
      <trkpt lat="48.87835" lon="2.32184">
        <ele>88.3</ele>
        <time>2015-03-09T19:45:13.255Z</time>
      </trkpt>
      <trkpt lat="48.87836" lon="2.32195">
        <ele>88.3</ele>
        <time>2015-03-09T19:45:15.347Z</time>
      </trkpt>
      <trkpt lat="48.87837" lon="2.322">
        <ele>88.3</ele>
        <time>2015-03-09T19:45:16.359Z</time>
      </trkpt>
      <trkpt lat="48.87835" lon="2.32214">
        <ele>88.5</ele>
        <time>2015-03-09T19:45:19.631Z</time>
      </trkpt>
      <trkpt lat="48.87835" lon="2.32217">
        <ele>88.8</ele>
        <time>2015-03-09T19:45:20.288Z</time>
      </trkpt>
      <trkpt lat="48.87837" lon="2.32224">
        <ele>89.8</ele>
        <time>2015-03-09T19:45:25.387Z</time>
      </trkpt>
      <trkpt lat="48.87837" lon="2.32225">
        <ele>89.9</ele>
        <time>2015-03-09T19:45:26.319Z</time>
      </trkpt>
      <trkpt lat="48.87838" lon="2.32225">
        <ele>90.1</ele>
        <time>2015-03-09T19:45:27.365Z</time>
      </trkpt>
      <trkpt lat="48.87838" lon="2.32226">
        <ele>90.4</ele>
        <time>2015-03-09T19:45:28.367Z</time>
      </trkpt>
      <trkpt lat="48.87838" lon="2.32226">
        <ele>90.5</ele>
        <time>2015-03-09T19:45:32.353Z</time>
      </trkpt>
      <trkpt lat="48.87845" lon="2.32226">
        <ele>90.8</ele>
        <time>2015-03-09T19:45:33.493Z</time>
      </trkpt>
      <trkpt lat="48.87851" lon="2.32229">
        <ele>91.3</ele>
        <time>2015-03-09T19:45:36.366Z</time>
      </trkpt>
      <trkpt lat="48.87853" lon="2.32231">
        <ele>91.3</ele>
        <time>2015-03-09T19:45:37.386Z</time>
      </trkpt>
      <trkpt lat="48.87859" lon="2.32238">
        <ele>91</ele>
        <time>2015-03-09T19:45:40.384Z</time>
      </trkpt>
      <trkpt lat="48.8786" lon="2.32241">
        <ele>91</ele>
        <time>2015-03-09T19:45:41.384Z</time>
      </trkpt>
      <trkpt lat="48.87866" lon="2.32246">
        <ele>91.2</ele>
        <time>2015-03-09T19:45:43.409Z</time>
      </trkpt>
      <trkpt lat="48.87868" lon="2.3225">
        <ele>91.3</ele>
        <time>2015-03-09T19:45:44.386Z</time>
      </trkpt>
      <trkpt lat="48.87872" lon="2.32261">
        <ele>91.6</ele>
        <time>2015-03-09T19:45:47.325Z</time>
      </trkpt>
      <trkpt lat="48.87874" lon="2.32265">
        <ele>91.8</ele>
        <time>2015-03-09T19:45:48.363Z</time>
      </trkpt>
      <trkpt lat="48.87878" lon="2.32276">
        <ele>92.4</ele>
        <time>2015-03-09T19:45:51.342Z</time>
      </trkpt>
      <trkpt lat="48.87878" lon="2.3228">
        <ele>92.7</ele>
        <time>2015-03-09T19:45:52.389Z</time>
      </trkpt>
      <trkpt lat="48.8788" lon="2.3229">
        <ele>92.9</ele>
        <time>2015-03-09T19:45:55.388Z</time>
      </trkpt>
      <trkpt lat="48.8788" lon="2.32294">
        <ele>92.9</ele>
        <time>2015-03-09T19:45:56.293Z</time>
      </trkpt>
      <trkpt lat="48.87884" lon="2.32306">
        <ele>92.6</ele>
        <time>2015-03-09T19:46:02.379Z</time>
      </trkpt>
      <trkpt lat="48.87884" lon="2.32307">
        <ele>92.5</ele>
        <time>2015-03-09T19:46:03.391Z</time>
      </trkpt>
      <trkpt lat="48.87884" lon="2.32311">
        <ele>92.2</ele>
        <time>2015-03-09T19:46:07.365Z</time>
      </trkpt>
      <trkpt lat="48.87883" lon="2.32312">
        <ele>92.2</ele>
        <time>2015-03-09T19:46:08.260Z</time>
      </trkpt>
      <trkpt lat="48.87883" lon="2.32312">
        <ele>92.5</ele>
        <time>2015-03-09T19:46:14.585Z</time>
      </trkpt>
      <trkpt lat="48.87883" lon="2.32314">
        <ele>92.3</ele>
        <time>2015-03-09T19:46:15.297Z</time>
      </trkpt>
      <trkpt lat="48.87881" lon="2.32326">
        <ele>92.1</ele>
        <time>2015-03-09T19:46:21.343Z</time>
      </trkpt>
      <trkpt lat="48.87881" lon="2.32329">
        <ele>92.1</ele>
        <time>2015-03-09T19:46:22.344Z</time>
      </trkpt>
      <trkpt lat="48.87881" lon="2.3234">
        <ele>92.7</ele>
        <time>2015-03-09T19:46:26.351Z</time>
      </trkpt>
      <trkpt lat="48.87882" lon="2.32344">
        <ele>92.8</ele>
        <time>2015-03-09T19:46:27.355Z</time>
      </trkpt>
      <trkpt lat="48.87884" lon="2.32357">
        <ele>93.6</ele>
        <time>2015-03-09T19:46:32.341Z</time>
      </trkpt>
      <trkpt lat="48.87885" lon="2.32359">
        <ele>93.8</ele>
        <time>2015-03-09T19:46:33.273Z</time>
      </trkpt>
      <trkpt lat="48.87892" lon="2.32365">
        <ele>94.2</ele>
        <time>2015-03-09T19:46:38.329Z</time>
      </trkpt>
      <trkpt lat="48.87893" lon="2.32366">
        <ele>94.4</ele>
        <time>2015-03-09T19:46:39.338Z</time>
      </trkpt>
      <trkpt lat="48.87897" lon="2.32374">
        <ele>94.2</ele>
        <time>2015-03-09T19:46:44.989Z</time>
      </trkpt>
      <trkpt lat="48.87898" lon="2.32378">
        <ele>94.1</ele>
        <time>2015-03-09T19:46:45.374Z</time>
      </trkpt>
      <trkpt lat="48.87901" lon="2.32386">
        <ele>94</ele>
        <time>2015-03-09T19:46:47.394Z</time>
      </trkpt>
      <trkpt lat="48.87901" lon="2.32391">
        <ele>93.8</ele>
        <time>2015-03-09T19:46:48.558Z</time>
      </trkpt>
      <trkpt lat="48.87901" lon="2.32402">
        <ele>93.8</ele>
        <time>2015-03-09T19:46:50.340Z</time>
      </trkpt>
      <trkpt lat="48.87901" lon="2.32408">
        <ele>93.9</ele>
        <time>2015-03-09T19:46:51.362Z</time>
      </trkpt>
      <trkpt lat="48.87903" lon="2.3242">
        <ele>93.7</ele>
        <time>2015-03-09T19:46:53.291Z</time>
      </trkpt>
      <trkpt lat="48.87904" lon="2.32425">
        <ele>93.6</ele>
        <time>2015-03-09T19:46:54.304Z</time>
      </trkpt>
      <trkpt lat="48.87905" lon="2.32436">
        <ele>93.4</ele>
        <time>2015-03-09T19:46:56.387Z</time>
      </trkpt>
      <trkpt lat="48.87905" lon="2.32443">
        <ele>93.2</ele>
        <time>2015-03-09T19:46:57.396Z</time>
      </trkpt>
      <trkpt lat="48.87907" lon="2.32455">
        <ele>92.8</ele>
        <time>2015-03-09T19:46:59.693Z</time>
      </trkpt>
      <trkpt lat="48.87907" lon="2.3246">
        <ele>92.7</ele>
        <time>2015-03-09T19:47:00.348Z</time>
      </trkpt>
      <trkpt lat="48.87909" lon="2.32471">
        <ele>92.5</ele>
        <time>2015-03-09T19:47:02.331Z</time>
      </trkpt>
      <trkpt lat="48.8791" lon="2.32478">
        <ele>92.6</ele>
        <time>2015-03-09T19:47:03.276Z</time>
      </trkpt>
      <trkpt lat="48.87913" lon="2.3249">
        <ele>92.6</ele>
        <time>2015-03-09T19:47:05.363Z</time>
      </trkpt>
      <trkpt lat="48.87914" lon="2.32495">
        <ele>92.6</ele>
        <time>2015-03-09T19:47:06.372Z</time>
      </trkpt>
      <trkpt lat="48.87916" lon="2.32503">
        <ele>92.2</ele>
        <time>2015-03-09T19:47:07.284Z</time>
      </trkpt>
      <trkpt lat="48.87916" lon="2.32509">
        <ele>92.1</ele>
        <time>2015-03-09T19:47:08.332Z</time>
      </trkpt>
      <trkpt lat="48.87915" lon="2.32517">
        <ele>92</ele>
        <time>2015-03-09T19:47:10.052Z</time>
      </trkpt>
      <trkpt lat="48.87916" lon="2.32524">
        <ele>91.8</ele>
        <time>2015-03-09T19:47:10.307Z</time>
      </trkpt>
      <trkpt lat="48.87917" lon="2.32531">
        <ele>91.7</ele>
        <time>2015-03-09T19:47:11.313Z</time>
      </trkpt>
      <trkpt lat="48.87915" lon="2.3254">
        <ele>91.7</ele>
        <time>2015-03-09T19:47:12.324Z</time>
      </trkpt>
      <trkpt lat="48.87915" lon="2.32548">
        <ele>91.6</ele>
        <time>2015-03-09T19:47:13.326Z</time>
      </trkpt>
      <trkpt lat="48.87915" lon="2.32556">
        <ele>91.6</ele>
        <time>2015-03-09T19:47:14.336Z</time>
      </trkpt>
      <trkpt lat="48.87916" lon="2.32562">
        <ele>91.6</ele>
        <time>2015-03-09T19:47:15.341Z</time>
      </trkpt>
      <trkpt lat="48.87919" lon="2.32569">
        <ele>91.5</ele>
        <time>2015-03-09T19:47:16.359Z</time>
      </trkpt>
      <trkpt lat="48.8792" lon="2.32576">
        <ele>91.2</ele>
        <time>2015-03-09T19:47:17.270Z</time>
      </trkpt>
      <trkpt lat="48.87922" lon="2.32582">
        <ele>91.2</ele>
        <time>2015-03-09T19:47:18.307Z</time>
      </trkpt>
      <trkpt lat="48.87924" lon="2.32589">
        <ele>91.2</ele>
        <time>2015-03-09T19:47:19.305Z</time>
      </trkpt>
      <trkpt lat="48.87924" lon="2.32596">
        <ele>91.2</ele>
        <time>2015-03-09T19:47:20.316Z</time>
      </trkpt>
      <trkpt lat="48.87925" lon="2.32609">
        <ele>91.2</ele>
        <time>2015-03-09T19:47:22.354Z</time>
      </trkpt>
      <trkpt lat="48.87925" lon="2.32616">
        <ele>91.2</ele>
        <time>2015-03-09T19:47:23.242Z</time>
      </trkpt>
      <trkpt lat="48.87926" lon="2.32629">
        <ele>91.1</ele>
        <time>2015-03-09T19:47:25.303Z</time>
      </trkpt>
      <trkpt lat="48.87927" lon="2.32635">
        <ele>91.1</ele>
        <time>2015-03-09T19:47:26.331Z</time>
      </trkpt>
      <trkpt lat="48.87928" lon="2.32647">
        <ele>91</ele>
        <time>2015-03-09T19:47:28.278Z</time>
      </trkpt>
      <trkpt lat="48.87929" lon="2.32652">
        <ele>91</ele>
        <time>2015-03-09T19:47:29.310Z</time>
      </trkpt>
      <trkpt lat="48.87931" lon="2.32662">
        <ele>91.2</ele>
        <time>2015-03-09T19:47:31.363Z</time>
      </trkpt>
      <trkpt lat="48.87935" lon="2.32666">
        <ele>91.3</ele>
        <time>2015-03-09T19:47:32.376Z</time>
      </trkpt>
      <trkpt lat="48.87934" lon="2.32674">
        <ele>92.1</ele>
        <time>2015-03-09T19:47:33.267Z</time>
      </trkpt>
      <trkpt lat="48.87935" lon="2.32681">
        <ele>93.1</ele>
        <time>2015-03-09T19:47:34.291Z</time>
      </trkpt>
      <trkpt lat="48.8794" lon="2.32689">
        <ele>94.6</ele>
        <time>2015-03-09T19:47:36.410Z</time>
      </trkpt>
      <trkpt lat="48.87946" lon="2.3269">
        <ele>94.7</ele>
        <time>2015-03-09T19:47:37.259Z</time>
      </trkpt>
      <trkpt lat="48.87954" lon="2.32692">
        <ele>94.9</ele>
        <time>2015-03-09T19:47:39.284Z</time>
      </trkpt>
      <trkpt lat="48.87956" lon="2.32693">
        <ele>95.2</ele>
        <time>2015-03-09T19:47:40.295Z</time>
      </trkpt>
      <trkpt lat="48.87958" lon="2.32694">
        <ele>95.5</ele>
        <time>2015-03-09T19:47:41.333Z</time>
      </trkpt>
      <trkpt lat="48.87959" lon="2.32695">
        <ele>95.7</ele>
        <time>2015-03-09T19:47:42.378Z</time>
      </trkpt>
      <trkpt lat="48.8796" lon="2.32695">
        <ele>95.7</ele>
        <time>2015-03-09T19:47:43.284Z</time>
      </trkpt>
      <trkpt lat="48.87961" lon="2.32695">
        <ele>95.6</ele>
        <time>2015-03-09T19:47:44.286Z</time>
      </trkpt>
      <trkpt lat="48.87962" lon="2.32698">
        <ele>95.7</ele>
        <time>2015-03-09T19:47:46.367Z</time>
      </trkpt>
      <trkpt lat="48.87962" lon="2.32699">
        <ele>95.4</ele>
        <time>2015-03-09T19:47:47.317Z</time>
      </trkpt>
      <trkpt lat="48.87963" lon="2.32698">
        <ele>95.1</ele>
        <time>2015-03-09T19:47:50.345Z</time>
      </trkpt>
      <trkpt lat="48.87963" lon="2.32699">
        <ele>95.1</ele>
        <time>2015-03-09T19:47:51.325Z</time>
      </trkpt>
      <trkpt lat="48.87962" lon="2.32712">
        <ele>94.7</ele>
        <time>2015-03-09T19:47:55.338Z</time>
      </trkpt>
      <trkpt lat="48.87961" lon="2.32717">
        <ele>94.7</ele>
        <time>2015-03-09T19:47:56.348Z</time>
      </trkpt>
      <trkpt lat="48.8796" lon="2.32726">
        <ele>94.6</ele>
        <time>2015-03-09T19:47:58.278Z</time>
      </trkpt>
      <trkpt lat="48.87959" lon="2.3273">
        <ele>94.4</ele>
        <time>2015-03-09T19:47:59.320Z</time>
      </trkpt>
      <trkpt lat="48.87958" lon="2.3274">
        <ele>93.9</ele>
        <time>2015-03-09T19:48:01.369Z</time>
      </trkpt>
      <trkpt lat="48.87957" lon="2.32745">
        <ele>93.6</ele>
        <time>2015-03-09T19:48:02.259Z</time>
      </trkpt>
      <trkpt lat="48.87954" lon="2.32754">
        <ele>93.4</ele>
        <time>2015-03-09T19:48:04.301Z</time>
      </trkpt>
      <trkpt lat="48.87951" lon="2.3276">
        <ele>93.3</ele>
        <time>2015-03-09T19:48:05.332Z</time>
      </trkpt>
      <trkpt lat="48.87947" lon="2.32766">
        <ele>93.4</ele>
        <time>2015-03-09T19:48:06.344Z</time>
      </trkpt>
      <trkpt lat="48.87945" lon="2.32772">
        <ele>93.4</ele>
        <time>2015-03-09T19:48:07.352Z</time>
      </trkpt>
      <trkpt lat="48.87942" lon="2.32778">
        <ele>93.3</ele>
        <time>2015-03-09T19:48:08.273Z</time>
      </trkpt>
      <trkpt lat="48.87941" lon="2.32784">
        <ele>93.3</ele>
        <time>2015-03-09T19:48:09.309Z</time>
      </trkpt>
      <trkpt lat="48.87937" lon="2.32796">
        <ele>93.3</ele>
        <time>2015-03-09T19:48:11.275Z</time>
      </trkpt>
      <trkpt lat="48.87934" lon="2.32802">
        <ele>93.3</ele>
        <time>2015-03-09T19:48:12.374Z</time>
      </trkpt>
      <trkpt lat="48.87932" lon="2.32814">
        <ele>93.4</ele>
        <time>2015-03-09T19:48:14.267Z</time>
      </trkpt>
      <trkpt lat="48.87931" lon="2.32821">
        <ele>93.4</ele>
        <time>2015-03-09T19:48:15.316Z</time>
      </trkpt>
      <trkpt lat="48.8793" lon="2.32828">
        <ele>93.4</ele>
        <time>2015-03-09T19:48:16.340Z</time>
      </trkpt>
      <trkpt lat="48.8793" lon="2.32835">
        <ele>93.5</ele>
        <time>2015-03-09T19:48:17.343Z</time>
      </trkpt>
      <trkpt lat="48.87929" lon="2.32847">
        <ele>93.8</ele>
        <time>2015-03-09T19:48:19.277Z</time>
      </trkpt>
      <trkpt lat="48.87933" lon="2.32854">
        <ele>93.8</ele>
        <time>2015-03-09T19:48:20.277Z</time>
      </trkpt>
      <trkpt lat="48.87935" lon="2.3286">
        <ele>93.8</ele>
        <time>2015-03-09T19:48:21.299Z</time>
      </trkpt>
      <trkpt lat="48.87937" lon="2.32867">
        <ele>94</ele>
        <time>2015-03-09T19:48:22.315Z</time>
      </trkpt>
      <trkpt lat="48.87938" lon="2.32879">
        <ele>94.3</ele>
        <time>2015-03-09T19:48:24.343Z</time>
      </trkpt>
      <trkpt lat="48.87938" lon="2.32885">
        <ele>94.4</ele>
        <time>2015-03-09T19:48:25.265Z</time>
      </trkpt>
      <trkpt lat="48.87939" lon="2.32898">
        <ele>94.4</ele>
        <time>2015-03-09T19:48:27.399Z</time>
      </trkpt>
      <trkpt lat="48.87939" lon="2.32904">
        <ele>94.6</ele>
        <time>2015-03-09T19:48:28.272Z</time>
      </trkpt>
      <trkpt lat="48.87936" lon="2.32916">
        <ele>95</ele>
        <time>2015-03-09T19:48:30.292Z</time>
      </trkpt>
      <trkpt lat="48.87935" lon="2.32918">
        <ele>94.7</ele>
        <time>2015-03-09T19:48:31.331Z</time>
      </trkpt>
      <trkpt lat="48.87941" lon="2.32918">
        <ele>94.5</ele>
        <time>2015-03-09T19:48:35.345Z</time>
      </trkpt>
      <trkpt lat="48.87944" lon="2.32918">
        <ele>94.3</ele>
        <time>2015-03-09T19:48:36.388Z</time>
      </trkpt>
      <trkpt lat="48.87952" lon="2.32919">
        <ele>94.5</ele>
        <time>2015-03-09T19:48:39.252Z</time>
      </trkpt>
      <trkpt lat="48.87954" lon="2.32921">
        <ele>94.2</ele>
        <time>2015-03-09T19:48:40.274Z</time>
      </trkpt>
      <trkpt lat="48.87958" lon="2.32931">
        <ele>93.9</ele>
        <time>2015-03-09T19:48:42.291Z</time>
      </trkpt>
      <trkpt lat="48.87959" lon="2.32937">
        <ele>93.8</ele>
        <time>2015-03-09T19:48:43.322Z</time>
      </trkpt>
      <trkpt lat="48.87962" lon="2.32942">
        <ele>93.7</ele>
        <time>2015-03-09T19:48:44.328Z</time>
      </trkpt>
      <trkpt lat="48.87964" lon="2.32948">
        <ele>93.6</ele>
        <time>2015-03-09T19:48:45.334Z</time>
      </trkpt>
      <trkpt lat="48.87967" lon="2.32954">
        <ele>93.3</ele>
        <time>2015-03-09T19:48:46.345Z</time>
      </trkpt>
      <trkpt lat="48.8797" lon="2.3296">
        <ele>93.1</ele>
        <time>2015-03-09T19:48:47.362Z</time>
      </trkpt>
      <trkpt lat="48.87975" lon="2.32971">
        <ele>92.6</ele>
        <time>2015-03-09T19:48:49.272Z</time>
      </trkpt>
      <trkpt lat="48.87977" lon="2.32977">
        <ele>92.3</ele>
        <time>2015-03-09T19:48:50.298Z</time>
      </trkpt>
      <trkpt lat="48.87979" lon="2.32988">
        <ele>92.4</ele>
        <time>2015-03-09T19:48:52.670Z</time>
      </trkpt>
      <trkpt lat="48.8798" lon="2.32993">
        <ele>92.6</ele>
        <time>2015-03-09T19:48:53.281Z</time>
      </trkpt>
      <trkpt lat="48.87985" lon="2.32999">
        <ele>92.6</ele>
        <time>2015-03-09T19:48:54.312Z</time>
      </trkpt>
      <trkpt lat="48.87987" lon="2.33005">
        <ele>92.8</ele>
        <time>2015-03-09T19:48:55.375Z</time>
      </trkpt>
      <trkpt lat="48.8799" lon="2.3301">
        <ele>92.8</ele>
        <time>2015-03-09T19:48:56.367Z</time>
      </trkpt>
      <trkpt lat="48.87992" lon="2.33016">
        <ele>92.9</ele>
        <time>2015-03-09T19:48:57.362Z</time>
      </trkpt>
      <trkpt lat="48.87994" lon="2.33022">
        <ele>93</ele>
        <time>2015-03-09T19:48:58.877Z</time>
      </trkpt>
      <trkpt lat="48.87996" lon="2.3303">
        <ele>93.2</ele>
        <time>2015-03-09T19:48:59.375Z</time>
      </trkpt>
      <trkpt lat="48.87997" lon="2.3304">
        <ele>93.3</ele>
        <time>2015-03-09T19:49:01.285Z</time>
      </trkpt>
      <trkpt lat="48.87998" lon="2.33046">
        <ele>93.1</ele>
        <time>2015-03-09T19:49:02.331Z</time>
      </trkpt>
      <trkpt lat="48.88002" lon="2.33056">
        <ele>93.2</ele>
        <time>2015-03-09T19:49:04.371Z</time>
      </trkpt>
      <trkpt lat="48.88004" lon="2.3306">
        <ele>93.1</ele>
        <time>2015-03-09T19:49:05.289Z</time>
      </trkpt>
      <trkpt lat="48.88006" lon="2.33069">
        <ele>93</ele>
        <time>2015-03-09T19:49:07.379Z</time>
      </trkpt>
      <trkpt lat="48.88008" lon="2.33074">
        <ele>93</ele>
        <time>2015-03-09T19:49:08.287Z</time>
      </trkpt>
      <trkpt lat="48.88011" lon="2.33083">
        <ele>93.1</ele>
        <time>2015-03-09T19:49:10.299Z</time>
      </trkpt>
      <trkpt lat="48.88012" lon="2.33088">
        <ele>93</ele>
        <time>2015-03-09T19:49:11.337Z</time>
      </trkpt>
      <trkpt lat="48.88014" lon="2.331">
        <ele>92.7</ele>
        <time>2015-03-09T19:49:14.321Z</time>
      </trkpt>
      <trkpt lat="48.88015" lon="2.33104">
        <ele>92.7</ele>
        <time>2015-03-09T19:49:15.494Z</time>
      </trkpt>
      <trkpt lat="48.88012" lon="2.33116">
        <ele>94.1</ele>
        <time>2015-03-09T19:49:19.354Z</time>
      </trkpt>
      <trkpt lat="48.8801" lon="2.33118">
        <ele>95.2</ele>
        <time>2015-03-09T19:49:20.267Z</time>
      </trkpt>
      <trkpt lat="48.88006" lon="2.33124">
        <ele>96.3</ele>
        <time>2015-03-09T19:49:23.284Z</time>
      </trkpt>
      <trkpt lat="48.88004" lon="2.33129">
        <ele>96.8</ele>
        <time>2015-03-09T19:49:24.305Z</time>
      </trkpt>
      <trkpt lat="48.88002" lon="2.33135">
        <ele>97.2</ele>
        <time>2015-03-09T19:49:25.310Z</time>
      </trkpt>
      <trkpt lat="48.87999" lon="2.33143">
        <ele>97.6</ele>
        <time>2015-03-09T19:49:26.317Z</time>
      </trkpt>
      <trkpt lat="48.87997" lon="2.3315">
        <ele>97.8</ele>
        <time>2015-03-09T19:49:28.144Z</time>
      </trkpt>
      <trkpt lat="48.87995" lon="2.33158">
        <ele>97.9</ele>
        <time>2015-03-09T19:49:28.240Z</time>
      </trkpt>
      <trkpt lat="48.87993" lon="2.33165">
        <ele>97.7</ele>
        <time>2015-03-09T19:49:29.275Z</time>
      </trkpt>
      <trkpt lat="48.87991" lon="2.33173">
        <ele>97.7</ele>
        <time>2015-03-09T19:49:30.334Z</time>
      </trkpt>
      <trkpt lat="48.87987" lon="2.33184">
        <ele>98</ele>
        <time>2015-03-09T19:49:33.161Z</time>
      </trkpt>
      <trkpt lat="48.87986" lon="2.33189">
        <ele>98.1</ele>
        <time>2015-03-09T19:49:33.260Z</time>
      </trkpt>
      <trkpt lat="48.87985" lon="2.33202">
        <ele>98.2</ele>
        <time>2015-03-09T19:49:35.505Z</time>
      </trkpt>
      <trkpt lat="48.87984" lon="2.33209">
        <ele>98.2</ele>
        <time>2015-03-09T19:49:36.296Z</time>
      </trkpt>
      <trkpt lat="48.87982" lon="2.33222">
        <ele>98</ele>
        <time>2015-03-09T19:49:38.321Z</time>
      </trkpt>
      <trkpt lat="48.87981" lon="2.33227">
        <ele>98</ele>
        <time>2015-03-09T19:49:39.359Z</time>
      </trkpt>
      <trkpt lat="48.8798" lon="2.33239">
        <ele>98</ele>
        <time>2015-03-09T19:49:41.268Z</time>
      </trkpt>
      <trkpt lat="48.87979" lon="2.33244">
        <ele>98</ele>
        <time>2015-03-09T19:49:42.324Z</time>
      </trkpt>
      <trkpt lat="48.87975" lon="2.33256">
        <ele>97.8</ele>
        <time>2015-03-09T19:49:46.328Z</time>
      </trkpt>
      <trkpt lat="48.87974" lon="2.33259">
        <ele>97.9</ele>
        <time>2015-03-09T19:49:47.332Z</time>
      </trkpt>
      <trkpt lat="48.87972" lon="2.33266">
        <ele>97.7</ele>
        <time>2015-03-09T19:49:48.292Z</time>
      </trkpt>
      <trkpt lat="48.8797" lon="2.33273">
        <ele>97.5</ele>
        <time>2015-03-09T19:49:49.277Z</time>
      </trkpt>
      <trkpt lat="48.87968" lon="2.3328">
        <ele>97.4</ele>
        <time>2015-03-09T19:49:50.285Z</time>
      </trkpt>
      <trkpt lat="48.87967" lon="2.33286">
        <ele>97.1</ele>
        <time>2015-03-09T19:49:51.295Z</time>
      </trkpt>
      <trkpt lat="48.87965" lon="2.33294">
        <ele>97</ele>
        <time>2015-03-09T19:49:52.299Z</time>
      </trkpt>
      <trkpt lat="48.87963" lon="2.333">
        <ele>96.9</ele>
        <time>2015-03-09T19:49:53.316Z</time>
      </trkpt>
      <trkpt lat="48.8796" lon="2.33312">
        <ele>96.5</ele>
        <time>2015-03-09T19:49:55.270Z</time>
      </trkpt>
      <trkpt lat="48.87959" lon="2.33317">
        <ele>96.5</ele>
        <time>2015-03-09T19:49:56.301Z</time>
      </trkpt>
      <trkpt lat="48.87957" lon="2.33323">
        <ele>96.3</ele>
        <time>2015-03-09T19:49:57.350Z</time>
      </trkpt>
      <trkpt lat="48.87954" lon="2.33332">
        <ele>95.8</ele>
        <time>2015-03-09T19:49:58.334Z</time>
      </trkpt>
      <trkpt lat="48.87953" lon="2.33345">
        <ele>95.7</ele>
        <time>2015-03-09T19:50:00.280Z</time>
      </trkpt>
      <trkpt lat="48.87951" lon="2.3335">
        <ele>95.9</ele>
        <time>2015-03-09T19:50:01.288Z</time>
      </trkpt>
      <trkpt lat="48.87948" lon="2.33355">
        <ele>96</ele>
        <time>2015-03-09T19:50:02.329Z</time>
      </trkpt>
      <trkpt lat="48.87945" lon="2.33361">
        <ele>96</ele>
        <time>2015-03-09T19:50:03.337Z</time>
      </trkpt>
      <trkpt lat="48.8794" lon="2.33372">
        <ele>96.5</ele>
        <time>2015-03-09T19:50:05.262Z</time>
      </trkpt>
      <trkpt lat="48.87939" lon="2.33377">
        <ele>96.7</ele>
        <time>2015-03-09T19:50:06.267Z</time>
      </trkpt>
      <trkpt lat="48.87937" lon="2.33389">
        <ele>97.1</ele>
        <time>2015-03-09T19:50:08.278Z</time>
      </trkpt>
      <trkpt lat="48.87937" lon="2.33397">
        <ele>97.2</ele>
        <time>2015-03-09T19:50:09.344Z</time>
      </trkpt>
      <trkpt lat="48.87937" lon="2.33404">
        <ele>97.1</ele>
        <time>2015-03-09T19:50:10.313Z</time>
      </trkpt>
      <trkpt lat="48.87937" lon="2.33412">
        <ele>97.1</ele>
        <time>2015-03-09T19:50:11.276Z</time>
      </trkpt>
      <trkpt lat="48.87937" lon="2.33419">
        <ele>97</ele>
        <time>2015-03-09T19:50:12.369Z</time>
      </trkpt>
      <trkpt lat="48.87936" lon="2.33426">
        <ele>96.9</ele>
        <time>2015-03-09T19:50:13.377Z</time>
      </trkpt>
      <trkpt lat="48.87935" lon="2.33438">
        <ele>97</ele>
        <time>2015-03-09T19:50:15.322Z</time>
      </trkpt>
      <trkpt lat="48.87934" lon="2.33444">
        <ele>97.2</ele>
        <time>2015-03-09T19:50:16.370Z</time>
      </trkpt>
      <trkpt lat="48.87932" lon="2.33455">
        <ele>97.5</ele>
        <time>2015-03-09T19:50:18.332Z</time>
      </trkpt>
      <trkpt lat="48.87932" lon="2.33458">
        <ele>97.6</ele>
        <time>2015-03-09T19:50:19.330Z</time>
      </trkpt>
      <trkpt lat="48.87928" lon="2.3347">
        <ele>98.7</ele>
        <time>2015-03-09T19:50:22.331Z</time>
      </trkpt>
      <trkpt lat="48.87926" lon="2.33474">
        <ele>99</ele>
        <time>2015-03-09T19:50:23.340Z</time>
      </trkpt>
      <trkpt lat="48.8792" lon="2.33484">
        <ele>99.7</ele>
        <time>2015-03-09T19:50:26.030Z</time>
      </trkpt>
      <trkpt lat="48.87919" lon="2.33489">
        <ele>99.6</ele>
        <time>2015-03-09T19:50:26.259Z</time>
      </trkpt>
      <trkpt lat="48.87916" lon="2.33499">
        <ele>99.5</ele>
        <time>2015-03-09T19:50:28.301Z</time>
      </trkpt>
      <trkpt lat="48.87915" lon="2.33505">
        <ele>99.1</ele>
        <time>2015-03-09T19:50:29.322Z</time>
      </trkpt>
      <trkpt lat="48.87912" lon="2.33517">
        <ele>98.6</ele>
        <time>2015-03-09T19:50:31.258Z</time>
      </trkpt>
      <trkpt lat="48.8791" lon="2.33522">
        <ele>98.3</ele>
        <time>2015-03-09T19:50:32.307Z</time>
      </trkpt>
      <trkpt lat="48.87907" lon="2.33531">
        <ele>98.2</ele>
        <time>2015-03-09T19:50:34.354Z</time>
      </trkpt>
      <trkpt lat="48.87905" lon="2.33535">
        <ele>98</ele>
        <time>2015-03-09T19:50:35.273Z</time>
      </trkpt>
      <trkpt lat="48.87901" lon="2.33545">
        <ele>97.8</ele>
        <time>2015-03-09T19:50:38.309Z</time>
      </trkpt>
      <trkpt lat="48.87899" lon="2.3355">
        <ele>97.9</ele>
        <time>2015-03-09T19:50:39.313Z</time>
      </trkpt>
      <trkpt lat="48.87895" lon="2.33562">
        <ele>97.8</ele>
        <time>2015-03-09T19:50:41.326Z</time>
      </trkpt>
      <trkpt lat="48.87894" lon="2.33569">
        <ele>97.4</ele>
        <time>2015-03-09T19:50:42.352Z</time>
      </trkpt>
      <trkpt lat="48.87892" lon="2.33577">
        <ele>97.4</ele>
        <time>2015-03-09T19:50:43.291Z</time>
      </trkpt>
      <trkpt lat="48.87891" lon="2.33584">
        <ele>97.5</ele>
        <time>2015-03-09T19:50:44.300Z</time>
      </trkpt>
      <trkpt lat="48.87889" lon="2.33596">
        <ele>97.7</ele>
        <time>2015-03-09T19:50:46.383Z</time>
      </trkpt>
      <trkpt lat="48.87888" lon="2.33602">
        <ele>97.7</ele>
        <time>2015-03-09T19:50:47.338Z</time>
      </trkpt>
      <trkpt lat="48.87885" lon="2.33614">
        <ele>97.7</ele>
        <time>2015-03-09T19:50:49.302Z</time>
      </trkpt>
      <trkpt lat="48.87884" lon="2.33621">
        <ele>97.6</ele>
        <time>2015-03-09T19:50:50.277Z</time>
      </trkpt>
      <trkpt lat="48.87884" lon="2.33628">
        <ele>97.5</ele>
        <time>2015-03-09T19:50:51.274Z</time>
      </trkpt>
      <trkpt lat="48.87883" lon="2.33638">
        <ele>96.7</ele>
        <time>2015-03-09T19:50:52.290Z</time>
      </trkpt>
      <trkpt lat="48.87881" lon="2.3365">
        <ele>96.4</ele>
        <time>2015-03-09T19:50:54.433Z</time>
      </trkpt>
      <trkpt lat="48.8788" lon="2.33656">
        <ele>96.4</ele>
        <time>2015-03-09T19:50:55.379Z</time>
      </trkpt>
      <trkpt lat="48.87885" lon="2.33666">
        <ele>98.1</ele>
        <time>2015-03-09T19:50:57.358Z</time>
      </trkpt>
      <trkpt lat="48.87888" lon="2.3367">
        <ele>99.5</ele>
        <time>2015-03-09T19:50:58.388Z</time>
      </trkpt>
      <trkpt lat="48.87897" lon="2.33672">
        <ele>100.3</ele>
        <time>2015-03-09T19:51:03.297Z</time>
      </trkpt>
      <trkpt lat="48.87898" lon="2.33671">
        <ele>100.3</ele>
        <time>2015-03-09T19:51:04.315Z</time>
      </trkpt>
      <trkpt lat="48.87905" lon="2.33677">
        <ele>101.4</ele>
        <time>2015-03-09T19:51:10.309Z</time>
      </trkpt>
      <trkpt lat="48.87907" lon="2.33678">
        <ele>101.5</ele>
        <time>2015-03-09T19:51:11.303Z</time>
      </trkpt>
      <trkpt lat="48.87913" lon="2.33685">
        <ele>101.5</ele>
        <time>2015-03-09T19:51:14.346Z</time>
      </trkpt>
      <trkpt lat="48.87915" lon="2.33688">
        <ele>101.5</ele>
        <time>2015-03-09T19:51:15.260Z</time>
      </trkpt>
      <trkpt lat="48.87923" lon="2.33696">
        <ele>100.6</ele>
        <time>2015-03-09T19:51:18.305Z</time>
      </trkpt>
      <trkpt lat="48.87925" lon="2.33699">
        <ele>100</ele>
        <time>2015-03-09T19:51:19.304Z</time>
      </trkpt>
      <trkpt lat="48.8793" lon="2.33708">
        <ele>100.1</ele>
        <time>2015-03-09T19:51:22.343Z</time>
      </trkpt>
      <trkpt lat="48.87931" lon="2.3371">
        <ele>100.1</ele>
        <time>2015-03-09T19:51:23.343Z</time>
      </trkpt>
      <trkpt lat="48.87933" lon="2.33723">
        <ele>100.6</ele>
        <time>2015-03-09T19:51:28.038Z</time>
      </trkpt>
      <trkpt lat="48.87932" lon="2.33726">
        <ele>100.8</ele>
        <time>2015-03-09T19:51:28.268Z</time>
      </trkpt>
      <trkpt lat="48.87931" lon="2.33737">
        <ele>101.4</ele>
        <time>2015-03-09T19:51:33.058Z</time>
      </trkpt>
      <trkpt lat="48.8793" lon="2.33739">
        <ele>101.4</ele>
        <time>2015-03-09T19:51:33.327Z</time>
      </trkpt>
      <trkpt lat="48.87927" lon="2.33752">
        <ele>102.2</ele>
        <time>2015-03-09T19:51:38.321Z</time>
      </trkpt>
      <trkpt lat="48.87926" lon="2.33755">
        <ele>102.2</ele>
        <time>2015-03-09T19:51:39.355Z</time>
      </trkpt>
      <trkpt lat="48.87922" lon="2.33766">
        <ele>102.1</ele>
        <time>2015-03-09T19:51:43.180Z</time>
      </trkpt>
      <trkpt lat="48.87921" lon="2.33771">
        <ele>102.1</ele>
        <time>2015-03-09T19:51:43.319Z</time>
      </trkpt>
      <trkpt lat="48.8792" lon="2.33782">
        <ele>101.9</ele>
        <time>2015-03-09T19:51:45.348Z</time>
      </trkpt>
      <trkpt lat="48.87919" lon="2.33788">
        <ele>101.7</ele>
        <time>2015-03-09T19:51:46.239Z</time>
      </trkpt>
      <trkpt lat="48.87916" lon="2.338">
        <ele>101.4</ele>
        <time>2015-03-09T19:51:49.265Z</time>
      </trkpt>
      <trkpt lat="48.87914" lon="2.33805">
        <ele>101.3</ele>
        <time>2015-03-09T19:51:49.286Z</time>
      </trkpt>
      <trkpt lat="48.87911" lon="2.33811">
        <ele>101.3</ele>
        <time>2015-03-09T19:51:50.303Z</time>
      </trkpt>
      <trkpt lat="48.87909" lon="2.33817">
        <ele>101.2</ele>
        <time>2015-03-09T19:51:51.342Z</time>
      </trkpt>
      <trkpt lat="48.87907" lon="2.33823">
        <ele>101.1</ele>
        <time>2015-03-09T19:51:52.293Z</time>
      </trkpt>
      <trkpt lat="48.87904" lon="2.3383">
        <ele>101.1</ele>
        <time>2015-03-09T19:51:53.272Z</time>
      </trkpt>
      <trkpt lat="48.87901" lon="2.33836">
        <ele>101</ele>
        <time>2015-03-09T19:51:54.371Z</time>
      </trkpt>
      <trkpt lat="48.87898" lon="2.33844">
        <ele>101</ele>
        <time>2015-03-09T19:51:55.308Z</time>
      </trkpt>
      <trkpt lat="48.87896" lon="2.33851">
        <ele>100.9</ele>
        <time>2015-03-09T19:51:56.315Z</time>
      </trkpt>
      <trkpt lat="48.87894" lon="2.33858">
        <ele>100.9</ele>
        <time>2015-03-09T19:51:57.320Z</time>
      </trkpt>
      <trkpt lat="48.87893" lon="2.33866">
        <ele>100.8</ele>
        <time>2015-03-09T19:51:58.327Z</time>
      </trkpt>
      <trkpt lat="48.87892" lon="2.33875">
        <ele>100.5</ele>
        <time>2015-03-09T19:51:59.332Z</time>
      </trkpt>
      <trkpt lat="48.87891" lon="2.33888">
        <ele>100.4</ele>
        <time>2015-03-09T19:52:01.368Z</time>
      </trkpt>
      <trkpt lat="48.87891" lon="2.33892">
        <ele>100.4</ele>
        <time>2015-03-09T19:52:02.280Z</time>
      </trkpt>
      <trkpt lat="48.87891" lon="2.33897">
        <ele>100.4</ele>
        <time>2015-03-09T19:52:03.292Z</time>
      </trkpt>
      <trkpt lat="48.87889" lon="2.33905">
        <ele>100.1</ele>
        <time>2015-03-09T19:52:04.297Z</time>
      </trkpt>
      <trkpt lat="48.87886" lon="2.33913">
        <ele>99.9</ele>
        <time>2015-03-09T19:52:05.306Z</time>
      </trkpt>
      <trkpt lat="48.87888" lon="2.33919">
        <ele>99.5</ele>
        <time>2015-03-09T19:52:06.319Z</time>
      </trkpt>
      <trkpt lat="48.87886" lon="2.33932">
        <ele>99.5</ele>
        <time>2015-03-09T19:52:08.256Z</time>
      </trkpt>
      <trkpt lat="48.87884" lon="2.33937">
        <ele>99.6</ele>
        <time>2015-03-09T19:52:09.288Z</time>
      </trkpt>
      <trkpt lat="48.87881" lon="2.33946">
        <ele>99.4</ele>
        <time>2015-03-09T19:52:11.320Z</time>
      </trkpt>
      <trkpt lat="48.8788" lon="2.33952">
        <ele>99.4</ele>
        <time>2015-03-09T19:52:12.340Z</time>
      </trkpt>
      <trkpt lat="48.8788" lon="2.33968">
        <ele>100</ele>
        <time>2015-03-09T19:52:15.554Z</time>
      </trkpt>
      <trkpt lat="48.87885" lon="2.33976">
        <ele>100.7</ele>
        <time>2015-03-09T19:52:17.267Z</time>
      </trkpt>
      <trkpt lat="48.87888" lon="2.33978">
        <ele>100.9</ele>
        <time>2015-03-09T19:52:18.399Z</time>
      </trkpt>
      <trkpt lat="48.87893" lon="2.3398">
        <ele>101.2</ele>
        <time>2015-03-09T19:52:19.275Z</time>
      </trkpt>
      <trkpt lat="48.879" lon="2.33983">
        <ele>101.7</ele>
        <time>2015-03-09T19:52:20.264Z</time>
      </trkpt>
      <trkpt lat="48.87905" lon="2.33986">
        <ele>101.9</ele>
        <time>2015-03-09T19:52:21.283Z</time>
      </trkpt>
      <trkpt lat="48.8791" lon="2.33988">
        <ele>102.1</ele>
        <time>2015-03-09T19:52:22.284Z</time>
      </trkpt>
      <trkpt lat="48.87916" lon="2.33991">
        <ele>102.5</ele>
        <time>2015-03-09T19:52:24.329Z</time>
      </trkpt>
      <trkpt lat="48.87921" lon="2.33991">
        <ele>102.7</ele>
        <time>2015-03-09T19:52:25.236Z</time>
      </trkpt>
      <trkpt lat="48.87927" lon="2.33991">
        <ele>102.4</ele>
        <time>2015-03-09T19:52:26.255Z</time>
      </trkpt>
      <trkpt lat="48.87931" lon="2.33993">
        <ele>102.6</ele>
        <time>2015-03-09T19:52:27.271Z</time>
      </trkpt>
      <trkpt lat="48.87937" lon="2.34">
        <ele>103.2</ele>
        <time>2015-03-09T19:52:29.304Z</time>
      </trkpt>
      <trkpt lat="48.87941" lon="2.34003">
        <ele>103.4</ele>
        <time>2015-03-09T19:52:30.312Z</time>
      </trkpt>
      <trkpt lat="48.87949" lon="2.34006">
        <ele>103.7</ele>
        <time>2015-03-09T19:52:32.259Z</time>
      </trkpt>
      <trkpt lat="48.87953" lon="2.34006">
        <ele>103.7</ele>
        <time>2015-03-09T19:52:33.265Z</time>
      </trkpt>
      <trkpt lat="48.87962" lon="2.34007">
        <ele>103.8</ele>
        <time>2015-03-09T19:52:35.302Z</time>
      </trkpt>
      <trkpt lat="48.87965" lon="2.34009">
        <ele>103.9</ele>
        <time>2015-03-09T19:52:36.310Z</time>
      </trkpt>
      <trkpt lat="48.87973" lon="2.34014">
        <ele>104.5</ele>
        <time>2015-03-09T19:52:40.381Z</time>
      </trkpt>
      <trkpt lat="48.87974" lon="2.34014">
        <ele>104.7</ele>
        <time>2015-03-09T19:52:41.274Z</time>
      </trkpt>
      <trkpt lat="48.87979" lon="2.34014">
        <ele>105.4</ele>
        <time>2015-03-09T19:52:43.321Z</time>
      </trkpt>
      <trkpt lat="48.87979" lon="2.34015">
        <ele>105.6</ele>
        <time>2015-03-09T19:52:44.395Z</time>
      </trkpt>
      <trkpt lat="48.8798" lon="2.34016">
        <ele>105.7</ele>
        <time>2015-03-09T19:52:45.262Z</time>
      </trkpt>
      <trkpt lat="48.87977" lon="2.34028">
        <ele>106.5</ele>
        <time>2015-03-09T19:52:50.359Z</time>
      </trkpt>
      <trkpt lat="48.87977" lon="2.34031">
        <ele>106.5</ele>
        <time>2015-03-09T19:52:51.282Z</time>
      </trkpt>
      <trkpt lat="48.87974" lon="2.34043">
        <ele>106.1</ele>
        <time>2015-03-09T19:52:55.273Z</time>
      </trkpt>
      <trkpt lat="48.87973" lon="2.34046">
        <ele>106</ele>
        <time>2015-03-09T19:52:56.375Z</time>
      </trkpt>
      <trkpt lat="48.87972" lon="2.34058">
        <ele>105.6</ele>
        <time>2015-03-09T19:52:59.275Z</time>
      </trkpt>
      <trkpt lat="48.87973" lon="2.34063">
        <ele>105.7</ele>
        <time>2015-03-09T19:53:00.273Z</time>
      </trkpt>
      <trkpt lat="48.8797" lon="2.34071">
        <ele>105.3</ele>
        <time>2015-03-09T19:53:02.296Z</time>
      </trkpt>
      <trkpt lat="48.87969" lon="2.34075">
        <ele>105.2</ele>
        <time>2015-03-09T19:53:03.310Z</time>
      </trkpt>
      <trkpt lat="48.87965" lon="2.34083">
        <ele>105.1</ele>
        <time>2015-03-09T19:53:07.018Z</time>
      </trkpt>
      <trkpt lat="48.87964" lon="2.34086">
        <ele>105.1</ele>
        <time>2015-03-09T19:53:07.280Z</time>
      </trkpt>
      <trkpt lat="48.87961" lon="2.34098">
        <ele>105.6</ele>
        <time>2015-03-09T19:53:11.257Z</time>
      </trkpt>
      <trkpt lat="48.87961" lon="2.34101">
        <ele>105.7</ele>
        <time>2015-03-09T19:53:12.271Z</time>
      </trkpt>
      <trkpt lat="48.8796" lon="2.34112">
        <ele>106</ele>
        <time>2015-03-09T19:53:17.310Z</time>
      </trkpt>
      <trkpt lat="48.8796" lon="2.34115">
        <ele>106.1</ele>
        <time>2015-03-09T19:53:18.327Z</time>
      </trkpt>
      <trkpt lat="48.87958" lon="2.34126">
        <ele>106.9</ele>
        <time>2015-03-09T19:53:21.366Z</time>
      </trkpt>
      <trkpt lat="48.87957" lon="2.34129">
        <ele>107</ele>
        <time>2015-03-09T19:53:22.273Z</time>
      </trkpt>
      <trkpt lat="48.87954" lon="2.34138">
        <ele>107.9</ele>
        <time>2015-03-09T19:53:24.391Z</time>
      </trkpt>
      <trkpt lat="48.87952" lon="2.34143">
        <ele>107.9</ele>
        <time>2015-03-09T19:53:25.334Z</time>
      </trkpt>
      <trkpt lat="48.8795" lon="2.34152">
        <ele>107.9</ele>
        <time>2015-03-09T19:53:27.348Z</time>
      </trkpt>
      <trkpt lat="48.87948" lon="2.34156">
        <ele>108.2</ele>
        <time>2015-03-09T19:53:28.360Z</time>
      </trkpt>
      <trkpt lat="48.87945" lon="2.34165">
        <ele>108.9</ele>
        <time>2015-03-09T19:53:31.345Z</time>
      </trkpt>
      <trkpt lat="48.87945" lon="2.34169">
        <ele>109.1</ele>
        <time>2015-03-09T19:53:32.268Z</time>
      </trkpt>
      <trkpt lat="48.87943" lon="2.34179">
        <ele>108.4</ele>
        <time>2015-03-09T19:53:35.755Z</time>
      </trkpt>
      <trkpt lat="48.87942" lon="2.34183">
        <ele>108</ele>
        <time>2015-03-09T19:53:36.335Z</time>
      </trkpt>
      <trkpt lat="48.8794" lon="2.34196">
        <ele>106.7</ele>
        <time>2015-03-09T19:53:39.380Z</time>
      </trkpt>
      <trkpt lat="48.87939" lon="2.342">
        <ele>106.9</ele>
        <time>2015-03-09T19:53:40.247Z</time>
      </trkpt>
      <trkpt lat="48.87934" lon="2.34208">
        <ele>107.3</ele>
        <time>2015-03-09T19:53:42.299Z</time>
      </trkpt>
      <trkpt lat="48.87929" lon="2.34216">
        <ele>106.9</ele>
        <time>2015-03-09T19:53:44.314Z</time>
      </trkpt>
      <trkpt lat="48.87924" lon="2.34227">
        <ele>106.4</ele>
        <time>2015-03-09T19:53:46.351Z</time>
      </trkpt>
      <trkpt lat="48.87922" lon="2.34232">
        <ele>106.4</ele>
        <time>2015-03-09T19:53:47.360Z</time>
      </trkpt>
      <trkpt lat="48.8792" lon="2.34242">
        <ele>106.5</ele>
        <time>2015-03-09T19:53:49.264Z</time>
      </trkpt>
      <trkpt lat="48.8792" lon="2.34247">
        <ele>106.6</ele>
        <time>2015-03-09T19:53:50.296Z</time>
      </trkpt>
      <trkpt lat="48.87917" lon="2.34259">
        <ele>107.3</ele>
        <time>2015-03-09T19:53:54.382Z</time>
      </trkpt>
      <trkpt lat="48.87913" lon="2.34264">
        <ele>107.9</ele>
        <time>2015-03-09T19:53:55.351Z</time>
      </trkpt>
      <trkpt lat="48.87912" lon="2.34272">
        <ele>108.1</ele>
        <time>2015-03-09T19:53:57.275Z</time>
      </trkpt>
      <trkpt lat="48.87911" lon="2.34281">
        <ele>106.5</ele>
        <time>2015-03-09T19:53:58.289Z</time>
      </trkpt>
      <trkpt lat="48.87911" lon="2.34293">
        <ele>105.1</ele>
        <time>2015-03-09T19:54:01.405Z</time>
      </trkpt>
      <trkpt lat="48.87911" lon="2.34296">
        <ele>105.1</ele>
        <time>2015-03-09T19:54:02.296Z</time>
      </trkpt>
      <trkpt lat="48.87914" lon="2.34306">
        <ele>106.2</ele>
        <time>2015-03-09T19:54:09.508Z</time>
      </trkpt>
      <trkpt lat="48.87916" lon="2.34308">
        <ele>106.3</ele>
        <time>2015-03-09T19:54:10.389Z</time>
      </trkpt>
      <trkpt lat="48.87913" lon="2.3432">
        <ele>107.1</ele>
        <time>2015-03-09T19:54:15.266Z</time>
      </trkpt>
      <trkpt lat="48.87912" lon="2.34325">
        <ele>107.5</ele>
        <time>2015-03-09T19:54:16.276Z</time>
      </trkpt>
      <trkpt lat="48.87909" lon="2.34338">
        <ele>108.2</ele>
        <time>2015-03-09T19:54:19.692Z</time>
      </trkpt>
      <trkpt lat="48.87909" lon="2.34342">
        <ele>108.4</ele>
        <time>2015-03-09T19:54:20.325Z</time>
      </trkpt>
      <trkpt lat="48.87906" lon="2.34351">
        <ele>108.3</ele>
        <time>2015-03-09T19:54:22.345Z</time>
      </trkpt>
      <trkpt lat="48.87904" lon="2.34356">
        <ele>108.2</ele>
        <time>2015-03-09T19:54:23.326Z</time>
      </trkpt>
      <trkpt lat="48.879" lon="2.34367">
        <ele>108</ele>
        <time>2015-03-09T19:54:25.323Z</time>
      </trkpt>
      <trkpt lat="48.87897" lon="2.34372">
        <ele>108</ele>
        <time>2015-03-09T19:54:26.335Z</time>
      </trkpt>
      <trkpt lat="48.87895" lon="2.34383">
        <ele>108.1</ele>
        <time>2015-03-09T19:54:28.271Z</time>
      </trkpt>
      <trkpt lat="48.87893" lon="2.34389">
        <ele>108.2</ele>
        <time>2015-03-09T19:54:29.317Z</time>
      </trkpt>
      <trkpt lat="48.87891" lon="2.34395">
        <ele>108.1</ele>
        <time>2015-03-09T19:54:30.338Z</time>
      </trkpt>
      <trkpt lat="48.87888" lon="2.34402">
        <ele>108</ele>
        <time>2015-03-09T19:54:31.345Z</time>
      </trkpt>
      <trkpt lat="48.87885" lon="2.34408">
        <ele>107.9</ele>
        <time>2015-03-09T19:54:32.381Z</time>
      </trkpt>
      <trkpt lat="48.87883" lon="2.34415">
        <ele>107.8</ele>
        <time>2015-03-09T19:54:33.298Z</time>
      </trkpt>
      <trkpt lat="48.87882" lon="2.34422">
        <ele>107.7</ele>
        <time>2015-03-09T19:54:34.796Z</time>
      </trkpt>
      <trkpt lat="48.87879" lon="2.34428">
        <ele>107.6</ele>
        <time>2015-03-09T19:54:35.319Z</time>
      </trkpt>
      <trkpt lat="48.87876" lon="2.34435">
        <ele>107.5</ele>
        <time>2015-03-09T19:54:36.335Z</time>
      </trkpt>
      <trkpt lat="48.87873" lon="2.34442">
        <ele>107.5</ele>
        <time>2015-03-09T19:54:37.340Z</time>
      </trkpt>
      <trkpt lat="48.87869" lon="2.34451">
        <ele>107.5</ele>
        <time>2015-03-09T19:54:39.259Z</time>
      </trkpt>
      <trkpt lat="48.87866" lon="2.34456">
        <ele>107.5</ele>
        <time>2015-03-09T19:54:40.270Z</time>
      </trkpt>
      <trkpt lat="48.87863" lon="2.34466">
        <ele>107.3</ele>
        <time>2015-03-09T19:54:42.302Z</time>
      </trkpt>
      <trkpt lat="48.87862" lon="2.34472">
        <ele>107.2</ele>
        <time>2015-03-09T19:54:43.406Z</time>
      </trkpt>
      <trkpt lat="48.87858" lon="2.34483">
        <ele>106.7</ele>
        <time>2015-03-09T19:54:45.256Z</time>
      </trkpt>
      <trkpt lat="48.87857" lon="2.3449">
        <ele>105.7</ele>
        <time>2015-03-09T19:54:46.282Z</time>
      </trkpt>
      <trkpt lat="48.87862" lon="2.34498">
        <ele>105.3</ele>
        <time>2015-03-09T19:54:51.361Z</time>
      </trkpt>
      <trkpt lat="48.87864" lon="2.34499">
        <ele>105.5</ele>
        <time>2015-03-09T19:54:52.260Z</time>
      </trkpt>
      <trkpt lat="48.87871" lon="2.34502">
        <ele>106.4</ele>
        <time>2015-03-09T19:54:55.325Z</time>
      </trkpt>
      <trkpt lat="48.87873" lon="2.34504">
        <ele>106.7</ele>
        <time>2015-03-09T19:54:56.295Z</time>
      </trkpt>
      <trkpt lat="48.87879" lon="2.34512">
        <ele>107.6</ele>
        <time>2015-03-09T19:55:00.318Z</time>
      </trkpt>
      <trkpt lat="48.87881" lon="2.34514">
        <ele>107.7</ele>
        <time>2015-03-09T19:55:01.331Z</time>
      </trkpt>
      <trkpt lat="48.87888" lon="2.3452">
        <ele>108.7</ele>
        <time>2015-03-09T19:55:05.276Z</time>
      </trkpt>
      <trkpt lat="48.8789" lon="2.34522">
        <ele>108.9</ele>
        <time>2015-03-09T19:55:06.294Z</time>
      </trkpt>
      <trkpt lat="48.87895" lon="2.34529">
        <ele>109.5</ele>
        <time>2015-03-09T19:55:08.324Z</time>
      </trkpt>
      <trkpt lat="48.87897" lon="2.34533">
        <ele>109.7</ele>
        <time>2015-03-09T19:55:09.296Z</time>
      </trkpt>
      <trkpt lat="48.87903" lon="2.34541">
        <ele>110</ele>
        <time>2015-03-09T19:55:11.231Z</time>
      </trkpt>
      <trkpt lat="48.87906" lon="2.34544">
        <ele>110.3</ele>
        <time>2015-03-09T19:55:12.450Z</time>
      </trkpt>
      <trkpt lat="48.87913" lon="2.34548">
        <ele>111.1</ele>
        <time>2015-03-09T19:55:15.284Z</time>
      </trkpt>
      <trkpt lat="48.87915" lon="2.34548">
        <ele>111.2</ele>
        <time>2015-03-09T19:55:16.306Z</time>
      </trkpt>
      <trkpt lat="48.87923" lon="2.34552">
        <ele>112.7</ele>
        <time>2015-03-09T19:55:20.296Z</time>
      </trkpt>
      <trkpt lat="48.87925" lon="2.34555">
        <ele>113.4</ele>
        <time>2015-03-09T19:55:21.429Z</time>
      </trkpt>
      <trkpt lat="48.87929" lon="2.34564">
        <ele>113.7</ele>
        <time>2015-03-09T19:55:23.266Z</time>
      </trkpt>
      <trkpt lat="48.87932" lon="2.34569">
        <ele>113.6</ele>
        <time>2015-03-09T19:55:24.331Z</time>
      </trkpt>
      <trkpt lat="48.87938" lon="2.34576">
        <ele>114.7</ele>
        <time>2015-03-09T19:55:26.297Z</time>
      </trkpt>
      <trkpt lat="48.87946" lon="2.34581">
        <ele>116.7</ele>
        <time>2015-03-09T19:55:27.330Z</time>
      </trkpt>
      <trkpt lat="48.87946" lon="2.34581">
        <ele>116.7</ele>
        <time>2015-03-09T19:55:27.696Z</time>
      </trkpt>
      <trkpt lat="48.87952" lon="2.34585">
        <ele>117.2</ele>
        <time>2015-03-09T19:55:28.232Z</time>
      </trkpt>
      <trkpt lat="48.87953" lon="2.34587">
        <ele>117.4</ele>
        <time>2015-03-09T19:55:30.280Z</time>
      </trkpt>
      <trkpt lat="48.87954" lon="2.34589">
        <ele>117.2</ele>
        <time>2015-03-09T19:55:31.285Z</time>
      </trkpt>
      <trkpt lat="48.87954" lon="2.34602">
        <ele>115.5</ele>
        <time>2015-03-09T19:55:36.296Z</time>
      </trkpt>
      <trkpt lat="48.87952" lon="2.34606">
        <ele>115.2</ele>
        <time>2015-03-09T19:55:37.290Z</time>
      </trkpt>
      <trkpt lat="48.87948" lon="2.34615">
        <ele>115</ele>
        <time>2015-03-09T19:55:39.338Z</time>
      </trkpt>
      <trkpt lat="48.87944" lon="2.34621">
        <ele>114.6</ele>
        <time>2015-03-09T19:55:40.355Z</time>
      </trkpt>
      <trkpt lat="48.8794" lon="2.34626">
        <ele>114.2</ele>
        <time>2015-03-09T19:55:41.257Z</time>
      </trkpt>
      <trkpt lat="48.87936" lon="2.34633">
        <ele>113.9</ele>
        <time>2015-03-09T19:55:42.291Z</time>
      </trkpt>
      <trkpt lat="48.87933" lon="2.34639">
        <ele>113.5</ele>
        <time>2015-03-09T19:55:43.295Z</time>
      </trkpt>
      <trkpt lat="48.87932" lon="2.34646">
        <ele>112.6</ele>
        <time>2015-03-09T19:55:44.311Z</time>
      </trkpt>
      <trkpt lat="48.8793" lon="2.34653">
        <ele>111.9</ele>
        <time>2015-03-09T19:55:45.326Z</time>
      </trkpt>
      <trkpt lat="48.8793" lon="2.3466">
        <ele>111.3</ele>
        <time>2015-03-09T19:55:46.333Z</time>
      </trkpt>
      <trkpt lat="48.87928" lon="2.34673">
        <ele>110.4</ele>
        <time>2015-03-09T19:55:48.286Z</time>
      </trkpt>
      <trkpt lat="48.87927" lon="2.3468">
        <ele>109.9</ele>
        <time>2015-03-09T19:55:49.302Z</time>
      </trkpt>
      <trkpt lat="48.87927" lon="2.34686">
        <ele>109.5</ele>
        <time>2015-03-09T19:55:50.344Z</time>
      </trkpt>
      <trkpt lat="48.87925" lon="2.34693">
        <ele>109.2</ele>
        <time>2015-03-09T19:55:51.257Z</time>
      </trkpt>
      <trkpt lat="48.87925" lon="2.34699">
        <ele>109</ele>
        <time>2015-03-09T19:55:52.336Z</time>
      </trkpt>
      <trkpt lat="48.87923" lon="2.34708">
        <ele>108</ele>
        <time>2015-03-09T19:55:53.332Z</time>
      </trkpt>
      <trkpt lat="48.87922" lon="2.34715">
        <ele>107.5</ele>
        <time>2015-03-09T19:55:54.355Z</time>
      </trkpt>
      <trkpt lat="48.87919" lon="2.34721">
        <ele>107.3</ele>
        <time>2015-03-09T19:55:55.265Z</time>
      </trkpt>
      <trkpt lat="48.87917" lon="2.34728">
        <ele>107.2</ele>
        <time>2015-03-09T19:55:56.268Z</time>
      </trkpt>
      <trkpt lat="48.87915" lon="2.34734">
        <ele>107.1</ele>
        <time>2015-03-09T19:55:57.276Z</time>
      </trkpt>
      <trkpt lat="48.87913" lon="2.34746">
        <ele>107.3</ele>
        <time>2015-03-09T19:55:59.287Z</time>
      </trkpt>
      <trkpt lat="48.87913" lon="2.34751">
        <ele>107.4</ele>
        <time>2015-03-09T19:56:00.324Z</time>
      </trkpt>
      <trkpt lat="48.87913" lon="2.34764">
        <ele>107</ele>
        <time>2015-03-09T19:56:02.252Z</time>
      </trkpt>
      <trkpt lat="48.87915" lon="2.34771">
        <ele>106.8</ele>
        <time>2015-03-09T19:56:03.263Z</time>
      </trkpt>
      <trkpt lat="48.87916" lon="2.34783">
        <ele>106.5</ele>
        <time>2015-03-09T19:56:05.303Z</time>
      </trkpt>
      <trkpt lat="48.87916" lon="2.3479">
        <ele>106.3</ele>
        <time>2015-03-09T19:56:06.327Z</time>
      </trkpt>
      <trkpt lat="48.87916" lon="2.34803">
        <ele>106</ele>
        <time>2015-03-09T19:56:08.272Z</time>
      </trkpt>
      <trkpt lat="48.87915" lon="2.34809">
        <ele>106.1</ele>
        <time>2015-03-09T19:56:09.231Z</time>
      </trkpt>
      <trkpt lat="48.87916" lon="2.3482">
        <ele>105.9</ele>
        <time>2015-03-09T19:56:11.308Z</time>
      </trkpt>
      <trkpt lat="48.87918" lon="2.34825">
        <ele>106</ele>
        <time>2015-03-09T19:56:12.358Z</time>
      </trkpt>
      <trkpt lat="48.87918" lon="2.34835">
        <ele>106.2</ele>
        <time>2015-03-09T19:56:14.276Z</time>
      </trkpt>
      <trkpt lat="48.87917" lon="2.34841">
        <ele>106.2</ele>
        <time>2015-03-09T19:56:15.305Z</time>
      </trkpt>
      <trkpt lat="48.87916" lon="2.34852">
        <ele>106.8</ele>
        <time>2015-03-09T19:56:17.321Z</time>
      </trkpt>
      <trkpt lat="48.87916" lon="2.34857">
        <ele>107.2</ele>
        <time>2015-03-09T19:56:18.393Z</time>
      </trkpt>
      <trkpt lat="48.87918" lon="2.34868">
        <ele>107.9</ele>
        <time>2015-03-09T19:56:20.264Z</time>
      </trkpt>
      <trkpt lat="48.87918" lon="2.34874">
        <ele>108.1</ele>
        <time>2015-03-09T19:56:21.276Z</time>
      </trkpt>
      <trkpt lat="48.87918" lon="2.34885">
        <ele>108.7</ele>
        <time>2015-03-09T19:56:23.292Z</time>
      </trkpt>
      <trkpt lat="48.87919" lon="2.3489">
        <ele>109.1</ele>
        <time>2015-03-09T19:56:24.365Z</time>
      </trkpt>
      <trkpt lat="48.87921" lon="2.34901">
        <ele>110.2</ele>
        <time>2015-03-09T19:56:26.263Z</time>
      </trkpt>
      <trkpt lat="48.87922" lon="2.34906">
        <ele>110.8</ele>
        <time>2015-03-09T19:56:27.272Z</time>
      </trkpt>
      <trkpt lat="48.87924" lon="2.3491">
        <ele>111.2</ele>
        <time>2015-03-09T19:56:28.264Z</time>
      </trkpt>
      <trkpt lat="48.87932" lon="2.34913">
        <ele>110.3</ele>
        <time>2015-03-09T19:56:29.276Z</time>
      </trkpt>
      <trkpt lat="48.8794" lon="2.3492">
        <ele>108.8</ele>
        <time>2015-03-09T19:56:31.365Z</time>
      </trkpt>
      <trkpt lat="48.87943" lon="2.34924">
        <ele>108.1</ele>
        <time>2015-03-09T19:56:32.272Z</time>
      </trkpt>
      <trkpt lat="48.87947" lon="2.34933">
        <ele>106.9</ele>
        <time>2015-03-09T19:56:34.308Z</time>
      </trkpt>
      <trkpt lat="48.87949" lon="2.34937">
        <ele>106.6</ele>
        <time>2015-03-09T19:56:35.315Z</time>
      </trkpt>
      <trkpt lat="48.87952" lon="2.34945">
        <ele>105.9</ele>
        <time>2015-03-09T19:56:37.283Z</time>
      </trkpt>
      <trkpt lat="48.87954" lon="2.3495">
        <ele>105.8</ele>
        <time>2015-03-09T19:56:38.297Z</time>
      </trkpt>
      <trkpt lat="48.87956" lon="2.34963">
        <ele>105.7</ele>
        <time>2015-03-09T19:56:40.248Z</time>
      </trkpt>
      <trkpt lat="48.87958" lon="2.34968">
        <ele>105.7</ele>
        <time>2015-03-09T19:56:41.299Z</time>
      </trkpt>
      <trkpt lat="48.87958" lon="2.34979">
        <ele>106.2</ele>
        <time>2015-03-09T19:56:43.330Z</time>
      </trkpt>
      <trkpt lat="48.87957" lon="2.34984">
        <ele>106.2</ele>
        <time>2015-03-09T19:56:44.346Z</time>
      </trkpt>
      <trkpt lat="48.87957" lon="2.34997">
        <ele>106.2</ele>
        <time>2015-03-09T19:56:47.336Z</time>
      </trkpt>
      <trkpt lat="48.87956" lon="2.35001">
        <ele>106.5</ele>
        <time>2015-03-09T19:56:48.371Z</time>
      </trkpt>
      <trkpt lat="48.87954" lon="2.35011">
        <ele>106.3</ele>
        <time>2015-03-09T19:56:50.340Z</time>
      </trkpt>
      <trkpt lat="48.87952" lon="2.35016">
        <ele>106.3</ele>
        <time>2015-03-09T19:56:51.392Z</time>
      </trkpt>
      <trkpt lat="48.87949" lon="2.35028">
        <ele>106.2</ele>
        <time>2015-03-09T19:56:53.254Z</time>
      </trkpt>
      <trkpt lat="48.87947" lon="2.35033">
        <ele>106.2</ele>
        <time>2015-03-09T19:56:54.299Z</time>
      </trkpt>
      <trkpt lat="48.87944" lon="2.35046">
        <ele>106</ele>
        <time>2015-03-09T19:56:56.359Z</time>
      </trkpt>
      <trkpt lat="48.87941" lon="2.35054">
        <ele>105.8</ele>
        <time>2015-03-09T19:56:57.267Z</time>
      </trkpt>
      <trkpt lat="48.87939" lon="2.35061">
        <ele>105.8</ele>
        <time>2015-03-09T19:56:58.294Z</time>
      </trkpt>
      <trkpt lat="48.87938" lon="2.35067">
        <ele>106</ele>
        <time>2015-03-09T19:56:59.307Z</time>
      </trkpt>
      <trkpt lat="48.87937" lon="2.35074">
        <ele>106.2</ele>
        <time>2015-03-09T19:57:00.333Z</time>
      </trkpt>
      <trkpt lat="48.87934" lon="2.35081">
        <ele>106.2</ele>
        <time>2015-03-09T19:57:01.234Z</time>
      </trkpt>
      <trkpt lat="48.87933" lon="2.35089">
        <ele>106.3</ele>
        <time>2015-03-09T19:57:02.364Z</time>
      </trkpt>
      <trkpt lat="48.87931" lon="2.35096">
        <ele>106.4</ele>
        <time>2015-03-09T19:57:03.252Z</time>
      </trkpt>
      <trkpt lat="48.8793" lon="2.35108">
        <ele>106.3</ele>
        <time>2015-03-09T19:57:05.251Z</time>
      </trkpt>
      <trkpt lat="48.87931" lon="2.35114">
        <ele>106.3</ele>
        <time>2015-03-09T19:57:06.282Z</time>
      </trkpt>
      <trkpt lat="48.8793" lon="2.35121">
        <ele>106.3</ele>
        <time>2015-03-09T19:57:07.373Z</time>
      </trkpt>
      <trkpt lat="48.87929" lon="2.35128">
        <ele>106.3</ele>
        <time>2015-03-09T19:57:08.255Z</time>
      </trkpt>
      <trkpt lat="48.87928" lon="2.35135">
        <ele>106.4</ele>
        <time>2015-03-09T19:57:09.279Z</time>
      </trkpt>
      <trkpt lat="48.87927" lon="2.35143">
        <ele>106.7</ele>
        <time>2015-03-09T19:57:10.363Z</time>
      </trkpt>
      <trkpt lat="48.87931" lon="2.35156">
        <ele>106.2</ele>
        <time>2015-03-09T19:57:12.334Z</time>
      </trkpt>
      <trkpt lat="48.87932" lon="2.35162">
        <ele>106</ele>
        <time>2015-03-09T19:57:13.411Z</time>
      </trkpt>
      <trkpt lat="48.87935" lon="2.35174">
        <ele>105.6</ele>
        <time>2015-03-09T19:57:15.261Z</time>
      </trkpt>
      <trkpt lat="48.87936" lon="2.35178">
        <ele>105.6</ele>
        <time>2015-03-09T19:57:16.277Z</time>
      </trkpt>
      <trkpt lat="48.87938" lon="2.35189">
        <ele>105.2</ele>
        <time>2015-03-09T19:57:18.297Z</time>
      </trkpt>
      <trkpt lat="48.87938" lon="2.35195">
        <ele>105.2</ele>
        <time>2015-03-09T19:57:19.304Z</time>
      </trkpt>
      <trkpt lat="48.87939" lon="2.35204">
        <ele>105.5</ele>
        <time>2015-03-09T19:57:21.257Z</time>
      </trkpt>
      <trkpt lat="48.8794" lon="2.35209">
        <ele>105.6</ele>
        <time>2015-03-09T19:57:22.268Z</time>
      </trkpt>
      <trkpt lat="48.87939" lon="2.35221">
        <ele>105.9</ele>
        <time>2015-03-09T19:57:26.389Z</time>
      </trkpt>
      <trkpt lat="48.87937" lon="2.35224">
        <ele>106.4</ele>
        <time>2015-03-09T19:57:27.234Z</time>
      </trkpt>
      <trkpt lat="48.87936" lon="2.35227">
        <ele>106.8</ele>
        <time>2015-03-09T19:57:28.534Z</time>
      </trkpt>
      <trkpt lat="48.87935" lon="2.35227">
        <ele>107.1</ele>
        <time>2015-03-09T19:57:29.289Z</time>
      </trkpt>
      <trkpt lat="48.87934" lon="2.35227">
        <ele>107.5</ele>
        <time>2015-03-09T19:57:30.303Z</time>
      </trkpt>
      <trkpt lat="48.87929" lon="2.35232">
        <ele>108.2</ele>
        <time>2015-03-09T19:57:35.258Z</time>
      </trkpt>
      <trkpt lat="48.87927" lon="2.35236">
        <ele>108.2</ele>
        <time>2015-03-09T19:57:36.310Z</time>
      </trkpt>
      <trkpt lat="48.87925" lon="2.35245">
        <ele>108.3</ele>
        <time>2015-03-09T19:57:39.066Z</time>
      </trkpt>
      <trkpt lat="48.87924" lon="2.3525">
        <ele>108.2</ele>
        <time>2015-03-09T19:57:39.327Z</time>
      </trkpt>
      <trkpt lat="48.87923" lon="2.3526">
        <ele>108.3</ele>
        <time>2015-03-09T19:57:41.354Z</time>
      </trkpt>
      <trkpt lat="48.87923" lon="2.35265">
        <ele>108.3</ele>
        <time>2015-03-09T19:57:42.401Z</time>
      </trkpt>
      <trkpt lat="48.8792" lon="2.35276">
        <ele>107.8</ele>
        <time>2015-03-09T19:57:44.267Z</time>
      </trkpt>
      <trkpt lat="48.87917" lon="2.35284">
        <ele>106.7</ele>
        <time>2015-03-09T19:57:45.302Z</time>
      </trkpt>
      <trkpt lat="48.87915" lon="2.35295">
        <ele>106.2</ele>
        <time>2015-03-09T19:57:49.204Z</time>
      </trkpt>
      <trkpt lat="48.87916" lon="2.35299">
        <ele>106.2</ele>
        <time>2015-03-09T19:57:49.332Z</time>
      </trkpt>
      <trkpt lat="48.87916" lon="2.35312">
        <ele>105.8</ele>
        <time>2015-03-09T19:57:53.289Z</time>
      </trkpt>
      <trkpt lat="48.87917" lon="2.35315">
        <ele>105.7</ele>
        <time>2015-03-09T19:57:54.303Z</time>
      </trkpt>
      <trkpt lat="48.87917" lon="2.35325">
        <ele>106</ele>
        <time>2015-03-09T19:57:57.360Z</time>
      </trkpt>
      <trkpt lat="48.87918" lon="2.35329">
        <ele>106.4</ele>
        <time>2015-03-09T19:57:58.343Z</time>
      </trkpt>
      <trkpt lat="48.87914" lon="2.35339">
        <ele>106.7</ele>
        <time>2015-03-09T19:58:02.287Z</time>
      </trkpt>
      <trkpt lat="48.87908" lon="2.35344">
        <ele>105.9</ele>
        <time>2015-03-09T19:58:03.364Z</time>
      </trkpt>
      <trkpt lat="48.87904" lon="2.35348">
        <ele>105.8</ele>
        <time>2015-03-09T19:58:04.861Z</time>
      </trkpt>
      <trkpt lat="48.879" lon="2.35353">
        <ele>105.5</ele>
        <time>2015-03-09T19:58:05.380Z</time>
      </trkpt>
      <trkpt lat="48.87893" lon="2.3536">
        <ele>105.1</ele>
        <time>2015-03-09T19:58:07.266Z</time>
      </trkpt>
      <trkpt lat="48.87889" lon="2.35365">
        <ele>104.9</ele>
        <time>2015-03-09T19:58:08.305Z</time>
      </trkpt>
      <trkpt lat="48.87885" lon="2.35369">
        <ele>104.9</ele>
        <time>2015-03-09T19:58:09.889Z</time>
      </trkpt>
      <trkpt lat="48.87881" lon="2.35374">
        <ele>105</ele>
        <time>2015-03-09T19:58:10.349Z</time>
      </trkpt>
      <trkpt lat="48.87874" lon="2.3538">
        <ele>105.2</ele>
        <time>2015-03-09T19:58:12.324Z</time>
      </trkpt>
      <trkpt lat="48.8787" lon="2.35383">
        <ele>105.2</ele>
        <time>2015-03-09T19:58:13.388Z</time>
      </trkpt>
      <trkpt lat="48.87863" lon="2.35391">
        <ele>105.1</ele>
        <time>2015-03-09T19:58:16.307Z</time>
      </trkpt>
      <trkpt lat="48.87861" lon="2.35394">
        <ele>105.3</ele>
        <time>2015-03-09T19:58:17.259Z</time>
      </trkpt>
      <trkpt lat="48.87858" lon="2.35403">
        <ele>105</ele>
        <time>2015-03-09T19:58:22.301Z</time>
      </trkpt>
      <trkpt lat="48.87857" lon="2.35409">
        <ele>106.8</ele>
        <time>2015-03-09T19:58:23.314Z</time>
      </trkpt>
      <trkpt lat="48.87855" lon="2.35421">
        <ele>107.6</ele>
        <time>2015-03-09T19:58:40.317Z</time>
      </trkpt>
      <trkpt lat="48.87855" lon="2.35423">
        <ele>107.5</ele>
        <time>2015-03-09T19:58:41.340Z</time>
      </trkpt>
      <trkpt lat="48.87855" lon="2.35435">
        <ele>106.7</ele>
        <time>2015-03-09T19:58:46.307Z</time>
      </trkpt>
      <trkpt lat="48.87855" lon="2.35439">
        <ele>106.7</ele>
        <time>2015-03-09T19:58:47.341Z</time>
      </trkpt>
      <trkpt lat="48.87856" lon="2.3545">
        <ele>106.6</ele>
        <time>2015-03-09T19:58:50.292Z</time>
      </trkpt>
      <trkpt lat="48.87857" lon="2.35454">
        <ele>106.6</ele>
        <time>2015-03-09T19:58:51.293Z</time>
      </trkpt>
      <trkpt lat="48.87861" lon="2.35466">
        <ele>106</ele>
        <time>2015-03-09T19:58:54.354Z</time>
      </trkpt>
      <trkpt lat="48.87863" lon="2.3547">
        <ele>105.8</ele>
        <time>2015-03-09T19:58:55.368Z</time>
      </trkpt>
      <trkpt lat="48.87866" lon="2.35479">
        <ele>105.1</ele>
        <time>2015-03-09T19:58:57.287Z</time>
      </trkpt>
      <trkpt lat="48.87868" lon="2.35483">
        <ele>104.9</ele>
        <time>2015-03-09T19:58:58.307Z</time>
      </trkpt>
      <trkpt lat="48.87871" lon="2.35492">
        <ele>104.7</ele>
        <time>2015-03-09T19:59:00.330Z</time>
      </trkpt>
      <trkpt lat="48.87872" lon="2.35498">
        <ele>104.7</ele>
        <time>2015-03-09T19:59:01.342Z</time>
      </trkpt>
      <trkpt lat="48.87873" lon="2.35509">
        <ele>104.7</ele>
        <time>2015-03-09T19:59:03.319Z</time>
      </trkpt>
      <trkpt lat="48.87874" lon="2.35515">
        <ele>104.8</ele>
        <time>2015-03-09T19:59:04.404Z</time>
      </trkpt>
      <trkpt lat="48.87874" lon="2.35526">
        <ele>104.8</ele>
        <time>2015-03-09T19:59:06.333Z</time>
      </trkpt>
      <trkpt lat="48.87875" lon="2.35532">
        <ele>104.7</ele>
        <time>2015-03-09T19:59:07.451Z</time>
      </trkpt>
      <trkpt lat="48.87874" lon="2.35539">
        <ele>104.8</ele>
        <time>2015-03-09T19:59:08.292Z</time>
      </trkpt>
      <trkpt lat="48.87874" lon="2.35546">
        <ele>104.9</ele>
        <time>2015-03-09T19:59:09.297Z</time>
      </trkpt>
      <trkpt lat="48.87875" lon="2.35556">
        <ele>104.9</ele>
        <time>2015-03-09T19:59:11.317Z</time>
      </trkpt>
      <trkpt lat="48.87876" lon="2.3556">
        <ele>104.9</ele>
        <time>2015-03-09T19:59:12.349Z</time>
      </trkpt>
      <trkpt lat="48.8788" lon="2.35572">
        <ele>104.9</ele>
        <time>2015-03-09T19:59:15.296Z</time>
      </trkpt>
      <trkpt lat="48.87881" lon="2.35575">
        <ele>105.1</ele>
        <time>2015-03-09T19:59:16.329Z</time>
      </trkpt>
      <trkpt lat="48.87886" lon="2.35584">
        <ele>110.9</ele>
        <time>2015-03-09T19:59:28.163Z</time>
      </trkpt>
      <trkpt lat="48.87887" lon="2.35586">
        <ele>112</ele>
        <time>2015-03-09T19:59:28.310Z</time>
      </trkpt>
      <trkpt lat="48.87891" lon="2.35598">
        <ele>112</ele>
        <time>2015-03-09T19:59:33.282Z</time>
      </trkpt>
      <trkpt lat="48.87893" lon="2.35601">
        <ele>112</ele>
        <time>2015-03-09T19:59:34.300Z</time>
      </trkpt>
      <trkpt lat="48.87898" lon="2.35606">
        <ele>111.7</ele>
        <time>2015-03-09T19:59:36.340Z</time>
      </trkpt>
      <trkpt lat="48.87902" lon="2.35609">
        <ele>111.5</ele>
        <time>2015-03-09T19:59:37.336Z</time>
      </trkpt>
      <trkpt lat="48.87905" lon="2.35619">
        <ele>111.2</ele>
        <time>2015-03-09T19:59:39.383Z</time>
      </trkpt>
      <trkpt lat="48.87907" lon="2.35624">
        <ele>111</ele>
        <time>2015-03-09T19:59:40.243Z</time>
      </trkpt>
      <trkpt lat="48.8791" lon="2.35633">
        <ele>110.7</ele>
        <time>2015-03-09T19:59:43.292Z</time>
      </trkpt>
      <trkpt lat="48.87912" lon="2.35638">
        <ele>110.5</ele>
        <time>2015-03-09T19:59:43.335Z</time>
      </trkpt>
      <trkpt lat="48.87915" lon="2.35648">
        <ele>110.2</ele>
        <time>2015-03-09T19:59:45.262Z</time>
      </trkpt>
      <trkpt lat="48.87916" lon="2.35653">
        <ele>110</ele>
        <time>2015-03-09T19:59:46.289Z</time>
      </trkpt>
      <trkpt lat="48.87919" lon="2.35662">
        <ele>109.6</ele>
        <time>2015-03-09T19:59:49.307Z</time>
      </trkpt>
      <trkpt lat="48.87919" lon="2.35668">
        <ele>109.4</ele>
        <time>2015-03-09T19:59:49.366Z</time>
      </trkpt>
      <trkpt lat="48.87921" lon="2.35678">
        <ele>109.4</ele>
        <time>2015-03-09T19:59:51.291Z</time>
      </trkpt>
      <trkpt lat="48.87923" lon="2.35683">
        <ele>109.5</ele>
        <time>2015-03-09T19:59:52.290Z</time>
      </trkpt>
      <trkpt lat="48.87925" lon="2.35692">
        <ele>109.7</ele>
        <time>2015-03-09T19:59:54.342Z</time>
      </trkpt>
      <trkpt lat="48.87927" lon="2.35697">
        <ele>109.8</ele>
        <time>2015-03-09T19:59:55.362Z</time>
      </trkpt>
      <trkpt lat="48.87929" lon="2.35707">
        <ele>109.7</ele>
        <time>2015-03-09T19:59:57.261Z</time>
      </trkpt>
      <trkpt lat="48.8793" lon="2.35711">
        <ele>109.6</ele>
        <time>2015-03-09T19:59:58.261Z</time>
      </trkpt>
      <trkpt lat="48.87933" lon="2.35721">
        <ele>109.7</ele>
        <time>2015-03-09T20:00:00.349Z</time>
      </trkpt>
      <trkpt lat="48.87934" lon="2.35726">
        <ele>109.9</ele>
        <time>2015-03-09T20:00:01.258Z</time>
      </trkpt>
      <trkpt lat="48.87936" lon="2.35732">
        <ele>110.1</ele>
        <time>2015-03-09T20:00:02.274Z</time>
      </trkpt>
      <trkpt lat="48.87937" lon="2.3574">
        <ele>110.2</ele>
        <time>2015-03-09T20:00:03.326Z</time>
      </trkpt>
      <trkpt lat="48.87941" lon="2.35751">
        <ele>110.3</ele>
        <time>2015-03-09T20:00:05.266Z</time>
      </trkpt>
      <trkpt lat="48.87943" lon="2.35756">
        <ele>110.3</ele>
        <time>2015-03-09T20:00:06.300Z</time>
      </trkpt>
      <trkpt lat="48.87947" lon="2.35767">
        <ele>110.4</ele>
        <time>2015-03-09T20:00:08.330Z</time>
      </trkpt>
      <trkpt lat="48.8795" lon="2.35772">
        <ele>110.4</ele>
        <time>2015-03-09T20:00:09.339Z</time>
      </trkpt>
      <trkpt lat="48.87953" lon="2.35783">
        <ele>110.5</ele>
        <time>2015-03-09T20:00:11.270Z</time>
      </trkpt>
      <trkpt lat="48.87955" lon="2.35789">
        <ele>110.4</ele>
        <time>2015-03-09T20:00:12.335Z</time>
      </trkpt>
      <trkpt lat="48.8796" lon="2.358">
        <ele>110.3</ele>
        <time>2015-03-09T20:00:14.652Z</time>
      </trkpt>
      <trkpt lat="48.87963" lon="2.35805">
        <ele>110.2</ele>
        <time>2015-03-09T20:00:15.277Z</time>
      </trkpt>
      <trkpt lat="48.87967" lon="2.35809">
        <ele>110</ele>
        <time>2015-03-09T20:00:16.293Z</time>
      </trkpt>
      <trkpt lat="48.87971" lon="2.35815">
        <ele>110</ele>
        <time>2015-03-09T20:00:17.318Z</time>
      </trkpt>
      <trkpt lat="48.87975" lon="2.35821">
        <ele>109.9</ele>
        <time>2015-03-09T20:00:18.359Z</time>
      </trkpt>
      <trkpt lat="48.87978" lon="2.35828">
        <ele>110.1</ele>
        <time>2015-03-09T20:00:19.276Z</time>
      </trkpt>
      <trkpt lat="48.87979" lon="2.35837">
        <ele>110.2</ele>
        <time>2015-03-09T20:00:20.277Z</time>
      </trkpt>
      <trkpt lat="48.8798" lon="2.35846">
        <ele>110.1</ele>
        <time>2015-03-09T20:00:21.320Z</time>
      </trkpt>
      <trkpt lat="48.87981" lon="2.35855">
        <ele>110.1</ele>
        <time>2015-03-09T20:00:22.281Z</time>
      </trkpt>
      <trkpt lat="48.87983" lon="2.35865">
        <ele>110.2</ele>
        <time>2015-03-09T20:00:23.311Z</time>
      </trkpt>
      <trkpt lat="48.87985" lon="2.35875">
        <ele>110.1</ele>
        <time>2015-03-09T20:00:24.318Z</time>
      </trkpt>
      <trkpt lat="48.87987" lon="2.35885">
        <ele>110</ele>
        <time>2015-03-09T20:00:25.333Z</time>
      </trkpt>
      <trkpt lat="48.87988" lon="2.35896">
        <ele>109.9</ele>
        <time>2015-03-09T20:00:26.336Z</time>
      </trkpt>
      <trkpt lat="48.87989" lon="2.35907">
        <ele>109.5</ele>
        <time>2015-03-09T20:00:27.234Z</time>
      </trkpt>
      <trkpt lat="48.87991" lon="2.35918">
        <ele>109.5</ele>
        <time>2015-03-09T20:00:28.257Z</time>
      </trkpt>
      <trkpt lat="48.87993" lon="2.35928">
        <ele>109.5</ele>
        <time>2015-03-09T20:00:29.272Z</time>
      </trkpt>
      <trkpt lat="48.87998" lon="2.35939">
        <ele>110.6</ele>
        <time>2015-03-09T20:00:30.288Z</time>
      </trkpt>
      <trkpt lat="48.88003" lon="2.35949">
        <ele>110.9</ele>
        <time>2015-03-09T20:00:31.299Z</time>
      </trkpt>
      <trkpt lat="48.88007" lon="2.35959">
        <ele>111.1</ele>
        <time>2015-03-09T20:00:32.390Z</time>
      </trkpt>
      <trkpt lat="48.88011" lon="2.3597">
        <ele>111.1</ele>
        <time>2015-03-09T20:00:33.305Z</time>
      </trkpt>
      <trkpt lat="48.88014" lon="2.3598">
        <ele>110.8</ele>
        <time>2015-03-09T20:00:34.251Z</time>
      </trkpt>
      <trkpt lat="48.88017" lon="2.35991">
        <ele>110.7</ele>
        <time>2015-03-09T20:00:35.254Z</time>
      </trkpt>
      <trkpt lat="48.8802" lon="2.36002">
        <ele>109.4</ele>
        <time>2015-03-09T20:00:36.380Z</time>
      </trkpt>
      <trkpt lat="48.88024" lon="2.36012">
        <ele>108.7</ele>
        <time>2015-03-09T20:00:37.307Z</time>
      </trkpt>
      <trkpt lat="48.88027" lon="2.36023">
        <ele>108.2</ele>
        <time>2015-03-09T20:00:38.332Z</time>
      </trkpt>
      <trkpt lat="48.88029" lon="2.36034">
        <ele>106.9</ele>
        <time>2015-03-09T20:00:39.368Z</time>
      </trkpt>
      <trkpt lat="48.88032" lon="2.36042">
        <ele>105.8</ele>
        <time>2015-03-09T20:00:40.276Z</time>
      </trkpt>
      <trkpt lat="48.88033" lon="2.36057">
        <ele>106.1</ele>
        <time>2015-03-09T20:00:41.301Z</time>
      </trkpt>
      <trkpt lat="48.88035" lon="2.36069">
        <ele>105.8</ele>
        <time>2015-03-09T20:00:42.341Z</time>
      </trkpt>
      <trkpt lat="48.88037" lon="2.36083">
        <ele>106.6</ele>
        <time>2015-03-09T20:00:43.367Z</time>
      </trkpt>
      <trkpt lat="48.8804" lon="2.36095">
        <ele>107.1</ele>
        <time>2015-03-09T20:00:44.325Z</time>
      </trkpt>
      <trkpt lat="48.88043" lon="2.36107">
        <ele>107.2</ele>
        <time>2015-03-09T20:00:45.326Z</time>
      </trkpt>
      <trkpt lat="48.88047" lon="2.36119">
        <ele>107.3</ele>
        <time>2015-03-09T20:00:46.331Z</time>
      </trkpt>
      <trkpt lat="48.8805" lon="2.3613">
        <ele>107.6</ele>
        <time>2015-03-09T20:00:47.345Z</time>
      </trkpt>
      <trkpt lat="48.88053" lon="2.36141">
        <ele>107.4</ele>
        <time>2015-03-09T20:00:48.362Z</time>
      </trkpt>
      <trkpt lat="48.88056" lon="2.36151">
        <ele>107.7</ele>
        <time>2015-03-09T20:00:49.295Z</time>
      </trkpt>
      <trkpt lat="48.8806" lon="2.36161">
        <ele>107.9</ele>
        <time>2015-03-09T20:00:50.282Z</time>
      </trkpt>
      <trkpt lat="48.88062" lon="2.36169">
        <ele>107.9</ele>
        <time>2015-03-09T20:00:51.296Z</time>
      </trkpt>
      <trkpt lat="48.88065" lon="2.36176">
        <ele>108.3</ele>
        <time>2015-03-09T20:00:52.301Z</time>
      </trkpt>
      <trkpt lat="48.88067" lon="2.36183">
        <ele>108.2</ele>
        <time>2015-03-09T20:00:53.319Z</time>
      </trkpt>
      <trkpt lat="48.88067" lon="2.36195">
        <ele>107.8</ele>
        <time>2015-03-09T20:00:55.294Z</time>
      </trkpt>
      <trkpt lat="48.88066" lon="2.36201">
        <ele>108.1</ele>
        <time>2015-03-09T20:00:56.295Z</time>
      </trkpt>
      <trkpt lat="48.88061" lon="2.36211">
        <ele>108.8</ele>
        <time>2015-03-09T20:00:58.310Z</time>
      </trkpt>
      <trkpt lat="48.88056" lon="2.36214">
        <ele>109.5</ele>
        <time>2015-03-09T20:00:59.338Z</time>
      </trkpt>
      <trkpt lat="48.88051" lon="2.36217">
        <ele>110</ele>
        <time>2015-03-09T20:01:00.297Z</time>
      </trkpt>
      <trkpt lat="48.88046" lon="2.3622">
        <ele>110.7</ele>
        <time>2015-03-09T20:01:01.310Z</time>
      </trkpt>
      <trkpt lat="48.88038" lon="2.36224">
        <ele>113.1</ele>
        <time>2015-03-09T20:01:03.282Z</time>
      </trkpt>
      <trkpt lat="48.88031" lon="2.36226">
        <ele>114.1</ele>
        <time>2015-03-09T20:01:04.280Z</time>
      </trkpt>
      <trkpt lat="48.88023" lon="2.36227">
        <ele>115.8</ele>
        <time>2015-03-09T20:01:06.321Z</time>
      </trkpt>
      <trkpt lat="48.88018" lon="2.36226">
        <ele>116.1</ele>
        <time>2015-03-09T20:01:07.322Z</time>
      </trkpt>
      <trkpt lat="48.88009" lon="2.36223">
        <ele>117.1</ele>
        <time>2015-03-09T20:01:09.280Z</time>
      </trkpt>
      <trkpt lat="48.88005" lon="2.36221">
        <ele>117.5</ele>
        <time>2015-03-09T20:01:10.291Z</time>
      </trkpt>
      <trkpt lat="48.87997" lon="2.3622">
        <ele>118.6</ele>
        <time>2015-03-09T20:01:12.327Z</time>
      </trkpt>
      <trkpt lat="48.87995" lon="2.3622">
        <ele>119.3</ele>
        <time>2015-03-09T20:01:13.338Z</time>
      </trkpt>
      <trkpt lat="48.87988" lon="2.36218">
        <ele>120.8</ele>
        <time>2015-03-09T20:01:15.297Z</time>
      </trkpt>
      <trkpt lat="48.87985" lon="2.36218">
        <ele>121.4</ele>
        <time>2015-03-09T20:01:16.281Z</time>
      </trkpt>
      <trkpt lat="48.87977" lon="2.36214">
        <ele>123.3</ele>
        <time>2015-03-09T20:01:19.327Z</time>
      </trkpt>
      <trkpt lat="48.87973" lon="2.36212">
        <ele>124.1</ele>
        <time>2015-03-09T20:01:20.335Z</time>
      </trkpt>
      <trkpt lat="48.87965" lon="2.36208">
        <ele>125.2</ele>
        <time>2015-03-09T20:01:22.272Z</time>
      </trkpt>
      <trkpt lat="48.87961" lon="2.36206">
        <ele>125.7</ele>
        <time>2015-03-09T20:01:23.423Z</time>
      </trkpt>
      <trkpt lat="48.87955" lon="2.36207">
        <ele>126.1</ele>
        <time>2015-03-09T20:01:24.312Z</time>
      </trkpt>
      <trkpt lat="48.87949" lon="2.36212">
        <ele>126.6</ele>
        <time>2015-03-09T20:01:25.329Z</time>
      </trkpt>
      <trkpt lat="48.87943" lon="2.36213">
        <ele>127.2</ele>
        <time>2015-03-09T20:01:27.351Z</time>
      </trkpt>
      <trkpt lat="48.87938" lon="2.36211">
        <ele>127.7</ele>
        <time>2015-03-09T20:01:28.356Z</time>
      </trkpt>
      <trkpt lat="48.8793" lon="2.36211">
        <ele>128.9</ele>
        <time>2015-03-09T20:01:31.344Z</time>
      </trkpt>
      <trkpt lat="48.87928" lon="2.36212">
        <ele>129.1</ele>
        <time>2015-03-09T20:01:32.277Z</time>
      </trkpt>
      <trkpt lat="48.87922" lon="2.36218">
        <ele>127</ele>
        <time>2015-03-09T20:01:34.300Z</time>
      </trkpt>
      <trkpt lat="48.87919" lon="2.3622">
        <ele>126.3</ele>
        <time>2015-03-09T20:01:35.321Z</time>
      </trkpt>
      <trkpt lat="48.87915" lon="2.36221">
        <ele>125.5</ele>
        <time>2015-03-09T20:01:36.276Z</time>
      </trkpt>
      <trkpt lat="48.87909" lon="2.36219">
        <ele>124.8</ele>
        <time>2015-03-09T20:01:37.294Z</time>
      </trkpt>
      <trkpt lat="48.87904" lon="2.36216">
        <ele>124.3</ele>
        <time>2015-03-09T20:01:38.321Z</time>
      </trkpt>
      <trkpt lat="48.879" lon="2.36213">
        <ele>123.5</ele>
        <time>2015-03-09T20:01:39.333Z</time>
      </trkpt>
      <trkpt lat="48.87894" lon="2.36209">
        <ele>121.5</ele>
        <time>2015-03-09T20:01:40.341Z</time>
      </trkpt>
      <trkpt lat="48.8789" lon="2.36207">
        <ele>120.1</ele>
        <time>2015-03-09T20:01:41.475Z</time>
      </trkpt>
      <trkpt lat="48.87882" lon="2.36204">
        <ele>117.8</ele>
        <time>2015-03-09T20:01:43.278Z</time>
      </trkpt>
      <trkpt lat="48.87875" lon="2.36205">
        <ele>117.1</ele>
        <time>2015-03-09T20:01:44.286Z</time>
      </trkpt>
      <trkpt lat="48.8787" lon="2.36206">
        <ele>115.6</ele>
        <time>2015-03-09T20:01:45.252Z</time>
      </trkpt>
      <trkpt lat="48.87865" lon="2.36205">
        <ele>115</ele>
        <time>2015-03-09T20:01:46.269Z</time>
      </trkpt>
      <trkpt lat="48.87858" lon="2.362">
        <ele>113.8</ele>
        <time>2015-03-09T20:01:48.304Z</time>
      </trkpt>
      <trkpt lat="48.87855" lon="2.36198">
        <ele>112.7</ele>
        <time>2015-03-09T20:01:49.293Z</time>
      </trkpt>
      <trkpt lat="48.87847" lon="2.36193">
        <ele>110.7</ele>
        <time>2015-03-09T20:01:51.263Z</time>
      </trkpt>
      <trkpt lat="48.87843" lon="2.36191">
        <ele>110.1</ele>
        <time>2015-03-09T20:01:52.275Z</time>
      </trkpt>
      <trkpt lat="48.87836" lon="2.36187">
        <ele>108.8</ele>
        <time>2015-03-09T20:01:54.290Z</time>
      </trkpt>
      <trkpt lat="48.87832" lon="2.36185">
        <ele>107.9</ele>
        <time>2015-03-09T20:01:55.302Z</time>
      </trkpt>
      <trkpt lat="48.87826" lon="2.36181">
        <ele>107</ele>
        <time>2015-03-09T20:01:57.239Z</time>
      </trkpt>
      <trkpt lat="48.87822" lon="2.36179">
        <ele>106.9</ele>
        <time>2015-03-09T20:01:58.267Z</time>
      </trkpt>
      <trkpt lat="48.87817" lon="2.36178">
        <ele>106.5</ele>
        <time>2015-03-09T20:01:59.299Z</time>
      </trkpt>
      <trkpt lat="48.87813" lon="2.36175">
        <ele>106.3</ele>
        <time>2015-03-09T20:02:00.454Z</time>
      </trkpt>
      <trkpt lat="48.87809" lon="2.36173">
        <ele>106.3</ele>
        <time>2015-03-09T20:02:01.278Z</time>
      </trkpt>
      <trkpt lat="48.87804" lon="2.3617">
        <ele>105.5</ele>
        <time>2015-03-09T20:02:02.279Z</time>
      </trkpt>
      <trkpt lat="48.87799" lon="2.36168">
        <ele>104.8</ele>
        <time>2015-03-09T20:02:03.299Z</time>
      </trkpt>
      <trkpt lat="48.87794" lon="2.36164">
        <ele>104.7</ele>
        <time>2015-03-09T20:02:04.302Z</time>
      </trkpt>
      <trkpt lat="48.8779" lon="2.36161">
        <ele>104.4</ele>
        <time>2015-03-09T20:02:05.307Z</time>
      </trkpt>
      <trkpt lat="48.87786" lon="2.36158">
        <ele>104.1</ele>
        <time>2015-03-09T20:02:06.309Z</time>
      </trkpt>
      <trkpt lat="48.87778" lon="2.36152">
        <ele>103.1</ele>
        <time>2015-03-09T20:02:08.340Z</time>
      </trkpt>
      <trkpt lat="48.87774" lon="2.36149">
        <ele>102.6</ele>
        <time>2015-03-09T20:02:09.268Z</time>
      </trkpt>
      <trkpt lat="48.87767" lon="2.36144">
        <ele>102.9</ele>
        <time>2015-03-09T20:02:11.273Z</time>
      </trkpt>
      <trkpt lat="48.87761" lon="2.36142">
        <ele>102.6</ele>
        <time>2015-03-09T20:02:12.326Z</time>
      </trkpt>
      <trkpt lat="48.87755" lon="2.36141">
        <ele>102.4</ele>
        <time>2015-03-09T20:02:13.337Z</time>
      </trkpt>
      <trkpt lat="48.87751" lon="2.36138">
        <ele>102.2</ele>
        <time>2015-03-09T20:02:14.336Z</time>
      </trkpt>
      <trkpt lat="48.87745" lon="2.36135">
        <ele>102</ele>
        <time>2015-03-09T20:02:15.347Z</time>
      </trkpt>
      <trkpt lat="48.8774" lon="2.36132">
        <ele>101.5</ele>
        <time>2015-03-09T20:02:16.259Z</time>
      </trkpt>
      <trkpt lat="48.87737" lon="2.36127">
        <ele>101.4</ele>
        <time>2015-03-09T20:02:17.256Z</time>
      </trkpt>
      <trkpt lat="48.87733" lon="2.36123">
        <ele>101.2</ele>
        <time>2015-03-09T20:02:18.267Z</time>
      </trkpt>
      <trkpt lat="48.87728" lon="2.36118">
        <ele>100.8</ele>
        <time>2015-03-09T20:02:19.297Z</time>
      </trkpt>
      <trkpt lat="48.87723" lon="2.36116">
        <ele>100.4</ele>
        <time>2015-03-09T20:02:20.391Z</time>
      </trkpt>
      <trkpt lat="48.87718" lon="2.36114">
        <ele>100.1</ele>
        <time>2015-03-09T20:02:21.232Z</time>
      </trkpt>
      <trkpt lat="48.87714" lon="2.36112">
        <ele>100.6</ele>
        <time>2015-03-09T20:02:22.259Z</time>
      </trkpt>
      <trkpt lat="48.87708" lon="2.3611">
        <ele>100.7</ele>
        <time>2015-03-09T20:02:23.282Z</time>
      </trkpt>
      <trkpt lat="48.87704" lon="2.36109">
        <ele>100.7</ele>
        <time>2015-03-09T20:02:24.289Z</time>
      </trkpt>
      <trkpt lat="48.87699" lon="2.36106">
        <ele>100.8</ele>
        <time>2015-03-09T20:02:25.293Z</time>
      </trkpt>
      <trkpt lat="48.87694" lon="2.36104">
        <ele>100.7</ele>
        <time>2015-03-09T20:02:26.303Z</time>
      </trkpt>
      <trkpt lat="48.87665" lon="2.36086">
        <ele>100.9</ele>
        <time>2015-03-09T20:02:32.468Z</time>
      </trkpt>
      <trkpt lat="48.8766" lon="2.36081">
        <ele>100.9</ele>
        <time>2015-03-09T20:02:33.257Z</time>
      </trkpt>
      <trkpt lat="48.87654" lon="2.36077">
        <ele>100.7</ele>
        <time>2015-03-09T20:02:34.266Z</time>
      </trkpt>
      <trkpt lat="48.87649" lon="2.36074">
        <ele>100.7</ele>
        <time>2015-03-09T20:02:35.294Z</time>
      </trkpt>
      <trkpt lat="48.87643" lon="2.36072">
        <ele>100.9</ele>
        <time>2015-03-09T20:02:36.348Z</time>
      </trkpt>
      <trkpt lat="48.87638" lon="2.3607">
        <ele>101.3</ele>
        <time>2015-03-09T20:02:37.269Z</time>
      </trkpt>
      <trkpt lat="48.87633" lon="2.36065">
        <ele>101.5</ele>
        <time>2015-03-09T20:02:38.269Z</time>
      </trkpt>
      <trkpt lat="48.87627" lon="2.36059">
        <ele>101.6</ele>
        <time>2015-03-09T20:02:39.275Z</time>
      </trkpt>
      <trkpt lat="48.87622" lon="2.36055">
        <ele>101.9</ele>
        <time>2015-03-09T20:02:40.288Z</time>
      </trkpt>
      <trkpt lat="48.87617" lon="2.36053">
        <ele>101.5</ele>
        <time>2015-03-09T20:02:41.326Z</time>
      </trkpt>
      <trkpt lat="48.87612" lon="2.3605">
        <ele>101</ele>
        <time>2015-03-09T20:02:42.327Z</time>
      </trkpt>
      <trkpt lat="48.87607" lon="2.36046">
        <ele>100.3</ele>
        <time>2015-03-09T20:02:43.352Z</time>
      </trkpt>
      <trkpt lat="48.87604" lon="2.36042">
        <ele>99.9</ele>
        <time>2015-03-09T20:02:44.241Z</time>
      </trkpt>
      <trkpt lat="48.876" lon="2.36038">
        <ele>99.5</ele>
        <time>2015-03-09T20:02:45.270Z</time>
      </trkpt>
      <trkpt lat="48.87596" lon="2.36034">
        <ele>99</ele>
        <time>2015-03-09T20:02:46.273Z</time>
      </trkpt>
      <trkpt lat="48.8759" lon="2.3603">
        <ele>97.6</ele>
        <time>2015-03-09T20:02:48.299Z</time>
      </trkpt>
      <trkpt lat="48.87587" lon="2.36027">
        <ele>96.9</ele>
        <time>2015-03-09T20:02:49.332Z</time>
      </trkpt>
      <trkpt lat="48.87583" lon="2.36018">
        <ele>95.8</ele>
        <time>2015-03-09T20:02:52.371Z</time>
      </trkpt>
      <trkpt lat="48.87583" lon="2.36016">
        <ele>95.6</ele>
        <time>2015-03-09T20:02:53.296Z</time>
      </trkpt>
      <trkpt lat="48.8758" lon="2.36011">
        <ele>94.3</ele>
        <time>2015-03-09T20:03:06.301Z</time>
      </trkpt>
      <trkpt lat="48.87573" lon="2.36012">
        <ele>93.5</ele>
        <time>2015-03-09T20:03:07.302Z</time>
      </trkpt>
      <trkpt lat="48.87565" lon="2.36006">
        <ele>93.6</ele>
        <time>2015-03-09T20:03:12.311Z</time>
      </trkpt>
      <trkpt lat="48.87563" lon="2.36005">
        <ele>93.4</ele>
        <time>2015-03-09T20:03:13.315Z</time>
      </trkpt>
      <trkpt lat="48.87556" lon="2.35999">
        <ele>92.5</ele>
        <time>2015-03-09T20:03:16.276Z</time>
      </trkpt>
      <trkpt lat="48.87554" lon="2.35997">
        <ele>92.2</ele>
        <time>2015-03-09T20:03:17.277Z</time>
      </trkpt>
      <trkpt lat="48.87548" lon="2.35991">
        <ele>91.9</ele>
        <time>2015-03-09T20:03:19.282Z</time>
      </trkpt>
      <trkpt lat="48.87546" lon="2.35987">
        <ele>91.7</ele>
        <time>2015-03-09T20:03:20.295Z</time>
      </trkpt>
      <trkpt lat="48.8754" lon="2.35981">
        <ele>91</ele>
        <time>2015-03-09T20:03:22.283Z</time>
      </trkpt>
      <trkpt lat="48.87537" lon="2.35978">
        <ele>91</ele>
        <time>2015-03-09T20:03:23.307Z</time>
      </trkpt>
      <trkpt lat="48.87531" lon="2.35969">
        <ele>90.9</ele>
        <time>2015-03-09T20:03:26.307Z</time>
      </trkpt>
      <trkpt lat="48.87529" lon="2.35966">
        <ele>90.7</ele>
        <time>2015-03-09T20:03:27.317Z</time>
      </trkpt>
      <trkpt lat="48.87524" lon="2.35962">
        <ele>90.9</ele>
        <time>2015-03-09T20:03:29.375Z</time>
      </trkpt>
      <trkpt lat="48.8752" lon="2.35961">
        <ele>91</ele>
        <time>2015-03-09T20:03:30.386Z</time>
      </trkpt>
      <trkpt lat="48.87514" lon="2.35969">
        <ele>90.7</ele>
        <time>2015-03-09T20:03:34.280Z</time>
      </trkpt>
      <trkpt lat="48.87514" lon="2.35973">
        <ele>90.9</ele>
        <time>2015-03-09T20:03:35.283Z</time>
      </trkpt>
      <trkpt lat="48.8751" lon="2.35984">
        <ele>91.6</ele>
        <time>2015-03-09T20:03:37.341Z</time>
      </trkpt>
      <trkpt lat="48.87509" lon="2.35987">
        <ele>91.7</ele>
        <time>2015-03-09T20:03:38.262Z</time>
      </trkpt>
      <trkpt lat="48.87505" lon="2.35995">
        <ele>92.2</ele>
        <time>2015-03-09T20:03:40.320Z</time>
      </trkpt>
      <trkpt lat="48.87504" lon="2.35999">
        <ele>92.4</ele>
        <time>2015-03-09T20:03:41.346Z</time>
      </trkpt>
      <trkpt lat="48.87501" lon="2.36007">
        <ele>92.7</ele>
        <time>2015-03-09T20:03:44.268Z</time>
      </trkpt>
      <trkpt lat="48.87497" lon="2.36013">
        <ele>92.7</ele>
        <time>2015-03-09T20:03:45.283Z</time>
      </trkpt>
      <trkpt lat="48.87493" lon="2.36022">
        <ele>92.4</ele>
        <time>2015-03-09T20:03:46.251Z</time>
      </trkpt>
      <trkpt lat="48.87491" lon="2.3603">
        <ele>92.2</ele>
        <time>2015-03-09T20:03:47.227Z</time>
      </trkpt>
      <trkpt lat="48.87488" lon="2.36037">
        <ele>91.9</ele>
        <time>2015-03-09T20:03:48.273Z</time>
      </trkpt>
      <trkpt lat="48.87486" lon="2.36043">
        <ele>91.9</ele>
        <time>2015-03-09T20:03:49.273Z</time>
      </trkpt>
      <trkpt lat="48.87482" lon="2.36055">
        <ele>91.7</ele>
        <time>2015-03-09T20:03:51.301Z</time>
      </trkpt>
      <trkpt lat="48.87479" lon="2.36061">
        <ele>91.6</ele>
        <time>2015-03-09T20:03:52.314Z</time>
      </trkpt>
      <trkpt lat="48.87475" lon="2.36072">
        <ele>91.4</ele>
        <time>2015-03-09T20:03:54.351Z</time>
      </trkpt>
      <trkpt lat="48.87473" lon="2.36078">
        <ele>91.3</ele>
        <time>2015-03-09T20:03:55.235Z</time>
      </trkpt>
      <trkpt lat="48.87469" lon="2.3609">
        <ele>91.3</ele>
        <time>2015-03-09T20:03:57.278Z</time>
      </trkpt>
      <trkpt lat="48.87467" lon="2.36098">
        <ele>91.4</ele>
        <time>2015-03-09T20:03:58.287Z</time>
      </trkpt>
      <trkpt lat="48.87464" lon="2.36105">
        <ele>91.6</ele>
        <time>2015-03-09T20:03:59.321Z</time>
      </trkpt>
      <trkpt lat="48.87463" lon="2.36112">
        <ele>91.4</ele>
        <time>2015-03-09T20:04:00.335Z</time>
      </trkpt>
      <trkpt lat="48.87462" lon="2.3612">
        <ele>91.2</ele>
        <time>2015-03-09T20:04:01.347Z</time>
      </trkpt>
      <trkpt lat="48.87459" lon="2.36127">
        <ele>91</ele>
        <time>2015-03-09T20:04:02.342Z</time>
      </trkpt>
      <trkpt lat="48.87457" lon="2.36134">
        <ele>90.9</ele>
        <time>2015-03-09T20:04:03.267Z</time>
      </trkpt>
      <trkpt lat="48.87454" lon="2.36142">
        <ele>90.5</ele>
        <time>2015-03-09T20:04:04.270Z</time>
      </trkpt>
      <trkpt lat="48.87454" lon="2.36155">
        <ele>89.8</ele>
        <time>2015-03-09T20:04:06.273Z</time>
      </trkpt>
      <trkpt lat="48.87452" lon="2.36161">
        <ele>89.9</ele>
        <time>2015-03-09T20:04:07.351Z</time>
      </trkpt>
      <trkpt lat="48.8745" lon="2.36168">
        <ele>90.8</ele>
        <time>2015-03-09T20:04:08.265Z</time>
      </trkpt>
      <trkpt lat="48.87448" lon="2.36174">
        <ele>91.1</ele>
        <time>2015-03-09T20:04:09.264Z</time>
      </trkpt>
      <trkpt lat="48.87446" lon="2.3618">
        <ele>91</ele>
        <time>2015-03-09T20:04:10.266Z</time>
      </trkpt>
      <trkpt lat="48.87443" lon="2.36187">
        <ele>90.4</ele>
        <time>2015-03-09T20:04:11.272Z</time>
      </trkpt>
      <trkpt lat="48.87441" lon="2.36195">
        <ele>90.2</ele>
        <time>2015-03-09T20:04:12.290Z</time>
      </trkpt>
      <trkpt lat="48.87438" lon="2.36203">
        <ele>90.7</ele>
        <time>2015-03-09T20:04:13.305Z</time>
      </trkpt>
      <trkpt lat="48.87437" lon="2.3621">
        <ele>90.6</ele>
        <time>2015-03-09T20:04:14.316Z</time>
      </trkpt>
      <trkpt lat="48.87439" lon="2.36218">
        <ele>90.5</ele>
        <time>2015-03-09T20:04:15.321Z</time>
      </trkpt>
      <trkpt lat="48.87438" lon="2.36225">
        <ele>90.7</ele>
        <time>2015-03-09T20:04:16.329Z</time>
      </trkpt>
      <trkpt lat="48.87437" lon="2.36233">
        <ele>91</ele>
        <time>2015-03-09T20:04:17.214Z</time>
      </trkpt>
      <trkpt lat="48.87434" lon="2.3624">
        <ele>91.2</ele>
        <time>2015-03-09T20:04:18.256Z</time>
      </trkpt>
      <trkpt lat="48.87432" lon="2.36246">
        <ele>91.1</ele>
        <time>2015-03-09T20:04:19.261Z</time>
      </trkpt>
      <trkpt lat="48.8743" lon="2.36253">
        <ele>91.1</ele>
        <time>2015-03-09T20:04:20.321Z</time>
      </trkpt>
      <trkpt lat="48.87428" lon="2.36259">
        <ele>91</ele>
        <time>2015-03-09T20:04:21.335Z</time>
      </trkpt>
      <trkpt lat="48.87428" lon="2.36269">
        <ele>90.4</ele>
        <time>2015-03-09T20:04:23.231Z</time>
      </trkpt>
      <trkpt lat="48.87429" lon="2.36273">
        <ele>90.2</ele>
        <time>2015-03-09T20:04:24.309Z</time>
      </trkpt>
      <trkpt lat="48.87432" lon="2.36283">
        <ele>90</ele>
        <time>2015-03-09T20:04:27.271Z</time>
      </trkpt>
      <trkpt lat="48.87434" lon="2.36286">
        <ele>90.5</ele>
        <time>2015-03-09T20:04:28.307Z</time>
      </trkpt>
      <trkpt lat="48.87434" lon="2.36285">
        <ele>91.6</ele>
        <time>2015-03-09T20:04:47.292Z</time>
      </trkpt>
      <trkpt lat="48.8742" lon="2.36257">
        <ele>91.5</ele>
        <time>2015-03-09T20:04:48.334Z</time>
      </trkpt>
      <trkpt lat="48.87415" lon="2.36256">
        <ele>92</ele>
        <time>2015-03-09T20:04:51.359Z</time>
      </trkpt>
      <trkpt lat="48.87415" lon="2.36257">
        <ele>92.1</ele>
        <time>2015-03-09T20:04:52.286Z</time>
      </trkpt>
      <trkpt lat="48.87416" lon="2.36257">
        <ele>92.4</ele>
        <time>2015-03-09T20:07:13.325Z</time>
      </trkpt>
      <trkpt lat="48.87402" lon="2.36249">
        <ele>97.9</ele>
        <time>2015-03-09T20:07:14.337Z</time>
      </trkpt>
      <trkpt lat="48.87397" lon="2.36242">
        <ele>97.9</ele>
        <time>2015-03-09T20:07:16.265Z</time>
      </trkpt>
      <trkpt lat="48.87393" lon="2.36237">
        <ele>97.2</ele>
        <time>2015-03-09T20:07:17.292Z</time>
      </trkpt>
      <trkpt lat="48.87389" lon="2.36229">
        <ele>96.7</ele>
        <time>2015-03-09T20:07:19.323Z</time>
      </trkpt>
      <trkpt lat="48.87387" lon="2.36223">
        <ele>96.4</ele>
        <time>2015-03-09T20:07:20.251Z</time>
      </trkpt>
      <trkpt lat="48.87383" lon="2.36213">
        <ele>95.8</ele>
        <time>2015-03-09T20:07:22.267Z</time>
      </trkpt>
      <trkpt lat="48.8738" lon="2.3621">
        <ele>95.9</ele>
        <time>2015-03-09T20:07:23.277Z</time>
      </trkpt>
      <trkpt lat="48.87374" lon="2.36205">
        <ele>96</ele>
        <time>2015-03-09T20:07:25.248Z</time>
      </trkpt>
      <trkpt lat="48.87371" lon="2.36202">
        <ele>96</ele>
        <time>2015-03-09T20:07:26.251Z</time>
      </trkpt>
      <trkpt lat="48.87365" lon="2.36196">
        <ele>95.8</ele>
        <time>2015-03-09T20:07:28.273Z</time>
      </trkpt>
      <trkpt lat="48.87361" lon="2.36193">
        <ele>95.8</ele>
        <time>2015-03-09T20:07:29.292Z</time>
      </trkpt>
      <trkpt lat="48.87356" lon="2.36191">
        <ele>95.7</ele>
        <time>2015-03-09T20:07:30.305Z</time>
      </trkpt>
      <trkpt lat="48.8735" lon="2.36185">
        <ele>95.2</ele>
        <time>2015-03-09T20:07:31.316Z</time>
      </trkpt>
      <trkpt lat="48.87346" lon="2.3618">
        <ele>95</ele>
        <time>2015-03-09T20:07:32.221Z</time>
      </trkpt>
      <trkpt lat="48.87342" lon="2.36175">
        <ele>94.9</ele>
        <time>2015-03-09T20:07:33.237Z</time>
      </trkpt>
      <trkpt lat="48.87338" lon="2.3617">
        <ele>94.7</ele>
        <time>2015-03-09T20:07:34.244Z</time>
      </trkpt>
      <trkpt lat="48.87334" lon="2.36167">
        <ele>94.7</ele>
        <time>2015-03-09T20:07:35.257Z</time>
      </trkpt>
      <trkpt lat="48.87329" lon="2.36161">
        <ele>94</ele>
        <time>2015-03-09T20:07:36.269Z</time>
      </trkpt>
      <trkpt lat="48.87325" lon="2.36157">
        <ele>94</ele>
        <time>2015-03-09T20:07:37.267Z</time>
      </trkpt>
      <trkpt lat="48.8732" lon="2.36149">
        <ele>93.7</ele>
        <time>2015-03-09T20:07:39.296Z</time>
      </trkpt>
      <trkpt lat="48.87318" lon="2.36147">
        <ele>93.3</ele>
        <time>2015-03-09T20:07:40.343Z</time>
      </trkpt>
      <trkpt lat="48.87309" lon="2.36143">
        <ele>93.7</ele>
        <time>2015-03-09T20:07:42.295Z</time>
      </trkpt>
      <trkpt lat="48.87305" lon="2.36141">
        <ele>93.6</ele>
        <time>2015-03-09T20:07:43.294Z</time>
      </trkpt>
      <trkpt lat="48.87299" lon="2.36139">
        <ele>93.5</ele>
        <time>2015-03-09T20:07:44.295Z</time>
      </trkpt>
      <trkpt lat="48.87295" lon="2.36138">
        <ele>93.5</ele>
        <time>2015-03-09T20:07:45.307Z</time>
      </trkpt>
      <trkpt lat="48.87288" lon="2.36136">
        <ele>93</ele>
        <time>2015-03-09T20:07:49.270Z</time>
      </trkpt>
      <trkpt lat="48.87286" lon="2.36134">
        <ele>93.4</ele>
        <time>2015-03-09T20:07:50.261Z</time>
      </trkpt>
      <trkpt lat="48.8728" lon="2.36126">
        <ele>95</ele>
        <time>2015-03-09T20:07:52.285Z</time>
      </trkpt>
      <trkpt lat="48.87276" lon="2.36121">
        <ele>95.7</ele>
        <time>2015-03-09T20:07:53.299Z</time>
      </trkpt>
      <trkpt lat="48.87268" lon="2.36117">
        <ele>96.2</ele>
        <time>2015-03-09T20:07:55.336Z</time>
      </trkpt>
      <trkpt lat="48.87264" lon="2.36114">
        <ele>96.2</ele>
        <time>2015-03-09T20:07:56.254Z</time>
      </trkpt>
      <trkpt lat="48.87258" lon="2.36109">
        <ele>96</ele>
        <time>2015-03-09T20:07:57.293Z</time>
      </trkpt>
      <trkpt lat="48.87254" lon="2.36104">
        <ele>95.8</ele>
        <time>2015-03-09T20:07:58.313Z</time>
      </trkpt>
      <trkpt lat="48.87248" lon="2.36095">
        <ele>95.5</ele>
        <time>2015-03-09T20:08:00.256Z</time>
      </trkpt>
      <trkpt lat="48.87245" lon="2.36091">
        <ele>95.4</ele>
        <time>2015-03-09T20:08:01.268Z</time>
      </trkpt>
      <trkpt lat="48.87241" lon="2.36086">
        <ele>95.4</ele>
        <time>2015-03-09T20:08:02.273Z</time>
      </trkpt>
      <trkpt lat="48.87237" lon="2.36082">
        <ele>95.5</ele>
        <time>2015-03-09T20:08:03.279Z</time>
      </trkpt>
      <trkpt lat="48.8723" lon="2.36077">
        <ele>95.4</ele>
        <time>2015-03-09T20:08:05.218Z</time>
      </trkpt>
      <trkpt lat="48.87226" lon="2.36076">
        <ele>95.5</ele>
        <time>2015-03-09T20:08:06.283Z</time>
      </trkpt>
      <trkpt lat="48.8722" lon="2.36075">
        <ele>95.4</ele>
        <time>2015-03-09T20:08:07.320Z</time>
      </trkpt>
      <trkpt lat="48.87215" lon="2.36074">
        <ele>95.3</ele>
        <time>2015-03-09T20:08:08.335Z</time>
      </trkpt>
      <trkpt lat="48.87209" lon="2.36072">
        <ele>95.5</ele>
        <time>2015-03-09T20:08:09.239Z</time>
      </trkpt>
      <trkpt lat="48.87204" lon="2.36069">
        <ele>95.5</ele>
        <time>2015-03-09T20:08:10.249Z</time>
      </trkpt>
      <trkpt lat="48.87199" lon="2.36065">
        <ele>95.5</ele>
        <time>2015-03-09T20:08:11.274Z</time>
      </trkpt>
      <trkpt lat="48.87195" lon="2.36062">
        <ele>95.5</ele>
        <time>2015-03-09T20:08:12.287Z</time>
      </trkpt>
      <trkpt lat="48.87188" lon="2.36055">
        <ele>95.4</ele>
        <time>2015-03-09T20:08:14.307Z</time>
      </trkpt>
      <trkpt lat="48.87186" lon="2.36051">
        <ele>95.5</ele>
        <time>2015-03-09T20:08:15.319Z</time>
      </trkpt>
      <trkpt lat="48.8718" lon="2.36046">
        <ele>95.5</ele>
        <time>2015-03-09T20:08:17.266Z</time>
      </trkpt>
      <trkpt lat="48.87177" lon="2.36045">
        <ele>95.5</ele>
        <time>2015-03-09T20:08:18.300Z</time>
      </trkpt>
      <trkpt lat="48.87168" lon="2.36043">
        <ele>96.1</ele>
        <time>2015-03-09T20:08:22.250Z</time>
      </trkpt>
      <trkpt lat="48.87166" lon="2.36042">
        <ele>96.5</ele>
        <time>2015-03-09T20:08:23.252Z</time>
      </trkpt>
      <trkpt lat="48.87162" lon="2.36042">
        <ele>97.1</ele>
        <time>2015-03-09T20:09:05.271Z</time>
      </trkpt>
      <trkpt lat="48.8715" lon="2.36016">
        <ele>112.7</ele>
        <time>2015-03-09T20:09:07.282Z</time>
      </trkpt>
      <trkpt lat="48.87142" lon="2.36013">
        <ele>113.3</ele>
        <time>2015-03-09T20:09:11.251Z</time>
      </trkpt>
      <trkpt lat="48.8714" lon="2.36013">
        <ele>113</ele>
        <time>2015-03-09T20:09:12.404Z</time>
      </trkpt>
      <trkpt lat="48.87135" lon="2.36014">
        <ele>111.9</ele>
        <time>2015-03-09T20:09:14.272Z</time>
      </trkpt>
      <trkpt lat="48.8713" lon="2.36012">
        <ele>112</ele>
        <time>2015-03-09T20:09:15.293Z</time>
      </trkpt>
      <trkpt lat="48.87124" lon="2.36009">
        <ele>112.2</ele>
        <time>2015-03-09T20:09:17.349Z</time>
      </trkpt>
      <trkpt lat="48.8712" lon="2.36007">
        <ele>112.2</ele>
        <time>2015-03-09T20:09:18.383Z</time>
      </trkpt>
      <trkpt lat="48.87114" lon="2.36001">
        <ele>111.7</ele>
        <time>2015-03-09T20:09:20.494Z</time>
      </trkpt>
      <trkpt lat="48.87107" lon="2.35998">
        <ele>110.6</ele>
        <time>2015-03-09T20:09:21.336Z</time>
      </trkpt>
      <trkpt lat="48.87102" lon="2.35994">
        <ele>109.2</ele>
        <time>2015-03-09T20:09:22.345Z</time>
      </trkpt>
      <trkpt lat="48.87097" lon="2.3599">
        <ele>108.2</ele>
        <time>2015-03-09T20:09:23.257Z</time>
      </trkpt>
      <trkpt lat="48.87093" lon="2.35986">
        <ele>107.5</ele>
        <time>2015-03-09T20:09:24.291Z</time>
      </trkpt>
      <trkpt lat="48.87088" lon="2.35982">
        <ele>107</ele>
        <time>2015-03-09T20:09:25.285Z</time>
      </trkpt>
      <trkpt lat="48.87081" lon="2.35977">
        <ele>106.8</ele>
        <time>2015-03-09T20:09:27.351Z</time>
      </trkpt>
      <trkpt lat="48.87078" lon="2.35975">
        <ele>106.5</ele>
        <time>2015-03-09T20:09:28.258Z</time>
      </trkpt>
      <trkpt lat="48.87071" lon="2.3597">
        <ele>106.1</ele>
        <time>2015-03-09T20:09:31.306Z</time>
      </trkpt>
      <trkpt lat="48.87068" lon="2.35966">
        <ele>106.2</ele>
        <time>2015-03-09T20:09:32.381Z</time>
      </trkpt>
      <trkpt lat="48.87063" lon="2.35957">
        <ele>106.4</ele>
        <time>2015-03-09T20:09:34.251Z</time>
      </trkpt>
      <trkpt lat="48.8706" lon="2.35954">
        <ele>106.7</ele>
        <time>2015-03-09T20:09:35.309Z</time>
      </trkpt>
      <trkpt lat="48.87054" lon="2.35952">
        <ele>106.9</ele>
        <time>2015-03-09T20:09:38.256Z</time>
      </trkpt>
      <trkpt lat="48.87049" lon="2.35952">
        <ele>107</ele>
        <time>2015-03-09T20:09:39.255Z</time>
      </trkpt>
      <trkpt lat="48.87041" lon="2.3595">
        <ele>107.2</ele>
        <time>2015-03-09T20:09:42.294Z</time>
      </trkpt>
      <trkpt lat="48.87037" lon="2.35949">
        <ele>107.2</ele>
        <time>2015-03-09T20:09:43.308Z</time>
      </trkpt>
      <trkpt lat="48.87028" lon="2.35947">
        <ele>106.9</ele>
        <time>2015-03-09T20:09:46.223Z</time>
      </trkpt>
      <trkpt lat="48.87026" lon="2.35946">
        <ele>106.8</ele>
        <time>2015-03-09T20:09:47.227Z</time>
      </trkpt>
      <trkpt lat="48.8702" lon="2.35943">
        <ele>106.7</ele>
        <time>2015-03-09T20:09:49.352Z</time>
      </trkpt>
      <trkpt lat="48.87015" lon="2.35942">
        <ele>106.9</ele>
        <time>2015-03-09T20:09:50.249Z</time>
      </trkpt>
      <trkpt lat="48.87011" lon="2.35939">
        <ele>106.9</ele>
        <time>2015-03-09T20:09:51.255Z</time>
      </trkpt>
      <trkpt lat="48.87007" lon="2.35937">
        <ele>107</ele>
        <time>2015-03-09T20:09:52.258Z</time>
      </trkpt>
      <trkpt lat="48.87" lon="2.35932">
        <ele>107.4</ele>
        <time>2015-03-09T20:09:54.291Z</time>
      </trkpt>
      <trkpt lat="48.86995" lon="2.3593">
        <ele>107.3</ele>
        <time>2015-03-09T20:09:55.328Z</time>
      </trkpt>
      <trkpt lat="48.86987" lon="2.35929">
        <ele>106.8</ele>
        <time>2015-03-09T20:09:57.238Z</time>
      </trkpt>
      <trkpt lat="48.86986" lon="2.3593">
        <ele>106.6</ele>
        <time>2015-03-09T20:09:58.269Z</time>
      </trkpt>
      <trkpt lat="48.8698" lon="2.35931">
        <ele>105.6</ele>
        <time>2015-03-09T20:10:00.267Z</time>
      </trkpt>
      <trkpt lat="48.86976" lon="2.35932">
        <ele>105.1</ele>
        <time>2015-03-09T20:10:01.232Z</time>
      </trkpt>
      <trkpt lat="48.86969" lon="2.35933">
        <ele>103.5</ele>
        <time>2015-03-09T20:10:04.510Z</time>
      </trkpt>
      <trkpt lat="48.86966" lon="2.35933">
        <ele>103.4</ele>
        <time>2015-03-09T20:10:05.285Z</time>
      </trkpt>
      <trkpt lat="48.8696" lon="2.3593">
        <ele>102.9</ele>
        <time>2015-03-09T20:10:07.220Z</time>
      </trkpt>
      <trkpt lat="48.86957" lon="2.35929">
        <ele>102.6</ele>
        <time>2015-03-09T20:10:08.221Z</time>
      </trkpt>
      <trkpt lat="48.86949" lon="2.35925">
        <ele>102.9</ele>
        <time>2015-03-09T20:10:11.273Z</time>
      </trkpt>
      <trkpt lat="48.86945" lon="2.35923">
        <ele>103</ele>
        <time>2015-03-09T20:10:12.276Z</time>
      </trkpt>
      <trkpt lat="48.86941" lon="2.35921">
        <ele>103.1</ele>
        <time>2015-03-09T20:10:13.298Z</time>
      </trkpt>
      <trkpt lat="48.86889" lon="2.35879">
        <ele>103.3</ele>
        <time>2015-03-09T20:10:31.236Z</time>
      </trkpt>
      <trkpt lat="48.86882" lon="2.35887">
        <ele>104.2</ele>
        <time>2015-03-09T20:10:33.403Z</time>
      </trkpt>
      <trkpt lat="48.8688" lon="2.35891">
        <ele>105.5</ele>
        <time>2015-03-09T20:10:34.242Z</time>
      </trkpt>
      <trkpt lat="48.86879" lon="2.35903">
        <ele>120.7</ele>
        <time>2015-03-09T20:10:45.079Z</time>
      </trkpt>
      <trkpt lat="48.86879" lon="2.35907">
        <ele>124</ele>
        <time>2015-03-09T20:10:45.219Z</time>
      </trkpt>
      <trkpt lat="48.86879" lon="2.3592">
        <ele>139.2</ele>
        <time>2015-03-09T20:10:50.273Z</time>
      </trkpt>
      <trkpt lat="48.86877" lon="2.35921">
        <ele>141.8</ele>
        <time>2015-03-09T20:10:51.286Z</time>
      </trkpt>
      <trkpt lat="48.86878" lon="2.35934">
        <ele>154</ele>
        <time>2015-03-09T20:10:57.355Z</time>
      </trkpt>
      <trkpt lat="48.86874" lon="2.35937">
        <ele>154.8</ele>
        <time>2015-03-09T20:10:58.328Z</time>
      </trkpt>
      <trkpt lat="48.86867" lon="2.35944">
        <ele>152.6</ele>
        <time>2015-03-09T20:11:01.277Z</time>
      </trkpt>
      <trkpt lat="48.86866" lon="2.35949">
        <ele>150.7</ele>
        <time>2015-03-09T20:11:02.292Z</time>
      </trkpt>
      <trkpt lat="48.86863" lon="2.35955">
        <ele>147</ele>
        <time>2015-03-09T20:11:04.805Z</time>
      </trkpt>
      <trkpt lat="48.8686" lon="2.35959">
        <ele>146.4</ele>
        <time>2015-03-09T20:11:05.404Z</time>
      </trkpt>
      <trkpt lat="48.86858" lon="2.35971">
        <ele>142.7</ele>
        <time>2015-03-09T20:11:09.911Z</time>
      </trkpt>
      <trkpt lat="48.86857" lon="2.35974">
        <ele>142</ele>
        <time>2015-03-09T20:11:10.348Z</time>
      </trkpt>
      <trkpt lat="48.86856" lon="2.35979">
        <ele>140.3</ele>
        <time>2015-03-09T20:11:11.260Z</time>
      </trkpt>
      <trkpt lat="48.86853" lon="2.35987">
        <ele>134.6</ele>
        <time>2015-03-09T20:11:12.302Z</time>
      </trkpt>
      <trkpt lat="48.86851" lon="2.35994">
        <ele>131.3</ele>
        <time>2015-03-09T20:11:13.330Z</time>
      </trkpt>
      <trkpt lat="48.8685" lon="2.36">
        <ele>128.2</ele>
        <time>2015-03-09T20:11:14.264Z</time>
      </trkpt>
      <trkpt lat="48.86847" lon="2.36011">
        <ele>127.9</ele>
        <time>2015-03-09T20:11:17.297Z</time>
      </trkpt>
      <trkpt lat="48.86845" lon="2.36014">
        <ele>127.9</ele>
        <time>2015-03-09T20:11:18.361Z</time>
      </trkpt>
      <trkpt lat="48.86839" lon="2.36024">
        <ele>127.1</ele>
        <time>2015-03-09T20:11:21.284Z</time>
      </trkpt>
      <trkpt lat="48.86838" lon="2.36027">
        <ele>126.8</ele>
        <time>2015-03-09T20:11:22.305Z</time>
      </trkpt>
      <trkpt lat="48.86834" lon="2.36038">
        <ele>126.6</ele>
        <time>2015-03-09T20:11:25.294Z</time>
      </trkpt>
      <trkpt lat="48.86833" lon="2.36042">
        <ele>126.4</ele>
        <time>2015-03-09T20:11:25.331Z</time>
      </trkpt>
      <trkpt lat="48.86829" lon="2.36048">
        <ele>125.7</ele>
        <time>2015-03-09T20:11:27.253Z</time>
      </trkpt>
      <trkpt lat="48.86827" lon="2.36052">
        <ele>124.8</ele>
        <time>2015-03-09T20:11:28.288Z</time>
      </trkpt>
      <trkpt lat="48.86822" lon="2.36057">
        <ele>123.2</ele>
        <time>2015-03-09T20:11:29.284Z</time>
      </trkpt>
      <trkpt lat="48.86818" lon="2.36063">
        <ele>122.1</ele>
        <time>2015-03-09T20:11:30.327Z</time>
      </trkpt>
      <trkpt lat="48.86815" lon="2.36069">
        <ele>120.9</ele>
        <time>2015-03-09T20:11:31.329Z</time>
      </trkpt>
      <trkpt lat="48.86814" lon="2.36076">
        <ele>118.6</ele>
        <time>2015-03-09T20:11:32.347Z</time>
      </trkpt>
      <trkpt lat="48.86816" lon="2.36089">
        <ele>117.3</ele>
        <time>2015-03-09T20:11:34.236Z</time>
      </trkpt>
      <trkpt lat="48.86815" lon="2.36099">
        <ele>117.2</ele>
        <time>2015-03-09T20:11:35.273Z</time>
      </trkpt>
      <trkpt lat="48.86812" lon="2.3611">
        <ele>116.7</ele>
        <time>2015-03-09T20:11:36.321Z</time>
      </trkpt>
      <trkpt lat="48.86808" lon="2.36121">
        <ele>116</ele>
        <time>2015-03-09T20:11:37.321Z</time>
      </trkpt>
      <trkpt lat="48.86806" lon="2.36131">
        <ele>115.5</ele>
        <time>2015-03-09T20:11:38.251Z</time>
      </trkpt>
      <trkpt lat="48.86806" lon="2.36139">
        <ele>114.8</ele>
        <time>2015-03-09T20:11:39.249Z</time>
      </trkpt>
      <trkpt lat="48.86807" lon="2.36151">
        <ele>113.5</ele>
        <time>2015-03-09T20:11:41.267Z</time>
      </trkpt>
      <trkpt lat="48.86808" lon="2.36157">
        <ele>112.3</ele>
        <time>2015-03-09T20:11:42.279Z</time>
      </trkpt>
      <trkpt lat="48.86807" lon="2.3617">
        <ele>110.8</ele>
        <time>2015-03-09T20:11:44.308Z</time>
      </trkpt>
      <trkpt lat="48.86806" lon="2.36176">
        <ele>110</ele>
        <time>2015-03-09T20:11:45.321Z</time>
      </trkpt>
      <trkpt lat="48.8681" lon="2.36186">
        <ele>108.4</ele>
        <time>2015-03-09T20:11:47.221Z</time>
      </trkpt>
      <trkpt lat="48.86814" lon="2.36192">
        <ele>108.2</ele>
        <time>2015-03-09T20:11:48.268Z</time>
      </trkpt>
      <trkpt lat="48.86817" lon="2.36203">
        <ele>107.3</ele>
        <time>2015-03-09T20:11:50.301Z</time>
      </trkpt>
      <trkpt lat="48.86819" lon="2.36208">
        <ele>106.1</ele>
        <time>2015-03-09T20:11:51.357Z</time>
      </trkpt>
      <trkpt lat="48.86822" lon="2.3622">
        <ele>103.8</ele>
        <time>2015-03-09T20:11:55.349Z</time>
      </trkpt>
      <trkpt lat="48.86821" lon="2.36222">
        <ele>103.7</ele>
        <time>2015-03-09T20:11:56.243Z</time>
      </trkpt>
      <trkpt lat="48.86823" lon="2.36233">
        <ele>101.9</ele>
        <time>2015-03-09T20:12:00.272Z</time>
      </trkpt>
      <trkpt lat="48.86823" lon="2.36237">
        <ele>101.3</ele>
        <time>2015-03-09T20:12:01.291Z</time>
      </trkpt>
      <trkpt lat="48.86826" lon="2.36246">
        <ele>100.4</ele>
        <time>2015-03-09T20:12:03.313Z</time>
      </trkpt>
      <trkpt lat="48.86826" lon="2.3625">
        <ele>99.8</ele>
        <time>2015-03-09T20:12:04.279Z</time>
      </trkpt>
      <trkpt lat="48.86829" lon="2.36259">
        <ele>99</ele>
        <time>2015-03-09T20:12:06.320Z</time>
      </trkpt>
      <trkpt lat="48.8683" lon="2.36263">
        <ele>98.9</ele>
        <time>2015-03-09T20:12:07.344Z</time>
      </trkpt>
      <trkpt lat="48.86831" lon="2.36269">
        <ele>97.9</ele>
        <time>2015-03-09T20:12:12.279Z</time>
      </trkpt>
      <trkpt lat="48.86835" lon="2.36278">
        <ele>96.8</ele>
        <time>2015-03-09T20:12:13.260Z</time>
      </trkpt>
      <trkpt lat="48.86837" lon="2.36286">
        <ele>95.3</ele>
        <time>2015-03-09T20:12:20.279Z</time>
      </trkpt>
      <trkpt lat="48.86838" lon="2.36301">
        <ele>94.6</ele>
        <time>2015-03-09T20:12:21.280Z</time>
      </trkpt>
      <trkpt lat="48.86843" lon="2.36312">
        <ele>94.5</ele>
        <time>2015-03-09T20:12:39.245Z</time>
      </trkpt>
      <trkpt lat="48.86858" lon="2.36312">
        <ele>94.1</ele>
        <time>2015-03-09T20:12:40.260Z</time>
      </trkpt>
      <trkpt lat="48.86865" lon="2.36312">
        <ele>94.9</ele>
        <time>2015-03-09T20:12:44.326Z</time>
      </trkpt>
      <trkpt lat="48.86869" lon="2.36318">
        <ele>94</ele>
        <time>2015-03-09T20:12:45.347Z</time>
      </trkpt>
      <trkpt lat="48.86872" lon="2.36322">
        <ele>93.7</ele>
        <time>2015-03-09T20:12:46.338Z</time>
      </trkpt>
      <trkpt lat="48.86876" lon="2.36327">
        <ele>93.7</ele>
        <time>2015-03-09T20:12:47.345Z</time>
      </trkpt>
      <trkpt lat="48.86881" lon="2.36337">
        <ele>93.7</ele>
        <time>2015-03-09T20:12:49.346Z</time>
      </trkpt>
      <trkpt lat="48.86883" lon="2.36341">
        <ele>93.6</ele>
        <time>2015-03-09T20:12:50.371Z</time>
      </trkpt>
      <trkpt lat="48.86889" lon="2.3635">
        <ele>92.8</ele>
        <time>2015-03-09T20:12:52.269Z</time>
      </trkpt>
      <trkpt lat="48.86892" lon="2.36353">
        <ele>92.8</ele>
        <time>2015-03-09T20:12:53.295Z</time>
      </trkpt>
      <trkpt lat="48.86898" lon="2.3636">
        <ele>92.9</ele>
        <time>2015-03-09T20:12:55.221Z</time>
      </trkpt>
      <trkpt lat="48.86902" lon="2.36362">
        <ele>92.4</ele>
        <time>2015-03-09T20:12:56.315Z</time>
      </trkpt>
      <trkpt lat="48.86908" lon="2.36368">
        <ele>91.6</ele>
        <time>2015-03-09T20:12:58.262Z</time>
      </trkpt>
      <trkpt lat="48.86912" lon="2.3637">
        <ele>91.5</ele>
        <time>2015-03-09T20:12:59.458Z</time>
      </trkpt>
      <trkpt lat="48.86916" lon="2.36379">
        <ele>91.6</ele>
        <time>2015-03-09T20:13:02.260Z</time>
      </trkpt>
      <trkpt lat="48.86918" lon="2.36385">
        <ele>91.2</ele>
        <time>2015-03-09T20:13:02.320Z</time>
      </trkpt>
      <trkpt lat="48.86919" lon="2.36395">
        <ele>90.5</ele>
        <time>2015-03-09T20:13:04.557Z</time>
      </trkpt>
      <trkpt lat="48.8692" lon="2.364">
        <ele>90.3</ele>
        <time>2015-03-09T20:13:05.287Z</time>
      </trkpt>
      <trkpt lat="48.86924" lon="2.3641">
        <ele>89.6</ele>
        <time>2015-03-09T20:13:07.240Z</time>
      </trkpt>
      <trkpt lat="48.86925" lon="2.36414">
        <ele>89.4</ele>
        <time>2015-03-09T20:13:08.243Z</time>
      </trkpt>
      <trkpt lat="48.8693" lon="2.36425">
        <ele>88.9</ele>
        <time>2015-03-09T20:13:13.261Z</time>
      </trkpt>
      <trkpt lat="48.86928" lon="2.36427">
        <ele>89.1</ele>
        <time>2015-03-09T20:13:14.277Z</time>
      </trkpt>
      <trkpt lat="48.86928" lon="2.36427">
        <ele>89.1</ele>
        <time>2015-03-09T20:13:22.380Z</time>
      </trkpt>
      <trkpt lat="48.86903" lon="2.36448">
        <ele>91</ele>
        <time>2015-03-09T20:13:23.247Z</time>
      </trkpt>
      <trkpt lat="48.86896" lon="2.36452">
        <ele>91.3</ele>
        <time>2015-03-09T20:13:25.332Z</time>
      </trkpt>
      <trkpt lat="48.86892" lon="2.36453">
        <ele>91.6</ele>
        <time>2015-03-09T20:13:26.330Z</time>
      </trkpt>
      <trkpt lat="48.86886" lon="2.36455">
        <ele>91.9</ele>
        <time>2015-03-09T20:13:27.251Z</time>
      </trkpt>
      <trkpt lat="48.8688" lon="2.36455">
        <ele>92.2</ele>
        <time>2015-03-09T20:13:28.250Z</time>
      </trkpt>
      <trkpt lat="48.86872" lon="2.3646">
        <ele>93.9</ele>
        <time>2015-03-09T20:13:32.310Z</time>
      </trkpt>
      <trkpt lat="48.86869" lon="2.36462">
        <ele>94</ele>
        <time>2015-03-09T20:13:33.359Z</time>
      </trkpt>
      <trkpt lat="48.86861" lon="2.36467">
        <ele>94.6</ele>
        <time>2015-03-09T20:13:38.345Z</time>
      </trkpt>
      <trkpt lat="48.86858" lon="2.36469">
        <ele>94.6</ele>
        <time>2015-03-09T20:13:39.247Z</time>
      </trkpt>
      <trkpt lat="48.8685" lon="2.36471">
        <ele>95.1</ele>
        <time>2015-03-09T20:13:42.292Z</time>
      </trkpt>
      <trkpt lat="48.86849" lon="2.36473">
        <ele>95.1</ele>
        <time>2015-03-09T20:13:43.330Z</time>
      </trkpt>
      <trkpt lat="48.86846" lon="2.36484">
        <ele>93.3</ele>
        <time>2015-03-09T20:13:45.281Z</time>
      </trkpt>
      <trkpt lat="48.86842" lon="2.36497">
        <ele>91.6</ele>
        <time>2015-03-09T20:13:46.314Z</time>
      </trkpt>
      <trkpt lat="48.86841" lon="2.36501">
        <ele>92.7</ele>
        <time>2015-03-09T20:13:50.262Z</time>
      </trkpt>
      <trkpt lat="48.86847" lon="2.36515">
        <ele>95</ele>
        <time>2015-03-09T20:13:51.302Z</time>
      </trkpt>
      <trkpt lat="48.86847" lon="2.36519">
        <ele>95.3</ele>
        <time>2015-03-09T20:13:52.336Z</time>
      </trkpt>
      <trkpt lat="48.86844" lon="2.36528">
        <ele>94.9</ele>
        <time>2015-03-09T20:13:53.219Z</time>
      </trkpt>
      <trkpt lat="48.8684" lon="2.36537">
        <ele>94.9</ele>
        <time>2015-03-09T20:13:54.352Z</time>
      </trkpt>
      <trkpt lat="48.86837" lon="2.36544">
        <ele>94.8</ele>
        <time>2015-03-09T20:13:55.256Z</time>
      </trkpt>
      <trkpt lat="48.86839" lon="2.36552">
        <ele>94.2</ele>
        <time>2015-03-09T20:13:57.290Z</time>
      </trkpt>
      <trkpt lat="48.86839" lon="2.36558">
        <ele>94.3</ele>
        <time>2015-03-09T20:13:58.300Z</time>
      </trkpt>
      <trkpt lat="48.86841" lon="2.36566">
        <ele>93.4</ele>
        <time>2015-03-09T20:14:00.337Z</time>
      </trkpt>
      <trkpt lat="48.86843" lon="2.36571">
        <ele>93.4</ele>
        <time>2015-03-09T20:14:01.253Z</time>
      </trkpt>
      <trkpt lat="48.86847" lon="2.36579">
        <ele>94.1</ele>
        <time>2015-03-09T20:14:03.284Z</time>
      </trkpt>
      <trkpt lat="48.86849" lon="2.36584">
        <ele>94.2</ele>
        <time>2015-03-09T20:14:04.280Z</time>
      </trkpt>
      <trkpt lat="48.86852" lon="2.36592">
        <ele>94.3</ele>
        <time>2015-03-09T20:14:06.298Z</time>
      </trkpt>
      <trkpt lat="48.86854" lon="2.36596">
        <ele>94.3</ele>
        <time>2015-03-09T20:14:07.324Z</time>
      </trkpt>
      <trkpt lat="48.86859" lon="2.36604">
        <ele>94.6</ele>
        <time>2015-03-09T20:14:09.265Z</time>
      </trkpt>
      <trkpt lat="48.8686" lon="2.36609">
        <ele>94.2</ele>
        <time>2015-03-09T20:14:10.285Z</time>
      </trkpt>
      <trkpt lat="48.86864" lon="2.36619">
        <ele>94.1</ele>
        <time>2015-03-09T20:14:12.278Z</time>
      </trkpt>
      <trkpt lat="48.86867" lon="2.36622">
        <ele>94.2</ele>
        <time>2015-03-09T20:14:13.273Z</time>
      </trkpt>
      <trkpt lat="48.8687" lon="2.36632">
        <ele>94.1</ele>
        <time>2015-03-09T20:14:15.255Z</time>
      </trkpt>
      <trkpt lat="48.86871" lon="2.36638">
        <ele>94.1</ele>
        <time>2015-03-09T20:14:16.263Z</time>
      </trkpt>
      <trkpt lat="48.86873" lon="2.36649">
        <ele>94</ele>
        <time>2015-03-09T20:14:18.309Z</time>
      </trkpt>
      <trkpt lat="48.86873" lon="2.36655">
        <ele>94</ele>
        <time>2015-03-09T20:14:19.311Z</time>
      </trkpt>
      <trkpt lat="48.86874" lon="2.36667">
        <ele>93.4</ele>
        <time>2015-03-09T20:14:21.403Z</time>
      </trkpt>
      <trkpt lat="48.86875" lon="2.36672">
        <ele>93.2</ele>
        <time>2015-03-09T20:14:22.248Z</time>
      </trkpt>
      <trkpt lat="48.86875" lon="2.36677">
        <ele>92.9</ele>
        <time>2015-03-09T20:14:23.263Z</time>
      </trkpt>
      <trkpt lat="48.86872" lon="2.36686">
        <ele>92.2</ele>
        <time>2015-03-09T20:14:24.287Z</time>
      </trkpt>
      <trkpt lat="48.86871" lon="2.36693">
        <ele>91.7</ele>
        <time>2015-03-09T20:14:25.316Z</time>
      </trkpt>
      <trkpt lat="48.8687" lon="2.367">
        <ele>91.4</ele>
        <time>2015-03-09T20:14:26.334Z</time>
      </trkpt>
      <trkpt lat="48.86868" lon="2.36713">
        <ele>90.7</ele>
        <time>2015-03-09T20:14:28.288Z</time>
      </trkpt>
      <trkpt lat="48.86867" lon="2.36719">
        <ele>91</ele>
        <time>2015-03-09T20:14:29.259Z</time>
      </trkpt>
      <trkpt lat="48.86868" lon="2.3673">
        <ele>91</ele>
        <time>2015-03-09T20:14:32.344Z</time>
      </trkpt>
      <trkpt lat="48.86868" lon="2.36734">
        <ele>90.9</ele>
        <time>2015-03-09T20:14:33.252Z</time>
      </trkpt>
      <trkpt lat="48.86873" lon="2.36741">
        <ele>90.6</ele>
        <time>2015-03-09T20:14:36.336Z</time>
      </trkpt>
      <trkpt lat="48.86875" lon="2.36743">
        <ele>90.4</ele>
        <time>2015-03-09T20:14:37.236Z</time>
      </trkpt>
      <trkpt lat="48.86878" lon="2.36755">
        <ele>90.2</ele>
        <time>2015-03-09T20:14:40.298Z</time>
      </trkpt>
      <trkpt lat="48.86878" lon="2.36761">
        <ele>90.5</ele>
        <time>2015-03-09T20:14:41.305Z</time>
      </trkpt>
      <trkpt lat="48.86879" lon="2.3677">
        <ele>90.7</ele>
        <time>2015-03-09T20:14:43.330Z</time>
      </trkpt>
      <trkpt lat="48.8688" lon="2.36774">
        <ele>90.7</ele>
        <time>2015-03-09T20:14:44.242Z</time>
      </trkpt>
      <trkpt lat="48.86884" lon="2.36784">
        <ele>89.3</ele>
        <time>2015-03-09T20:14:47.316Z</time>
      </trkpt>
      <trkpt lat="48.86885" lon="2.36786">
        <ele>88.8</ele>
        <time>2015-03-09T20:14:48.323Z</time>
      </trkpt>
      <trkpt lat="48.86882" lon="2.36797">
        <ele>90.1</ele>
        <time>2015-03-09T20:14:54.349Z</time>
      </trkpt>
      <trkpt lat="48.86881" lon="2.368">
        <ele>90.6</ele>
        <time>2015-03-09T20:14:55.246Z</time>
      </trkpt>
      <trkpt lat="48.86875" lon="2.3681">
        <ele>90.7</ele>
        <time>2015-03-09T20:14:58.294Z</time>
      </trkpt>
      <trkpt lat="48.86874" lon="2.36815">
        <ele>90.3</ele>
        <time>2015-03-09T20:14:59.301Z</time>
      </trkpt>
      <trkpt lat="48.86869" lon="2.36826">
        <ele>89.6</ele>
        <time>2015-03-09T20:15:01.350Z</time>
      </trkpt>
      <trkpt lat="48.86866" lon="2.36832">
        <ele>89.6</ele>
        <time>2015-03-09T20:15:02.219Z</time>
      </trkpt>
      <trkpt lat="48.86861" lon="2.36843">
        <ele>89.6</ele>
        <time>2015-03-09T20:15:04.247Z</time>
      </trkpt>
      <trkpt lat="48.8686" lon="2.3685">
        <ele>89.3</ele>
        <time>2015-03-09T20:15:05.290Z</time>
      </trkpt>
      <trkpt lat="48.86858" lon="2.36856">
        <ele>89.3</ele>
        <time>2015-03-09T20:15:06.321Z</time>
      </trkpt>
      <trkpt lat="48.86857" lon="2.36864">
        <ele>88.9</ele>
        <time>2015-03-09T20:15:07.330Z</time>
      </trkpt>
      <trkpt lat="48.86856" lon="2.36877">
        <ele>88.6</ele>
        <time>2015-03-09T20:15:09.235Z</time>
      </trkpt>
      <trkpt lat="48.86856" lon="2.36884">
        <ele>88.5</ele>
        <time>2015-03-09T20:15:10.322Z</time>
      </trkpt>
      <trkpt lat="48.86852" lon="2.36895">
        <ele>88.2</ele>
        <time>2015-03-09T20:15:12.325Z</time>
      </trkpt>
      <trkpt lat="48.86851" lon="2.36901">
        <ele>87.8</ele>
        <time>2015-03-09T20:15:13.341Z</time>
      </trkpt>
      <trkpt lat="48.86848" lon="2.36906">
        <ele>87.6</ele>
        <time>2015-03-09T20:15:14.207Z</time>
      </trkpt>
      <trkpt lat="48.86845" lon="2.36912">
        <ele>87.4</ele>
        <time>2015-03-09T20:15:15.236Z</time>
      </trkpt>
      <trkpt lat="48.86842" lon="2.36919">
        <ele>87.4</ele>
        <time>2015-03-09T20:15:16.274Z</time>
      </trkpt>
      <trkpt lat="48.86839" lon="2.36925">
        <ele>87.5</ele>
        <time>2015-03-09T20:15:17.271Z</time>
      </trkpt>
      <trkpt lat="48.86838" lon="2.36933">
        <ele>87.2</ele>
        <time>2015-03-09T20:15:18.271Z</time>
      </trkpt>
      <trkpt lat="48.86837" lon="2.3694">
        <ele>87.2</ele>
        <time>2015-03-09T20:15:19.278Z</time>
      </trkpt>
      <trkpt lat="48.86836" lon="2.36947">
        <ele>87.3</ele>
        <time>2015-03-09T20:15:20.292Z</time>
      </trkpt>
      <trkpt lat="48.86834" lon="2.36955">
        <ele>87.1</ele>
        <time>2015-03-09T20:15:21.314Z</time>
      </trkpt>
      <trkpt lat="48.86829" lon="2.36967">
        <ele>86.9</ele>
        <time>2015-03-09T20:15:23.291Z</time>
      </trkpt>
      <trkpt lat="48.86828" lon="2.36971">
        <ele>86.8</ele>
        <time>2015-03-09T20:15:24.273Z</time>
      </trkpt>
      <trkpt lat="48.86824" lon="2.36979">
        <ele>86.4</ele>
        <time>2015-03-09T20:15:28.231Z</time>
      </trkpt>
      <trkpt lat="48.86824" lon="2.36978">
        <ele>86.4</ele>
        <time>2015-03-09T20:15:29.247Z</time>
      </trkpt>
      <trkpt lat="48.86824" lon="2.3698">
        <ele>86.8</ele>
        <time>2015-03-09T20:15:30.276Z</time>
      </trkpt>
      <trkpt lat="48.86822" lon="2.36984">
        <ele>87.6</ele>
        <time>2015-03-09T20:15:39.211Z</time>
      </trkpt>
      <trkpt lat="48.86804" lon="2.36985">
        <ele>88.6</ele>
        <time>2015-03-09T20:15:40.227Z</time>
      </trkpt>
      <trkpt lat="48.86797" lon="2.3699">
        <ele>88.7</ele>
        <time>2015-03-09T20:15:42.276Z</time>
      </trkpt>
      <trkpt lat="48.86793" lon="2.36991">
        <ele>89</ele>
        <time>2015-03-09T20:15:43.300Z</time>
      </trkpt>
      <trkpt lat="48.86786" lon="2.36996">
        <ele>89.4</ele>
        <time>2015-03-09T20:15:46.268Z</time>
      </trkpt>
      <trkpt lat="48.86784" lon="2.36998">
        <ele>89.5</ele>
        <time>2015-03-09T20:15:47.280Z</time>
      </trkpt>
      <trkpt lat="48.86776" lon="2.36997">
        <ele>90.2</ele>
        <time>2015-03-09T20:15:51.241Z</time>
      </trkpt>
      <trkpt lat="48.86773" lon="2.36998">
        <ele>90.3</ele>
        <time>2015-03-09T20:15:52.251Z</time>
      </trkpt>
      <trkpt lat="48.86767" lon="2.36997">
        <ele>90.2</ele>
        <time>2015-03-09T20:15:54.286Z</time>
      </trkpt>
      <trkpt lat="48.86764" lon="2.36996">
        <ele>90</ele>
        <time>2015-03-09T20:15:55.318Z</time>
      </trkpt>
      <trkpt lat="48.86762" lon="2.36997">
        <ele>89.9</ele>
        <time>2015-03-09T20:16:00.266Z</time>
      </trkpt>
      <trkpt lat="48.86755" lon="2.37007">
        <ele>90.7</ele>
        <time>2015-03-09T20:16:01.297Z</time>
      </trkpt>
      <trkpt lat="48.8675" lon="2.37015">
        <ele>91.4</ele>
        <time>2015-03-09T20:16:04.245Z</time>
      </trkpt>
      <trkpt lat="48.86746" lon="2.37019">
        <ele>91.5</ele>
        <time>2015-03-09T20:16:05.260Z</time>
      </trkpt>
      <trkpt lat="48.86742" lon="2.37023">
        <ele>91.4</ele>
        <time>2015-03-09T20:16:06.287Z</time>
      </trkpt>
      <trkpt lat="48.86738" lon="2.37028">
        <ele>91.5</ele>
        <time>2015-03-09T20:16:07.297Z</time>
      </trkpt>
      <trkpt lat="48.86733" lon="2.37032">
        <ele>91.8</ele>
        <time>2015-03-09T20:16:08.302Z</time>
      </trkpt>
      <trkpt lat="48.86728" lon="2.37036">
        <ele>92.1</ele>
        <time>2015-03-09T20:16:09.311Z</time>
      </trkpt>
      <trkpt lat="48.86723" lon="2.3704">
        <ele>92.6</ele>
        <time>2015-03-09T20:16:10.237Z</time>
      </trkpt>
      <trkpt lat="48.86717" lon="2.37043">
        <ele>93</ele>
        <time>2015-03-09T20:16:11.244Z</time>
      </trkpt>
      <trkpt lat="48.86712" lon="2.37047">
        <ele>93</ele>
        <time>2015-03-09T20:16:12.292Z</time>
      </trkpt>
      <trkpt lat="48.86707" lon="2.37049">
        <ele>93.1</ele>
        <time>2015-03-09T20:16:13.295Z</time>
      </trkpt>
      <trkpt lat="48.86703" lon="2.37051">
        <ele>93.4</ele>
        <time>2015-03-09T20:16:14.308Z</time>
      </trkpt>
      <trkpt lat="48.86698" lon="2.37053">
        <ele>93.5</ele>
        <time>2015-03-09T20:16:15.315Z</time>
      </trkpt>
      <trkpt lat="48.86691" lon="2.37057">
        <ele>93.8</ele>
        <time>2015-03-09T20:16:17.237Z</time>
      </trkpt>
      <trkpt lat="48.86688" lon="2.3706">
        <ele>93.9</ele>
        <time>2015-03-09T20:16:18.254Z</time>
      </trkpt>
      <trkpt lat="48.86685" lon="2.37062">
        <ele>94</ele>
        <time>2015-03-09T20:16:20.275Z</time>
      </trkpt>
      <trkpt lat="48.86676" lon="2.37067">
        <ele>94.1</ele>
        <time>2015-03-09T20:16:21.285Z</time>
      </trkpt>
      <trkpt lat="48.86671" lon="2.3707">
        <ele>94.2</ele>
        <time>2015-03-09T20:16:22.255Z</time>
      </trkpt>
      <trkpt lat="48.86667" lon="2.37074">
        <ele>94.1</ele>
        <time>2015-03-09T20:16:23.268Z</time>
      </trkpt>
      <trkpt lat="48.86665" lon="2.37087">
        <ele>95.5</ele>
        <time>2015-03-09T20:16:25.326Z</time>
      </trkpt>
      <trkpt lat="48.86659" lon="2.37098">
        <ele>93.2</ele>
        <time>2015-03-09T20:16:26.339Z</time>
      </trkpt>
      <trkpt lat="48.86652" lon="2.37106">
        <ele>91.5</ele>
        <time>2015-03-09T20:16:28.254Z</time>
      </trkpt>
      <trkpt lat="48.86641" lon="2.37117">
        <ele>89.9</ele>
        <time>2015-03-09T20:16:29.257Z</time>
      </trkpt>
      <trkpt lat="48.86633" lon="2.37122">
        <ele>91.2</ele>
        <time>2015-03-09T20:16:31.356Z</time>
      </trkpt>
      <trkpt lat="48.8663" lon="2.37124">
        <ele>91.7</ele>
        <time>2015-03-09T20:16:32.247Z</time>
      </trkpt>
      <trkpt lat="48.86628" lon="2.37125">
        <ele>92.1</ele>
        <time>2015-03-09T20:16:40.249Z</time>
      </trkpt>
      <trkpt lat="48.86614" lon="2.37137">
        <ele>96.2</ele>
        <time>2015-03-09T20:16:41.265Z</time>
      </trkpt>
      <trkpt lat="48.86607" lon="2.37144">
        <ele>97.6</ele>
        <time>2015-03-09T20:16:44.301Z</time>
      </trkpt>
      <trkpt lat="48.86605" lon="2.37145">
        <ele>97.9</ele>
        <time>2015-03-09T20:16:45.331Z</time>
      </trkpt>
      <trkpt lat="48.86598" lon="2.37149">
        <ele>99.5</ele>
        <time>2015-03-09T20:17:05.340Z</time>
      </trkpt>
      <trkpt lat="48.86585" lon="2.37174">
        <ele>105.7</ele>
        <time>2015-03-09T20:17:06.368Z</time>
      </trkpt>
      <trkpt lat="48.86579" lon="2.3717">
        <ele>107.6</ele>
        <time>2015-03-09T20:17:11.279Z</time>
      </trkpt>
      <trkpt lat="48.86573" lon="2.37173">
        <ele>108.2</ele>
        <time>2015-03-09T20:17:12.375Z</time>
      </trkpt>
      <trkpt lat="48.86568" lon="2.37178">
        <ele>108.7</ele>
        <time>2015-03-09T20:17:14.327Z</time>
      </trkpt>
      <trkpt lat="48.86565" lon="2.37181">
        <ele>109</ele>
        <time>2015-03-09T20:17:15.241Z</time>
      </trkpt>
      <trkpt lat="48.86559" lon="2.37185">
        <ele>109.4</ele>
        <time>2015-03-09T20:17:17.296Z</time>
      </trkpt>
      <trkpt lat="48.86555" lon="2.37188">
        <ele>109.5</ele>
        <time>2015-03-09T20:17:18.312Z</time>
      </trkpt>
      <trkpt lat="48.86547" lon="2.3719">
        <ele>110</ele>
        <time>2015-03-09T20:17:20.220Z</time>
      </trkpt>
      <trkpt lat="48.86544" lon="2.37192">
        <ele>110.1</ele>
        <time>2015-03-09T20:17:21.244Z</time>
      </trkpt>
      <trkpt lat="48.86536" lon="2.37194">
        <ele>110.4</ele>
        <time>2015-03-09T20:17:23.252Z</time>
      </trkpt>
      <trkpt lat="48.86534" lon="2.37196">
        <ele>110.4</ele>
        <time>2015-03-09T20:17:24.270Z</time>
      </trkpt>
      <trkpt lat="48.86528" lon="2.372">
        <ele>110.7</ele>
        <time>2015-03-09T20:17:27.250Z</time>
      </trkpt>
      <trkpt lat="48.86499" lon="2.37238">
        <ele>109.7</ele>
        <time>2015-03-09T20:17:36.264Z</time>
      </trkpt>
      <trkpt lat="48.8649" lon="2.37244">
        <ele>109.4</ele>
        <time>2015-03-09T20:17:37.288Z</time>
      </trkpt>
      <trkpt lat="48.86485" lon="2.37251">
        <ele>107.7</ele>
        <time>2015-03-09T20:17:39.212Z</time>
      </trkpt>
      <trkpt lat="48.86484" lon="2.37257">
        <ele>107.4</ele>
        <time>2015-03-09T20:17:40.224Z</time>
      </trkpt>
      <trkpt lat="48.86483" lon="2.37264">
        <ele>107.1</ele>
        <time>2015-03-09T20:17:41.252Z</time>
      </trkpt>
      <trkpt lat="48.86483" lon="2.37272">
        <ele>106.8</ele>
        <time>2015-03-09T20:17:42.273Z</time>
      </trkpt>
      <trkpt lat="48.86481" lon="2.37279">
        <ele>106.7</ele>
        <time>2015-03-09T20:17:43.303Z</time>
      </trkpt>
      <trkpt lat="48.86479" lon="2.37286">
        <ele>106.2</ele>
        <time>2015-03-09T20:17:44.323Z</time>
      </trkpt>
      <trkpt lat="48.8648" lon="2.373">
        <ele>105.6</ele>
        <time>2015-03-09T20:17:47.249Z</time>
      </trkpt>
      <trkpt lat="48.86479" lon="2.37302">
        <ele>105.6</ele>
        <time>2015-03-09T20:17:48.282Z</time>
      </trkpt>
      <trkpt lat="48.86473" lon="2.3731">
        <ele>107.2</ele>
        <time>2015-03-09T20:17:51.382Z</time>
      </trkpt>
      <trkpt lat="48.86471" lon="2.37311">
        <ele>107.5</ele>
        <time>2015-03-09T20:17:52.252Z</time>
      </trkpt>
      <trkpt lat="48.86466" lon="2.37316">
        <ele>107.6</ele>
        <time>2015-03-09T20:17:54.344Z</time>
      </trkpt>
      <trkpt lat="48.86464" lon="2.3732">
        <ele>106.8</ele>
        <time>2015-03-09T20:17:55.260Z</time>
      </trkpt>
      <trkpt lat="48.8646" lon="2.37331">
        <ele>107.5</ele>
        <time>2015-03-09T20:17:59.290Z</time>
      </trkpt>
      <trkpt lat="48.86459" lon="2.37332">
        <ele>107.4</ele>
        <time>2015-03-09T20:18:00.493Z</time>
      </trkpt>
      <trkpt lat="48.86457" lon="2.37343">
        <ele>104.2</ele>
        <time>2015-03-09T20:18:07.292Z</time>
      </trkpt>
      <trkpt lat="48.8646" lon="2.37348">
        <ele>103.1</ele>
        <time>2015-03-09T20:18:08.309Z</time>
      </trkpt>
      <trkpt lat="48.86466" lon="2.37353">
        <ele>102.5</ele>
        <time>2015-03-09T20:18:10.260Z</time>
      </trkpt>
      <trkpt lat="48.86469" lon="2.37355">
        <ele>102.5</ele>
        <time>2015-03-09T20:18:11.295Z</time>
      </trkpt>
      <trkpt lat="48.8647" lon="2.37368">
        <ele>104.3</ele>
        <time>2015-03-09T20:18:16.271Z</time>
      </trkpt>
      <trkpt lat="48.86469" lon="2.37369">
        <ele>104.7</ele>
        <time>2015-03-09T20:18:17.320Z</time>
      </trkpt>
      <trkpt lat="48.86461" lon="2.37374">
        <ele>105</ele>
        <time>2015-03-09T20:18:20.276Z</time>
      </trkpt>
      <trkpt lat="48.86459" lon="2.37376">
        <ele>105.3</ele>
        <time>2015-03-09T20:18:21.281Z</time>
      </trkpt>
      <trkpt lat="48.86451" lon="2.37381">
        <ele>105.8</ele>
        <time>2015-03-09T20:18:25.305Z</time>
      </trkpt>
      <trkpt lat="48.8645" lon="2.37382">
        <ele>106</ele>
        <time>2015-03-09T20:18:26.266Z</time>
      </trkpt>
      <trkpt lat="48.8645" lon="2.37382">
        <ele>106</ele>
        <time>2015-03-09T20:18:32.276Z</time>
      </trkpt>
      <trkpt lat="48.86438" lon="2.3739">
        <ele>107</ele>
        <time>2015-03-09T20:18:35.309Z</time>
      </trkpt>
      <trkpt lat="48.86425" lon="2.37399">
        <ele>107.4</ele>
        <time>2015-03-09T20:18:43.232Z</time>
      </trkpt>
      <trkpt lat="48.86425" lon="2.37399">
        <ele>107.4</ele>
        <time>2015-03-09T20:18:44.253Z</time>
      </trkpt>
      <trkpt lat="48.86411" lon="2.37434">
        <ele>106.8</ele>
        <time>2015-03-09T20:18:53.283Z</time>
      </trkpt>
      <trkpt lat="48.86412" lon="2.37442">
        <ele>106.9</ele>
        <time>2015-03-09T20:18:54.294Z</time>
      </trkpt>
      <trkpt lat="48.86408" lon="2.37448">
        <ele>106.4</ele>
        <time>2015-03-09T20:18:55.325Z</time>
      </trkpt>
      <trkpt lat="48.86408" lon="2.37459">
        <ele>105.7</ele>
        <time>2015-03-09T20:18:57.246Z</time>
      </trkpt>
      <trkpt lat="48.86406" lon="2.37466">
        <ele>105.5</ele>
        <time>2015-03-09T20:18:58.250Z</time>
      </trkpt>
      <trkpt lat="48.86406" lon="2.37474">
        <ele>105.6</ele>
        <time>2015-03-09T20:18:59.289Z</time>
      </trkpt>
      <trkpt lat="48.86404" lon="2.37485">
        <ele>105.5</ele>
        <time>2015-03-09T20:19:00.427Z</time>
      </trkpt>
      <trkpt lat="48.86402" lon="2.37494">
        <ele>105.6</ele>
        <time>2015-03-09T20:19:01.251Z</time>
      </trkpt>
      <trkpt lat="48.86401" lon="2.375">
        <ele>105.9</ele>
        <time>2015-03-09T20:19:02.261Z</time>
      </trkpt>
      <trkpt lat="48.86399" lon="2.3751">
        <ele>107.9</ele>
        <time>2015-03-09T20:19:04.236Z</time>
      </trkpt>
      <trkpt lat="48.86399" lon="2.37515">
        <ele>109.2</ele>
        <time>2015-03-09T20:19:05.238Z</time>
      </trkpt>
      <trkpt lat="48.86396" lon="2.37526">
        <ele>112.3</ele>
        <time>2015-03-09T20:19:11.254Z</time>
      </trkpt>
      <trkpt lat="48.86394" lon="2.37534">
        <ele>115.5</ele>
        <time>2015-03-09T20:19:12.279Z</time>
      </trkpt>
      <trkpt lat="48.86389" lon="2.37545">
        <ele>119.9</ele>
        <time>2015-03-09T20:19:27.341Z</time>
      </trkpt>
      <trkpt lat="48.86366" lon="2.37571">
        <ele>122.8</ele>
        <time>2015-03-09T20:19:28.245Z</time>
      </trkpt>
      <trkpt lat="48.86359" lon="2.37572">
        <ele>123.8</ele>
        <time>2015-03-09T20:19:30.273Z</time>
      </trkpt>
      <trkpt lat="48.86356" lon="2.37574">
        <ele>124.5</ele>
        <time>2015-03-09T20:19:31.276Z</time>
      </trkpt>
      <trkpt lat="48.86352" lon="2.3758">
        <ele>124.1</ele>
        <time>2015-03-09T20:19:32.289Z</time>
      </trkpt>
      <trkpt lat="48.86345" lon="2.37591">
        <ele>122.5</ele>
        <time>2015-03-09T20:19:33.315Z</time>
      </trkpt>
      <trkpt lat="48.86341" lon="2.37597">
        <ele>122.6</ele>
        <time>2015-03-09T20:19:34.316Z</time>
      </trkpt>
      <trkpt lat="48.86335" lon="2.37604">
        <ele>122.8</ele>
        <time>2015-03-09T20:19:35.328Z</time>
      </trkpt>
      <trkpt lat="48.86329" lon="2.3761">
        <ele>122.5</ele>
        <time>2015-03-09T20:19:36.413Z</time>
      </trkpt>
      <trkpt lat="48.86324" lon="2.37617">
        <ele>121.8</ele>
        <time>2015-03-09T20:19:37.287Z</time>
      </trkpt>
      <trkpt lat="48.8632" lon="2.37622">
        <ele>121.4</ele>
        <time>2015-03-09T20:19:39.300Z</time>
      </trkpt>
      <trkpt lat="48.86316" lon="2.37625">
        <ele>121.5</ele>
        <time>2015-03-09T20:19:40.405Z</time>
      </trkpt>
      <trkpt lat="48.86309" lon="2.37631">
        <ele>121.6</ele>
        <time>2015-03-09T20:19:42.275Z</time>
      </trkpt>
      <trkpt lat="48.86303" lon="2.37635">
        <ele>121.6</ele>
        <time>2015-03-09T20:19:43.366Z</time>
      </trkpt>
      <trkpt lat="48.86297" lon="2.37638">
        <ele>121.5</ele>
        <time>2015-03-09T20:19:44.324Z</time>
      </trkpt>
      <trkpt lat="48.8629" lon="2.37641">
        <ele>121.3</ele>
        <time>2015-03-09T20:19:45.234Z</time>
      </trkpt>
      <trkpt lat="48.86286" lon="2.37644">
        <ele>121.3</ele>
        <time>2015-03-09T20:19:46.251Z</time>
      </trkpt>
      <trkpt lat="48.86281" lon="2.37646">
        <ele>121.3</ele>
        <time>2015-03-09T20:19:47.261Z</time>
      </trkpt>
      <trkpt lat="48.86277" lon="2.37649">
        <ele>121.1</ele>
        <time>2015-03-09T20:19:48.270Z</time>
      </trkpt>
      <trkpt lat="48.86272" lon="2.37651">
        <ele>120.7</ele>
        <time>2015-03-09T20:19:49.270Z</time>
      </trkpt>
      <trkpt lat="48.86267" lon="2.37654">
        <ele>120.3</ele>
        <time>2015-03-09T20:19:50.299Z</time>
      </trkpt>
      <trkpt lat="48.8626" lon="2.37656">
        <ele>119.2</ele>
        <time>2015-03-09T20:19:51.305Z</time>
      </trkpt>
      <trkpt lat="48.86252" lon="2.3766">
        <ele>118.1</ele>
        <time>2015-03-09T20:19:53.316Z</time>
      </trkpt>
      <trkpt lat="48.86249" lon="2.37663">
        <ele>117.6</ele>
        <time>2015-03-09T20:19:54.318Z</time>
      </trkpt>
      <trkpt lat="48.86243" lon="2.37672">
        <ele>115.9</ele>
        <time>2015-03-09T20:19:58.284Z</time>
      </trkpt>
      <trkpt lat="48.86242" lon="2.37674">
        <ele>116.2</ele>
        <time>2015-03-09T20:19:59.359Z</time>
      </trkpt>
      <trkpt lat="48.86242" lon="2.37675">
        <ele>116.7</ele>
        <time>2015-03-09T20:20:07.245Z</time>
      </trkpt>
      <trkpt lat="48.86227" lon="2.37681">
        <ele>118.3</ele>
        <time>2015-03-09T20:20:08.259Z</time>
      </trkpt>
      <trkpt lat="48.8622" lon="2.37685">
        <ele>117.8</ele>
        <time>2015-03-09T20:20:10.299Z</time>
      </trkpt>
      <trkpt lat="48.86218" lon="2.37687">
        <ele>117.7</ele>
        <time>2015-03-09T20:20:11.308Z</time>
      </trkpt>
      <trkpt lat="48.86213" lon="2.37692">
        <ele>117.5</ele>
        <time>2015-03-09T20:20:13.234Z</time>
      </trkpt>
      <trkpt lat="48.86211" lon="2.37695">
        <ele>117.8</ele>
        <time>2015-03-09T20:20:14.244Z</time>
      </trkpt>
      <trkpt lat="48.86205" lon="2.37703">
        <ele>118.3</ele>
        <time>2015-03-09T20:20:16.268Z</time>
      </trkpt>
      <trkpt lat="48.86198" lon="2.37711">
        <ele>117.2</ele>
        <time>2015-03-09T20:20:17.279Z</time>
      </trkpt>
      <trkpt lat="48.86194" lon="2.37716">
        <ele>116.6</ele>
        <time>2015-03-09T20:20:18.322Z</time>
      </trkpt>
      <trkpt lat="48.8619" lon="2.37719">
        <ele>116.7</ele>
        <time>2015-03-09T20:20:19.210Z</time>
      </trkpt>
      <trkpt lat="48.86183" lon="2.37726">
        <ele>116.6</ele>
        <time>2015-03-09T20:20:22.422Z</time>
      </trkpt>
      <trkpt lat="48.8618" lon="2.37729">
        <ele>116.6</ele>
        <time>2015-03-09T20:20:23.248Z</time>
      </trkpt>
      <trkpt lat="48.86176" lon="2.37732">
        <ele>116.5</ele>
        <time>2015-03-09T20:20:24.284Z</time>
      </trkpt>
      <trkpt lat="48.86171" lon="2.37735">
        <ele>116.6</ele>
        <time>2015-03-09T20:20:25.280Z</time>
      </trkpt>
      <trkpt lat="48.86163" lon="2.3774">
        <ele>116.9</ele>
        <time>2015-03-09T20:20:27.306Z</time>
      </trkpt>
      <trkpt lat="48.86157" lon="2.37748">
        <ele>115.7</ele>
        <time>2015-03-09T20:20:28.317Z</time>
      </trkpt>
      <trkpt lat="48.8615" lon="2.37755">
        <ele>114.8</ele>
        <time>2015-03-09T20:20:29.235Z</time>
      </trkpt>
      <trkpt lat="48.86143" lon="2.37763">
        <ele>113.9</ele>
        <time>2015-03-09T20:20:30.267Z</time>
      </trkpt>
      <trkpt lat="48.86137" lon="2.37771">
        <ele>112.9</ele>
        <time>2015-03-09T20:20:31.282Z</time>
      </trkpt>
      <trkpt lat="48.86131" lon="2.37777">
        <ele>112.5</ele>
        <time>2015-03-09T20:20:32.290Z</time>
      </trkpt>
      <trkpt lat="48.86124" lon="2.37787">
        <ele>112.5</ele>
        <time>2015-03-09T20:20:35.275Z</time>
      </trkpt>
      <trkpt lat="48.86122" lon="2.37789">
        <ele>113.1</ele>
        <time>2015-03-09T20:20:36.289Z</time>
      </trkpt>
      <trkpt lat="48.86116" lon="2.37792">
        <ele>114</ele>
        <time>2015-03-09T20:20:38.338Z</time>
      </trkpt>
      <trkpt lat="48.86113" lon="2.37793">
        <ele>114.2</ele>
        <time>2015-03-09T20:20:39.245Z</time>
      </trkpt>
      <trkpt lat="48.86106" lon="2.37799">
        <ele>114.6</ele>
        <time>2015-03-09T20:20:41.309Z</time>
      </trkpt>
      <trkpt lat="48.86102" lon="2.37805">
        <ele>114.5</ele>
        <time>2015-03-09T20:20:42.318Z</time>
      </trkpt>
      <trkpt lat="48.86097" lon="2.37813">
        <ele>114</ele>
        <time>2015-03-09T20:20:43.243Z</time>
      </trkpt>
      <trkpt lat="48.86093" lon="2.37817">
        <ele>114.5</ele>
        <time>2015-03-09T20:20:44.265Z</time>
      </trkpt>
      <trkpt lat="48.86087" lon="2.37824">
        <ele>115.2</ele>
        <time>2015-03-09T20:20:47.343Z</time>
      </trkpt>
      <trkpt lat="48.86084" lon="2.37825">
        <ele>115.5</ele>
        <time>2015-03-09T20:20:48.358Z</time>
      </trkpt>
      <trkpt lat="48.86076" lon="2.37829">
        <ele>116.2</ele>
        <time>2015-03-09T20:20:51.313Z</time>
      </trkpt>
      <trkpt lat="48.86069" lon="2.37835">
        <ele>115.4</ele>
        <time>2015-03-09T20:20:52.319Z</time>
      </trkpt>
      <trkpt lat="48.86064" lon="2.37838">
        <ele>115.3</ele>
        <time>2015-03-09T20:20:53.299Z</time>
      </trkpt>
      <trkpt lat="48.86057" lon="2.37838">
        <ele>113.7</ele>
        <time>2015-03-09T20:20:54.400Z</time>
      </trkpt>
      <trkpt lat="48.8605" lon="2.37842">
        <ele>112.8</ele>
        <time>2015-03-09T20:20:56.299Z</time>
      </trkpt>
      <trkpt lat="48.86046" lon="2.37844">
        <ele>112.8</ele>
        <time>2015-03-09T20:20:57.309Z</time>
      </trkpt>
      <trkpt lat="48.86038" lon="2.37847">
        <ele>112.6</ele>
        <time>2015-03-09T20:20:59.378Z</time>
      </trkpt>
      <trkpt lat="48.86033" lon="2.3785">
        <ele>112.8</ele>
        <time>2015-03-09T20:21:00.264Z</time>
      </trkpt>
      <trkpt lat="48.86026" lon="2.37856">
        <ele>113.1</ele>
        <time>2015-03-09T20:21:02.302Z</time>
      </trkpt>
      <trkpt lat="48.86023" lon="2.37859">
        <ele>113.2</ele>
        <time>2015-03-09T20:21:03.316Z</time>
      </trkpt>
      <trkpt lat="48.86019" lon="2.3786">
        <ele>113.4</ele>
        <time>2015-03-09T20:21:04.209Z</time>
      </trkpt>
      <trkpt lat="48.86013" lon="2.37863">
        <ele>113.8</ele>
        <time>2015-03-09T20:21:05.236Z</time>
      </trkpt>
      <trkpt lat="48.86008" lon="2.37865">
        <ele>114</ele>
        <time>2015-03-09T20:21:06.266Z</time>
      </trkpt>
      <trkpt lat="48.86004" lon="2.37867">
        <ele>114.5</ele>
        <time>2015-03-09T20:21:07.261Z</time>
      </trkpt>
      <trkpt lat="48.85998" lon="2.37871">
        <ele>114.8</ele>
        <time>2015-03-09T20:21:08.272Z</time>
      </trkpt>
      <trkpt lat="48.85992" lon="2.37876">
        <ele>115</ele>
        <time>2015-03-09T20:21:09.285Z</time>
      </trkpt>
      <trkpt lat="48.85986" lon="2.3788">
        <ele>115.4</ele>
        <time>2015-03-09T20:21:10.304Z</time>
      </trkpt>
      <trkpt lat="48.8598" lon="2.37883">
        <ele>116</ele>
        <time>2015-03-09T20:21:11.314Z</time>
      </trkpt>
      <trkpt lat="48.85973" lon="2.37887">
        <ele>116.4</ele>
        <time>2015-03-09T20:21:12.365Z</time>
      </trkpt>
      <trkpt lat="48.85967" lon="2.37892">
        <ele>116.8</ele>
        <time>2015-03-09T20:21:13.309Z</time>
      </trkpt>
      <trkpt lat="48.85961" lon="2.37896">
        <ele>117.1</ele>
        <time>2015-03-09T20:21:14.237Z</time>
      </trkpt>
      <trkpt lat="48.85957" lon="2.379">
        <ele>117.4</ele>
        <time>2015-03-09T20:21:15.239Z</time>
      </trkpt>
      <trkpt lat="48.85952" lon="2.37905">
        <ele>118</ele>
        <time>2015-03-09T20:21:16.258Z</time>
      </trkpt>
      <trkpt lat="48.85947" lon="2.37908">
        <ele>118.7</ele>
        <time>2015-03-09T20:21:17.266Z</time>
      </trkpt>
      <trkpt lat="48.85939" lon="2.37912">
        <ele>119.8</ele>
        <time>2015-03-09T20:21:19.276Z</time>
      </trkpt>
      <trkpt lat="48.85935" lon="2.37914">
        <ele>120.1</ele>
        <time>2015-03-09T20:21:20.290Z</time>
      </trkpt>
      <trkpt lat="48.85927" lon="2.37919">
        <ele>120.8</ele>
        <time>2015-03-09T20:21:24.357Z</time>
      </trkpt>
      <trkpt lat="48.85918" lon="2.37926">
        <ele>121.5</ele>
        <time>2015-03-09T20:21:25.246Z</time>
      </trkpt>
      <trkpt lat="48.85914" lon="2.3793">
        <ele>121.7</ele>
        <time>2015-03-09T20:21:26.252Z</time>
      </trkpt>
      <trkpt lat="48.85909" lon="2.37933">
        <ele>121.7</ele>
        <time>2015-03-09T20:21:27.261Z</time>
      </trkpt>
      <trkpt lat="48.85905" lon="2.3794">
        <ele>121.8</ele>
        <time>2015-03-09T20:21:28.290Z</time>
      </trkpt>
      <trkpt lat="48.85901" lon="2.37945">
        <ele>121.6</ele>
        <time>2015-03-09T20:21:29.297Z</time>
      </trkpt>
      <trkpt lat="48.85896" lon="2.37951">
        <ele>121.4</ele>
        <time>2015-03-09T20:21:30.315Z</time>
      </trkpt>
      <trkpt lat="48.8589" lon="2.37955">
        <ele>121.3</ele>
        <time>2015-03-09T20:21:31.313Z</time>
      </trkpt>
      <trkpt lat="48.85883" lon="2.3796">
        <ele>120.6</ele>
        <time>2015-03-09T20:21:32.331Z</time>
      </trkpt>
      <trkpt lat="48.85874" lon="2.3797">
        <ele>118.9</ele>
        <time>2015-03-09T20:21:33.232Z</time>
      </trkpt>
      <trkpt lat="48.85867" lon="2.37978">
        <ele>117.9</ele>
        <time>2015-03-09T20:21:34.230Z</time>
      </trkpt>
      <trkpt lat="48.85861" lon="2.37987">
        <ele>117</ele>
        <time>2015-03-09T20:21:35.247Z</time>
      </trkpt>
      <trkpt lat="48.85852" lon="2.37995">
        <ele>116.3</ele>
        <time>2015-03-09T20:21:36.318Z</time>
      </trkpt>
      <trkpt lat="48.85848" lon="2.38">
        <ele>116.1</ele>
        <time>2015-03-09T20:21:37.229Z</time>
      </trkpt>
      <trkpt lat="48.85845" lon="2.38004">
        <ele>115.6</ele>
        <time>2015-03-09T20:21:38.245Z</time>
      </trkpt>
      <trkpt lat="48.85841" lon="2.38008">
        <ele>115.1</ele>
        <time>2015-03-09T20:21:39.266Z</time>
      </trkpt>
      <trkpt lat="48.85835" lon="2.38014">
        <ele>114.6</ele>
        <time>2015-03-09T20:21:40.280Z</time>
      </trkpt>
      <trkpt lat="48.8583" lon="2.38021">
        <ele>113.8</ele>
        <time>2015-03-09T20:21:41.285Z</time>
      </trkpt>
      <trkpt lat="48.85824" lon="2.38029">
        <ele>112</ele>
        <time>2015-03-09T20:21:42.331Z</time>
      </trkpt>
      <trkpt lat="48.85817" lon="2.38036">
        <ele>110.9</ele>
        <time>2015-03-09T20:21:44.243Z</time>
      </trkpt>
      <trkpt lat="48.85813" lon="2.38039">
        <ele>110.3</ele>
        <time>2015-03-09T20:21:45.317Z</time>
      </trkpt>
      <trkpt lat="48.85808" lon="2.38042">
        <ele>109.6</ele>
        <time>2015-03-09T20:21:47.238Z</time>
      </trkpt>
      <trkpt lat="48.85804" lon="2.38043">
        <ele>108.4</ele>
        <time>2015-03-09T20:21:48.380Z</time>
      </trkpt>
      <trkpt lat="48.85795" lon="2.38042">
        <ele>106.8</ele>
        <time>2015-03-09T20:21:50.238Z</time>
      </trkpt>
      <trkpt lat="48.85789" lon="2.3804">
        <ele>105.6</ele>
        <time>2015-03-09T20:21:51.265Z</time>
      </trkpt>
      <trkpt lat="48.85782" lon="2.38033">
        <ele>103</ele>
        <time>2015-03-09T20:21:53.293Z</time>
      </trkpt>
      <trkpt lat="48.85777" lon="2.38029">
        <ele>100.8</ele>
        <time>2015-03-09T20:21:54.355Z</time>
      </trkpt>
      <trkpt lat="48.85769" lon="2.38022">
        <ele>98.6</ele>
        <time>2015-03-09T20:21:57.351Z</time>
      </trkpt>
      <trkpt lat="48.85766" lon="2.38022">
        <ele>98.1</ele>
        <time>2015-03-09T20:21:58.310Z</time>
      </trkpt>
      <trkpt lat="48.85764" lon="2.38036">
        <ele>93.1</ele>
        <time>2015-03-09T20:22:07.280Z</time>
      </trkpt>
      <trkpt lat="48.85764" lon="2.3804">
        <ele>93.1</ele>
        <time>2015-03-09T20:22:08.298Z</time>
      </trkpt>
      <trkpt lat="48.85767" lon="2.3805">
        <ele>93.1</ele>
        <time>2015-03-09T20:22:10.237Z</time>
      </trkpt>
      <trkpt lat="48.85769" lon="2.38054">
        <ele>92.8</ele>
        <time>2015-03-09T20:22:11.252Z</time>
      </trkpt>
      <trkpt lat="48.85773" lon="2.38064">
        <ele>92</ele>
        <time>2015-03-09T20:22:13.324Z</time>
      </trkpt>
      <trkpt lat="48.85774" lon="2.38069">
        <ele>91.8</ele>
        <time>2015-03-09T20:22:14.244Z</time>
      </trkpt>
      <trkpt lat="48.85778" lon="2.3808">
        <ele>91.4</ele>
        <time>2015-03-09T20:22:16.250Z</time>
      </trkpt>
      <trkpt lat="48.85779" lon="2.38088">
        <ele>91.4</ele>
        <time>2015-03-09T20:22:17.284Z</time>
      </trkpt>
      <trkpt lat="48.85781" lon="2.38094">
        <ele>91.3</ele>
        <time>2015-03-09T20:22:18.264Z</time>
      </trkpt>
      <trkpt lat="48.85783" lon="2.381">
        <ele>91.4</ele>
        <time>2015-03-09T20:22:19.260Z</time>
      </trkpt>
      <trkpt lat="48.85788" lon="2.38112">
        <ele>91.5</ele>
        <time>2015-03-09T20:22:21.281Z</time>
      </trkpt>
      <trkpt lat="48.8579" lon="2.38117">
        <ele>91.9</ele>
        <time>2015-03-09T20:22:22.294Z</time>
      </trkpt>
      <trkpt lat="48.85792" lon="2.38129">
        <ele>92.1</ele>
        <time>2015-03-09T20:22:24.337Z</time>
      </trkpt>
      <trkpt lat="48.85795" lon="2.38134">
        <ele>92.4</ele>
        <time>2015-03-09T20:22:25.242Z</time>
      </trkpt>
      <trkpt lat="48.858" lon="2.38144">
        <ele>92.8</ele>
        <time>2015-03-09T20:22:27.276Z</time>
      </trkpt>
      <trkpt lat="48.85803" lon="2.38149">
        <ele>93.2</ele>
        <time>2015-03-09T20:22:28.286Z</time>
      </trkpt>
      <trkpt lat="48.85808" lon="2.38159">
        <ele>94</ele>
        <time>2015-03-09T20:22:30.320Z</time>
      </trkpt>
      <trkpt lat="48.85811" lon="2.38165">
        <ele>94.3</ele>
        <time>2015-03-09T20:22:31.375Z</time>
      </trkpt>
      <trkpt lat="48.85815" lon="2.38176">
        <ele>94.3</ele>
        <time>2015-03-09T20:22:33.280Z</time>
      </trkpt>
      <trkpt lat="48.85817" lon="2.38181">
        <ele>94.6</ele>
        <time>2015-03-09T20:22:34.291Z</time>
      </trkpt>
      <trkpt lat="48.8582" lon="2.38192">
        <ele>95.1</ele>
        <time>2015-03-09T20:22:36.293Z</time>
      </trkpt>
      <trkpt lat="48.85822" lon="2.38198">
        <ele>95.5</ele>
        <time>2015-03-09T20:22:37.297Z</time>
      </trkpt>
      <trkpt lat="48.85826" lon="2.38209">
        <ele>96</ele>
        <time>2015-03-09T20:22:39.232Z</time>
      </trkpt>
      <trkpt lat="48.85827" lon="2.38215">
        <ele>95.9</ele>
        <time>2015-03-09T20:22:40.296Z</time>
      </trkpt>
      <trkpt lat="48.85828" lon="2.38228">
        <ele>95.8</ele>
        <time>2015-03-09T20:22:42.264Z</time>
      </trkpt>
      <trkpt lat="48.85829" lon="2.38234">
        <ele>95.6</ele>
        <time>2015-03-09T20:22:43.284Z</time>
      </trkpt>
      <trkpt lat="48.8583" lon="2.38247">
        <ele>95.2</ele>
        <time>2015-03-09T20:22:45.316Z</time>
      </trkpt>
      <trkpt lat="48.85832" lon="2.38252">
        <ele>94.9</ele>
        <time>2015-03-09T20:22:46.242Z</time>
      </trkpt>
      <trkpt lat="48.85836" lon="2.38264">
        <ele>95.1</ele>
        <time>2015-03-09T20:22:48.306Z</time>
      </trkpt>
      <trkpt lat="48.85837" lon="2.3827">
        <ele>94.9</ele>
        <time>2015-03-09T20:22:49.343Z</time>
      </trkpt>
      <trkpt lat="48.85839" lon="2.38277">
        <ele>95</ele>
        <time>2015-03-09T20:22:50.239Z</time>
      </trkpt>
      <trkpt lat="48.85842" lon="2.38284">
        <ele>94.9</ele>
        <time>2015-03-09T20:22:51.270Z</time>
      </trkpt>
      <trkpt lat="48.85846" lon="2.38291">
        <ele>94.8</ele>
        <time>2015-03-09T20:22:53.010Z</time>
      </trkpt>
      <trkpt lat="48.8585" lon="2.38299">
        <ele>94.7</ele>
        <time>2015-03-09T20:22:53.279Z</time>
      </trkpt>
      <trkpt lat="48.85853" lon="2.38307">
        <ele>94.3</ele>
        <time>2015-03-09T20:22:54.379Z</time>
      </trkpt>
      <trkpt lat="48.85856" lon="2.38316">
        <ele>94.2</ele>
        <time>2015-03-09T20:22:55.294Z</time>
      </trkpt>
      <trkpt lat="48.85858" lon="2.38326">
        <ele>93.9</ele>
        <time>2015-03-09T20:22:56.315Z</time>
      </trkpt>
      <trkpt lat="48.8586" lon="2.38337">
        <ele>94.1</ele>
        <time>2015-03-09T20:22:57.231Z</time>
      </trkpt>
      <trkpt lat="48.85862" lon="2.38347">
        <ele>94.7</ele>
        <time>2015-03-09T20:22:58.234Z</time>
      </trkpt>
      <trkpt lat="48.85865" lon="2.38356">
        <ele>95.5</ele>
        <time>2015-03-09T20:22:59.241Z</time>
      </trkpt>
      <trkpt lat="48.8587" lon="2.38364">
        <ele>96.3</ele>
        <time>2015-03-09T20:23:00.405Z</time>
      </trkpt>
      <trkpt lat="48.85872" lon="2.38373">
        <ele>97.1</ele>
        <time>2015-03-09T20:23:01.298Z</time>
      </trkpt>
      <trkpt lat="48.85875" lon="2.38383">
        <ele>97.7</ele>
        <time>2015-03-09T20:23:02.303Z</time>
      </trkpt>
      <trkpt lat="48.85877" lon="2.38394">
        <ele>98.2</ele>
        <time>2015-03-09T20:23:03.310Z</time>
      </trkpt>
      <trkpt lat="48.85879" lon="2.38405">
        <ele>98.2</ele>
        <time>2015-03-09T20:23:04.318Z</time>
      </trkpt>
      <trkpt lat="48.85882" lon="2.38415">
        <ele>99</ele>
        <time>2015-03-09T20:23:05.209Z</time>
      </trkpt>
      <trkpt lat="48.85887" lon="2.38424">
        <ele>99.6</ele>
        <time>2015-03-09T20:23:06.265Z</time>
      </trkpt>
      <trkpt lat="48.85891" lon="2.38434">
        <ele>99.6</ele>
        <time>2015-03-09T20:23:07.286Z</time>
      </trkpt>
      <trkpt lat="48.85893" lon="2.38443">
        <ele>99.8</ele>
        <time>2015-03-09T20:23:08.311Z</time>
      </trkpt>
      <trkpt lat="48.85894" lon="2.38452">
        <ele>99.9</ele>
        <time>2015-03-09T20:23:09.323Z</time>
      </trkpt>
      <trkpt lat="48.85893" lon="2.38461">
        <ele>100</ele>
        <time>2015-03-09T20:23:10.236Z</time>
      </trkpt>
      <trkpt lat="48.85894" lon="2.3847">
        <ele>100</ele>
        <time>2015-03-09T20:23:11.235Z</time>
      </trkpt>
      <trkpt lat="48.85895" lon="2.38479">
        <ele>100.1</ele>
        <time>2015-03-09T20:23:12.358Z</time>
      </trkpt>
      <trkpt lat="48.85897" lon="2.38488">
        <ele>99.9</ele>
        <time>2015-03-09T20:23:13.319Z</time>
      </trkpt>
      <trkpt lat="48.85899" lon="2.38498">
        <ele>99.6</ele>
        <time>2015-03-09T20:23:14.231Z</time>
      </trkpt>
      <trkpt lat="48.859" lon="2.38507">
        <ele>99.6</ele>
        <time>2015-03-09T20:23:15.230Z</time>
      </trkpt>
      <trkpt lat="48.85901" lon="2.38516">
        <ele>99.4</ele>
        <time>2015-03-09T20:23:16.242Z</time>
      </trkpt>
      <trkpt lat="48.85903" lon="2.38525">
        <ele>99.2</ele>
        <time>2015-03-09T20:23:17.265Z</time>
      </trkpt>
      <trkpt lat="48.85905" lon="2.38534">
        <ele>98.7</ele>
        <time>2015-03-09T20:23:18.303Z</time>
      </trkpt>
      <trkpt lat="48.85908" lon="2.38543">
        <ele>98.4</ele>
        <time>2015-03-09T20:23:19.310Z</time>
      </trkpt>
      <trkpt lat="48.8591" lon="2.38552">
        <ele>98.1</ele>
        <time>2015-03-09T20:23:20.319Z</time>
      </trkpt>
      <trkpt lat="48.85912" lon="2.38561">
        <ele>97.8</ele>
        <time>2015-03-09T20:23:21.331Z</time>
      </trkpt>
      <trkpt lat="48.85913" lon="2.38569">
        <ele>97.5</ele>
        <time>2015-03-09T20:23:22.230Z</time>
      </trkpt>
      <trkpt lat="48.85914" lon="2.38575">
        <ele>97.5</ele>
        <time>2015-03-09T20:23:23.232Z</time>
      </trkpt>
      <trkpt lat="48.85908" lon="2.38567">
        <ele>99</ele>
        <time>2015-03-09T20:23:36.238Z</time>
      </trkpt>
      <trkpt lat="48.85907" lon="2.38565">
        <ele>98.9</ele>
        <time>2015-03-09T20:23:37.258Z</time>
      </trkpt>
      <trkpt lat="48.85901" lon="2.38555">
        <ele>98</ele>
        <time>2015-03-09T20:23:42.366Z</time>
      </trkpt>
      <trkpt lat="48.859" lon="2.38552">
        <ele>97.9</ele>
        <time>2015-03-09T20:23:43.244Z</time>
      </trkpt>
      <trkpt lat="48.85898" lon="2.3854">
        <ele>97.1</ele>
        <time>2015-03-09T20:24:48.306Z</time>
      </trkpt>
      <trkpt lat="48.85899" lon="2.38538">
        <ele>108.7</ele>
        <time>2015-03-09T20:24:49.321Z</time>
      </trkpt>
      <trkpt lat="48.85893" lon="2.38543">
        <ele>117.7</ele>
        <time>2015-03-09T20:25:37.238Z</time>
      </trkpt>
      <trkpt lat="48.85888" lon="2.38544">
        <ele>117.9</ele>
        <time>2015-03-09T20:25:38.259Z</time>
      </trkpt>
      <trkpt lat="48.85881" lon="2.38547">
        <ele>118.1</ele>
        <time>2015-03-09T20:25:40.215Z</time>
      </trkpt>
      <trkpt lat="48.85878" lon="2.38549">
        <ele>118.1</ele>
        <time>2015-03-09T20:25:41.234Z</time>
      </trkpt>
      <trkpt lat="48.85872" lon="2.3855">
        <ele>118.1</ele>
        <time>2015-03-09T20:25:45.233Z</time>
      </trkpt>
      <trkpt lat="48.8587" lon="2.38554">
        <ele>118.1</ele>
        <time>2015-03-09T20:25:46.245Z</time>
      </trkpt>
      <trkpt lat="48.85871" lon="2.38557">
        <ele>118.1</ele>
        <time>2015-03-09T20:25:47.278Z</time>
      </trkpt>
      <trkpt lat="48.85869" lon="2.38569">
        <ele>118.2</ele>
        <time>2015-03-09T20:25:52.254Z</time>
      </trkpt>
      <trkpt lat="48.85868" lon="2.38576">
        <ele>117.7</ele>
        <time>2015-03-09T20:25:54.245Z</time>
      </trkpt>
      <trkpt lat="48.85866" lon="2.38583">
        <ele>116.6</ele>
        <time>2015-03-09T20:25:55.255Z</time>
      </trkpt>
      <trkpt lat="48.8586" lon="2.38585">
        <ele>116</ele>
        <time>2015-03-09T20:25:57.194Z</time>
      </trkpt>
      <trkpt lat="48.85852" lon="2.38583">
        <ele>116.1</ele>
        <time>2015-03-09T20:25:58.273Z</time>
      </trkpt>
      <trkpt lat="48.85844" lon="2.38583">
        <ele>116.2</ele>
        <time>2015-03-09T20:26:00.324Z</time>
      </trkpt>
      <trkpt lat="48.8584" lon="2.38586">
        <ele>116.3</ele>
        <time>2015-03-09T20:26:01.237Z</time>
      </trkpt>
      <trkpt lat="48.85836" lon="2.38589">
        <ele>116.3</ele>
        <time>2015-03-09T20:26:02.268Z</time>
      </trkpt>
      <trkpt lat="48.85831" lon="2.38592">
        <ele>116.3</ele>
        <time>2015-03-09T20:26:03.275Z</time>
      </trkpt>
      <trkpt lat="48.85817" lon="2.38595">
        <ele>116.6</ele>
        <time>2015-03-09T20:26:07.240Z</time>
      </trkpt>
      <trkpt lat="48.85817" lon="2.38595">
        <ele>116.6</ele>
        <time>2015-03-09T20:26:14.277Z</time>
      </trkpt>
      <trkpt lat="48.85797" lon="2.38612">
        <ele>113.7</ele>
        <time>2015-03-09T20:26:15.240Z</time>
      </trkpt>
      <trkpt lat="48.85793" lon="2.38618">
        <ele>112.5</ele>
        <time>2015-03-09T20:26:16.284Z</time>
      </trkpt>
      <trkpt lat="48.85788" lon="2.38625">
        <ele>112.4</ele>
        <time>2015-03-09T20:26:17.299Z</time>
      </trkpt>
      <trkpt lat="48.85783" lon="2.38634">
        <ele>112.2</ele>
        <time>2015-03-09T20:26:18.322Z</time>
      </trkpt>
      <trkpt lat="48.8578" lon="2.38641">
        <ele>112</ele>
        <time>2015-03-09T20:26:19.317Z</time>
      </trkpt>
      <trkpt lat="48.85777" lon="2.38647">
        <ele>111.5</ele>
        <time>2015-03-09T20:26:20.330Z</time>
      </trkpt>
      <trkpt lat="48.85773" lon="2.38655">
        <ele>110.2</ele>
        <time>2015-03-09T20:26:21.241Z</time>
      </trkpt>
      <trkpt lat="48.85771" lon="2.38662">
        <ele>110</ele>
        <time>2015-03-09T20:26:22.285Z</time>
      </trkpt>
      <trkpt lat="48.85769" lon="2.38673">
        <ele>109.5</ele>
        <time>2015-03-09T20:26:23.299Z</time>
      </trkpt>
      <trkpt lat="48.85769" lon="2.38684">
        <ele>108.6</ele>
        <time>2015-03-09T20:26:25.226Z</time>
      </trkpt>
      <trkpt lat="48.8577" lon="2.38687">
        <ele>108.1</ele>
        <time>2015-03-09T20:26:26.275Z</time>
      </trkpt>
      <trkpt lat="48.85768" lon="2.38699">
        <ele>107.5</ele>
        <time>2015-03-09T20:26:28.275Z</time>
      </trkpt>
      <trkpt lat="48.85765" lon="2.38702">
        <ele>108.1</ele>
        <time>2015-03-09T20:26:29.308Z</time>
      </trkpt>
      <trkpt lat="48.85758" lon="2.38705">
        <ele>108.4</ele>
        <time>2015-03-09T20:26:32.351Z</time>
      </trkpt>
      <trkpt lat="48.85756" lon="2.38707">
        <ele>108.7</ele>
        <time>2015-03-09T20:26:33.307Z</time>
      </trkpt>
      <trkpt lat="48.85752" lon="2.38712">
        <ele>109.1</ele>
        <time>2015-03-09T20:26:40.356Z</time>
      </trkpt>
      <trkpt lat="48.85734" lon="2.38717">
        <ele>108.7</ele>
        <time>2015-03-09T20:26:41.241Z</time>
      </trkpt>
      <trkpt lat="48.85726" lon="2.3872">
        <ele>108</ele>
        <time>2015-03-09T20:26:43.328Z</time>
      </trkpt>
      <trkpt lat="48.85724" lon="2.38723">
        <ele>107.9</ele>
        <time>2015-03-09T20:26:44.230Z</time>
      </trkpt>
      <trkpt lat="48.85723" lon="2.38732">
        <ele>108.6</ele>
        <time>2015-03-09T20:26:46.282Z</time>
      </trkpt>
      <trkpt lat="48.85725" lon="2.38737">
        <ele>108.6</ele>
        <time>2015-03-09T20:26:47.278Z</time>
      </trkpt>
      <trkpt lat="48.85726" lon="2.38746">
        <ele>109.3</ele>
        <time>2015-03-09T20:26:49.309Z</time>
      </trkpt>
      <trkpt lat="48.85727" lon="2.38752">
        <ele>110</ele>
        <time>2015-03-09T20:26:50.316Z</time>
      </trkpt>
      <trkpt lat="48.85729" lon="2.38763">
        <ele>110.6</ele>
        <time>2015-03-09T20:26:52.231Z</time>
      </trkpt>
      <trkpt lat="48.85729" lon="2.38768">
        <ele>111.1</ele>
        <time>2015-03-09T20:26:53.239Z</time>
      </trkpt>
      <trkpt lat="48.85721" lon="2.38767">
        <ele>108.4</ele>
        <time>2015-03-09T20:27:07.262Z</time>
      </trkpt>
      <trkpt lat="48.85719" lon="2.38766">
        <ele>107.9</ele>
        <time>2015-03-09T20:27:08.272Z</time>
      </trkpt>
      <trkpt lat="48.85711" lon="2.38759">
        <ele>107.3</ele>
        <time>2015-03-09T20:27:11.348Z</time>
      </trkpt>
      <trkpt lat="48.85708" lon="2.38757">
        <ele>107.2</ele>
        <time>2015-03-09T20:27:12.451Z</time>
      </trkpt>
      <trkpt lat="48.857" lon="2.38754">
        <ele>107.1</ele>
        <time>2015-03-09T20:27:17.204Z</time>
      </trkpt>
      <trkpt lat="48.857" lon="2.38752">
        <ele>107</ele>
        <time>2015-03-09T20:27:18.321Z</time>
      </trkpt>
      <trkpt lat="48.85697" lon="2.38748">
        <ele>106.9</ele>
        <time>2015-03-09T20:27:25.338Z</time>
      </trkpt>
      <trkpt lat="48.85693" lon="2.38735">
        <ele>105.5</ele>
        <time>2015-03-09T20:27:26.304Z</time>
      </trkpt>
      <trkpt lat="48.85691" lon="2.38724">
        <ele>104.1</ele>
        <time>2015-03-09T20:27:29.226Z</time>
      </trkpt>
      <trkpt lat="48.85691" lon="2.38719">
        <ele>103.7</ele>
        <time>2015-03-09T20:27:30.277Z</time>
      </trkpt>
      <trkpt lat="48.85689" lon="2.38711">
        <ele>103.1</ele>
        <time>2015-03-09T20:27:32.291Z</time>
      </trkpt>
      <trkpt lat="48.85687" lon="2.38705">
        <ele>102.8</ele>
        <time>2015-03-09T20:27:33.201Z</time>
      </trkpt>
      <trkpt lat="48.85686" lon="2.38696">
        <ele>102.6</ele>
        <time>2015-03-09T20:27:35.263Z</time>
      </trkpt>
      <trkpt lat="48.85686" lon="2.38692">
        <ele>102.8</ele>
        <time>2015-03-09T20:27:36.299Z</time>
      </trkpt>
      <trkpt lat="48.85687" lon="2.38682">
        <ele>102.9</ele>
        <time>2015-03-09T20:27:38.268Z</time>
      </trkpt>
      <trkpt lat="48.85687" lon="2.38676">
        <ele>102.9</ele>
        <time>2015-03-09T20:27:39.261Z</time>
      </trkpt>
      <trkpt lat="48.85685" lon="2.38665">
        <ele>102.2</ele>
        <time>2015-03-09T20:27:42.302Z</time>
      </trkpt>
      <trkpt lat="48.85684" lon="2.3866">
        <ele>102.1</ele>
        <time>2015-03-09T20:27:43.303Z</time>
      </trkpt>
      <trkpt lat="48.8568" lon="2.38649">
        <ele>101.7</ele>
        <time>2015-03-09T20:27:46.113Z</time>
      </trkpt>
      <trkpt lat="48.8568" lon="2.38644">
        <ele>101.9</ele>
        <time>2015-03-09T20:27:46.277Z</time>
      </trkpt>
      <trkpt lat="48.85683" lon="2.38634">
        <ele>102.4</ele>
        <time>2015-03-09T20:27:48.372Z</time>
      </trkpt>
      <trkpt lat="48.85684" lon="2.3863">
        <ele>102.5</ele>
        <time>2015-03-09T20:27:49.318Z</time>
      </trkpt>
      <trkpt lat="48.8568" lon="2.38618">
        <ele>103.4</ele>
        <time>2015-03-09T20:27:52.260Z</time>
      </trkpt>
      <trkpt lat="48.85677" lon="2.38614">
        <ele>103.5</ele>
        <time>2015-03-09T20:27:53.260Z</time>
      </trkpt>
      <trkpt lat="48.85674" lon="2.38604">
        <ele>103.1</ele>
        <time>2015-03-09T20:27:55.278Z</time>
      </trkpt>
      <trkpt lat="48.85673" lon="2.38599">
        <ele>103.2</ele>
        <time>2015-03-09T20:27:56.287Z</time>
      </trkpt>
      <trkpt lat="48.85668" lon="2.38591">
        <ele>103.2</ele>
        <time>2015-03-09T20:27:58.334Z</time>
      </trkpt>
      <trkpt lat="48.85667" lon="2.38586">
        <ele>102.8</ele>
        <time>2015-03-09T20:27:59.235Z</time>
      </trkpt>
      <trkpt lat="48.85661" lon="2.38579">
        <ele>104</ele>
        <time>2015-03-09T20:28:01.279Z</time>
      </trkpt>
      <trkpt lat="48.85659" lon="2.38577">
        <ele>104.8</ele>
        <time>2015-03-09T20:28:02.287Z</time>
      </trkpt>
      <trkpt lat="48.85662" lon="2.38567">
        <ele>108.1</ele>
        <time>2015-03-09T20:28:31.367Z</time>
      </trkpt>
      <trkpt lat="48.85666" lon="2.38567">
        <ele>106.5</ele>
        <time>2015-03-09T20:28:32.231Z</time>
      </trkpt>
      <trkpt lat="48.85663" lon="2.38567">
        <ele>106.8</ele>
        <time>2015-03-09T20:28:34.255Z</time>
      </trkpt>
      <trkpt lat="48.85657" lon="2.38565">
        <ele>107.3</ele>
        <time>2015-03-09T20:28:35.261Z</time>
      </trkpt>
      <trkpt lat="48.85654" lon="2.38563">
        <ele>107.4</ele>
        <time>2015-03-09T20:30:04.248Z</time>
      </trkpt>
      <trkpt lat="48.85645" lon="2.38575">
        <ele>113.9</ele>
        <time>2015-03-09T20:30:05.283Z</time>
      </trkpt>
      <trkpt lat="48.85644" lon="2.38581">
        <ele>114.4</ele>
        <time>2015-03-09T20:30:12.269Z</time>
      </trkpt>
      <trkpt lat="48.85639" lon="2.38585">
        <ele>114</ele>
        <time>2015-03-09T20:30:13.348Z</time>
      </trkpt>
      <trkpt lat="48.85631" lon="2.38592">
        <ele>113.4</ele>
        <time>2015-03-09T20:30:16.262Z</time>
      </trkpt>
      <trkpt lat="48.85629" lon="2.38594">
        <ele>113.3</ele>
        <time>2015-03-09T20:30:17.265Z</time>
      </trkpt>
      <trkpt lat="48.85625" lon="2.38593">
        <ele>112.4</ele>
        <time>2015-03-09T20:30:21.238Z</time>
      </trkpt>
      <trkpt lat="48.85618" lon="2.38596">
        <ele>111.4</ele>
        <time>2015-03-09T20:30:22.275Z</time>
      </trkpt>
      <trkpt lat="48.8561" lon="2.38594">
        <ele>109.9</ele>
        <time>2015-03-09T20:30:25.233Z</time>
      </trkpt>
      <trkpt lat="48.85608" lon="2.38593">
        <ele>109.7</ele>
        <time>2015-03-09T20:30:26.266Z</time>
      </trkpt>
      <trkpt lat="48.85602" lon="2.38589">
        <ele>109.7</ele>
        <time>2015-03-09T20:30:28.215Z</time>
      </trkpt>
      <trkpt lat="48.85596" lon="2.38583">
        <ele>109.7</ele>
        <time>2015-03-09T20:30:30.267Z</time>
      </trkpt>
      <trkpt lat="48.85592" lon="2.38572">
        <ele>110.3</ele>
        <time>2015-03-09T20:30:34.288Z</time>
      </trkpt>
      <trkpt lat="48.85591" lon="2.38569">
        <ele>110.5</ele>
        <time>2015-03-09T20:30:35.375Z</time>
      </trkpt>
      <trkpt lat="48.85588" lon="2.38556">
        <ele>111.6</ele>
        <time>2015-03-09T20:30:38.257Z</time>
      </trkpt>
      <trkpt lat="48.85591" lon="2.38554">
        <ele>111.9</ele>
        <time>2015-03-09T20:30:39.283Z</time>
      </trkpt>
      <trkpt lat="48.8559" lon="2.38541">
        <ele>111.2</ele>
        <time>2015-03-09T20:30:43.426Z</time>
      </trkpt>
      <trkpt lat="48.85588" lon="2.38536">
        <ele>110.8</ele>
        <time>2015-03-09T20:30:44.243Z</time>
      </trkpt>
      <trkpt lat="48.85586" lon="2.3853">
        <ele>110.2</ele>
        <time>2015-03-09T20:30:45.261Z</time>
      </trkpt>
      <trkpt lat="48.85581" lon="2.38525">
        <ele>109.7</ele>
        <time>2015-03-09T20:30:46.309Z</time>
      </trkpt>
      <trkpt lat="48.85578" lon="2.38516">
        <ele>109.1</ele>
        <time>2015-03-09T20:30:48.255Z</time>
      </trkpt>
      <trkpt lat="48.85576" lon="2.38511">
        <ele>108.9</ele>
        <time>2015-03-09T20:30:49.211Z</time>
      </trkpt>
      <trkpt lat="48.85572" lon="2.38505">
        <ele>108.4</ele>
        <time>2015-03-09T20:30:50.238Z</time>
      </trkpt>
      <trkpt lat="48.85566" lon="2.38499">
        <ele>107.8</ele>
        <time>2015-03-09T20:30:51.248Z</time>
      </trkpt>
      <trkpt lat="48.85561" lon="2.38494">
        <ele>107.2</ele>
        <time>2015-03-09T20:30:52.264Z</time>
      </trkpt>
      <trkpt lat="48.85557" lon="2.38489">
        <ele>106.6</ele>
        <time>2015-03-09T20:30:53.280Z</time>
      </trkpt>
      <trkpt lat="48.85551" lon="2.38479">
        <ele>105.5</ele>
        <time>2015-03-09T20:30:55.226Z</time>
      </trkpt>
      <trkpt lat="48.85543" lon="2.38471">
        <ele>102.9</ele>
        <time>2015-03-09T20:30:56.197Z</time>
      </trkpt>
      <trkpt lat="48.85539" lon="2.38465">
        <ele>102.3</ele>
        <time>2015-03-09T20:30:57.220Z</time>
      </trkpt>
      <trkpt lat="48.85537" lon="2.38459">
        <ele>102.2</ele>
        <time>2015-03-09T20:30:58.231Z</time>
      </trkpt>
      <trkpt lat="48.85534" lon="2.38453">
        <ele>102.2</ele>
        <time>2015-03-09T20:30:59.296Z</time>
      </trkpt>
      <trkpt lat="48.85531" lon="2.38446">
        <ele>102.4</ele>
        <time>2015-03-09T20:31:00.323Z</time>
      </trkpt>
      <trkpt lat="48.85527" lon="2.3844">
        <ele>102.5</ele>
        <time>2015-03-09T20:31:02.230Z</time>
      </trkpt>
      <trkpt lat="48.85524" lon="2.38437">
        <ele>102.1</ele>
        <time>2015-03-09T20:31:03.242Z</time>
      </trkpt>
      <trkpt lat="48.85519" lon="2.38432">
        <ele>101.7</ele>
        <time>2015-03-09T20:31:05.228Z</time>
      </trkpt>
      <trkpt lat="48.85517" lon="2.38424">
        <ele>102</ele>
        <time>2015-03-09T20:31:11.235Z</time>
      </trkpt>
      <trkpt lat="48.85525" lon="2.38428">
        <ele>102.4</ele>
        <time>2015-03-09T20:31:35.264Z</time>
      </trkpt>
      <trkpt lat="48.85526" lon="2.38428">
        <ele>102.5</ele>
        <time>2015-03-09T20:31:36.369Z</time>
      </trkpt>
      <trkpt lat="48.85525" lon="2.3844">
        <ele>101.3</ele>
        <time>2015-03-09T20:31:46.260Z</time>
      </trkpt>
      <trkpt lat="48.85524" lon="2.38442">
        <ele>101.5</ele>
        <time>2015-03-09T20:31:48.323Z</time>
      </trkpt>
      <trkpt lat="48.85525" lon="2.38443">
        <ele>101.5</ele>
        <time>2015-03-09T20:32:02.251Z</time>
      </trkpt>
      <trkpt lat="48.85517" lon="2.38464">
        <ele>106.7</ele>
        <time>2015-03-09T20:32:03.289Z</time>
      </trkpt>
      <trkpt lat="48.85511" lon="2.3847">
        <ele>106.9</ele>
        <time>2015-03-09T20:32:06.286Z</time>
      </trkpt>
      <trkpt lat="48.85509" lon="2.38473">
        <ele>106.9</ele>
        <time>2015-03-09T20:32:07.297Z</time>
      </trkpt>
      <trkpt lat="48.85505" lon="2.3848">
        <ele>107.4</ele>
        <time>2015-03-09T20:32:09.240Z</time>
      </trkpt>
      <trkpt lat="48.85502" lon="2.38483">
        <ele>107.7</ele>
        <time>2015-03-09T20:32:10.255Z</time>
      </trkpt>
      <trkpt lat="48.85497" lon="2.3849">
        <ele>107.8</ele>
        <time>2015-03-09T20:32:12.240Z</time>
      </trkpt>
      <trkpt lat="48.85494" lon="2.38493">
        <ele>108</ele>
        <time>2015-03-09T20:32:13.237Z</time>
      </trkpt>
      <trkpt lat="48.85492" lon="2.38504">
        <ele>107.9</ele>
        <time>2015-03-09T20:32:16.310Z</time>
      </trkpt>
      <trkpt lat="48.85493" lon="2.38509">
        <ele>108.1</ele>
        <time>2015-03-09T20:32:17.211Z</time>
      </trkpt>
      <trkpt lat="48.85492" lon="2.3852">
        <ele>107.8</ele>
        <time>2015-03-09T20:32:19.272Z</time>
      </trkpt>
      <trkpt lat="48.85492" lon="2.38524">
        <ele>108.2</ele>
        <time>2015-03-09T20:32:20.284Z</time>
      </trkpt>
      <trkpt lat="48.85486" lon="2.38531">
        <ele>108.7</ele>
        <time>2015-03-09T20:32:45.291Z</time>
      </trkpt>
      <trkpt lat="48.85481" lon="2.38508">
        <ele>103</ele>
        <time>2015-03-09T20:32:46.306Z</time>
      </trkpt>
      <trkpt lat="48.85476" lon="2.38498">
        <ele>103.3</ele>
        <time>2015-03-09T20:32:48.333Z</time>
      </trkpt>
      <trkpt lat="48.85473" lon="2.38495">
        <ele>103.6</ele>
        <time>2015-03-09T20:32:49.365Z</time>
      </trkpt>
      <trkpt lat="48.85468" lon="2.3849">
        <ele>103.8</ele>
        <time>2015-03-09T20:32:51.227Z</time>
      </trkpt>
      <trkpt lat="48.85464" lon="2.38487">
        <ele>103.9</ele>
        <time>2015-03-09T20:32:52.258Z</time>
      </trkpt>
      <trkpt lat="48.85456" lon="2.38483">
        <ele>104.8</ele>
        <time>2015-03-09T20:32:55.292Z</time>
      </trkpt>
      <trkpt lat="48.85451" lon="2.38483">
        <ele>104.8</ele>
        <time>2015-03-09T20:32:56.309Z</time>
      </trkpt>
      <trkpt lat="48.85445" lon="2.38484">
        <ele>105.7</ele>
        <time>2015-03-09T20:32:59.244Z</time>
      </trkpt>
      <trkpt lat="48.85442" lon="2.38485">
        <ele>106</ele>
        <time>2015-03-09T20:33:00.272Z</time>
      </trkpt>
      <trkpt lat="48.85436" lon="2.38486">
        <ele>106.7</ele>
        <time>2015-03-09T20:33:02.285Z</time>
      </trkpt>
      <trkpt lat="48.85401" lon="2.38487">
        <ele>108.6</ele>
        <time>2015-03-09T20:33:10.317Z</time>
      </trkpt>
      <trkpt lat="48.85393" lon="2.38489">
        <ele>109.1</ele>
        <time>2015-03-09T20:33:13.279Z</time>
      </trkpt>
      <trkpt lat="48.85387" lon="2.38492">
        <ele>109.1</ele>
        <time>2015-03-09T20:33:14.284Z</time>
      </trkpt>
      <trkpt lat="48.85382" lon="2.38494">
        <ele>109.2</ele>
        <time>2015-03-09T20:33:15.342Z</time>
      </trkpt>
      <trkpt lat="48.85377" lon="2.38496">
        <ele>109.2</ele>
        <time>2015-03-09T20:33:16.222Z</time>
      </trkpt>
      <trkpt lat="48.85372" lon="2.38501">
        <ele>109.5</ele>
        <time>2015-03-09T20:33:17.266Z</time>
      </trkpt>
      <trkpt lat="48.85343" lon="2.38516">
        <ele>109.9</ele>
        <time>2015-03-09T20:33:28.366Z</time>
      </trkpt>
      <trkpt lat="48.85336" lon="2.38514">
        <ele>109.9</ele>
        <time>2015-03-09T20:33:29.286Z</time>
      </trkpt>
      <trkpt lat="48.85331" lon="2.38512">
        <ele>110.1</ele>
        <time>2015-03-09T20:33:30.255Z</time>
      </trkpt>
      <trkpt lat="48.85324" lon="2.3851">
        <ele>110.4</ele>
        <time>2015-03-09T20:33:32.270Z</time>
      </trkpt>
      <trkpt lat="48.8532" lon="2.38511">
        <ele>110.6</ele>
        <time>2015-03-09T20:33:33.209Z</time>
      </trkpt>
      <trkpt lat="48.85312" lon="2.38509">
        <ele>110.9</ele>
        <time>2015-03-09T20:33:36.290Z</time>
      </trkpt>
      <trkpt lat="48.85301" lon="2.38504">
        <ele>111.3</ele>
        <time>2015-03-09T20:33:37.403Z</time>
      </trkpt>
      <trkpt lat="48.85299" lon="2.38498">
        <ele>111.7</ele>
        <time>2015-03-09T20:33:38.220Z</time>
      </trkpt>
      <trkpt lat="48.85291" lon="2.38496">
        <ele>111.9</ele>
        <time>2015-03-09T20:33:39.243Z</time>
      </trkpt>
      <trkpt lat="48.85291" lon="2.38496">
        <ele>111.9</ele>
        <time>2015-03-09T20:33:39.293Z</time>
      </trkpt>
      <trkpt lat="48.8528" lon="2.38493">
        <ele>112.2</ele>
        <time>2015-03-09T20:33:40.254Z</time>
      </trkpt>
      <trkpt lat="48.8527" lon="2.3849">
        <ele>112.5</ele>
        <time>2015-03-09T20:33:41.275Z</time>
      </trkpt>
      <trkpt lat="48.85264" lon="2.38487">
        <ele>113.3</ele>
        <time>2015-03-09T20:33:43.292Z</time>
      </trkpt>
      <trkpt lat="48.85258" lon="2.38488">
        <ele>113.6</ele>
        <time>2015-03-09T20:33:44.194Z</time>
      </trkpt>
      <trkpt lat="48.85254" lon="2.38487">
        <ele>114.2</ele>
        <time>2015-03-09T20:33:45.224Z</time>
      </trkpt>
      <trkpt lat="48.8525" lon="2.38485">
        <ele>114.5</ele>
        <time>2015-03-09T20:33:46.252Z</time>
      </trkpt>
      <trkpt lat="48.85253" lon="2.38485">
        <ele>115.4</ele>
        <time>2015-03-09T20:33:48.282Z</time>
      </trkpt>
      <trkpt lat="48.85259" lon="2.38487">
        <ele>115.7</ele>
        <time>2015-03-09T20:33:49.200Z</time>
      </trkpt>
      <trkpt lat="48.85251" lon="2.38484">
        <ele>114.8</ele>
        <time>2015-03-09T20:34:01.272Z</time>
      </trkpt>
      <trkpt lat="48.85237" lon="2.3848">
        <ele>114.3</ele>
        <time>2015-03-09T20:34:02.267Z</time>
      </trkpt>
      <trkpt lat="48.85229" lon="2.38482">
        <ele>113.1</ele>
        <time>2015-03-09T20:34:03.288Z</time>
      </trkpt>
      <trkpt lat="48.85219" lon="2.38479">
        <ele>113</ele>
        <time>2015-03-09T20:34:04.306Z</time>
      </trkpt>
      <trkpt lat="48.85219" lon="2.38479">
        <ele>113</ele>
        <time>2015-03-09T20:34:04.900Z</time>
      </trkpt>
      <trkpt lat="48.8513" lon="2.38453">
        <ele>112.3</ele>
        <time>2015-03-09T20:34:11.312Z</time>
      </trkpt>
      <trkpt lat="48.85127" lon="2.38443">
        <ele>115.2</ele>
        <time>2015-03-09T20:34:25.238Z</time>
      </trkpt>
      <trkpt lat="48.85119" lon="2.38442">
        <ele>115.5</ele>
        <time>2015-03-09T20:34:26.251Z</time>
      </trkpt>
      <trkpt lat="48.85112" lon="2.38441">
        <ele>116.3</ele>
        <time>2015-03-09T20:34:28.275Z</time>
      </trkpt>
      <trkpt lat="48.85109" lon="2.38441">
        <ele>116.8</ele>
        <time>2015-03-09T20:34:29.284Z</time>
      </trkpt>
      <trkpt lat="48.85104" lon="2.38443">
        <ele>117.2</ele>
        <time>2015-03-09T20:34:35.226Z</time>
      </trkpt>
      <trkpt lat="48.85083" lon="2.38448">
        <ele>111.7</ele>
        <time>2015-03-09T20:34:36.269Z</time>
      </trkpt>
      <trkpt lat="48.85075" lon="2.38448">
        <ele>110.3</ele>
        <time>2015-03-09T20:34:38.311Z</time>
      </trkpt>
      <trkpt lat="48.85072" lon="2.38448">
        <ele>110.5</ele>
        <time>2015-03-09T20:34:39.324Z</time>
      </trkpt>
      <trkpt lat="48.85068" lon="2.38447">
        <ele>110.9</ele>
        <time>2015-03-09T20:34:41.232Z</time>
      </trkpt>
      <trkpt lat="48.8506" lon="2.38445">
        <ele>111.4</ele>
        <time>2015-03-09T20:34:42.274Z</time>
      </trkpt>
      <trkpt lat="48.85056" lon="2.38445">
        <ele>111.6</ele>
        <time>2015-03-09T20:34:44.297Z</time>
      </trkpt>
      <trkpt lat="48.8505" lon="2.3845">
        <ele>110.4</ele>
        <time>2015-03-09T20:34:45.239Z</time>
      </trkpt>
      <trkpt lat="48.85043" lon="2.38455">
        <ele>109.6</ele>
        <time>2015-03-09T20:34:46.226Z</time>
      </trkpt>
      <trkpt lat="48.85034" lon="2.38459">
        <ele>108.7</ele>
        <time>2015-03-09T20:34:47.232Z</time>
      </trkpt>
      <trkpt lat="48.85024" lon="2.38462">
        <ele>108</ele>
        <time>2015-03-09T20:34:48.259Z</time>
      </trkpt>
      <trkpt lat="48.85015" lon="2.38466">
        <ele>107.3</ele>
        <time>2015-03-09T20:34:49.267Z</time>
      </trkpt>
      <trkpt lat="48.85008" lon="2.38472">
        <ele>106.5</ele>
        <time>2015-03-09T20:34:50.270Z</time>
      </trkpt>
      <trkpt lat="48.85001" lon="2.38478">
        <ele>106.1</ele>
        <time>2015-03-09T20:34:51.276Z</time>
      </trkpt>
      <trkpt lat="48.84996" lon="2.38487">
        <ele>105.4</ele>
        <time>2015-03-09T20:34:53.291Z</time>
      </trkpt>
      <trkpt lat="48.84992" lon="2.3849">
        <ele>105.2</ele>
        <time>2015-03-09T20:34:54.299Z</time>
      </trkpt>
      <trkpt lat="48.84987" lon="2.38495">
        <ele>105.5</ele>
        <time>2015-03-09T20:34:56.225Z</time>
      </trkpt>
      <trkpt lat="48.84985" lon="2.38498">
        <ele>105.7</ele>
        <time>2015-03-09T20:34:57.238Z</time>
      </trkpt>
      <trkpt lat="48.84984" lon="2.38501">
        <ele>106</ele>
        <time>2015-03-09T20:34:58.242Z</time>
      </trkpt>
      <trkpt lat="48.84968" lon="2.38514">
        <ele>106.5</ele>
        <time>2015-03-09T20:35:02.280Z</time>
      </trkpt>
      <trkpt lat="48.84961" lon="2.38514">
        <ele>106.1</ele>
        <time>2015-03-09T20:35:04.296Z</time>
      </trkpt>
      <trkpt lat="48.84956" lon="2.38515">
        <ele>106.1</ele>
        <time>2015-03-09T20:35:05.339Z</time>
      </trkpt>
      <trkpt lat="48.84952" lon="2.38517">
        <ele>106.1</ele>
        <time>2015-03-09T20:35:06.259Z</time>
      </trkpt>
      <trkpt lat="48.84938" lon="2.38523">
        <ele>106.7</ele>
        <time>2015-03-09T20:35:09.352Z</time>
      </trkpt>
      <trkpt lat="48.84932" lon="2.38526">
        <ele>106.8</ele>
        <time>2015-03-09T20:35:10.229Z</time>
      </trkpt>
      <trkpt lat="48.84928" lon="2.38529">
        <ele>107.1</ele>
        <time>2015-03-09T20:35:11.243Z</time>
      </trkpt>
      <trkpt lat="48.84922" lon="2.38532">
        <ele>107.2</ele>
        <time>2015-03-09T20:35:12.261Z</time>
      </trkpt>
      <trkpt lat="48.84894" lon="2.38552">
        <ele>107.4</ele>
        <time>2015-03-09T20:35:17.251Z</time>
      </trkpt>
      <trkpt lat="48.84889" lon="2.38556">
        <ele>107.7</ele>
        <time>2015-03-09T20:35:18.292Z</time>
      </trkpt>
      <trkpt lat="48.84884" lon="2.3856">
        <ele>107.8</ele>
        <time>2015-03-09T20:35:19.309Z</time>
      </trkpt>
      <trkpt lat="48.84879" lon="2.38563">
        <ele>107.8</ele>
        <time>2015-03-09T20:35:20.312Z</time>
      </trkpt>
      <trkpt lat="48.84861" lon="2.38578">
        <ele>107.5</ele>
        <time>2015-03-09T20:35:23.285Z</time>
      </trkpt>
      <trkpt lat="48.84861" lon="2.38578">
        <ele>107.5</ele>
        <time>2015-03-09T20:35:23.701Z</time>
      </trkpt>
      <trkpt lat="48.84853" lon="2.3859">
        <ele>105.8</ele>
        <time>2015-03-09T20:35:24.254Z</time>
      </trkpt>
      <trkpt lat="48.84846" lon="2.38601">
        <ele>104.4</ele>
        <time>2015-03-09T20:35:25.264Z</time>
      </trkpt>
      <trkpt lat="48.8484" lon="2.38606">
        <ele>104.2</ele>
        <time>2015-03-09T20:35:26.987Z</time>
      </trkpt>
      <trkpt lat="48.84833" lon="2.3861">
        <ele>105</ele>
        <time>2015-03-09T20:35:27.237Z</time>
      </trkpt>
      <trkpt lat="48.84826" lon="2.38614">
        <ele>105.2</ele>
        <time>2015-03-09T20:35:28.251Z</time>
      </trkpt>
      <trkpt lat="48.84818" lon="2.38619">
        <ele>105.8</ele>
        <time>2015-03-09T20:35:29.246Z</time>
      </trkpt>
      <trkpt lat="48.84811" lon="2.38622">
        <ele>106.1</ele>
        <time>2015-03-09T20:35:30.248Z</time>
      </trkpt>
      <trkpt lat="48.84805" lon="2.38624">
        <ele>106.3</ele>
        <time>2015-03-09T20:35:31.259Z</time>
      </trkpt>
      <trkpt lat="48.84798" lon="2.38626">
        <ele>106.4</ele>
        <time>2015-03-09T20:35:32.266Z</time>
      </trkpt>
      <trkpt lat="48.84789" lon="2.38628">
        <ele>106.8</ele>
        <time>2015-03-09T20:35:33.296Z</time>
      </trkpt>
      <trkpt lat="48.84782" lon="2.3863">
        <ele>107.2</ele>
        <time>2015-03-09T20:35:34.304Z</time>
      </trkpt>
      <trkpt lat="48.84776" lon="2.38634">
        <ele>107.9</ele>
        <time>2015-03-09T20:35:35.265Z</time>
      </trkpt>
      <trkpt lat="48.8477" lon="2.38639">
        <ele>108.6</ele>
        <time>2015-03-09T20:35:36.283Z</time>
      </trkpt>
      <trkpt lat="48.84765" lon="2.38645">
        <ele>109.4</ele>
        <time>2015-03-09T20:35:37.207Z</time>
      </trkpt>
      <trkpt lat="48.8476" lon="2.3865">
        <ele>110</ele>
        <time>2015-03-09T20:35:38.254Z</time>
      </trkpt>
      <trkpt lat="48.84755" lon="2.38655">
        <ele>110.8</ele>
        <time>2015-03-09T20:35:39.264Z</time>
      </trkpt>
      <trkpt lat="48.84748" lon="2.38664">
        <ele>110.1</ele>
        <time>2015-03-09T20:35:40.294Z</time>
      </trkpt>
      <trkpt lat="48.84742" lon="2.38669">
        <ele>109.4</ele>
        <time>2015-03-09T20:35:42.321Z</time>
      </trkpt>
      <trkpt lat="48.8474" lon="2.38671">
        <ele>108.9</ele>
        <time>2015-03-09T20:35:43.213Z</time>
      </trkpt>
      <trkpt lat="48.84742" lon="2.38682">
        <ele>102.3</ele>
        <time>2015-03-09T20:36:11.249Z</time>
      </trkpt>
      <trkpt lat="48.84742" lon="2.38685">
        <ele>102.3</ele>
        <time>2015-03-09T20:36:12.243Z</time>
      </trkpt>
      <trkpt lat="48.84738" lon="2.38691">
        <ele>103.3</ele>
        <time>2015-03-09T20:36:15.227Z</time>
      </trkpt>
      <trkpt lat="48.84734" lon="2.38693">
        <ele>104.1</ele>
        <time>2015-03-09T20:36:16.234Z</time>
      </trkpt>
      <trkpt lat="48.84727" lon="2.38699">
        <ele>104.5</ele>
        <time>2015-03-09T20:36:18.240Z</time>
      </trkpt>
      <trkpt lat="48.84724" lon="2.387">
        <ele>104.6</ele>
        <time>2015-03-09T20:36:19.263Z</time>
      </trkpt>
      <trkpt lat="48.84719" lon="2.38705">
        <ele>104.9</ele>
        <time>2015-03-09T20:36:21.321Z</time>
      </trkpt>
      <trkpt lat="48.84715" lon="2.3871">
        <ele>105</ele>
        <time>2015-03-09T20:36:22.310Z</time>
      </trkpt>
      <trkpt lat="48.84709" lon="2.38714">
        <ele>104.6</ele>
        <time>2015-03-09T20:36:23.249Z</time>
      </trkpt>
      <trkpt lat="48.84705" lon="2.38716">
        <ele>104</ele>
        <time>2015-03-09T20:36:24.285Z</time>
      </trkpt>
      <trkpt lat="48.84698" lon="2.38716">
        <ele>102.7</ele>
        <time>2015-03-09T20:36:25.498Z</time>
      </trkpt>
      <trkpt lat="48.84695" lon="2.38718">
        <ele>102.7</ele>
        <time>2015-03-09T20:36:26.315Z</time>
      </trkpt>
      <trkpt lat="48.84688" lon="2.38721">
        <ele>102.4</ele>
        <time>2015-03-09T20:36:28.222Z</time>
      </trkpt>
      <trkpt lat="48.84685" lon="2.38724">
        <ele>102.2</ele>
        <time>2015-03-09T20:36:29.241Z</time>
      </trkpt>
      <trkpt lat="48.84677" lon="2.3873">
        <ele>102.6</ele>
        <time>2015-03-09T20:36:32.380Z</time>
      </trkpt>
      <trkpt lat="48.84675" lon="2.38729">
        <ele>103.2</ele>
        <time>2015-03-09T20:36:33.288Z</time>
      </trkpt>
      <trkpt lat="48.8467" lon="2.3872">
        <ele>104.5</ele>
        <time>2015-03-09T20:36:39.243Z</time>
      </trkpt>
      <trkpt lat="48.84665" lon="2.38719">
        <ele>103.9</ele>
        <time>2015-03-09T20:36:40.275Z</time>
      </trkpt>
      <trkpt lat="48.84661" lon="2.38717">
        <ele>103.7</ele>
        <time>2015-03-09T20:36:41.287Z</time>
      </trkpt>
      <trkpt lat="48.84656" lon="2.38716">
        <ele>103.5</ele>
        <time>2015-03-09T20:36:42.301Z</time>
      </trkpt>
      <trkpt lat="48.84645" lon="2.38713">
        <ele>103.1</ele>
        <time>2015-03-09T20:36:44.211Z</time>
      </trkpt>
      <trkpt lat="48.84636" lon="2.38711">
        <ele>102.5</ele>
        <time>2015-03-09T20:36:45.251Z</time>
      </trkpt>
      <trkpt lat="48.8463" lon="2.38711">
        <ele>102.3</ele>
        <time>2015-03-09T20:36:46.278Z</time>
      </trkpt>
      <trkpt lat="48.84626" lon="2.38712">
        <ele>101.7</ele>
        <time>2015-03-09T20:36:47.297Z</time>
      </trkpt>
      <trkpt lat="48.84618" lon="2.38716">
        <ele>100.1</ele>
        <time>2015-03-09T20:36:49.209Z</time>
      </trkpt>
      <trkpt lat="48.84615" lon="2.38715">
        <ele>99.8</ele>
        <time>2015-03-09T20:36:50.285Z</time>
      </trkpt>
      <trkpt lat="48.84608" lon="2.38712">
        <ele>99.8</ele>
        <time>2015-03-09T20:36:52.323Z</time>
      </trkpt>
      <trkpt lat="48.84605" lon="2.3871">
        <ele>100.1</ele>
        <time>2015-03-09T20:36:53.342Z</time>
      </trkpt>
      <trkpt lat="48.84596" lon="2.3871">
        <ele>99.9</ele>
        <time>2015-03-09T20:36:55.253Z</time>
      </trkpt>
      <trkpt lat="48.84592" lon="2.38709">
        <ele>99.9</ele>
        <time>2015-03-09T20:36:56.309Z</time>
      </trkpt>
      <trkpt lat="48.84585" lon="2.38709">
        <ele>99.4</ele>
        <time>2015-03-09T20:36:59.333Z</time>
      </trkpt>
      <trkpt lat="48.84581" lon="2.38708">
        <ele>99.7</ele>
        <time>2015-03-09T20:36:59.375Z</time>
      </trkpt>
      <trkpt lat="48.84574" lon="2.38707">
        <ele>100.2</ele>
        <time>2015-03-09T20:37:01.234Z</time>
      </trkpt>
      <trkpt lat="48.8457" lon="2.38707">
        <ele>100.6</ele>
        <time>2015-03-09T20:37:02.249Z</time>
      </trkpt>
      <trkpt lat="48.84564" lon="2.38709">
        <ele>100.9</ele>
        <time>2015-03-09T20:37:04.462Z</time>
      </trkpt>
      <trkpt lat="48.8456" lon="2.38715">
        <ele>100.9</ele>
        <time>2015-03-09T20:37:05.275Z</time>
      </trkpt>
      <trkpt lat="48.84553" lon="2.3872">
        <ele>102.2</ele>
        <time>2015-03-09T20:37:07.313Z</time>
      </trkpt>
      <trkpt lat="48.84549" lon="2.38722">
        <ele>103</ele>
        <time>2015-03-09T20:37:08.233Z</time>
      </trkpt>
      <trkpt lat="48.84543" lon="2.38724">
        <ele>104.6</ele>
        <time>2015-03-09T20:37:10.239Z</time>
      </trkpt>
      <trkpt lat="48.84539" lon="2.38727">
        <ele>105.4</ele>
        <time>2015-03-09T20:37:11.257Z</time>
      </trkpt>
      <trkpt lat="48.84531" lon="2.38731">
        <ele>104.1</ele>
        <time>2015-03-09T20:37:15.268Z</time>
      </trkpt>
      <trkpt lat="48.84527" lon="2.38737">
        <ele>104.4</ele>
        <time>2015-03-09T20:37:16.276Z</time>
      </trkpt>
      <trkpt lat="48.84524" lon="2.38743">
        <ele>105.1</ele>
        <time>2015-03-09T20:37:17.219Z</time>
      </trkpt>
      <trkpt lat="48.84522" lon="2.38749">
        <ele>105</ele>
        <time>2015-03-09T20:37:18.255Z</time>
      </trkpt>
      <trkpt lat="48.84525" lon="2.38761">
        <ele>103.8</ele>
        <time>2015-03-09T20:37:21.271Z</time>
      </trkpt>
      <trkpt lat="48.84525" lon="2.38764">
        <ele>103.9</ele>
        <time>2015-03-09T20:37:22.299Z</time>
      </trkpt>
      <trkpt lat="48.84526" lon="2.38775">
        <ele>104.9</ele>
        <time>2015-03-09T20:37:24.828Z</time>
      </trkpt>
      <trkpt lat="48.84526" lon="2.3878">
        <ele>105.4</ele>
        <time>2015-03-09T20:37:25.243Z</time>
      </trkpt>
      <trkpt lat="48.84526" lon="2.3879">
        <ele>105.3</ele>
        <time>2015-03-09T20:37:27.264Z</time>
      </trkpt>
      <trkpt lat="48.84526" lon="2.38795">
        <ele>105.6</ele>
        <time>2015-03-09T20:37:28.453Z</time>
      </trkpt>
      <trkpt lat="48.84528" lon="2.38802">
        <ele>106.4</ele>
        <time>2015-03-09T20:37:29.874Z</time>
      </trkpt>
      <trkpt lat="48.84532" lon="2.38807">
        <ele>105.3</ele>
        <time>2015-03-09T20:37:30.288Z</time>
      </trkpt>
      <trkpt lat="48.84532" lon="2.38817">
        <ele>105.5</ele>
        <time>2015-03-09T20:37:32.311Z</time>
      </trkpt>
      <trkpt lat="48.84533" lon="2.38822">
        <ele>105.9</ele>
        <time>2015-03-09T20:37:33.315Z</time>
      </trkpt>
      <trkpt lat="48.8453" lon="2.38831">
        <ele>106.5</ele>
        <time>2015-03-09T20:37:55.276Z</time>
      </trkpt>
      <trkpt lat="48.84523" lon="2.38823">
        <ele>105.8</ele>
        <time>2015-03-09T20:37:56.289Z</time>
      </trkpt>
      <trkpt lat="48.84529" lon="2.38812">
        <ele>103.3</ele>
        <time>2015-03-09T20:38:01.284Z</time>
      </trkpt>
      <trkpt lat="48.84527" lon="2.38809">
        <ele>102.2</ele>
        <time>2015-03-09T20:38:02.306Z</time>
      </trkpt>
      <trkpt lat="48.84523" lon="2.388">
        <ele>101</ele>
        <time>2015-03-09T20:38:05.282Z</time>
      </trkpt>
      <trkpt lat="48.84523" lon="2.38797">
        <ele>100.9</ele>
        <time>2015-03-09T20:38:06.287Z</time>
      </trkpt>
      <trkpt lat="48.84521" lon="2.38784">
        <ele>101</ele>
        <time>2015-03-09T20:38:10.233Z</time>
      </trkpt>
      <trkpt lat="48.84522" lon="2.3878">
        <ele>101.2</ele>
        <time>2015-03-09T20:38:11.254Z</time>
      </trkpt>
      <trkpt lat="48.84524" lon="2.38769">
        <ele>101.5</ele>
        <time>2015-03-09T20:38:13.236Z</time>
      </trkpt>
      <trkpt lat="48.84524" lon="2.38765">
        <ele>102.3</ele>
        <time>2015-03-09T20:38:14.265Z</time>
      </trkpt>
      <trkpt lat="48.84526" lon="2.38751">
        <ele>104.3</ele>
        <time>2015-03-09T20:38:17.296Z</time>
      </trkpt>
      <trkpt lat="48.84526" lon="2.38748">
        <ele>104.7</ele>
        <time>2015-03-09T20:38:18.300Z</time>
      </trkpt>
      <trkpt lat="48.84529" lon="2.38736">
        <ele>105.7</ele>
        <time>2015-03-09T20:38:22.290Z</time>
      </trkpt>
      <trkpt lat="48.8453" lon="2.38734">
        <ele>105.8</ele>
        <time>2015-03-09T20:38:23.292Z</time>
      </trkpt>
      <trkpt lat="48.8453" lon="2.38734">
        <ele>105.8</ele>
        <time>2015-03-09T20:38:27.260Z</time>
      </trkpt>
      <trkpt lat="48.84538" lon="2.38728">
        <ele>106</ele>
        <time>2015-03-09T20:38:28.262Z</time>
      </trkpt>
      <trkpt lat="48.84538" lon="2.38729">
        <ele>104</ele>
        <time>2015-03-09T20:39:25.154Z</time>
      </trkpt>
      <trkpt lat="48.84548" lon="2.38712">
        <ele>101</ele>
        <time>2015-03-09T20:39:25.258Z</time>
      </trkpt>
      <trkpt lat="48.84552" lon="2.38703">
        <ele>102.1</ele>
        <time>2015-03-09T20:39:58.225Z</time>
      </trkpt>
      <trkpt lat="48.84548" lon="2.38674">
        <ele>106.3</ele>
        <time>2015-03-09T20:39:59.253Z</time>
      </trkpt>
      <trkpt lat="48.8455" lon="2.38673">
        <ele>106.9</ele>
        <time>2015-03-09T20:40:42.286Z</time>
      </trkpt>
      <trkpt lat="48.84521" lon="2.38659">
        <ele>107.4</ele>
        <time>2015-03-09T20:40:43.247Z</time>
      </trkpt>
      <trkpt lat="48.84514" lon="2.38661">
        <ele>106.3</ele>
        <time>2015-03-09T20:40:58.286Z</time>
      </trkpt>
      <trkpt lat="48.84511" lon="2.3866">
        <ele>106.1</ele>
        <time>2015-03-09T20:40:59.299Z</time>
      </trkpt>
      <trkpt lat="48.84502" lon="2.38659">
        <ele>106.3</ele>
        <time>2015-03-09T20:41:02.331Z</time>
      </trkpt>
      <trkpt lat="48.84501" lon="2.3866">
        <ele>106.9</ele>
        <time>2015-03-09T20:41:03.192Z</time>
      </trkpt>
      <trkpt lat="48.84508" lon="2.38665">
        <ele>106.5</ele>
        <time>2015-03-09T20:41:09.657Z</time>
      </trkpt>
      <trkpt lat="48.84533" lon="2.38662">
        <ele>104.1</ele>
        <time>2015-03-09T20:41:13.289Z</time>
      </trkpt>
      <trkpt lat="48.84536" lon="2.38658">
        <ele>103.6</ele>
        <time>2015-03-09T20:41:14.736Z</time>
      </trkpt>
      <trkpt lat="48.84541" lon="2.38656">
        <ele>103.3</ele>
        <time>2015-03-09T20:41:15.213Z</time>
      </trkpt>
      <trkpt lat="48.84547" lon="2.38654">
        <ele>103.2</ele>
        <time>2015-03-09T20:41:16.222Z</time>
      </trkpt>
      <trkpt lat="48.84551" lon="2.38653">
        <ele>103.2</ele>
        <time>2015-03-09T20:41:17.240Z</time>
      </trkpt>
      <trkpt lat="48.84557" lon="2.38646">
        <ele>103.1</ele>
        <time>2015-03-09T20:41:19.762Z</time>
      </trkpt>
      <trkpt lat="48.84558" lon="2.38641">
        <ele>103.1</ele>
        <time>2015-03-09T20:41:20.272Z</time>
      </trkpt>
      <trkpt lat="48.84559" lon="2.38636">
        <ele>103</ele>
        <time>2015-03-09T20:41:21.285Z</time>
      </trkpt>
      <trkpt lat="48.84557" lon="2.38626">
        <ele>103</ele>
        <time>2015-03-09T20:41:23.318Z</time>
      </trkpt>
      <trkpt lat="48.84553" lon="2.38616">
        <ele>103</ele>
        <time>2015-03-09T20:41:25.236Z</time>
      </trkpt>
      <trkpt lat="48.84552" lon="2.38612">
        <ele>103.1</ele>
        <time>2015-03-09T20:41:26.249Z</time>
      </trkpt>
      <trkpt lat="48.8455" lon="2.38604">
        <ele>103.2</ele>
        <time>2015-03-09T20:41:28.277Z</time>
      </trkpt>
      <trkpt lat="48.8455" lon="2.38592">
        <ele>103.1</ele>
        <time>2015-03-09T20:41:31.279Z</time>
      </trkpt>
      <trkpt lat="48.84547" lon="2.3858">
        <ele>103.4</ele>
        <time>2015-03-09T20:41:34.966Z</time>
      </trkpt>
      <trkpt lat="48.84547" lon="2.38574">
        <ele>103.6</ele>
        <time>2015-03-09T20:41:35.265Z</time>
      </trkpt>
      <trkpt lat="48.8455" lon="2.38568">
        <ele>103.9</ele>
        <time>2015-03-09T20:41:37.310Z</time>
      </trkpt>
      <trkpt lat="48.84556" lon="2.38565">
        <ele>104</ele>
        <time>2015-03-09T20:41:38.194Z</time>
      </trkpt>
      <trkpt lat="48.84562" lon="2.38558">
        <ele>104.2</ele>
        <time>2015-03-09T20:41:40.222Z</time>
      </trkpt>
      <trkpt lat="48.84566" lon="2.38555">
        <ele>104.4</ele>
        <time>2015-03-09T20:41:41.298Z</time>
      </trkpt>
      <trkpt lat="48.84573" lon="2.38548">
        <ele>105</ele>
        <time>2015-03-09T20:41:43.349Z</time>
      </trkpt>
      <trkpt lat="48.84576" lon="2.38544">
        <ele>105.3</ele>
        <time>2015-03-09T20:41:44.318Z</time>
      </trkpt>
      <trkpt lat="48.84582" lon="2.38537">
        <ele>105.4</ele>
        <time>2015-03-09T20:41:47.211Z</time>
      </trkpt>
      <trkpt lat="48.84583" lon="2.38534">
        <ele>105.4</ele>
        <time>2015-03-09T20:41:48.367Z</time>
      </trkpt>
      <trkpt lat="48.84587" lon="2.38527">
        <ele>105.2</ele>
        <time>2015-03-09T20:41:50.311Z</time>
      </trkpt>
      <trkpt lat="48.84588" lon="2.38523">
        <ele>105.2</ele>
        <time>2015-03-09T20:41:51.223Z</time>
      </trkpt>
      <trkpt lat="48.84587" lon="2.38515">
        <ele>105.2</ele>
        <time>2015-03-09T20:41:53.255Z</time>
      </trkpt>
      <trkpt lat="48.84582" lon="2.38511">
        <ele>104.9</ele>
        <time>2015-03-09T20:41:54.281Z</time>
      </trkpt>
      <trkpt lat="48.84574" lon="2.38505">
        <ele>105.3</ele>
        <time>2015-03-09T20:41:56.230Z</time>
      </trkpt>
      <trkpt lat="48.84572" lon="2.38502">
        <ele>105.5</ele>
        <time>2015-03-09T20:41:57.358Z</time>
      </trkpt>
      <trkpt lat="48.84571" lon="2.38492">
        <ele>104.9</ele>
        <time>2015-03-09T20:42:00.261Z</time>
      </trkpt>
      <trkpt lat="48.84568" lon="2.38488">
        <ele>104.1</ele>
        <time>2015-03-09T20:42:01.280Z</time>
      </trkpt>
      <trkpt lat="48.84561" lon="2.38483">
        <ele>102.1</ele>
        <time>2015-03-09T20:42:02.299Z</time>
      </trkpt>
      <trkpt lat="48.84554" lon="2.38478">
        <ele>99.9</ele>
        <time>2015-03-09T20:42:03.343Z</time>
      </trkpt>
      <trkpt lat="48.84549" lon="2.38472">
        <ele>98.4</ele>
        <time>2015-03-09T20:42:04.648Z</time>
      </trkpt>
      <trkpt lat="48.84545" lon="2.38466">
        <ele>96.8</ele>
        <time>2015-03-09T20:42:05.254Z</time>
      </trkpt>
      <trkpt lat="48.84539" lon="2.38456">
        <ele>95.2</ele>
        <time>2015-03-09T20:42:07.268Z</time>
      </trkpt>
      <trkpt lat="48.84537" lon="2.38451">
        <ele>94.5</ele>
        <time>2015-03-09T20:42:08.369Z</time>
      </trkpt>
      <trkpt lat="48.84531" lon="2.38444">
        <ele>93.7</ele>
        <time>2015-03-09T20:42:10.273Z</time>
      </trkpt>
      <trkpt lat="48.84529" lon="2.38437">
        <ele>93.2</ele>
        <time>2015-03-09T20:42:11.315Z</time>
      </trkpt>
      <trkpt lat="48.84525" lon="2.38427">
        <ele>92.1</ele>
        <time>2015-03-09T20:42:13.266Z</time>
      </trkpt>
      <trkpt lat="48.84522" lon="2.38423">
        <ele>91.6</ele>
        <time>2015-03-09T20:42:14.274Z</time>
      </trkpt>
      <trkpt lat="48.84516" lon="2.38413">
        <ele>91.1</ele>
        <time>2015-03-09T20:42:16.320Z</time>
      </trkpt>
      <trkpt lat="48.84513" lon="2.38409">
        <ele>90.6</ele>
        <time>2015-03-09T20:42:17.337Z</time>
      </trkpt>
      <trkpt lat="48.84507" lon="2.38398">
        <ele>90.3</ele>
        <time>2015-03-09T20:42:19.761Z</time>
      </trkpt>
      <trkpt lat="48.84503" lon="2.38395">
        <ele>90.1</ele>
        <time>2015-03-09T20:42:20.262Z</time>
      </trkpt>
      <trkpt lat="48.84496" lon="2.38386">
        <ele>90.1</ele>
        <time>2015-03-09T20:42:22.235Z</time>
      </trkpt>
      <trkpt lat="48.84494" lon="2.38383">
        <ele>89.8</ele>
        <time>2015-03-09T20:42:23.235Z</time>
      </trkpt>
      <trkpt lat="48.8449" lon="2.38375">
        <ele>90</ele>
        <time>2015-03-09T20:42:25.276Z</time>
      </trkpt>
      <trkpt lat="48.84489" lon="2.3837">
        <ele>89.8</ele>
        <time>2015-03-09T20:42:26.280Z</time>
      </trkpt>
      <trkpt lat="48.8449" lon="2.38358">
        <ele>89.8</ele>
        <time>2015-03-09T20:42:28.360Z</time>
      </trkpt>
      <trkpt lat="48.8449" lon="2.38353">
        <ele>89.8</ele>
        <time>2015-03-09T20:42:29.263Z</time>
      </trkpt>
      <trkpt lat="48.84494" lon="2.38342">
        <ele>89.8</ele>
        <time>2015-03-09T20:42:31.304Z</time>
      </trkpt>
      <trkpt lat="48.84497" lon="2.38338">
        <ele>90.1</ele>
        <time>2015-03-09T20:42:32.327Z</time>
      </trkpt>
      <trkpt lat="48.84498" lon="2.38328">
        <ele>90.3</ele>
        <time>2015-03-09T20:42:34.865Z</time>
      </trkpt>
      <trkpt lat="48.84497" lon="2.38321">
        <ele>90.8</ele>
        <time>2015-03-09T20:42:35.266Z</time>
      </trkpt>
      <trkpt lat="48.84493" lon="2.38311">
        <ele>91.6</ele>
        <time>2015-03-09T20:42:37.296Z</time>
      </trkpt>
      <trkpt lat="48.84489" lon="2.38306">
        <ele>92.4</ele>
        <time>2015-03-09T20:42:38.192Z</time>
      </trkpt>
      <trkpt lat="48.8449" lon="2.38294">
        <ele>93.7</ele>
        <time>2015-03-09T20:42:41.255Z</time>
      </trkpt>
      <trkpt lat="48.84491" lon="2.3829">
        <ele>94</ele>
        <time>2015-03-09T20:42:42.257Z</time>
      </trkpt>
      <trkpt lat="48.8449" lon="2.38282">
        <ele>94.5</ele>
        <time>2015-03-09T20:42:45.076Z</time>
      </trkpt>
      <trkpt lat="48.84487" lon="2.38277">
        <ele>94.3</ele>
        <time>2015-03-09T20:42:45.219Z</time>
      </trkpt>
      <trkpt lat="48.84482" lon="2.38274">
        <ele>94.6</ele>
        <time>2015-03-09T20:42:46.242Z</time>
      </trkpt>
      <trkpt lat="48.84478" lon="2.3827">
        <ele>94.7</ele>
        <time>2015-03-09T20:42:47.252Z</time>
      </trkpt>
      <trkpt lat="48.84474" lon="2.38259">
        <ele>95</ele>
        <time>2015-03-09T20:42:49.357Z</time>
      </trkpt>
      <trkpt lat="48.84471" lon="2.38254">
        <ele>95.4</ele>
        <time>2015-03-09T20:42:50.313Z</time>
      </trkpt>
      <trkpt lat="48.84465" lon="2.38244">
        <ele>95.4</ele>
        <time>2015-03-09T20:42:52.237Z</time>
      </trkpt>
      <trkpt lat="48.84459" lon="2.38238">
        <ele>95.6</ele>
        <time>2015-03-09T20:42:53.258Z</time>
      </trkpt>
      <trkpt lat="48.84451" lon="2.38229">
        <ele>96.5</ele>
        <time>2015-03-09T20:42:54.278Z</time>
      </trkpt>
      <trkpt lat="48.84446" lon="2.3822">
        <ele>96</ele>
        <time>2015-03-09T20:42:56.299Z</time>
      </trkpt>
      <trkpt lat="48.84445" lon="2.38217">
        <ele>95.9</ele>
        <time>2015-03-09T20:42:57.195Z</time>
      </trkpt>
      <trkpt lat="48.8444" lon="2.38208">
        <ele>95.7</ele>
        <time>2015-03-09T20:42:59.430Z</time>
      </trkpt>
      <trkpt lat="48.84437" lon="2.38204">
        <ele>95.9</ele>
        <time>2015-03-09T20:43:00.247Z</time>
      </trkpt>
      <trkpt lat="48.84432" lon="2.38196">
        <ele>95.6</ele>
        <time>2015-03-09T20:43:02.319Z</time>
      </trkpt>
      <trkpt lat="48.8443" lon="2.38194">
        <ele>95.5</ele>
        <time>2015-03-09T20:43:03.230Z</time>
      </trkpt>
      <trkpt lat="48.84427" lon="2.38185">
        <ele>96.2</ele>
        <time>2015-03-09T20:43:06.270Z</time>
      </trkpt>
      <trkpt lat="48.84423" lon="2.38177">
        <ele>98</ele>
        <time>2015-03-09T20:43:07.296Z</time>
      </trkpt>
      <trkpt lat="48.84416" lon="2.38171">
        <ele>98.3</ele>
        <time>2015-03-09T20:43:10.298Z</time>
      </trkpt>
      <trkpt lat="48.84414" lon="2.38171">
        <ele>98.3</ele>
        <time>2015-03-09T20:43:11.316Z</time>
      </trkpt>
      <trkpt lat="48.84407" lon="2.38164">
        <ele>95.8</ele>
        <time>2015-03-09T20:43:19.303Z</time>
      </trkpt>
      <trkpt lat="48.84407" lon="2.38161">
        <ele>95.6</ele>
        <time>2015-03-09T20:43:20.235Z</time>
      </trkpt>
      <trkpt lat="48.8441" lon="2.38152">
        <ele>95.8</ele>
        <time>2015-03-09T20:43:36.333Z</time>
      </trkpt>
      <trkpt lat="48.84407" lon="2.38109">
        <ele>100.3</ele>
        <time>2015-03-09T20:43:37.343Z</time>
      </trkpt>
      <trkpt lat="48.84405" lon="2.38099">
        <ele>100.2</ele>
        <time>2015-03-09T20:43:39.218Z</time>
      </trkpt>
      <trkpt lat="48.84405" lon="2.38096">
        <ele>100.5</ele>
        <time>2015-03-09T20:43:40.227Z</time>
      </trkpt>
      <trkpt lat="48.84403" lon="2.38084">
        <ele>100.9</ele>
        <time>2015-03-09T20:43:44.292Z</time>
      </trkpt>
      <trkpt lat="48.84402" lon="2.38082">
        <ele>100.9</ele>
        <time>2015-03-09T20:43:45.368Z</time>
      </trkpt>
      <trkpt lat="48.84397" lon="2.38075">
        <ele>100.7</ele>
        <time>2015-03-09T20:43:48.253Z</time>
      </trkpt>
      <trkpt lat="48.84395" lon="2.38073">
        <ele>100.6</ele>
        <time>2015-03-09T20:43:49.315Z</time>
      </trkpt>
      <trkpt lat="48.84391" lon="2.38063">
        <ele>101.4</ele>
        <time>2015-03-09T20:43:52.252Z</time>
      </trkpt>
      <trkpt lat="48.84389" lon="2.38061">
        <ele>101.2</ele>
        <time>2015-03-09T20:43:53.263Z</time>
      </trkpt>
      <trkpt lat="48.84385" lon="2.3805">
        <ele>99.6</ele>
        <time>2015-03-09T20:43:56.235Z</time>
      </trkpt>
      <trkpt lat="48.84383" lon="2.38045">
        <ele>98.1</ele>
        <time>2015-03-09T20:43:57.244Z</time>
      </trkpt>
      <trkpt lat="48.84377" lon="2.38039">
        <ele>95.8</ele>
        <time>2015-03-09T20:43:59.931Z</time>
      </trkpt>
      <trkpt lat="48.84372" lon="2.38036">
        <ele>93.7</ele>
        <time>2015-03-09T20:44:00.254Z</time>
      </trkpt>
      <trkpt lat="48.84367" lon="2.38029">
        <ele>92.6</ele>
        <time>2015-03-09T20:44:02.291Z</time>
      </trkpt>
      <trkpt lat="48.84364" lon="2.38026">
        <ele>92.2</ele>
        <time>2015-03-09T20:44:03.390Z</time>
      </trkpt>
      <trkpt lat="48.84358" lon="2.38018">
        <ele>91.3</ele>
        <time>2015-03-09T20:44:06.299Z</time>
      </trkpt>
      <trkpt lat="48.84357" lon="2.38016">
        <ele>91.1</ele>
        <time>2015-03-09T20:44:07.287Z</time>
      </trkpt>
      <trkpt lat="48.84349" lon="2.38019">
        <ele>89.2</ele>
        <time>2015-03-09T20:44:32.206Z</time>
      </trkpt>
      <trkpt lat="48.84348" lon="2.38021">
        <ele>89.2</ele>
        <time>2015-03-09T20:44:33.276Z</time>
      </trkpt>
      <trkpt lat="48.84343" lon="2.38029">
        <ele>89.4</ele>
        <time>2015-03-09T20:44:36.293Z</time>
      </trkpt>
      <trkpt lat="48.84341" lon="2.38032">
        <ele>89.7</ele>
        <time>2015-03-09T20:44:37.291Z</time>
      </trkpt>
      <trkpt lat="48.84337" lon="2.38039">
        <ele>89.7</ele>
        <time>2015-03-09T20:44:39.303Z</time>
      </trkpt>
      <trkpt lat="48.84335" lon="2.38042">
        <ele>89.7</ele>
        <time>2015-03-09T20:44:40.319Z</time>
      </trkpt>
      <trkpt lat="48.84329" lon="2.38049">
        <ele>89.9</ele>
        <time>2015-03-09T20:44:43.250Z</time>
      </trkpt>
      <trkpt lat="48.84327" lon="2.38052">
        <ele>90.1</ele>
        <time>2015-03-09T20:44:44.289Z</time>
      </trkpt>
      <trkpt lat="48.8432" lon="2.38058">
        <ele>89.5</ele>
        <time>2015-03-09T20:44:49.283Z</time>
      </trkpt>
      <trkpt lat="48.84319" lon="2.38059">
        <ele>89.2</ele>
        <time>2015-03-09T20:44:50.217Z</time>
      </trkpt>
      <trkpt lat="48.84311" lon="2.38065">
        <ele>88.8</ele>
        <time>2015-03-09T20:44:54.325Z</time>
      </trkpt>
      <trkpt lat="48.84309" lon="2.38067">
        <ele>88.7</ele>
        <time>2015-03-09T20:44:55.242Z</time>
      </trkpt>
      <trkpt lat="48.84303" lon="2.38072">
        <ele>89.3</ele>
        <time>2015-03-09T20:44:58.218Z</time>
      </trkpt>
      <trkpt lat="48.843" lon="2.38074">
        <ele>89.2</ele>
        <time>2015-03-09T20:44:59.262Z</time>
      </trkpt>
      <trkpt lat="48.84295" lon="2.38079">
        <ele>89.2</ele>
        <time>2015-03-09T20:45:01.289Z</time>
      </trkpt>
      <trkpt lat="48.84292" lon="2.38082">
        <ele>89.1</ele>
        <time>2015-03-09T20:45:02.286Z</time>
      </trkpt>
      <trkpt lat="48.84284" lon="2.3809">
        <ele>89.1</ele>
        <time>2015-03-09T20:45:04.455Z</time>
      </trkpt>
      <trkpt lat="48.84281" lon="2.38094">
        <ele>89.4</ele>
        <time>2015-03-09T20:45:05.279Z</time>
      </trkpt>
      <trkpt lat="48.84275" lon="2.38101">
        <ele>89.6</ele>
        <time>2015-03-09T20:45:07.229Z</time>
      </trkpt>
      <trkpt lat="48.84272" lon="2.38104">
        <ele>89.8</ele>
        <time>2015-03-09T20:45:08.266Z</time>
      </trkpt>
      <trkpt lat="48.84266" lon="2.38111">
        <ele>89.9</ele>
        <time>2015-03-09T20:45:10.304Z</time>
      </trkpt>
      <trkpt lat="48.84264" lon="2.38114">
        <ele>90.2</ele>
        <time>2015-03-09T20:45:11.319Z</time>
      </trkpt>
      <trkpt lat="48.84259" lon="2.38121">
        <ele>90.6</ele>
        <time>2015-03-09T20:45:13.284Z</time>
      </trkpt>
      <trkpt lat="48.84256" lon="2.38125">
        <ele>90.5</ele>
        <time>2015-03-09T20:45:14.321Z</time>
      </trkpt>
      <trkpt lat="48.84251" lon="2.38129">
        <ele>90.7</ele>
        <time>2015-03-09T20:45:16.229Z</time>
      </trkpt>
      <trkpt lat="48.84248" lon="2.38132">
        <ele>90.7</ele>
        <time>2015-03-09T20:45:17.257Z</time>
      </trkpt>
      <trkpt lat="48.84242" lon="2.38139">
        <ele>90.9</ele>
        <time>2015-03-09T20:45:19.861Z</time>
      </trkpt>
      <trkpt lat="48.84238" lon="2.38142">
        <ele>91.3</ele>
        <time>2015-03-09T20:45:20.298Z</time>
      </trkpt>
      <trkpt lat="48.84232" lon="2.38149">
        <ele>91.6</ele>
        <time>2015-03-09T20:45:22.270Z</time>
      </trkpt>
      <trkpt lat="48.8423" lon="2.38153">
        <ele>92.1</ele>
        <time>2015-03-09T20:45:23.252Z</time>
      </trkpt>
      <trkpt lat="48.84224" lon="2.38161">
        <ele>92.8</ele>
        <time>2015-03-09T20:45:25.308Z</time>
      </trkpt>
      <trkpt lat="48.84221" lon="2.38164">
        <ele>92.2</ele>
        <time>2015-03-09T20:45:26.285Z</time>
      </trkpt>
      <trkpt lat="48.84216" lon="2.38173">
        <ele>93</ele>
        <time>2015-03-09T20:45:28.242Z</time>
      </trkpt>
      <trkpt lat="48.84213" lon="2.38176">
        <ele>93.3</ele>
        <time>2015-03-09T20:45:29.372Z</time>
      </trkpt>
      <trkpt lat="48.84208" lon="2.38182">
        <ele>93.3</ele>
        <time>2015-03-09T20:45:31.302Z</time>
      </trkpt>
      <trkpt lat="48.84205" lon="2.38185">
        <ele>93.8</ele>
        <time>2015-03-09T20:45:32.220Z</time>
      </trkpt>
      <trkpt lat="48.84199" lon="2.38192">
        <ele>94.5</ele>
        <time>2015-03-09T20:45:34.257Z</time>
      </trkpt>
      <trkpt lat="48.84196" lon="2.38195">
        <ele>94.8</ele>
        <time>2015-03-09T20:45:35.273Z</time>
      </trkpt>
      <trkpt lat="48.84191" lon="2.38201">
        <ele>95.4</ele>
        <time>2015-03-09T20:45:37.313Z</time>
      </trkpt>
      <trkpt lat="48.84188" lon="2.38204">
        <ele>95.5</ele>
        <time>2015-03-09T20:45:38.316Z</time>
      </trkpt>
      <trkpt lat="48.84183" lon="2.38208">
        <ele>96.1</ele>
        <time>2015-03-09T20:45:40.697Z</time>
      </trkpt>
      <trkpt lat="48.84179" lon="2.38211">
        <ele>96.6</ele>
        <time>2015-03-09T20:45:41.234Z</time>
      </trkpt>
      <trkpt lat="48.84174" lon="2.38216">
        <ele>97.6</ele>
        <time>2015-03-09T20:45:43.276Z</time>
      </trkpt>
      <trkpt lat="48.84172" lon="2.38218">
        <ele>97.7</ele>
        <time>2015-03-09T20:45:44.290Z</time>
      </trkpt>
      <trkpt lat="48.84164" lon="2.38224">
        <ele>98.1</ele>
        <time>2015-03-09T20:45:47.238Z</time>
      </trkpt>
      <trkpt lat="48.84162" lon="2.38227">
        <ele>98.4</ele>
        <time>2015-03-09T20:45:48.298Z</time>
      </trkpt>
      <trkpt lat="48.84154" lon="2.38232">
        <ele>98.5</ele>
        <time>2015-03-09T20:45:51.225Z</time>
      </trkpt>
      <trkpt lat="48.84152" lon="2.38233">
        <ele>98.7</ele>
        <time>2015-03-09T20:45:52.239Z</time>
      </trkpt>
      <trkpt lat="48.84144" lon="2.38238">
        <ele>99.3</ele>
        <time>2015-03-09T20:45:55.305Z</time>
      </trkpt>
      <trkpt lat="48.84141" lon="2.3824">
        <ele>99.5</ele>
        <time>2015-03-09T20:45:56.324Z</time>
      </trkpt>
      <trkpt lat="48.84135" lon="2.38248">
        <ele>100.3</ele>
        <time>2015-03-09T20:46:00.243Z</time>
      </trkpt>
      <trkpt lat="48.84133" lon="2.38251">
        <ele>100.8</ele>
        <time>2015-03-09T20:46:01.345Z</time>
      </trkpt>
      <trkpt lat="48.84127" lon="2.38255">
        <ele>101.9</ele>
        <time>2015-03-09T20:46:04.242Z</time>
      </trkpt>
      <trkpt lat="48.84125" lon="2.38257">
        <ele>102.2</ele>
        <time>2015-03-09T20:46:05.268Z</time>
      </trkpt>
      <trkpt lat="48.84119" lon="2.38267">
        <ele>103.9</ele>
        <time>2015-03-09T20:46:08.325Z</time>
      </trkpt>
      <trkpt lat="48.84116" lon="2.38268">
        <ele>104.2</ele>
        <time>2015-03-09T20:46:09.334Z</time>
      </trkpt>
      <trkpt lat="48.84109" lon="2.3827">
        <ele>105.3</ele>
        <time>2015-03-09T20:46:31.291Z</time>
      </trkpt>
      <trkpt lat="48.84103" lon="2.38324">
        <ele>96.7</ele>
        <time>2015-03-09T20:46:32.292Z</time>
      </trkpt>
      <trkpt lat="48.84103" lon="2.38328">
        <ele>95.6</ele>
        <time>2015-03-09T20:46:33.207Z</time>
      </trkpt>
      <trkpt lat="48.84102" lon="2.38331">
        <ele>94.9</ele>
        <time>2015-03-09T20:46:34.240Z</time>
      </trkpt>
      <trkpt lat="48.84102" lon="2.38335">
        <ele>94.2</ele>
        <time>2015-03-09T20:48:29.971Z</time>
      </trkpt>
      <trkpt lat="48.84081" lon="2.3832">
        <ele>93.1</ele>
        <time>2015-03-09T20:48:30.254Z</time>
      </trkpt>
      <trkpt lat="48.84087" lon="2.38312">
        <ele>92.8</ele>
        <time>2015-03-09T20:48:46.234Z</time>
      </trkpt>
      <trkpt lat="48.84105" lon="2.38288">
        <ele>93.2</ele>
        <time>2015-03-09T20:48:47.297Z</time>
      </trkpt>
      <trkpt lat="48.84111" lon="2.38281">
        <ele>93</ele>
        <time>2015-03-09T20:48:50.322Z</time>
      </trkpt>
      <trkpt lat="48.84113" lon="2.38279">
        <ele>93.3</ele>
        <time>2015-03-09T20:48:51.324Z</time>
      </trkpt>
      <trkpt lat="48.84117" lon="2.38267">
        <ele>93.5</ele>
        <time>2015-03-09T20:48:54.340Z</time>
      </trkpt>
      <trkpt lat="48.84118" lon="2.38263">
        <ele>93.2</ele>
        <time>2015-03-09T20:48:55.360Z</time>
      </trkpt>
      <trkpt lat="48.84121" lon="2.38254">
        <ele>93.9</ele>
        <time>2015-03-09T20:48:57.252Z</time>
      </trkpt>
      <trkpt lat="48.84123" lon="2.38248">
        <ele>93.8</ele>
        <time>2015-03-09T20:48:58.283Z</time>
      </trkpt>
      <trkpt lat="48.84125" lon="2.38235">
        <ele>93.7</ele>
        <time>2015-03-09T20:49:00.295Z</time>
      </trkpt>
      <trkpt lat="48.84126" lon="2.3823">
        <ele>93.8</ele>
        <time>2015-03-09T20:49:01.351Z</time>
      </trkpt>
      <trkpt lat="48.84131" lon="2.38223">
        <ele>93.8</ele>
        <time>2015-03-09T20:49:03.229Z</time>
      </trkpt>
      <trkpt lat="48.84134" lon="2.3822">
        <ele>93.7</ele>
        <time>2015-03-09T20:49:04.249Z</time>
      </trkpt>
      <trkpt lat="48.84139" lon="2.38214">
        <ele>93.9</ele>
        <time>2015-03-09T20:49:06.292Z</time>
      </trkpt>
      <trkpt lat="48.84143" lon="2.38212">
        <ele>94.1</ele>
        <time>2015-03-09T20:49:07.282Z</time>
      </trkpt>
      <trkpt lat="48.84149" lon="2.3821">
        <ele>94.3</ele>
        <time>2015-03-09T20:49:09.620Z</time>
      </trkpt>
      <trkpt lat="48.84153" lon="2.38208">
        <ele>94</ele>
        <time>2015-03-09T20:49:10.308Z</time>
      </trkpt>
      <trkpt lat="48.84159" lon="2.38204">
        <ele>94.1</ele>
        <time>2015-03-09T20:49:12.323Z</time>
      </trkpt>
      <trkpt lat="48.84161" lon="2.38201">
        <ele>93.9</ele>
        <time>2015-03-09T20:49:13.226Z</time>
      </trkpt>
      <trkpt lat="48.84167" lon="2.38195">
        <ele>93.6</ele>
        <time>2015-03-09T20:49:15.255Z</time>
      </trkpt>
      <trkpt lat="48.84169" lon="2.38191">
        <ele>93.4</ele>
        <time>2015-03-09T20:49:16.283Z</time>
      </trkpt>
      <trkpt lat="48.84175" lon="2.38185">
        <ele>93.2</ele>
        <time>2015-03-09T20:49:18.306Z</time>
      </trkpt>
      <trkpt lat="48.84178" lon="2.38183">
        <ele>93.2</ele>
        <time>2015-03-09T20:49:19.263Z</time>
      </trkpt>
      <trkpt lat="48.84184" lon="2.38176">
        <ele>93.2</ele>
        <time>2015-03-09T20:49:21.283Z</time>
      </trkpt>
      <trkpt lat="48.84186" lon="2.38173">
        <ele>93.3</ele>
        <time>2015-03-09T20:49:22.299Z</time>
      </trkpt>
      <trkpt lat="48.84191" lon="2.38167">
        <ele>93.8</ele>
        <time>2015-03-09T20:49:24.819Z</time>
      </trkpt>
      <trkpt lat="48.84194" lon="2.38165">
        <ele>94.2</ele>
        <time>2015-03-09T20:49:25.331Z</time>
      </trkpt>
      <trkpt lat="48.84202" lon="2.38158">
        <ele>94.8</ele>
        <time>2015-03-09T20:49:28.316Z</time>
      </trkpt>
      <trkpt lat="48.84204" lon="2.38155">
        <ele>94.8</ele>
        <time>2015-03-09T20:49:29.343Z</time>
      </trkpt>
      <trkpt lat="48.84211" lon="2.38151">
        <ele>94.9</ele>
        <time>2015-03-09T20:49:31.261Z</time>
      </trkpt>
      <trkpt lat="48.84215" lon="2.38149">
        <ele>95.2</ele>
        <time>2015-03-09T20:49:32.274Z</time>
      </trkpt>
      <trkpt lat="48.8422" lon="2.38145">
        <ele>94.6</ele>
        <time>2015-03-09T20:49:34.834Z</time>
      </trkpt>
      <trkpt lat="48.84224" lon="2.38144">
        <ele>94.3</ele>
        <time>2015-03-09T20:49:35.229Z</time>
      </trkpt>
      <trkpt lat="48.8423" lon="2.38141">
        <ele>94.2</ele>
        <time>2015-03-09T20:49:37.291Z</time>
      </trkpt>
      <trkpt lat="48.84233" lon="2.38138">
        <ele>94.2</ele>
        <time>2015-03-09T20:49:38.315Z</time>
      </trkpt>
      <trkpt lat="48.84239" lon="2.38132">
        <ele>94.3</ele>
        <time>2015-03-09T20:49:40.282Z</time>
      </trkpt>
      <trkpt lat="48.84242" lon="2.38129">
        <ele>94.4</ele>
        <time>2015-03-09T20:49:41.286Z</time>
      </trkpt>
      <trkpt lat="48.84247" lon="2.38125">
        <ele>94.2</ele>
        <time>2015-03-09T20:49:43.314Z</time>
      </trkpt>
      <trkpt lat="48.8425" lon="2.38123">
        <ele>94.1</ele>
        <time>2015-03-09T20:49:44.289Z</time>
      </trkpt>
      <trkpt lat="48.84257" lon="2.38117">
        <ele>94.7</ele>
        <time>2015-03-09T20:49:47.305Z</time>
      </trkpt>
      <trkpt lat="48.84259" lon="2.38114">
        <ele>94.9</ele>
        <time>2015-03-09T20:49:48.344Z</time>
      </trkpt>
      <trkpt lat="48.84264" lon="2.38109">
        <ele>95.1</ele>
        <time>2015-03-09T20:49:50.285Z</time>
      </trkpt>
      <trkpt lat="48.84267" lon="2.38106">
        <ele>95.1</ele>
        <time>2015-03-09T20:49:51.292Z</time>
      </trkpt>
      <trkpt lat="48.84273" lon="2.38102">
        <ele>95.2</ele>
        <time>2015-03-09T20:49:53.231Z</time>
      </trkpt>
      <trkpt lat="48.84276" lon="2.381">
        <ele>95.3</ele>
        <time>2015-03-09T20:49:54.285Z</time>
      </trkpt>
      <trkpt lat="48.84281" lon="2.38093">
        <ele>95.4</ele>
        <time>2015-03-09T20:49:56.318Z</time>
      </trkpt>
      <trkpt lat="48.84283" lon="2.38089">
        <ele>95.8</ele>
        <time>2015-03-09T20:49:57.203Z</time>
      </trkpt>
      <trkpt lat="48.84289" lon="2.38082">
        <ele>96.2</ele>
        <time>2015-03-09T20:49:59.716Z</time>
      </trkpt>
      <trkpt lat="48.84291" lon="2.38078">
        <ele>96.3</ele>
        <time>2015-03-09T20:50:00.252Z</time>
      </trkpt>
      <trkpt lat="48.84296" lon="2.38071">
        <ele>97</ele>
        <time>2015-03-09T20:50:02.277Z</time>
      </trkpt>
      <trkpt lat="48.84299" lon="2.38068">
        <ele>97.2</ele>
        <time>2015-03-09T20:50:03.274Z</time>
      </trkpt>
      <trkpt lat="48.84303" lon="2.38062">
        <ele>97.6</ele>
        <time>2015-03-09T20:50:05.314Z</time>
      </trkpt>
      <trkpt lat="48.84306" lon="2.3806">
        <ele>97.7</ele>
        <time>2015-03-09T20:50:06.290Z</time>
      </trkpt>
      <trkpt lat="48.84312" lon="2.38051">
        <ele>97.3</ele>
        <time>2015-03-09T20:50:10.247Z</time>
      </trkpt>
      <trkpt lat="48.84314" lon="2.38048">
        <ele>97.4</ele>
        <time>2015-03-09T20:50:11.256Z</time>
      </trkpt>
      <trkpt lat="48.84321" lon="2.38043">
        <ele>97.6</ele>
        <time>2015-03-09T20:50:15.263Z</time>
      </trkpt>
      <trkpt lat="48.84323" lon="2.38042">
        <ele>97.7</ele>
        <time>2015-03-09T20:50:16.263Z</time>
      </trkpt>
      <trkpt lat="48.8433" lon="2.38041">
        <ele>97.9</ele>
        <time>2015-03-09T20:50:25.094Z</time>
      </trkpt>
      <trkpt lat="48.84337" lon="2.38036">
        <ele>97.8</ele>
        <time>2015-03-09T20:50:25.318Z</time>
      </trkpt>
      <trkpt lat="48.8434" lon="2.38031">
        <ele>97.8</ele>
        <time>2015-03-09T20:51:11.258Z</time>
      </trkpt>
      <trkpt lat="48.84351" lon="2.37993">
        <ele>93.6</ele>
        <time>2015-03-09T20:51:12.277Z</time>
      </trkpt>
      <trkpt lat="48.84345" lon="2.37986">
        <ele>92.5</ele>
        <time>2015-03-09T20:51:15.283Z</time>
      </trkpt>
      <trkpt lat="48.84343" lon="2.37985">
        <ele>92.6</ele>
        <time>2015-03-09T20:51:16.303Z</time>
      </trkpt>
      <trkpt lat="48.84341" lon="2.37974">
        <ele>92.7</ele>
        <time>2015-03-09T20:51:20.074Z</time>
      </trkpt>
      <trkpt lat="48.84338" lon="2.37971">
        <ele>93.3</ele>
        <time>2015-03-09T20:51:20.201Z</time>
      </trkpt>
      <trkpt lat="48.84332" lon="2.37962">
        <ele>94.6</ele>
        <time>2015-03-09T20:51:22.354Z</time>
      </trkpt>
      <trkpt lat="48.8433" lon="2.37959">
        <ele>95.4</ele>
        <time>2015-03-09T20:51:23.316Z</time>
      </trkpt>
      <trkpt lat="48.84327" lon="2.3795">
        <ele>95.6</ele>
        <time>2015-03-09T20:51:26.316Z</time>
      </trkpt>
      <trkpt lat="48.84328" lon="2.37945">
        <ele>95.6</ele>
        <time>2015-03-09T20:51:27.283Z</time>
      </trkpt>
      <trkpt lat="48.84326" lon="2.37934">
        <ele>94.6</ele>
        <time>2015-03-09T20:51:30.221Z</time>
      </trkpt>
      <trkpt lat="48.84325" lon="2.37927">
        <ele>93.9</ele>
        <time>2015-03-09T20:51:30.314Z</time>
      </trkpt>
      <trkpt lat="48.84325" lon="2.37916">
        <ele>92.9</ele>
        <time>2015-03-09T20:51:32.359Z</time>
      </trkpt>
      <trkpt lat="48.84322" lon="2.37911">
        <ele>92.6</ele>
        <time>2015-03-09T20:51:33.281Z</time>
      </trkpt>
      <trkpt lat="48.84319" lon="2.37903">
        <ele>92.9</ele>
        <time>2015-03-09T20:51:35.289Z</time>
      </trkpt>
      <trkpt lat="48.84318" lon="2.37899">
        <ele>92.8</ele>
        <time>2015-03-09T20:51:36.262Z</time>
      </trkpt>
      <trkpt lat="48.8432" lon="2.37888">
        <ele>93.4</ele>
        <time>2015-03-09T20:51:39.304Z</time>
      </trkpt>
      <trkpt lat="48.84322" lon="2.37886">
        <ele>93.1</ele>
        <time>2015-03-09T20:51:40.320Z</time>
      </trkpt>
      <trkpt lat="48.84328" lon="2.37877">
        <ele>93.3</ele>
        <time>2015-03-09T20:51:43.365Z</time>
      </trkpt>
      <trkpt lat="48.8433" lon="2.37875">
        <ele>93.5</ele>
        <time>2015-03-09T20:51:44.282Z</time>
      </trkpt>
      <trkpt lat="48.84335" lon="2.37865">
        <ele>94.4</ele>
        <time>2015-03-09T20:51:47.337Z</time>
      </trkpt>
      <trkpt lat="48.84336" lon="2.37862">
        <ele>94.7</ele>
        <time>2015-03-09T20:51:48.348Z</time>
      </trkpt>
      <trkpt lat="48.84341" lon="2.37851">
        <ele>96</ele>
        <time>2015-03-09T20:51:51.282Z</time>
      </trkpt>
      <trkpt lat="48.84342" lon="2.37847">
        <ele>96.4</ele>
        <time>2015-03-09T20:51:52.283Z</time>
      </trkpt>
      <trkpt lat="48.84343" lon="2.37836">
        <ele>97.5</ele>
        <time>2015-03-09T20:51:55.330Z</time>
      </trkpt>
      <trkpt lat="48.84344" lon="2.37832">
        <ele>97.7</ele>
        <time>2015-03-09T20:51:56.233Z</time>
      </trkpt>
      <trkpt lat="48.8435" lon="2.37821">
        <ele>98.5</ele>
        <time>2015-03-09T20:51:59.391Z</time>
      </trkpt>
      <trkpt lat="48.84352" lon="2.37818">
        <ele>98.8</ele>
        <time>2015-03-09T20:52:00.282Z</time>
      </trkpt>
      <trkpt lat="48.84356" lon="2.37806">
        <ele>99.3</ele>
        <time>2015-03-09T20:52:03.254Z</time>
      </trkpt>
      <trkpt lat="48.84357" lon="2.37802">
        <ele>99.5</ele>
        <time>2015-03-09T20:52:04.230Z</time>
      </trkpt>
      <trkpt lat="48.84359" lon="2.3779">
        <ele>99.9</ele>
        <time>2015-03-09T20:52:06.279Z</time>
      </trkpt>
      <trkpt lat="48.84359" lon="2.37784">
        <ele>100.1</ele>
        <time>2015-03-09T20:52:07.294Z</time>
      </trkpt>
      <trkpt lat="48.84358" lon="2.37772">
        <ele>100.5</ele>
        <time>2015-03-09T20:52:09.652Z</time>
      </trkpt>
      <trkpt lat="48.8436" lon="2.37767">
        <ele>100.6</ele>
        <time>2015-03-09T20:52:10.302Z</time>
      </trkpt>
      <trkpt lat="48.84364" lon="2.37759">
        <ele>100.5</ele>
        <time>2015-03-09T20:52:12.271Z</time>
      </trkpt>
      <trkpt lat="48.84367" lon="2.37755">
        <ele>100.5</ele>
        <time>2015-03-09T20:52:13.291Z</time>
      </trkpt>
      <trkpt lat="48.84371" lon="2.37746">
        <ele>100.3</ele>
        <time>2015-03-09T20:52:15.191Z</time>
      </trkpt>
      <trkpt lat="48.84374" lon="2.37742">
        <ele>100.3</ele>
        <time>2015-03-09T20:52:16.252Z</time>
      </trkpt>
      <trkpt lat="48.84378" lon="2.37738">
        <ele>100.3</ele>
        <time>2015-03-09T20:52:17.259Z</time>
      </trkpt>
      <trkpt lat="48.84382" lon="2.37733">
        <ele>100.3</ele>
        <time>2015-03-09T20:52:18.277Z</time>
      </trkpt>
      <trkpt lat="48.84387" lon="2.37723">
        <ele>100.3</ele>
        <time>2015-03-09T20:52:20.258Z</time>
      </trkpt>
      <trkpt lat="48.84389" lon="2.37717">
        <ele>100.4</ele>
        <time>2015-03-09T20:52:21.302Z</time>
      </trkpt>
      <trkpt lat="48.84394" lon="2.37708">
        <ele>100.3</ele>
        <time>2015-03-09T20:52:23.254Z</time>
      </trkpt>
      <trkpt lat="48.84397" lon="2.37705">
        <ele>100.3</ele>
        <time>2015-03-09T20:52:24.232Z</time>
      </trkpt>
      <trkpt lat="48.84397" lon="2.37705">
        <ele>100.3</ele>
        <time>2015-03-09T20:52:24.711Z</time>
      </trkpt>
      <trkpt lat="48.84405" lon="2.37698">
        <ele>99.9</ele>
        <time>2015-03-09T20:52:27.384Z</time>
      </trkpt>
      <trkpt lat="48.84409" lon="2.37688">
        <ele>99.8</ele>
        <time>2015-03-09T20:52:30.298Z</time>
      </trkpt>
      <trkpt lat="48.84411" lon="2.37684">
        <ele>99.7</ele>
        <time>2015-03-09T20:52:31.352Z</time>
      </trkpt>
      <trkpt lat="48.84417" lon="2.37678">
        <ele>99.7</ele>
        <time>2015-03-09T20:52:33.196Z</time>
      </trkpt>
      <trkpt lat="48.84424" lon="2.37672">
        <ele>99.7</ele>
        <time>2015-03-09T20:52:35.179Z</time>
      </trkpt>
      <trkpt lat="48.84431" lon="2.37667">
        <ele>99.7</ele>
        <time>2015-03-09T20:52:37.220Z</time>
      </trkpt>
      <trkpt lat="48.84432" lon="2.37665">
        <ele>99.5</ele>
        <time>2015-03-09T20:52:38.221Z</time>
      </trkpt>
      <trkpt lat="48.84462" lon="2.37659">
        <ele>94</ele>
        <time>2015-03-09T20:52:49.331Z</time>
      </trkpt>
      <trkpt lat="48.84464" lon="2.37659">
        <ele>93.6</ele>
        <time>2015-03-09T20:53:38.239Z</time>
      </trkpt>
      <trkpt lat="48.84494" lon="2.3767">
        <ele>109.8</ele>
        <time>2015-03-09T20:53:39.250Z</time>
      </trkpt>
      <trkpt lat="48.84495" lon="2.37683">
        <ele>123.6</ele>
        <time>2015-03-09T20:54:21.184Z</time>
      </trkpt>
      <trkpt lat="48.84494" lon="2.37687">
        <ele>124.3</ele>
        <time>2015-03-09T20:54:22.198Z</time>
      </trkpt>
      <trkpt lat="48.84491" lon="2.37695">
        <ele>124.8</ele>
        <time>2015-03-09T20:54:24.239Z</time>
      </trkpt>
      <trkpt lat="48.84489" lon="2.37699">
        <ele>124.8</ele>
        <time>2015-03-09T20:54:25.238Z</time>
      </trkpt>
      <trkpt lat="48.84485" lon="2.37702">
        <ele>124.6</ele>
        <time>2015-03-09T20:54:26.282Z</time>
      </trkpt>
      <trkpt lat="48.8448" lon="2.37706">
        <ele>124.5</ele>
        <time>2015-03-09T20:54:27.285Z</time>
      </trkpt>
      <trkpt lat="48.84474" lon="2.37709">
        <ele>124.5</ele>
        <time>2015-03-09T20:54:28.298Z</time>
      </trkpt>
      <trkpt lat="48.8447" lon="2.37712">
        <ele>124.8</ele>
        <time>2015-03-09T20:54:29.219Z</time>
      </trkpt>
      <trkpt lat="48.84464" lon="2.37719">
        <ele>125.4</ele>
        <time>2015-03-09T20:54:31.285Z</time>
      </trkpt>
      <trkpt lat="48.84463" lon="2.37723">
        <ele>125.6</ele>
        <time>2015-03-09T20:54:32.293Z</time>
      </trkpt>
      <trkpt lat="48.84462" lon="2.37727">
        <ele>125.8</ele>
        <time>2015-03-09T20:54:37.249Z</time>
      </trkpt>
      <trkpt lat="48.84455" lon="2.37738">
        <ele>123</ele>
        <time>2015-03-09T20:54:38.261Z</time>
      </trkpt>
      <trkpt lat="48.84449" lon="2.37748">
        <ele>121.4</ele>
        <time>2015-03-09T20:54:41.186Z</time>
      </trkpt>
      <trkpt lat="48.84447" lon="2.37751">
        <ele>121</ele>
        <time>2015-03-09T20:54:42.202Z</time>
      </trkpt>
      <trkpt lat="48.84447" lon="2.37763">
        <ele>120.4</ele>
        <time>2015-03-09T20:54:46.219Z</time>
      </trkpt>
      <trkpt lat="48.84446" lon="2.37768">
        <ele>119.5</ele>
        <time>2015-03-09T20:54:47.258Z</time>
      </trkpt>
      <trkpt lat="48.84446" lon="2.37776">
        <ele>117.9</ele>
        <time>2015-03-09T20:54:49.214Z</time>
      </trkpt>
      <trkpt lat="48.84445" lon="2.37782">
        <ele>117.2</ele>
        <time>2015-03-09T20:54:50.221Z</time>
      </trkpt>
      <trkpt lat="48.84443" lon="2.37787">
        <ele>116.4</ele>
        <time>2015-03-09T20:54:51.260Z</time>
      </trkpt>
      <trkpt lat="48.84439" lon="2.37794">
        <ele>115</ele>
        <time>2015-03-09T20:54:52.266Z</time>
      </trkpt>
      <trkpt lat="48.84434" lon="2.37799">
        <ele>114.5</ele>
        <time>2015-03-09T20:54:53.286Z</time>
      </trkpt>
      <trkpt lat="48.84429" lon="2.37803">
        <ele>113.7</ele>
        <time>2015-03-09T20:54:54.209Z</time>
      </trkpt>
      <trkpt lat="48.84422" lon="2.37807">
        <ele>112.8</ele>
        <time>2015-03-09T20:54:55.215Z</time>
      </trkpt>
      <trkpt lat="48.84412" lon="2.37809">
        <ele>112.2</ele>
        <time>2015-03-09T20:54:56.251Z</time>
      </trkpt>
      <trkpt lat="48.84404" lon="2.37812">
        <ele>111.6</ele>
        <time>2015-03-09T20:54:57.271Z</time>
      </trkpt>
      <trkpt lat="48.84398" lon="2.37816">
        <ele>111</ele>
        <time>2015-03-09T20:54:58.275Z</time>
      </trkpt>
      <trkpt lat="48.84394" lon="2.37827">
        <ele>109.6</ele>
        <time>2015-03-09T20:55:00.199Z</time>
      </trkpt>
      <trkpt lat="48.84392" lon="2.37831">
        <ele>109.4</ele>
        <time>2015-03-09T20:55:01.217Z</time>
      </trkpt>
      <trkpt lat="48.84388" lon="2.37843">
        <ele>108.9</ele>
        <time>2015-03-09T20:55:04.225Z</time>
      </trkpt>
      <trkpt lat="48.84389" lon="2.3785">
        <ele>108.4</ele>
        <time>2015-03-09T20:55:05.302Z</time>
      </trkpt>
      <trkpt lat="48.84398" lon="2.3786">
        <ele>107.1</ele>
        <time>2015-03-09T20:55:06.226Z</time>
      </trkpt>
      <trkpt lat="48.84402" lon="2.37869">
        <ele>105.9</ele>
        <time>2015-03-09T20:55:07.225Z</time>
      </trkpt>
      <trkpt lat="48.84405" lon="2.37878">
        <ele>105.6</ele>
        <time>2015-03-09T20:55:08.237Z</time>
      </trkpt>
      <trkpt lat="48.84407" lon="2.37885">
        <ele>105.2</ele>
        <time>2015-03-09T20:55:09.251Z</time>
      </trkpt>
      <trkpt lat="48.84404" lon="2.37892">
        <ele>105</ele>
        <time>2015-03-09T20:55:10.256Z</time>
      </trkpt>
      <trkpt lat="48.84401" lon="2.37898">
        <ele>104.8</ele>
        <time>2015-03-09T20:55:11.277Z</time>
      </trkpt>
      <trkpt lat="48.84398" lon="2.37904">
        <ele>104.8</ele>
        <time>2015-03-09T20:55:12.288Z</time>
      </trkpt>
      <trkpt lat="48.84395" lon="2.37909">
        <ele>105.3</ele>
        <time>2015-03-09T20:55:13.426Z</time>
      </trkpt>
      <trkpt lat="48.84391" lon="2.37914">
        <ele>106.2</ele>
        <time>2015-03-09T20:55:14.225Z</time>
      </trkpt>
      <trkpt lat="48.84385" lon="2.37918">
        <ele>108</ele>
        <time>2015-03-09T20:55:15.216Z</time>
      </trkpt>
      <trkpt lat="48.84379" lon="2.37923">
        <ele>109.7</ele>
        <time>2015-03-09T20:55:16.211Z</time>
      </trkpt>
      <trkpt lat="48.84375" lon="2.37931">
        <ele>110.7</ele>
        <time>2015-03-09T20:55:18.577Z</time>
      </trkpt>
      <trkpt lat="48.84372" lon="2.37935">
        <ele>111.6</ele>
        <time>2015-03-09T20:55:19.286Z</time>
      </trkpt>
      <trkpt lat="48.84371" lon="2.37947">
        <ele>111.9</ele>
        <time>2015-03-09T20:55:21.217Z</time>
      </trkpt>
      <trkpt lat="48.84369" lon="2.37953">
        <ele>111.6</ele>
        <time>2015-03-09T20:55:22.252Z</time>
      </trkpt>
      <trkpt lat="48.84367" lon="2.37961">
        <ele>110.9</ele>
        <time>2015-03-09T20:55:23.268Z</time>
      </trkpt>
      <trkpt lat="48.84367" lon="2.37968">
        <ele>109.5</ele>
        <time>2015-03-09T20:55:24.280Z</time>
      </trkpt>
      <trkpt lat="48.84365" lon="2.37974">
        <ele>108.8</ele>
        <time>2015-03-09T20:55:25.284Z</time>
      </trkpt>
      <trkpt lat="48.84363" lon="2.3798">
        <ele>108</ele>
        <time>2015-03-09T20:55:26.293Z</time>
      </trkpt>
      <trkpt lat="48.84361" lon="2.3799">
        <ele>106.8</ele>
        <time>2015-03-09T20:55:28.213Z</time>
      </trkpt>
      <trkpt lat="48.84361" lon="2.37994">
        <ele>106.6</ele>
        <time>2015-03-09T20:55:29.228Z</time>
      </trkpt>
      <trkpt lat="48.84363" lon="2.38005">
        <ele>106.4</ele>
        <time>2015-03-09T20:55:33.209Z</time>
      </trkpt>
      <trkpt lat="48.84363" lon="2.38008">
        <ele>106.2</ele>
        <time>2015-03-09T20:55:34.212Z</time>
      </trkpt>
      <trkpt lat="48.84365" lon="2.38019">
        <ele>106.2</ele>
        <time>2015-03-09T20:55:37.253Z</time>
      </trkpt>
      <trkpt lat="48.84365" lon="2.38024">
        <ele>106</ele>
        <time>2015-03-09T20:55:38.258Z</time>
      </trkpt>
      <trkpt lat="48.84366" lon="2.38033">
        <ele>105.3</ele>
        <time>2015-03-09T20:55:40.219Z</time>
      </trkpt>
      <trkpt lat="48.84369" lon="2.38037">
        <ele>105</ele>
        <time>2015-03-09T20:55:41.224Z</time>
      </trkpt>
      <trkpt lat="48.84372" lon="2.38047">
        <ele>104.5</ele>
        <time>2015-03-09T20:55:43.247Z</time>
      </trkpt>
      <trkpt lat="48.84374" lon="2.38052">
        <ele>104.2</ele>
        <time>2015-03-09T20:55:44.257Z</time>
      </trkpt>
      <trkpt lat="48.84378" lon="2.3806">
        <ele>103.8</ele>
        <time>2015-03-09T20:55:46.294Z</time>
      </trkpt>
      <trkpt lat="48.84379" lon="2.38064">
        <ele>103.6</ele>
        <time>2015-03-09T20:55:47.307Z</time>
      </trkpt>
      <trkpt lat="48.84381" lon="2.3807">
        <ele>103.6</ele>
        <time>2015-03-09T20:55:48.233Z</time>
      </trkpt>
      <trkpt lat="48.84383" lon="2.38079">
        <ele>103.2</ele>
        <time>2015-03-09T20:55:49.232Z</time>
      </trkpt>
      <trkpt lat="48.84385" lon="2.38088">
        <ele>102.4</ele>
        <time>2015-03-09T20:55:50.238Z</time>
      </trkpt>
      <trkpt lat="48.84391" lon="2.38097">
        <ele>100.4</ele>
        <time>2015-03-09T20:55:51.239Z</time>
      </trkpt>
      <trkpt lat="48.84398" lon="2.38104">
        <ele>98.6</ele>
        <time>2015-03-09T20:55:52.254Z</time>
      </trkpt>
      <trkpt lat="48.84404" lon="2.38111">
        <ele>96.7</ele>
        <time>2015-03-09T20:55:53.281Z</time>
      </trkpt>
      <trkpt lat="48.8441" lon="2.38117">
        <ele>95.9</ele>
        <time>2015-03-09T20:55:54.267Z</time>
      </trkpt>
      <trkpt lat="48.84414" lon="2.38125">
        <ele>94.5</ele>
        <time>2015-03-09T20:55:55.280Z</time>
      </trkpt>
      <trkpt lat="48.84415" lon="2.38132">
        <ele>94.3</ele>
        <time>2015-03-09T20:55:56.205Z</time>
      </trkpt>
      <trkpt lat="48.84415" lon="2.3814">
        <ele>94.5</ele>
        <time>2015-03-09T20:55:57.205Z</time>
      </trkpt>
      <trkpt lat="48.84416" lon="2.38153">
        <ele>94.4</ele>
        <time>2015-03-09T20:55:59.231Z</time>
      </trkpt>
      <trkpt lat="48.84416" lon="2.38157">
        <ele>94</ele>
        <time>2015-03-09T20:56:00.235Z</time>
      </trkpt>
      <trkpt lat="48.84412" lon="2.38169">
        <ele>94.8</ele>
        <time>2015-03-09T20:56:03.307Z</time>
      </trkpt>
      <trkpt lat="48.8441" lon="2.38173">
        <ele>94.9</ele>
        <time>2015-03-09T20:56:04.214Z</time>
      </trkpt>
      <trkpt lat="48.84404" lon="2.3818">
        <ele>94.8</ele>
        <time>2015-03-09T20:56:06.229Z</time>
      </trkpt>
      <trkpt lat="48.84401" lon="2.38183">
        <ele>94.8</ele>
        <time>2015-03-09T20:56:07.238Z</time>
      </trkpt>
      <trkpt lat="48.84393" lon="2.38187">
        <ele>94.5</ele>
        <time>2015-03-09T20:56:09.249Z</time>
      </trkpt>
      <trkpt lat="48.84389" lon="2.38188">
        <ele>94.5</ele>
        <time>2015-03-09T20:56:10.258Z</time>
      </trkpt>
      <trkpt lat="48.84382" lon="2.38192">
        <ele>94.6</ele>
        <time>2015-03-09T20:56:12.289Z</time>
      </trkpt>
      <trkpt lat="48.84379" lon="2.38194">
        <ele>94.6</ele>
        <time>2015-03-09T20:56:13.295Z</time>
      </trkpt>
      <trkpt lat="48.84373" lon="2.38202">
        <ele>94.5</ele>
        <time>2015-03-09T20:56:16.215Z</time>
      </trkpt>
      <trkpt lat="48.8437" lon="2.38205">
        <ele>94.5</ele>
        <time>2015-03-09T20:56:17.231Z</time>
      </trkpt>
      <trkpt lat="48.84366" lon="2.3821">
        <ele>94.4</ele>
        <time>2015-03-09T20:56:18.248Z</time>
      </trkpt>
      <trkpt lat="48.84362" lon="2.38216">
        <ele>93.9</ele>
        <time>2015-03-09T20:56:19.329Z</time>
      </trkpt>
      <trkpt lat="48.84357" lon="2.38225">
        <ele>93.6</ele>
        <time>2015-03-09T20:56:21.201Z</time>
      </trkpt>
      <trkpt lat="48.84354" lon="2.38232">
        <ele>93.7</ele>
        <time>2015-03-09T20:56:22.218Z</time>
      </trkpt>
      <trkpt lat="48.84351" lon="2.38239">
        <ele>93.9</ele>
        <time>2015-03-09T20:56:23.291Z</time>
      </trkpt>
      <trkpt lat="48.84347" lon="2.38244">
        <ele>93.9</ele>
        <time>2015-03-09T20:56:24.296Z</time>
      </trkpt>
      <trkpt lat="48.84343" lon="2.38248">
        <ele>93.9</ele>
        <time>2015-03-09T20:56:25.304Z</time>
      </trkpt>
      <trkpt lat="48.84339" lon="2.38254">
        <ele>94</ele>
        <time>2015-03-09T20:56:26.191Z</time>
      </trkpt>
      <trkpt lat="48.84334" lon="2.38259">
        <ele>94.1</ele>
        <time>2015-03-09T20:56:27.210Z</time>
      </trkpt>
      <trkpt lat="48.8433" lon="2.38262">
        <ele>94.1</ele>
        <time>2015-03-09T20:56:28.214Z</time>
      </trkpt>
      <trkpt lat="48.84327" lon="2.38268">
        <ele>94.3</ele>
        <time>2015-03-09T20:56:29.217Z</time>
      </trkpt>
      <trkpt lat="48.84323" lon="2.38273">
        <ele>94.5</ele>
        <time>2015-03-09T20:56:30.230Z</time>
      </trkpt>
      <trkpt lat="48.84318" lon="2.38283">
        <ele>94.7</ele>
        <time>2015-03-09T20:56:32.252Z</time>
      </trkpt>
      <trkpt lat="48.84315" lon="2.38289">
        <ele>94.7</ele>
        <time>2015-03-09T20:56:33.299Z</time>
      </trkpt>
      <trkpt lat="48.84312" lon="2.38294">
        <ele>94.6</ele>
        <time>2015-03-09T20:56:34.233Z</time>
      </trkpt>
      <trkpt lat="48.84309" lon="2.383">
        <ele>94.6</ele>
        <time>2015-03-09T20:56:35.243Z</time>
      </trkpt>
      <trkpt lat="48.84306" lon="2.38308">
        <ele>94.8</ele>
        <time>2015-03-09T20:56:36.260Z</time>
      </trkpt>
      <trkpt lat="48.84304" lon="2.38314">
        <ele>94.5</ele>
        <time>2015-03-09T20:56:37.332Z</time>
      </trkpt>
      <trkpt lat="48.84301" lon="2.38321">
        <ele>94.6</ele>
        <time>2015-03-09T20:56:38.279Z</time>
      </trkpt>
      <trkpt lat="48.84299" lon="2.38328">
        <ele>94.4</ele>
        <time>2015-03-09T20:56:39.284Z</time>
      </trkpt>
      <trkpt lat="48.84294" lon="2.38337">
        <ele>94.6</ele>
        <time>2015-03-09T20:56:41.194Z</time>
      </trkpt>
      <trkpt lat="48.8429" lon="2.38341">
        <ele>94.9</ele>
        <time>2015-03-09T20:56:42.222Z</time>
      </trkpt>
      <trkpt lat="48.84287" lon="2.38347">
        <ele>95</ele>
        <time>2015-03-09T20:56:43.269Z</time>
      </trkpt>
      <trkpt lat="48.84283" lon="2.38353">
        <ele>94.9</ele>
        <time>2015-03-09T20:56:44.281Z</time>
      </trkpt>
      <trkpt lat="48.84278" lon="2.38359">
        <ele>95.2</ele>
        <time>2015-03-09T20:56:45.196Z</time>
      </trkpt>
      <trkpt lat="48.84273" lon="2.38365">
        <ele>95.5</ele>
        <time>2015-03-09T20:56:46.190Z</time>
      </trkpt>
      <trkpt lat="48.8427" lon="2.38373">
        <ele>95.9</ele>
        <time>2015-03-09T20:56:47.203Z</time>
      </trkpt>
      <trkpt lat="48.84268" lon="2.3838">
        <ele>96.1</ele>
        <time>2015-03-09T20:56:48.209Z</time>
      </trkpt>
      <trkpt lat="48.84273" lon="2.38389">
        <ele>96.9</ele>
        <time>2015-03-09T20:56:49.218Z</time>
      </trkpt>
      <trkpt lat="48.84271" lon="2.38397">
        <ele>96.9</ele>
        <time>2015-03-09T20:56:50.222Z</time>
      </trkpt>
      <trkpt lat="48.84265" lon="2.38402">
        <ele>96.4</ele>
        <time>2015-03-09T20:56:51.229Z</time>
      </trkpt>
      <trkpt lat="48.8426" lon="2.38408">
        <ele>96.5</ele>
        <time>2015-03-09T20:56:52.266Z</time>
      </trkpt>
      <trkpt lat="48.84256" lon="2.38414">
        <ele>96.6</ele>
        <time>2015-03-09T20:56:53.286Z</time>
      </trkpt>
      <trkpt lat="48.84253" lon="2.38421">
        <ele>96.9</ele>
        <time>2015-03-09T20:56:54.299Z</time>
      </trkpt>
      <trkpt lat="48.8425" lon="2.38428">
        <ele>97.4</ele>
        <time>2015-03-09T20:56:55.312Z</time>
      </trkpt>
      <trkpt lat="48.84246" lon="2.38436">
        <ele>98.3</ele>
        <time>2015-03-09T20:56:56.201Z</time>
      </trkpt>
      <trkpt lat="48.84242" lon="2.38443">
        <ele>98.9</ele>
        <time>2015-03-09T20:56:57.214Z</time>
      </trkpt>
      <trkpt lat="48.84235" lon="2.38451">
        <ele>100.3</ele>
        <time>2015-03-09T20:56:58.250Z</time>
      </trkpt>
      <trkpt lat="48.84228" lon="2.38459">
        <ele>101.6</ele>
        <time>2015-03-09T20:56:59.206Z</time>
      </trkpt>
      <trkpt lat="48.84223" lon="2.38466">
        <ele>102.3</ele>
        <time>2015-03-09T20:57:00.220Z</time>
      </trkpt>
      <trkpt lat="48.8422" lon="2.38472">
        <ele>102.8</ele>
        <time>2015-03-09T20:57:01.240Z</time>
      </trkpt>
      <trkpt lat="48.84217" lon="2.38479">
        <ele>103.7</ele>
        <time>2015-03-09T20:57:02.212Z</time>
      </trkpt>
      <trkpt lat="48.84215" lon="2.38488">
        <ele>104.7</ele>
        <time>2015-03-09T20:57:03.216Z</time>
      </trkpt>
      <trkpt lat="48.84212" lon="2.38497">
        <ele>105.7</ele>
        <time>2015-03-09T20:57:04.258Z</time>
      </trkpt>
      <trkpt lat="48.84207" lon="2.38505">
        <ele>106.3</ele>
        <time>2015-03-09T20:57:05.211Z</time>
      </trkpt>
      <trkpt lat="48.84202" lon="2.38511">
        <ele>106.2</ele>
        <time>2015-03-09T20:57:06.238Z</time>
      </trkpt>
      <trkpt lat="48.84196" lon="2.38518">
        <ele>106.2</ele>
        <time>2015-03-09T20:57:07.256Z</time>
      </trkpt>
      <trkpt lat="48.84188" lon="2.38525">
        <ele>106.3</ele>
        <time>2015-03-09T20:57:08.268Z</time>
      </trkpt>
      <trkpt lat="48.84181" lon="2.38529">
        <ele>106.2</ele>
        <time>2015-03-09T20:57:09.364Z</time>
      </trkpt>
      <trkpt lat="48.84173" lon="2.38534">
        <ele>106</ele>
        <time>2015-03-09T20:57:10.202Z</time>
      </trkpt>
      <trkpt lat="48.84165" lon="2.38539">
        <ele>106</ele>
        <time>2015-03-09T20:57:11.201Z</time>
      </trkpt>
      <trkpt lat="48.84158" lon="2.38546">
        <ele>106.2</ele>
        <time>2015-03-09T20:57:12.208Z</time>
      </trkpt>
      <trkpt lat="48.84151" lon="2.38553">
        <ele>106.3</ele>
        <time>2015-03-09T20:57:13.271Z</time>
      </trkpt>
      <trkpt lat="48.84144" lon="2.38559">
        <ele>106.2</ele>
        <time>2015-03-09T20:57:14.194Z</time>
      </trkpt>
      <trkpt lat="48.84137" lon="2.38564">
        <ele>106.4</ele>
        <time>2015-03-09T20:57:15.203Z</time>
      </trkpt>
      <trkpt lat="48.84131" lon="2.38572">
        <ele>106.8</ele>
        <time>2015-03-09T20:57:16.202Z</time>
      </trkpt>
      <trkpt lat="48.84124" lon="2.38579">
        <ele>107.6</ele>
        <time>2015-03-09T20:57:17.204Z</time>
      </trkpt>
      <trkpt lat="48.84116" lon="2.38582">
        <ele>108.5</ele>
        <time>2015-03-09T20:57:18.228Z</time>
      </trkpt>
      <trkpt lat="48.84108" lon="2.38587">
        <ele>108.8</ele>
        <time>2015-03-09T20:57:19.230Z</time>
      </trkpt>
      <trkpt lat="48.84101" lon="2.38591">
        <ele>109.2</ele>
        <time>2015-03-09T20:57:20.289Z</time>
      </trkpt>
      <trkpt lat="48.84094" lon="2.38596">
        <ele>109.5</ele>
        <time>2015-03-09T20:57:21.194Z</time>
      </trkpt>
      <trkpt lat="48.84087" lon="2.38599">
        <ele>110</ele>
        <time>2015-03-09T20:57:22.190Z</time>
      </trkpt>
      <trkpt lat="48.84081" lon="2.38602">
        <ele>110.4</ele>
        <time>2015-03-09T20:57:23.277Z</time>
      </trkpt>
      <trkpt lat="48.84077" lon="2.3861">
        <ele>110.9</ele>
        <time>2015-03-09T20:57:24.286Z</time>
      </trkpt>
      <trkpt lat="48.84074" lon="2.38614">
        <ele>110.8</ele>
        <time>2015-03-09T20:57:25.273Z</time>
      </trkpt>
      <trkpt lat="48.84069" lon="2.38619">
        <ele>111.1</ele>
        <time>2015-03-09T20:57:26.293Z</time>
      </trkpt>
      <trkpt lat="48.84063" lon="2.38623">
        <ele>111.6</ele>
        <time>2015-03-09T20:57:27.197Z</time>
      </trkpt>
      <trkpt lat="48.84058" lon="2.38627">
        <ele>112</ele>
        <time>2015-03-09T20:57:28.208Z</time>
      </trkpt>
      <trkpt lat="48.84054" lon="2.38629">
        <ele>112.3</ele>
        <time>2015-03-09T20:57:29.229Z</time>
      </trkpt>
      <trkpt lat="48.84049" lon="2.38636">
        <ele>112.4</ele>
        <time>2015-03-09T20:57:30.233Z</time>
      </trkpt>
      <trkpt lat="48.84043" lon="2.38647">
        <ele>112.9</ele>
        <time>2015-03-09T20:57:31.248Z</time>
      </trkpt>
      <trkpt lat="48.84035" lon="2.38653">
        <ele>112.9</ele>
        <time>2015-03-09T20:57:32.254Z</time>
      </trkpt>
      <trkpt lat="48.84028" lon="2.38658">
        <ele>113.2</ele>
        <time>2015-03-09T20:57:33.278Z</time>
      </trkpt>
      <trkpt lat="48.84023" lon="2.38664">
        <ele>113.2</ele>
        <time>2015-03-09T20:57:34.207Z</time>
      </trkpt>
      <trkpt lat="48.84017" lon="2.3867">
        <ele>113.3</ele>
        <time>2015-03-09T20:57:35.235Z</time>
      </trkpt>
      <trkpt lat="48.84013" lon="2.38676">
        <ele>113.6</ele>
        <time>2015-03-09T20:57:36.241Z</time>
      </trkpt>
      <trkpt lat="48.84008" lon="2.3868">
        <ele>113.6</ele>
        <time>2015-03-09T20:57:37.260Z</time>
      </trkpt>
      <trkpt lat="48.84004" lon="2.38682">
        <ele>114.1</ele>
        <time>2015-03-09T20:57:38.263Z</time>
      </trkpt>
      <trkpt lat="48.84" lon="2.38687">
        <ele>114.9</ele>
        <time>2015-03-09T20:57:39.279Z</time>
      </trkpt>
      <trkpt lat="48.83996" lon="2.38692">
        <ele>115.7</ele>
        <time>2015-03-09T20:57:40.190Z</time>
      </trkpt>
      <trkpt lat="48.83989" lon="2.38697">
        <ele>116.9</ele>
        <time>2015-03-09T20:57:42.251Z</time>
      </trkpt>
      <trkpt lat="48.83984" lon="2.387">
        <ele>118.4</ele>
        <time>2015-03-09T20:57:43.259Z</time>
      </trkpt>
      <trkpt lat="48.83979" lon="2.38704">
        <ele>119.7</ele>
        <time>2015-03-09T20:57:44.200Z</time>
      </trkpt>
      <trkpt lat="48.83974" lon="2.38708">
        <ele>120.5</ele>
        <time>2015-03-09T20:57:45.207Z</time>
      </trkpt>
      <trkpt lat="48.83967" lon="2.38714">
        <ele>121.4</ele>
        <time>2015-03-09T20:57:47.228Z</time>
      </trkpt>
      <trkpt lat="48.83962" lon="2.38718">
        <ele>122.5</ele>
        <time>2015-03-09T20:57:48.240Z</time>
      </trkpt>
      <trkpt lat="48.83957" lon="2.3872">
        <ele>123.5</ele>
        <time>2015-03-09T20:57:49.291Z</time>
      </trkpt>
      <trkpt lat="48.83951" lon="2.38723">
        <ele>123.7</ele>
        <time>2015-03-09T20:57:50.289Z</time>
      </trkpt>
      <trkpt lat="48.83946" lon="2.38726">
        <ele>124.1</ele>
        <time>2015-03-09T20:57:51.289Z</time>
      </trkpt>
      <trkpt lat="48.83941" lon="2.38729">
        <ele>124.6</ele>
        <time>2015-03-09T20:57:52.202Z</time>
      </trkpt>
      <trkpt lat="48.83936" lon="2.38733">
        <ele>124.8</ele>
        <time>2015-03-09T20:57:53.209Z</time>
      </trkpt>
      <trkpt lat="48.83932" lon="2.38738">
        <ele>125.3</ele>
        <time>2015-03-09T20:57:54.233Z</time>
      </trkpt>
      <trkpt lat="48.83928" lon="2.38743">
        <ele>125.7</ele>
        <time>2015-03-09T20:57:55.246Z</time>
      </trkpt>
      <trkpt lat="48.83923" lon="2.38749">
        <ele>126.2</ele>
        <time>2015-03-09T20:57:56.258Z</time>
      </trkpt>
      <trkpt lat="48.83919" lon="2.38755">
        <ele>126.5</ele>
        <time>2015-03-09T20:57:57.260Z</time>
      </trkpt>
      <trkpt lat="48.83916" lon="2.3876">
        <ele>126.7</ele>
        <time>2015-03-09T20:57:58.265Z</time>
      </trkpt>
      <trkpt lat="48.83908" lon="2.38766">
        <ele>126.9</ele>
        <time>2015-03-09T20:58:01.240Z</time>
      </trkpt>
      <trkpt lat="48.83906" lon="2.38768">
        <ele>127.1</ele>
        <time>2015-03-09T20:58:02.249Z</time>
      </trkpt>
      <trkpt lat="48.83903" lon="2.38779">
        <ele>125.9</ele>
        <time>2015-03-09T20:58:05.215Z</time>
      </trkpt>
      <trkpt lat="48.83903" lon="2.38783">
        <ele>125.2</ele>
        <time>2015-03-09T20:58:06.231Z</time>
      </trkpt>
      <trkpt lat="48.83903" lon="2.38788">
        <ele>124.8</ele>
        <time>2015-03-09T20:58:11.213Z</time>
      </trkpt>
      <trkpt lat="48.839" lon="2.38808">
        <ele>122</ele>
        <time>2015-03-09T20:58:12.317Z</time>
      </trkpt>
      <trkpt lat="48.839" lon="2.38817">
        <ele>120</ele>
        <time>2015-03-09T20:58:57.196Z</time>
      </trkpt>
      <trkpt lat="48.83892" lon="2.38831">
        <ele>111.8</ele>
        <time>2015-03-09T20:58:58.263Z</time>
      </trkpt>
      <trkpt lat="48.83888" lon="2.38828">
        <ele>110.8</ele>
        <time>2015-03-09T20:59:28.210Z</time>
      </trkpt>
      <trkpt lat="48.83884" lon="2.38851">
        <ele>105.5</ele>
        <time>2015-03-09T20:59:29.235Z</time>
      </trkpt>
      <trkpt lat="48.83883" lon="2.38863">
        <ele>106.2</ele>
        <time>2015-03-09T20:59:33.227Z</time>
      </trkpt>
      <trkpt lat="48.83883" lon="2.38866">
        <ele>106.5</ele>
        <time>2015-03-09T20:59:34.255Z</time>
      </trkpt>
      <trkpt lat="48.83884" lon="2.38878">
        <ele>108.5</ele>
        <time>2015-03-09T20:59:37.235Z</time>
      </trkpt>
      <trkpt lat="48.83884" lon="2.38883">
        <ele>109</ele>
        <time>2015-03-09T20:59:38.234Z</time>
      </trkpt>
      <trkpt lat="48.83883" lon="2.38895">
        <ele>110.5</ele>
        <time>2015-03-09T20:59:40.331Z</time>
      </trkpt>
      <trkpt lat="48.83883" lon="2.38901">
        <ele>110.9</ele>
        <time>2015-03-09T20:59:41.186Z</time>
      </trkpt>
      <trkpt lat="48.83884" lon="2.38913">
        <ele>111.6</ele>
        <time>2015-03-09T20:59:43.247Z</time>
      </trkpt>
      <trkpt lat="48.83885" lon="2.38918">
        <ele>111.3</ele>
        <time>2015-03-09T20:59:44.255Z</time>
      </trkpt>
      <trkpt lat="48.8389" lon="2.38928">
        <ele>111.2</ele>
        <time>2015-03-09T20:59:47.240Z</time>
      </trkpt>
      <trkpt lat="48.83891" lon="2.38933">
        <ele>111.2</ele>
        <time>2015-03-09T20:59:48.315Z</time>
      </trkpt>
      <trkpt lat="48.83894" lon="2.38938">
        <ele>110.5</ele>
        <time>2015-03-09T20:59:49.378Z</time>
      </trkpt>
      <trkpt lat="48.83898" lon="2.38943">
        <ele>108.4</ele>
        <time>2015-03-09T20:59:50.218Z</time>
      </trkpt>
      <trkpt lat="48.83903" lon="2.38948">
        <ele>106.5</ele>
        <time>2015-03-09T20:59:51.235Z</time>
      </trkpt>
      <trkpt lat="48.83905" lon="2.38953">
        <ele>105.6</ele>
        <time>2015-03-09T20:59:52.243Z</time>
      </trkpt>
      <trkpt lat="48.83906" lon="2.38959">
        <ele>106.3</ele>
        <time>2015-03-09T20:59:53.271Z</time>
      </trkpt>
      <trkpt lat="48.83906" lon="2.38967">
        <ele>106.1</ele>
        <time>2015-03-09T20:59:54.281Z</time>
      </trkpt>
      <trkpt lat="48.83907" lon="2.38974">
        <ele>106.2</ele>
        <time>2015-03-09T20:59:55.316Z</time>
      </trkpt>
      <trkpt lat="48.83908" lon="2.38981">
        <ele>106.5</ele>
        <time>2015-03-09T20:59:56.230Z</time>
      </trkpt>
      <trkpt lat="48.83909" lon="2.38989">
        <ele>107</ele>
        <time>2015-03-09T20:59:57.243Z</time>
      </trkpt>
      <trkpt lat="48.8391" lon="2.38997">
        <ele>107.3</ele>
        <time>2015-03-09T20:59:58.261Z</time>
      </trkpt>
      <trkpt lat="48.83911" lon="2.39005">
        <ele>107.8</ele>
        <time>2015-03-09T20:59:59.278Z</time>
      </trkpt>
      <trkpt lat="48.83913" lon="2.39012">
        <ele>108.1</ele>
        <time>2015-03-09T21:00:00.283Z</time>
      </trkpt>
      <trkpt lat="48.83915" lon="2.3902">
        <ele>108.7</ele>
        <time>2015-03-09T21:00:02.113Z</time>
      </trkpt>
      <trkpt lat="48.83917" lon="2.39027">
        <ele>109</ele>
        <time>2015-03-09T21:00:02.194Z</time>
      </trkpt>
      <trkpt lat="48.83916" lon="2.39035">
        <ele>109.2</ele>
        <time>2015-03-09T21:00:03.201Z</time>
      </trkpt>
      <trkpt lat="48.83917" lon="2.39043">
        <ele>109.3</ele>
        <time>2015-03-09T21:00:04.217Z</time>
      </trkpt>
      <trkpt lat="48.83917" lon="2.39051">
        <ele>109.7</ele>
        <time>2015-03-09T21:00:05.224Z</time>
      </trkpt>
      <trkpt lat="48.83917" lon="2.39061">
        <ele>110.2</ele>
        <time>2015-03-09T21:00:06.261Z</time>
      </trkpt>
      <trkpt lat="48.83918" lon="2.3907">
        <ele>110.4</ele>
        <time>2015-03-09T21:00:07.292Z</time>
      </trkpt>
      <trkpt lat="48.83921" lon="2.39078">
        <ele>110.7</ele>
        <time>2015-03-09T21:00:08.189Z</time>
      </trkpt>
      <trkpt lat="48.83924" lon="2.39086">
        <ele>111.2</ele>
        <time>2015-03-09T21:00:09.210Z</time>
      </trkpt>
      <trkpt lat="48.83926" lon="2.39095">
        <ele>111.8</ele>
        <time>2015-03-09T21:00:10.204Z</time>
      </trkpt>
      <trkpt lat="48.83927" lon="2.39106">
        <ele>112.3</ele>
        <time>2015-03-09T21:00:11.218Z</time>
      </trkpt>
      <trkpt lat="48.83929" lon="2.39116">
        <ele>113.1</ele>
        <time>2015-03-09T21:00:12.221Z</time>
      </trkpt>
      <trkpt lat="48.83931" lon="2.39127">
        <ele>113.7</ele>
        <time>2015-03-09T21:00:13.236Z</time>
      </trkpt>
      <trkpt lat="48.83933" lon="2.39136">
        <ele>114.3</ele>
        <time>2015-03-09T21:00:14.235Z</time>
      </trkpt>
      <trkpt lat="48.83934" lon="2.39147">
        <ele>115.1</ele>
        <time>2015-03-09T21:00:15.237Z</time>
      </trkpt>
      <trkpt lat="48.83935" lon="2.39158">
        <ele>115.5</ele>
        <time>2015-03-09T21:00:16.252Z</time>
      </trkpt>
      <trkpt lat="48.83935" lon="2.39168">
        <ele>115.7</ele>
        <time>2015-03-09T21:00:17.266Z</time>
      </trkpt>
      <trkpt lat="48.83936" lon="2.39179">
        <ele>116</ele>
        <time>2015-03-09T21:00:18.271Z</time>
      </trkpt>
      <trkpt lat="48.83937" lon="2.39189">
        <ele>116.4</ele>
        <time>2015-03-09T21:00:19.300Z</time>
      </trkpt>
      <trkpt lat="48.83938" lon="2.392">
        <ele>116.8</ele>
        <time>2015-03-09T21:00:20.268Z</time>
      </trkpt>
      <trkpt lat="48.83939" lon="2.39212">
        <ele>117.1</ele>
        <time>2015-03-09T21:00:21.226Z</time>
      </trkpt>
      <trkpt lat="48.83941" lon="2.39223">
        <ele>117.5</ele>
        <time>2015-03-09T21:00:22.237Z</time>
      </trkpt>
      <trkpt lat="48.83942" lon="2.39233">
        <ele>118</ele>
        <time>2015-03-09T21:00:23.248Z</time>
      </trkpt>
      <trkpt lat="48.83942" lon="2.39243">
        <ele>118.4</ele>
        <time>2015-03-09T21:00:24.253Z</time>
      </trkpt>
      <trkpt lat="48.83942" lon="2.39253">
        <ele>118.9</ele>
        <time>2015-03-09T21:00:25.343Z</time>
      </trkpt>
      <trkpt lat="48.83943" lon="2.39264">
        <ele>119.5</ele>
        <time>2015-03-09T21:00:26.178Z</time>
      </trkpt>
      <trkpt lat="48.83944" lon="2.39275">
        <ele>119.8</ele>
        <time>2015-03-09T21:00:27.204Z</time>
      </trkpt>
      <trkpt lat="48.83944" lon="2.39286">
        <ele>120.2</ele>
        <time>2015-03-09T21:00:28.214Z</time>
      </trkpt>
      <trkpt lat="48.83944" lon="2.39297">
        <ele>120.6</ele>
        <time>2015-03-09T21:00:29.234Z</time>
      </trkpt>
      <trkpt lat="48.83946" lon="2.39308">
        <ele>121</ele>
        <time>2015-03-09T21:00:30.239Z</time>
      </trkpt>
      <trkpt lat="48.83948" lon="2.39319">
        <ele>121.6</ele>
        <time>2015-03-09T21:00:31.269Z</time>
      </trkpt>
      <trkpt lat="48.83949" lon="2.39331">
        <ele>122.5</ele>
        <time>2015-03-09T21:00:32.277Z</time>
      </trkpt>
      <trkpt lat="48.8395" lon="2.39341">
        <ele>123</ele>
        <time>2015-03-09T21:00:33.296Z</time>
      </trkpt>
      <trkpt lat="48.83951" lon="2.39351">
        <ele>123.5</ele>
        <time>2015-03-09T21:00:34.212Z</time>
      </trkpt>
      <trkpt lat="48.83952" lon="2.3936">
        <ele>123.9</ele>
        <time>2015-03-09T21:00:35.244Z</time>
      </trkpt>
      <trkpt lat="48.83952" lon="2.39367">
        <ele>124.1</ele>
        <time>2015-03-09T21:00:36.250Z</time>
      </trkpt>
      <trkpt lat="48.83952" lon="2.39375">
        <ele>124.3</ele>
        <time>2015-03-09T21:00:37.316Z</time>
      </trkpt>
      <trkpt lat="48.83952" lon="2.39383">
        <ele>124.7</ele>
        <time>2015-03-09T21:00:38.215Z</time>
      </trkpt>
      <trkpt lat="48.83951" lon="2.39391">
        <ele>125.2</ele>
        <time>2015-03-09T21:00:39.231Z</time>
      </trkpt>
      <trkpt lat="48.83951" lon="2.39398">
        <ele>125.4</ele>
        <time>2015-03-09T21:00:40.254Z</time>
      </trkpt>
      <trkpt lat="48.83949" lon="2.39411">
        <ele>126</ele>
        <time>2015-03-09T21:00:42.268Z</time>
      </trkpt>
      <trkpt lat="48.83949" lon="2.39417">
        <ele>126.4</ele>
        <time>2015-03-09T21:00:43.281Z</time>
      </trkpt>
      <trkpt lat="48.83949" lon="2.39429">
        <ele>126.3</ele>
        <time>2015-03-09T21:00:45.206Z</time>
      </trkpt>
      <trkpt lat="48.8395" lon="2.39434">
        <ele>126.3</ele>
        <time>2015-03-09T21:00:46.249Z</time>
      </trkpt>
      <trkpt lat="48.83948" lon="2.3944">
        <ele>126.9</ele>
        <time>2015-03-09T21:00:48.272Z</time>
      </trkpt>
      <trkpt lat="48.83948" lon="2.39438">
        <ele>127</ele>
        <time>2015-03-09T21:00:49.329Z</time>
      </trkpt>
      <trkpt lat="48.83948" lon="2.39437">
        <ele>126.7</ele>
        <time>2015-03-09T21:01:39.242Z</time>
      </trkpt>
      <trkpt lat="48.8397" lon="2.3942">
        <ele>115.8</ele>
        <time>2015-03-09T21:01:40.262Z</time>
      </trkpt>
      <trkpt lat="48.83971" lon="2.39431">
        <ele>116.7</ele>
        <time>2015-03-09T21:01:43.247Z</time>
      </trkpt>
      <trkpt lat="48.83971" lon="2.39437">
        <ele>116.8</ele>
        <time>2015-03-09T21:01:44.282Z</time>
      </trkpt>
      <trkpt lat="48.83971" lon="2.39449">
        <ele>117.2</ele>
        <time>2015-03-09T21:01:46.211Z</time>
      </trkpt>
      <trkpt lat="48.8397" lon="2.39456">
        <ele>117</ele>
        <time>2015-03-09T21:01:47.236Z</time>
      </trkpt>
      <trkpt lat="48.83969" lon="2.39468">
        <ele>116.1</ele>
        <time>2015-03-09T21:01:49.241Z</time>
      </trkpt>
      <trkpt lat="48.83968" lon="2.39475">
        <ele>116.1</ele>
        <time>2015-03-09T21:01:50.247Z</time>
      </trkpt>
      <trkpt lat="48.83967" lon="2.39482">
        <ele>115.2</ele>
        <time>2015-03-09T21:01:51.223Z</time>
      </trkpt>
      <trkpt lat="48.83965" lon="2.3949">
        <ele>114</ele>
        <time>2015-03-09T21:01:52.245Z</time>
      </trkpt>
      <trkpt lat="48.83965" lon="2.39502">
        <ele>113.5</ele>
        <time>2015-03-09T21:01:54.277Z</time>
      </trkpt>
      <trkpt lat="48.83964" lon="2.39507">
        <ele>113</ele>
        <time>2015-03-09T21:01:55.291Z</time>
      </trkpt>
      <trkpt lat="48.83963" lon="2.39519">
        <ele>111.6</ele>
        <time>2015-03-09T21:01:57.214Z</time>
      </trkpt>
      <trkpt lat="48.83962" lon="2.39525">
        <ele>110.9</ele>
        <time>2015-03-09T21:01:58.233Z</time>
      </trkpt>
      <trkpt lat="48.83959" lon="2.39535">
        <ele>109.5</ele>
        <time>2015-03-09T21:01:59.251Z</time>
      </trkpt>
      <trkpt lat="48.83957" lon="2.39541">
        <ele>109</ele>
        <time>2015-03-09T21:02:00.255Z</time>
      </trkpt>
      <trkpt lat="48.83954" lon="2.39553">
        <ele>108.4</ele>
        <time>2015-03-09T21:02:02.285Z</time>
      </trkpt>
      <trkpt lat="48.83952" lon="2.3956">
        <ele>107.9</ele>
        <time>2015-03-09T21:02:03.311Z</time>
      </trkpt>
      <trkpt lat="48.8395" lon="2.39573">
        <ele>107.3</ele>
        <time>2015-03-09T21:02:06.149Z</time>
      </trkpt>
      <trkpt lat="48.83949" lon="2.39578">
        <ele>107</ele>
        <time>2015-03-09T21:02:06.303Z</time>
      </trkpt>
      <trkpt lat="48.83948" lon="2.39591">
        <ele>106.7</ele>
        <time>2015-03-09T21:02:08.273Z</time>
      </trkpt>
      <trkpt lat="48.8395" lon="2.39596">
        <ele>106.2</ele>
        <time>2015-03-09T21:02:09.229Z</time>
      </trkpt>
      <trkpt lat="48.83953" lon="2.39601">
        <ele>105.9</ele>
        <time>2015-03-09T21:02:11.267Z</time>
      </trkpt>
      <trkpt lat="48.83956" lon="2.39606">
        <ele>105.9</ele>
        <time>2015-03-09T21:02:11.318Z</time>
      </trkpt>
      <trkpt lat="48.8396" lon="2.39608">
        <ele>105.7</ele>
        <time>2015-03-09T21:02:12.238Z</time>
      </trkpt>
      <trkpt lat="48.83965" lon="2.3961">
        <ele>105.5</ele>
        <time>2015-03-09T21:02:13.245Z</time>
      </trkpt>
      <trkpt lat="48.8397" lon="2.39609">
        <ele>105.2</ele>
        <time>2015-03-09T21:02:14.251Z</time>
      </trkpt>
      <trkpt lat="48.83975" lon="2.39608">
        <ele>104.8</ele>
        <time>2015-03-09T21:02:15.260Z</time>
      </trkpt>
      <trkpt lat="48.83981" lon="2.39598">
        <ele>103.4</ele>
        <time>2015-03-09T21:02:17.276Z</time>
      </trkpt>
      <trkpt lat="48.83982" lon="2.39591">
        <ele>102.5</ele>
        <time>2015-03-09T21:02:18.294Z</time>
      </trkpt>
      <trkpt lat="48.83982" lon="2.39581">
        <ele>101.6</ele>
        <time>2015-03-09T21:02:19.207Z</time>
      </trkpt>
      <trkpt lat="48.83982" lon="2.39573">
        <ele>101.2</ele>
        <time>2015-03-09T21:02:20.223Z</time>
      </trkpt>
      <trkpt lat="48.8398" lon="2.39565">
        <ele>101.2</ele>
        <time>2015-03-09T21:02:21.407Z</time>
      </trkpt>
      <trkpt lat="48.83975" lon="2.3956">
        <ele>100.9</ele>
        <time>2015-03-09T21:02:22.244Z</time>
      </trkpt>
      <trkpt lat="48.83971" lon="2.39556">
        <ele>100.8</ele>
        <time>2015-03-09T21:02:23.255Z</time>
      </trkpt>
      <trkpt lat="48.83966" lon="2.39554">
        <ele>100.9</ele>
        <time>2015-03-09T21:02:24.266Z</time>
      </trkpt>
      <trkpt lat="48.83962" lon="2.39554">
        <ele>101.1</ele>
        <time>2015-03-09T21:02:25.273Z</time>
      </trkpt>
      <trkpt lat="48.83957" lon="2.39555">
        <ele>101.5</ele>
        <time>2015-03-09T21:02:26.282Z</time>
      </trkpt>
      <trkpt lat="48.83949" lon="2.3956">
        <ele>102.3</ele>
        <time>2015-03-09T21:02:27.193Z</time>
      </trkpt>
      <trkpt lat="48.83945" lon="2.39563">
        <ele>102.2</ele>
        <time>2015-03-09T21:02:28.207Z</time>
      </trkpt>
      <trkpt lat="48.8394" lon="2.39572">
        <ele>101.9</ele>
        <time>2015-03-09T21:02:30.258Z</time>
      </trkpt>
      <trkpt lat="48.83939" lon="2.39578">
        <ele>101.7</ele>
        <time>2015-03-09T21:02:31.290Z</time>
      </trkpt>
      <trkpt lat="48.83938" lon="2.39585">
        <ele>101.5</ele>
        <time>2015-03-09T21:02:32.187Z</time>
      </trkpt>
      <trkpt lat="48.83941" lon="2.39592">
        <ele>101.2</ele>
        <time>2015-03-09T21:02:33.180Z</time>
      </trkpt>
      <trkpt lat="48.83943" lon="2.39599">
        <ele>101.1</ele>
        <time>2015-03-09T21:02:34.195Z</time>
      </trkpt>
      <trkpt lat="48.83946" lon="2.39605">
        <ele>101.2</ele>
        <time>2015-03-09T21:02:35.210Z</time>
      </trkpt>
      <trkpt lat="48.83951" lon="2.39613">
        <ele>101.4</ele>
        <time>2015-03-09T21:02:37.226Z</time>
      </trkpt>
      <trkpt lat="48.83955" lon="2.39615">
        <ele>101.3</ele>
        <time>2015-03-09T21:02:38.240Z</time>
      </trkpt>
      <trkpt lat="48.83962" lon="2.39619">
        <ele>101.3</ele>
        <time>2015-03-09T21:02:40.220Z</time>
      </trkpt>
      <trkpt lat="48.83965" lon="2.39622">
        <ele>101.5</ele>
        <time>2015-03-09T21:02:41.279Z</time>
      </trkpt>
      <trkpt lat="48.83972" lon="2.39628">
        <ele>102</ele>
        <time>2015-03-09T21:02:43.207Z</time>
      </trkpt>
      <trkpt lat="48.83975" lon="2.39631">
        <ele>102.3</ele>
        <time>2015-03-09T21:02:44.206Z</time>
      </trkpt>
      <trkpt lat="48.8398" lon="2.39635">
        <ele>102.1</ele>
        <time>2015-03-09T21:02:45.232Z</time>
      </trkpt>
      <trkpt lat="48.83984" lon="2.39638">
        <ele>102.2</ele>
        <time>2015-03-09T21:02:46.254Z</time>
      </trkpt>
      <trkpt lat="48.83988" lon="2.3964">
        <ele>102.2</ele>
        <time>2015-03-09T21:02:47.290Z</time>
      </trkpt>
      <trkpt lat="48.83993" lon="2.39644">
        <ele>102.1</ele>
        <time>2015-03-09T21:02:48.197Z</time>
      </trkpt>
      <trkpt lat="48.83999" lon="2.39651">
        <ele>101.5</ele>
        <time>2015-03-09T21:02:50.252Z</time>
      </trkpt>
      <trkpt lat="48.84002" lon="2.39655">
        <ele>101.5</ele>
        <time>2015-03-09T21:02:51.255Z</time>
      </trkpt>
      <trkpt lat="48.84008" lon="2.39663">
        <ele>101.8</ele>
        <time>2015-03-09T21:02:53.272Z</time>
      </trkpt>
      <trkpt lat="48.8401" lon="2.39668">
        <ele>102.1</ele>
        <time>2015-03-09T21:02:54.290Z</time>
      </trkpt>
      <trkpt lat="48.8412" lon="2.39868">
        <ele>104.8</ele>
        <time>2015-03-09T21:03:30.227Z</time>
      </trkpt>
      <trkpt lat="48.84118" lon="2.39879">
        <ele>104.9</ele>
        <time>2015-03-09T21:03:32.296Z</time>
      </trkpt>
      <trkpt lat="48.84117" lon="2.39882">
        <ele>105.1</ele>
        <time>2015-03-09T21:03:33.198Z</time>
      </trkpt>
      <trkpt lat="48.84116" lon="2.39882">
        <ele>105.9</ele>
        <time>2015-03-09T21:03:48.229Z</time>
      </trkpt>
      <trkpt lat="48.84105" lon="2.39889">
        <ele>106.8</ele>
        <time>2015-03-09T21:03:49.313Z</time>
      </trkpt>
      <trkpt lat="48.841" lon="2.39897">
        <ele>108.3</ele>
        <time>2015-03-09T21:03:53.210Z</time>
      </trkpt>
      <trkpt lat="48.84097" lon="2.39899">
        <ele>108.5</ele>
        <time>2015-03-09T21:03:54.210Z</time>
      </trkpt>
      <trkpt lat="48.8409" lon="2.399">
        <ele>109</ele>
        <time>2015-03-09T21:03:56.206Z</time>
      </trkpt>
      <trkpt lat="48.84085" lon="2.39903">
        <ele>109.2</ele>
        <time>2015-03-09T21:03:57.250Z</time>
      </trkpt>
      <trkpt lat="48.84081" lon="2.39905">
        <ele>109.2</ele>
        <time>2015-03-09T21:03:58.242Z</time>
      </trkpt>
      <trkpt lat="48.84076" lon="2.39907">
        <ele>109.2</ele>
        <time>2015-03-09T21:03:59.252Z</time>
      </trkpt>
      <trkpt lat="48.84069" lon="2.39913">
        <ele>109.6</ele>
        <time>2015-03-09T21:04:01.321Z</time>
      </trkpt>
      <trkpt lat="48.84065" lon="2.39915">
        <ele>109.8</ele>
        <time>2015-03-09T21:04:02.192Z</time>
      </trkpt>
      <trkpt lat="48.84061" lon="2.39918">
        <ele>109.7</ele>
        <time>2015-03-09T21:04:03.206Z</time>
      </trkpt>
      <trkpt lat="48.84057" lon="2.39921">
        <ele>109.4</ele>
        <time>2015-03-09T21:04:04.219Z</time>
      </trkpt>
      <trkpt lat="48.84052" lon="2.39926">
        <ele>109.6</ele>
        <time>2015-03-09T21:04:05.339Z</time>
      </trkpt>
      <trkpt lat="48.84047" lon="2.39932">
        <ele>109.6</ele>
        <time>2015-03-09T21:04:06.197Z</time>
      </trkpt>
      <trkpt lat="48.84042" lon="2.39935">
        <ele>110.2</ele>
        <time>2015-03-09T21:04:08.287Z</time>
      </trkpt>
      <trkpt lat="48.84038" lon="2.39937">
        <ele>110.4</ele>
        <time>2015-03-09T21:04:09.207Z</time>
      </trkpt>
      <trkpt lat="48.84034" lon="2.3994">
        <ele>110.5</ele>
        <time>2015-03-09T21:04:10.191Z</time>
      </trkpt>
      <trkpt lat="48.84019" lon="2.39951">
        <ele>108.7</ele>
        <time>2015-03-09T21:04:14.224Z</time>
      </trkpt>
      <trkpt lat="48.84015" lon="2.39955">
        <ele>108.4</ele>
        <time>2015-03-09T21:04:15.242Z</time>
      </trkpt>
      <trkpt lat="48.84012" lon="2.39961">
        <ele>109</ele>
        <time>2015-03-09T21:04:16.291Z</time>
      </trkpt>
      <trkpt lat="48.84007" lon="2.39971">
        <ele>109.7</ele>
        <time>2015-03-09T21:04:18.192Z</time>
      </trkpt>
      <trkpt lat="48.84005" lon="2.39976">
        <ele>110</ele>
        <time>2015-03-09T21:04:19.222Z</time>
      </trkpt>
      <trkpt lat="48.84002" lon="2.39982">
        <ele>110.2</ele>
        <time>2015-03-09T21:04:20.275Z</time>
      </trkpt>
      <trkpt lat="48.83999" lon="2.39988">
        <ele>109.9</ele>
        <time>2015-03-09T21:04:21.187Z</time>
      </trkpt>
      <trkpt lat="48.83994" lon="2.39997">
        <ele>109.6</ele>
        <time>2015-03-09T21:04:22.194Z</time>
      </trkpt>
      <trkpt lat="48.83991" lon="2.40003">
        <ele>108.9</ele>
        <time>2015-03-09T21:04:23.204Z</time>
      </trkpt>
      <trkpt lat="48.83987" lon="2.40014">
        <ele>111.2</ele>
        <time>2015-03-09T21:04:27.282Z</time>
      </trkpt>
      <trkpt lat="48.83987" lon="2.4002">
        <ele>112.3</ele>
        <time>2015-03-09T21:04:28.255Z</time>
      </trkpt>
      <trkpt lat="48.83986" lon="2.40031">
        <ele>113.1</ele>
        <time>2015-03-09T21:04:30.217Z</time>
      </trkpt>
      <trkpt lat="48.83986" lon="2.40035">
        <ele>113.6</ele>
        <time>2015-03-09T21:04:31.281Z</time>
      </trkpt>
      <trkpt lat="48.83982" lon="2.40046">
        <ele>114.4</ele>
        <time>2015-03-09T21:04:34.282Z</time>
      </trkpt>
      <trkpt lat="48.83981" lon="2.40048">
        <ele>114.7</ele>
        <time>2015-03-09T21:04:35.217Z</time>
      </trkpt>
      <trkpt lat="48.83973" lon="2.40053">
        <ele>114.7</ele>
        <time>2015-03-09T21:04:45.286Z</time>
      </trkpt>
      <trkpt lat="48.83964" lon="2.40056">
        <ele>114.8</ele>
        <time>2015-03-09T21:04:46.209Z</time>
      </trkpt>
      <trkpt lat="48.83958" lon="2.40058">
        <ele>114.6</ele>
        <time>2015-03-09T21:04:47.228Z</time>
      </trkpt>
      <trkpt lat="48.83952" lon="2.4006">
        <ele>114.4</ele>
        <time>2015-03-09T21:04:48.233Z</time>
      </trkpt>
      <trkpt lat="48.83946" lon="2.40063">
        <ele>114.6</ele>
        <time>2015-03-09T21:04:49.256Z</time>
      </trkpt>
      <trkpt lat="48.8394" lon="2.40065">
        <ele>114.8</ele>
        <time>2015-03-09T21:04:50.273Z</time>
      </trkpt>
      <trkpt lat="48.83936" lon="2.40067">
        <ele>114.8</ele>
        <time>2015-03-09T21:04:51.189Z</time>
      </trkpt>
      <trkpt lat="48.83931" lon="2.4007">
        <ele>114.9</ele>
        <time>2015-03-09T21:04:52.197Z</time>
      </trkpt>
      <trkpt lat="48.83924" lon="2.40074">
        <ele>114.4</ele>
        <time>2015-03-09T21:04:54.210Z</time>
      </trkpt>
      <trkpt lat="48.8392" lon="2.40079">
        <ele>114.5</ele>
        <time>2015-03-09T21:04:55.212Z</time>
      </trkpt>
      <trkpt lat="48.83916" lon="2.40082">
        <ele>114.7</ele>
        <time>2015-03-09T21:04:56.225Z</time>
      </trkpt>
      <trkpt lat="48.8391" lon="2.40084">
        <ele>114.9</ele>
        <time>2015-03-09T21:04:57.232Z</time>
      </trkpt>
      <trkpt lat="48.83905" lon="2.40086">
        <ele>115.2</ele>
        <time>2015-03-09T21:04:58.269Z</time>
      </trkpt>
      <trkpt lat="48.83902" lon="2.40089">
        <ele>115.6</ele>
        <time>2015-03-09T21:04:59.276Z</time>
      </trkpt>
      <trkpt lat="48.83897" lon="2.40091">
        <ele>116.1</ele>
        <time>2015-03-09T21:05:00.186Z</time>
      </trkpt>
      <trkpt lat="48.83891" lon="2.40094">
        <ele>116.5</ele>
        <time>2015-03-09T21:05:01.295Z</time>
      </trkpt>
      <trkpt lat="48.83885" lon="2.401">
        <ele>117.8</ele>
        <time>2015-03-09T21:05:03.208Z</time>
      </trkpt>
      <trkpt lat="48.83882" lon="2.40103">
        <ele>118.5</ele>
        <time>2015-03-09T21:05:04.234Z</time>
      </trkpt>
      <trkpt lat="48.83876" lon="2.40109">
        <ele>120.2</ele>
        <time>2015-03-09T21:05:07.204Z</time>
      </trkpt>
      <trkpt lat="48.83871" lon="2.4011">
        <ele>120.8</ele>
        <time>2015-03-09T21:05:08.201Z</time>
      </trkpt>
      <trkpt lat="48.83864" lon="2.40112">
        <ele>122</ele>
        <time>2015-03-09T21:05:10.241Z</time>
      </trkpt>
      <trkpt lat="48.83856" lon="2.40115">
        <ele>122.2</ele>
        <time>2015-03-09T21:05:11.260Z</time>
      </trkpt>
      <trkpt lat="48.8385" lon="2.40117">
        <ele>122.4</ele>
        <time>2015-03-09T21:05:12.207Z</time>
      </trkpt>
      <trkpt lat="48.83845" lon="2.40116">
        <ele>122.5</ele>
        <time>2015-03-09T21:05:13.205Z</time>
      </trkpt>
      <trkpt lat="48.83839" lon="2.40116">
        <ele>122.6</ele>
        <time>2015-03-09T21:05:14.237Z</time>
      </trkpt>
      <trkpt lat="48.83834" lon="2.40116">
        <ele>122.9</ele>
        <time>2015-03-09T21:05:15.253Z</time>
      </trkpt>
      <trkpt lat="48.83827" lon="2.40119">
        <ele>123.2</ele>
        <time>2015-03-09T21:05:17.166Z</time>
      </trkpt>
      <trkpt lat="48.83818" lon="2.40121">
        <ele>122.9</ele>
        <time>2015-03-09T21:05:18.181Z</time>
      </trkpt>
      <trkpt lat="48.83812" lon="2.40124">
        <ele>122.6</ele>
        <time>2015-03-09T21:05:19.211Z</time>
      </trkpt>
      <trkpt lat="48.83807" lon="2.40129">
        <ele>122.4</ele>
        <time>2015-03-09T21:05:20.225Z</time>
      </trkpt>
      <trkpt lat="48.83802" lon="2.40135">
        <ele>122.2</ele>
        <time>2015-03-09T21:05:21.241Z</time>
      </trkpt>
      <trkpt lat="48.83797" lon="2.4014">
        <ele>122.2</ele>
        <time>2015-03-09T21:05:22.250Z</time>
      </trkpt>
      <trkpt lat="48.83793" lon="2.40147">
        <ele>122.2</ele>
        <time>2015-03-09T21:05:23.253Z</time>
      </trkpt>
      <trkpt lat="48.83768" lon="2.4018">
        <ele>121.4</ele>
        <time>2015-03-09T21:05:28.209Z</time>
      </trkpt>
      <trkpt lat="48.83764" lon="2.40188">
        <ele>120.9</ele>
        <time>2015-03-09T21:05:29.230Z</time>
      </trkpt>
      <trkpt lat="48.83761" lon="2.40191">
        <ele>120.3</ele>
        <time>2015-03-09T21:05:30.267Z</time>
      </trkpt>
      <trkpt lat="48.83755" lon="2.402">
        <ele>119.7</ele>
        <time>2015-03-09T21:05:32.196Z</time>
      </trkpt>
      <trkpt lat="48.83752" lon="2.40204">
        <ele>119.5</ele>
        <time>2015-03-09T21:05:33.213Z</time>
      </trkpt>
      <trkpt lat="48.83746" lon="2.40208">
        <ele>119.5</ele>
        <time>2015-03-09T21:05:35.186Z</time>
      </trkpt>
      <trkpt lat="48.83741" lon="2.40209">
        <ele>119.4</ele>
        <time>2015-03-09T21:05:36.196Z</time>
      </trkpt>
      <trkpt lat="48.83734" lon="2.40209">
        <ele>119.2</ele>
        <time>2015-03-09T21:05:38.224Z</time>
      </trkpt>
      <trkpt lat="48.83731" lon="2.4021">
        <ele>119.3</ele>
        <time>2015-03-09T21:05:39.162Z</time>
      </trkpt>
      <trkpt lat="48.83723" lon="2.40213">
        <ele>119.7</ele>
        <time>2015-03-09T21:05:42.206Z</time>
      </trkpt>
      <trkpt lat="48.83721" lon="2.40215">
        <ele>119.8</ele>
        <time>2015-03-09T21:05:43.218Z</time>
      </trkpt>
      <trkpt lat="48.83721" lon="2.40215">
        <ele>119.9</ele>
        <time>2015-03-09T21:05:54.277Z</time>
      </trkpt>
      <trkpt lat="48.83711" lon="2.40222">
        <ele>121.6</ele>
        <time>2015-03-09T21:05:55.322Z</time>
      </trkpt>
      <trkpt lat="48.83709" lon="2.40235">
        <ele>120.6</ele>
        <time>2015-03-09T21:05:58.215Z</time>
      </trkpt>
      <trkpt lat="48.83709" lon="2.40239">
        <ele>120</ele>
        <time>2015-03-09T21:05:59.219Z</time>
      </trkpt>
      <trkpt lat="48.83706" lon="2.40251">
        <ele>118.5</ele>
        <time>2015-03-09T21:06:02.266Z</time>
      </trkpt>
      <trkpt lat="48.83704" lon="2.40254">
        <ele>117.8</ele>
        <time>2015-03-09T21:06:03.166Z</time>
      </trkpt>
      <trkpt lat="48.83696" lon="2.40258">
        <ele>115.7</ele>
        <time>2015-03-09T21:06:07.281Z</time>
      </trkpt>
      <trkpt lat="48.83693" lon="2.40258">
        <ele>115.3</ele>
        <time>2015-03-09T21:06:08.201Z</time>
      </trkpt>
      <trkpt lat="48.83688" lon="2.40259">
        <ele>114.5</ele>
        <time>2015-03-09T21:06:10.197Z</time>
      </trkpt>
      <trkpt lat="48.83684" lon="2.40259">
        <ele>114.1</ele>
        <time>2015-03-09T21:06:11.199Z</time>
      </trkpt>
      <trkpt lat="48.83678" lon="2.40258">
        <ele>113.7</ele>
        <time>2015-03-09T21:06:13.256Z</time>
      </trkpt>
      <trkpt lat="48.83675" lon="2.40258">
        <ele>113.4</ele>
        <time>2015-03-09T21:06:14.267Z</time>
      </trkpt>
      <trkpt lat="48.83668" lon="2.40257">
        <ele>113.1</ele>
        <time>2015-03-09T21:06:16.285Z</time>
      </trkpt>
      <trkpt lat="48.83665" lon="2.40257">
        <ele>112.9</ele>
        <time>2015-03-09T21:06:17.203Z</time>
      </trkpt>
      <trkpt lat="48.83662" lon="2.40258">
        <ele>112.7</ele>
        <time>2015-03-09T21:06:18.203Z</time>
      </trkpt>
      <trkpt lat="48.83653" lon="2.40267">
        <ele>111.7</ele>
        <time>2015-03-09T21:06:20.218Z</time>
      </trkpt>
      <trkpt lat="48.83636" lon="2.40284">
        <ele>111.2</ele>
        <time>2015-03-09T21:06:25.318Z</time>
      </trkpt>
      <trkpt lat="48.83628" lon="2.40288">
        <ele>109.8</ele>
        <time>2015-03-09T21:06:28.259Z</time>
      </trkpt>
      <trkpt lat="48.83623" lon="2.4029">
        <ele>109.3</ele>
        <time>2015-03-09T21:06:29.271Z</time>
      </trkpt>
      <trkpt lat="48.83611" lon="2.40296">
        <ele>108.9</ele>
        <time>2015-03-09T21:06:32.166Z</time>
      </trkpt>
      <trkpt lat="48.83585" lon="2.40314">
        <ele>108.5</ele>
        <time>2015-03-09T21:06:37.258Z</time>
      </trkpt>
      <trkpt lat="48.83578" lon="2.40319">
        <ele>108.1</ele>
        <time>2015-03-09T21:06:38.254Z</time>
      </trkpt>
      <trkpt lat="48.83572" lon="2.40327">
        <ele>108</ele>
        <time>2015-03-09T21:06:39.191Z</time>
      </trkpt>
      <trkpt lat="48.83566" lon="2.40333">
        <ele>107.7</ele>
        <time>2015-03-09T21:06:40.217Z</time>
      </trkpt>
      <trkpt lat="48.83559" lon="2.40338">
        <ele>107.5</ele>
        <time>2015-03-09T21:06:41.234Z</time>
      </trkpt>
      <trkpt lat="48.83554" lon="2.40343">
        <ele>107.5</ele>
        <time>2015-03-09T21:06:42.292Z</time>
      </trkpt>
      <trkpt lat="48.83549" lon="2.40349">
        <ele>107.4</ele>
        <time>2015-03-09T21:06:43.196Z</time>
      </trkpt>
      <trkpt lat="48.83544" lon="2.40353">
        <ele>107.6</ele>
        <time>2015-03-09T21:06:44.214Z</time>
      </trkpt>
      <trkpt lat="48.8354" lon="2.40356">
        <ele>107.6</ele>
        <time>2015-03-09T21:06:45.254Z</time>
      </trkpt>
      <trkpt lat="48.83536" lon="2.40358">
        <ele>107.6</ele>
        <time>2015-03-09T21:06:46.184Z</time>
      </trkpt>
      <trkpt lat="48.8353" lon="2.40361">
        <ele>107.8</ele>
        <time>2015-03-09T21:06:47.184Z</time>
      </trkpt>
      <trkpt lat="48.83526" lon="2.40363">
        <ele>107.9</ele>
        <time>2015-03-09T21:06:48.211Z</time>
      </trkpt>
      <trkpt lat="48.83521" lon="2.40366">
        <ele>107.9</ele>
        <time>2015-03-09T21:06:49.203Z</time>
      </trkpt>
      <trkpt lat="48.83516" lon="2.40368">
        <ele>107.3</ele>
        <time>2015-03-09T21:06:50.214Z</time>
      </trkpt>
      <trkpt lat="48.83512" lon="2.40371">
        <ele>107.1</ele>
        <time>2015-03-09T21:06:51.281Z</time>
      </trkpt>
      <trkpt lat="48.83508" lon="2.40374">
        <ele>106.9</ele>
        <time>2015-03-09T21:06:52.240Z</time>
      </trkpt>
      <trkpt lat="48.83503" lon="2.40377">
        <ele>107.1</ele>
        <time>2015-03-09T21:06:53.244Z</time>
      </trkpt>
      <trkpt lat="48.83499" lon="2.4038">
        <ele>107</ele>
        <time>2015-03-09T21:06:54.255Z</time>
      </trkpt>
      <trkpt lat="48.83493" lon="2.40383">
        <ele>106.6</ele>
        <time>2015-03-09T21:06:55.403Z</time>
      </trkpt>
      <trkpt lat="48.83488" lon="2.40385">
        <ele>106.5</ele>
        <time>2015-03-09T21:06:56.231Z</time>
      </trkpt>
      <trkpt lat="48.83484" lon="2.40389">
        <ele>106.1</ele>
        <time>2015-03-09T21:06:57.240Z</time>
      </trkpt>
      <trkpt lat="48.8348" lon="2.40395">
        <ele>105.6</ele>
        <time>2015-03-09T21:06:58.255Z</time>
      </trkpt>
      <trkpt lat="48.83477" lon="2.404">
        <ele>105.8</ele>
        <time>2015-03-09T21:06:59.284Z</time>
      </trkpt>
      <trkpt lat="48.83469" lon="2.40407">
        <ele>105.8</ele>
        <time>2015-03-09T21:07:01.217Z</time>
      </trkpt>
      <trkpt lat="48.83466" lon="2.4041">
        <ele>105.7</ele>
        <time>2015-03-09T21:07:02.254Z</time>
      </trkpt>
      <trkpt lat="48.83459" lon="2.40416">
        <ele>104.9</ele>
        <time>2015-03-09T21:07:04.290Z</time>
      </trkpt>
      <trkpt lat="48.83455" lon="2.40418">
        <ele>104.6</ele>
        <time>2015-03-09T21:07:05.194Z</time>
      </trkpt>
      <trkpt lat="48.83447" lon="2.40423">
        <ele>104.4</ele>
        <time>2015-03-09T21:07:07.316Z</time>
      </trkpt>
      <trkpt lat="48.83444" lon="2.40425">
        <ele>104.3</ele>
        <time>2015-03-09T21:07:08.244Z</time>
      </trkpt>
      <trkpt lat="48.83439" lon="2.40435">
        <ele>103.9</ele>
        <time>2015-03-09T21:07:12.222Z</time>
      </trkpt>
      <trkpt lat="48.83438" lon="2.40439">
        <ele>103.8</ele>
        <time>2015-03-09T21:07:13.236Z</time>
      </trkpt>
      <trkpt lat="48.83436" lon="2.40451">
        <ele>103.3</ele>
        <time>2015-03-09T21:07:16.250Z</time>
      </trkpt>
      <trkpt lat="48.83435" lon="2.40452">
        <ele>103.3</ele>
        <time>2015-03-09T21:07:17.408Z</time>
      </trkpt>
      <trkpt lat="48.83435" lon="2.40452">
        <ele>103.3</ele>
        <time>2015-03-09T21:07:31.289Z</time>
      </trkpt>
      <trkpt lat="48.83431" lon="2.40479">
        <ele>104.2</ele>
        <time>2015-03-09T21:07:32.169Z</time>
      </trkpt>
      <trkpt lat="48.83426" lon="2.40488">
        <ele>105.5</ele>
        <time>2015-03-09T21:07:37.321Z</time>
      </trkpt>
      <trkpt lat="48.83425" lon="2.4049">
        <ele>105.8</ele>
        <time>2015-03-09T21:07:38.198Z</time>
      </trkpt>
      <trkpt lat="48.83419" lon="2.40493">
        <ele>106.8</ele>
        <time>2015-03-09T21:07:41.172Z</time>
      </trkpt>
      <trkpt lat="48.83416" lon="2.40494">
        <ele>106.2</ele>
        <time>2015-03-09T21:07:42.286Z</time>
      </trkpt>
      <trkpt lat="48.83411" lon="2.40499">
        <ele>105.7</ele>
        <time>2015-03-09T21:07:44.168Z</time>
      </trkpt>
      <trkpt lat="48.83409" lon="2.40502">
        <ele>105.8</ele>
        <time>2015-03-09T21:07:45.186Z</time>
      </trkpt>
      <trkpt lat="48.83402" lon="2.4051">
        <ele>106.1</ele>
        <time>2015-03-09T21:07:47.256Z</time>
      </trkpt>
      <trkpt lat="48.83399" lon="2.40514">
        <ele>106.5</ele>
        <time>2015-03-09T21:07:48.195Z</time>
      </trkpt>
      <trkpt lat="48.83395" lon="2.40519">
        <ele>107.1</ele>
        <time>2015-03-09T21:07:50.267Z</time>
      </trkpt>
      <trkpt lat="48.8339" lon="2.40521">
        <ele>107</ele>
        <time>2015-03-09T21:07:51.278Z</time>
      </trkpt>
      <trkpt lat="48.83384" lon="2.40524">
        <ele>106.6</ele>
        <time>2015-03-09T21:07:52.292Z</time>
      </trkpt>
      <trkpt lat="48.83378" lon="2.40526">
        <ele>106.2</ele>
        <time>2015-03-09T21:07:53.316Z</time>
      </trkpt>
      <trkpt lat="48.83373" lon="2.40529">
        <ele>106.3</ele>
        <time>2015-03-09T21:07:54.314Z</time>
      </trkpt>
      <trkpt lat="48.83368" lon="2.40532">
        <ele>106</ele>
        <time>2015-03-09T21:07:55.246Z</time>
      </trkpt>
      <trkpt lat="48.83363" lon="2.40538">
        <ele>104.8</ele>
        <time>2015-03-09T21:07:56.251Z</time>
      </trkpt>
      <trkpt lat="48.83358" lon="2.40543">
        <ele>103.5</ele>
        <time>2015-03-09T21:07:57.260Z</time>
      </trkpt>
      <trkpt lat="48.83353" lon="2.40548">
        <ele>102.5</ele>
        <time>2015-03-09T21:07:58.284Z</time>
      </trkpt>
      <trkpt lat="48.83347" lon="2.40553">
        <ele>102.2</ele>
        <time>2015-03-09T21:07:59.196Z</time>
      </trkpt>
      <trkpt lat="48.83342" lon="2.4056">
        <ele>101.2</ele>
        <time>2015-03-09T21:08:00.241Z</time>
      </trkpt>
      <trkpt lat="48.83338" lon="2.40564">
        <ele>100.7</ele>
        <time>2015-03-09T21:08:01.316Z</time>
      </trkpt>
      <trkpt lat="48.8334" lon="2.40577">
        <ele>98.4</ele>
        <time>2015-03-09T21:08:44.205Z</time>
      </trkpt>
      <trkpt lat="48.83343" lon="2.40581">
        <ele>98.8</ele>
        <time>2015-03-09T21:08:45.209Z</time>
      </trkpt>
      <trkpt lat="48.83348" lon="2.40589">
        <ele>99.1</ele>
        <time>2015-03-09T21:08:47.260Z</time>
      </trkpt>
      <trkpt lat="48.83351" lon="2.40594">
        <ele>99</ele>
        <time>2015-03-09T21:08:48.255Z</time>
      </trkpt>
      <trkpt lat="48.83355" lon="2.40601">
        <ele>98.8</ele>
        <time>2015-03-09T21:08:49.501Z</time>
      </trkpt>
      <trkpt lat="48.83358" lon="2.40606">
        <ele>98.9</ele>
        <time>2015-03-09T21:08:50.313Z</time>
      </trkpt>
      <trkpt lat="48.83361" lon="2.40612">
        <ele>98.9</ele>
        <time>2015-03-09T21:08:51.195Z</time>
      </trkpt>
      <trkpt lat="48.83364" lon="2.40618">
        <ele>99.2</ele>
        <time>2015-03-09T21:08:52.228Z</time>
      </trkpt>
      <trkpt lat="48.83369" lon="2.40627">
        <ele>99.5</ele>
        <time>2015-03-09T21:08:54.474Z</time>
      </trkpt>
      <trkpt lat="48.83374" lon="2.40634">
        <ele>99.4</ele>
        <time>2015-03-09T21:08:55.289Z</time>
      </trkpt>
      <trkpt lat="48.83379" lon="2.40641">
        <ele>99.4</ele>
        <time>2015-03-09T21:08:56.202Z</time>
      </trkpt>
      <trkpt lat="48.83383" lon="2.40648">
        <ele>99.5</ele>
        <time>2015-03-09T21:08:57.198Z</time>
      </trkpt>
      <trkpt lat="48.83388" lon="2.40655">
        <ele>99.7</ele>
        <time>2015-03-09T21:08:58.227Z</time>
      </trkpt>
      <trkpt lat="48.83391" lon="2.40662">
        <ele>99.9</ele>
        <time>2015-03-09T21:08:59.209Z</time>
      </trkpt>
      <trkpt lat="48.83395" lon="2.40668">
        <ele>100.2</ele>
        <time>2015-03-09T21:09:00.235Z</time>
      </trkpt>
      <trkpt lat="48.83398" lon="2.40673">
        <ele>100.4</ele>
        <time>2015-03-09T21:09:01.257Z</time>
      </trkpt>
      <trkpt lat="48.83401" lon="2.40678">
        <ele>100.5</ele>
        <time>2015-03-09T21:09:02.275Z</time>
      </trkpt>
      <trkpt lat="48.83404" lon="2.40684">
        <ele>100.7</ele>
        <time>2015-03-09T21:09:03.177Z</time>
      </trkpt>
      <trkpt lat="48.83406" lon="2.40689">
        <ele>100.7</ele>
        <time>2015-03-09T21:09:04.200Z</time>
      </trkpt>
      <trkpt lat="48.8341" lon="2.40694">
        <ele>100.5</ele>
        <time>2015-03-09T21:09:05.199Z</time>
      </trkpt>
      <trkpt lat="48.83416" lon="2.40705">
        <ele>100.3</ele>
        <time>2015-03-09T21:09:07.223Z</time>
      </trkpt>
      <trkpt lat="48.83418" lon="2.40712">
        <ele>99.6</ele>
        <time>2015-03-09T21:09:08.245Z</time>
      </trkpt>
      <trkpt lat="48.8342" lon="2.40718">
        <ele>99.4</ele>
        <time>2015-03-09T21:09:09.271Z</time>
      </trkpt>
      <trkpt lat="48.83424" lon="2.40722">
        <ele>99.4</ele>
        <time>2015-03-09T21:09:10.275Z</time>
      </trkpt>
      <trkpt lat="48.83427" lon="2.40726">
        <ele>99.5</ele>
        <time>2015-03-09T21:09:11.199Z</time>
      </trkpt>
      <trkpt lat="48.8343" lon="2.40732">
        <ele>99.3</ele>
        <time>2015-03-09T21:09:12.216Z</time>
      </trkpt>
      <trkpt lat="48.83433" lon="2.40737">
        <ele>99.1</ele>
        <time>2015-03-09T21:09:13.247Z</time>
      </trkpt>
      <trkpt lat="48.83436" lon="2.40743">
        <ele>99.2</ele>
        <time>2015-03-09T21:09:14.255Z</time>
      </trkpt>
      <trkpt lat="48.83441" lon="2.40754">
        <ele>98.8</ele>
        <time>2015-03-09T21:09:16.177Z</time>
      </trkpt>
      <trkpt lat="48.83444" lon="2.40758">
        <ele>98.6</ele>
        <time>2015-03-09T21:09:17.166Z</time>
      </trkpt>
      <trkpt lat="48.83448" lon="2.40762">
        <ele>98.2</ele>
        <time>2015-03-09T21:09:18.204Z</time>
      </trkpt>
      <trkpt lat="48.83452" lon="2.40767">
        <ele>98.1</ele>
        <time>2015-03-09T21:09:19.220Z</time>
      </trkpt>
      <trkpt lat="48.83455" lon="2.40772">
        <ele>97.8</ele>
        <time>2015-03-09T21:09:20.175Z</time>
      </trkpt>
      <trkpt lat="48.8346" lon="2.40775">
        <ele>97.2</ele>
        <time>2015-03-09T21:09:21.213Z</time>
      </trkpt>
      <trkpt lat="48.83467" lon="2.40781">
        <ele>95.8</ele>
        <time>2015-03-09T21:09:23.188Z</time>
      </trkpt>
      <trkpt lat="48.83471" lon="2.40785">
        <ele>95.7</ele>
        <time>2015-03-09T21:09:24.198Z</time>
      </trkpt>
      <trkpt lat="48.83477" lon="2.40795">
        <ele>95.2</ele>
        <time>2015-03-09T21:09:27.270Z</time>
      </trkpt>
      <trkpt lat="48.83479" lon="2.40797">
        <ele>95</ele>
        <time>2015-03-09T21:09:28.274Z</time>
      </trkpt>
      <trkpt lat="48.83483" lon="2.40806">
        <ele>96.2</ele>
        <time>2015-03-09T21:09:30.234Z</time>
      </trkpt>
      <trkpt lat="48.83485" lon="2.40808">
        <ele>96.4</ele>
        <time>2015-03-09T21:09:31.263Z</time>
      </trkpt>
      <trkpt lat="48.8349" lon="2.40813">
        <ele>96.7</ele>
        <time>2015-03-09T21:09:33.181Z</time>
      </trkpt>
      <trkpt lat="48.83494" lon="2.40816">
        <ele>97</ele>
        <time>2015-03-09T21:09:34.227Z</time>
      </trkpt>
      <trkpt lat="48.835" lon="2.4082">
        <ele>97.9</ele>
        <time>2015-03-09T21:09:36.269Z</time>
      </trkpt>
      <trkpt lat="48.83503" lon="2.40823">
        <ele>98.2</ele>
        <time>2015-03-09T21:09:37.344Z</time>
      </trkpt>
      <trkpt lat="48.83507" lon="2.40825">
        <ele>98.3</ele>
        <time>2015-03-09T21:09:38.205Z</time>
      </trkpt>
      <trkpt lat="48.83512" lon="2.40827">
        <ele>98.7</ele>
        <time>2015-03-09T21:09:39.211Z</time>
      </trkpt>
      <trkpt lat="48.83516" lon="2.40831">
        <ele>99</ele>
        <time>2015-03-09T21:09:40.203Z</time>
      </trkpt>
      <trkpt lat="48.83521" lon="2.40834">
        <ele>99.3</ele>
        <time>2015-03-09T21:09:41.220Z</time>
      </trkpt>
      <trkpt lat="48.83525" lon="2.40836">
        <ele>99.7</ele>
        <time>2015-03-09T21:09:42.235Z</time>
      </trkpt>
      <trkpt lat="48.83532" lon="2.40838">
        <ele>100.6</ele>
        <time>2015-03-09T21:09:43.260Z</time>
      </trkpt>
      <trkpt lat="48.83538" lon="2.40841">
        <ele>101.2</ele>
        <time>2015-03-09T21:09:44.270Z</time>
      </trkpt>
      <trkpt lat="48.83543" lon="2.40844">
        <ele>101.8</ele>
        <time>2015-03-09T21:09:45.274Z</time>
      </trkpt>
      <trkpt lat="48.83549" lon="2.40851">
        <ele>101.8</ele>
        <time>2015-03-09T21:09:47.290Z</time>
      </trkpt>
      <trkpt lat="48.83552" lon="2.40855">
        <ele>101.9</ele>
        <time>2015-03-09T21:09:48.245Z</time>
      </trkpt>
      <trkpt lat="48.83556" lon="2.40859">
        <ele>102.1</ele>
        <time>2015-03-09T21:09:49.339Z</time>
      </trkpt>
      <trkpt lat="48.83561" lon="2.40862">
        <ele>102.3</ele>
        <time>2015-03-09T21:09:50.216Z</time>
      </trkpt>
      <trkpt lat="48.83566" lon="2.40865">
        <ele>102.3</ele>
        <time>2015-03-09T21:09:51.216Z</time>
      </trkpt>
      <trkpt lat="48.83571" lon="2.40869">
        <ele>102</ele>
        <time>2015-03-09T21:09:52.220Z</time>
      </trkpt>
      <trkpt lat="48.83576" lon="2.40873">
        <ele>101.6</ele>
        <time>2015-03-09T21:09:53.234Z</time>
      </trkpt>
      <trkpt lat="48.8358" lon="2.40878">
        <ele>101.7</ele>
        <time>2015-03-09T21:09:54.245Z</time>
      </trkpt>
      <trkpt lat="48.83585" lon="2.40883">
        <ele>101.8</ele>
        <time>2015-03-09T21:09:55.270Z</time>
      </trkpt>
      <trkpt lat="48.83591" lon="2.40888">
        <ele>101.9</ele>
        <time>2015-03-09T21:09:56.276Z</time>
      </trkpt>
      <trkpt lat="48.83597" lon="2.40892">
        <ele>102.1</ele>
        <time>2015-03-09T21:09:57.287Z</time>
      </trkpt>
      <trkpt lat="48.83604" lon="2.40897">
        <ele>101.6</ele>
        <time>2015-03-09T21:09:58.189Z</time>
      </trkpt>
      <trkpt lat="48.83609" lon="2.40902">
        <ele>101.8</ele>
        <time>2015-03-09T21:09:59.203Z</time>
      </trkpt>
      <trkpt lat="48.83612" lon="2.40908">
        <ele>101.7</ele>
        <time>2015-03-09T21:10:00.240Z</time>
      </trkpt>
      <trkpt lat="48.83615" lon="2.40914">
        <ele>101.8</ele>
        <time>2015-03-09T21:10:01.253Z</time>
      </trkpt>
      <trkpt lat="48.83619" lon="2.40919">
        <ele>101.7</ele>
        <time>2015-03-09T21:10:02.258Z</time>
      </trkpt>
      <trkpt lat="48.83624" lon="2.40922">
        <ele>101.6</ele>
        <time>2015-03-09T21:10:03.308Z</time>
      </trkpt>
      <trkpt lat="48.83629" lon="2.40925">
        <ele>101.5</ele>
        <time>2015-03-09T21:10:04.217Z</time>
      </trkpt>
      <trkpt lat="48.83636" lon="2.4093">
        <ele>100.6</ele>
        <time>2015-03-09T21:10:05.211Z</time>
      </trkpt>
      <trkpt lat="48.83642" lon="2.40934">
        <ele>100.3</ele>
        <time>2015-03-09T21:10:06.212Z</time>
      </trkpt>
      <trkpt lat="48.83646" lon="2.40936">
        <ele>100.6</ele>
        <time>2015-03-09T21:10:07.220Z</time>
      </trkpt>
      <trkpt lat="48.8365" lon="2.40937">
        <ele>100.7</ele>
        <time>2015-03-09T21:10:08.347Z</time>
      </trkpt>
      <trkpt lat="48.83655" lon="2.4094">
        <ele>101</ele>
        <time>2015-03-09T21:10:09.213Z</time>
      </trkpt>
      <trkpt lat="48.83659" lon="2.40941">
        <ele>101.2</ele>
        <time>2015-03-09T21:10:10.249Z</time>
      </trkpt>
      <trkpt lat="48.83668" lon="2.40943">
        <ele>101.8</ele>
        <time>2015-03-09T21:10:12.441Z</time>
      </trkpt>
      <trkpt lat="48.83673" lon="2.40942">
        <ele>102.3</ele>
        <time>2015-03-09T21:10:13.338Z</time>
      </trkpt>
      <trkpt lat="48.8368" lon="2.40941">
        <ele>102.7</ele>
        <time>2015-03-09T21:10:14.224Z</time>
      </trkpt>
      <trkpt lat="48.83688" lon="2.40938">
        <ele>103.4</ele>
        <time>2015-03-09T21:10:15.256Z</time>
      </trkpt>
      <trkpt lat="48.83696" lon="2.40944">
        <ele>103.4</ele>
        <time>2015-03-09T21:10:17.777Z</time>
      </trkpt>
      <trkpt lat="48.83699" lon="2.40946">
        <ele>103.3</ele>
        <time>2015-03-09T21:10:18.257Z</time>
      </trkpt>
      <trkpt lat="48.83707" lon="2.40946">
        <ele>103.1</ele>
        <time>2015-03-09T21:10:20.269Z</time>
      </trkpt>
      <trkpt lat="48.8371" lon="2.40949">
        <ele>103.2</ele>
        <time>2015-03-09T21:10:21.213Z</time>
      </trkpt>
      <trkpt lat="48.83715" lon="2.4095">
        <ele>102</ele>
        <time>2015-03-09T21:10:30.301Z</time>
      </trkpt>
      <trkpt lat="48.83722" lon="2.40954">
        <ele>102.4</ele>
        <time>2015-03-09T21:10:31.301Z</time>
      </trkpt>
      <trkpt lat="48.83729" lon="2.40957">
        <ele>102.1</ele>
        <time>2015-03-09T21:10:33.218Z</time>
      </trkpt>
      <trkpt lat="48.83732" lon="2.4096">
        <ele>102.5</ele>
        <time>2015-03-09T21:10:34.251Z</time>
      </trkpt>
      <trkpt lat="48.83738" lon="2.40965">
        <ele>102.3</ele>
        <time>2015-03-09T21:10:36.280Z</time>
      </trkpt>
      <trkpt lat="48.83741" lon="2.40967">
        <ele>102.1</ele>
        <time>2015-03-09T21:10:37.229Z</time>
      </trkpt>
      <trkpt lat="48.83746" lon="2.40971">
        <ele>101.3</ele>
        <time>2015-03-09T21:10:39.256Z</time>
      </trkpt>
      <trkpt lat="48.8375" lon="2.40972">
        <ele>100.7</ele>
        <time>2015-03-09T21:10:40.274Z</time>
      </trkpt>
      <trkpt lat="48.83757" lon="2.40973">
        <ele>99.1</ele>
        <time>2015-03-09T21:10:41.375Z</time>
      </trkpt>
      <trkpt lat="48.83763" lon="2.40975">
        <ele>98.5</ele>
        <time>2015-03-09T21:10:42.228Z</time>
      </trkpt>
      <trkpt lat="48.83768" lon="2.40977">
        <ele>98.2</ele>
        <time>2015-03-09T21:10:43.254Z</time>
      </trkpt>
      <trkpt lat="48.83772" lon="2.4098">
        <ele>98.5</ele>
        <time>2015-03-09T21:10:44.256Z</time>
      </trkpt>
      <trkpt lat="48.83777" lon="2.40983">
        <ele>98.7</ele>
        <time>2015-03-09T21:10:45.275Z</time>
      </trkpt>
      <trkpt lat="48.8378" lon="2.40987">
        <ele>99.3</ele>
        <time>2015-03-09T21:10:46.359Z</time>
      </trkpt>
      <trkpt lat="48.83785" lon="2.40998">
        <ele>100.5</ele>
        <time>2015-03-09T21:10:49.404Z</time>
      </trkpt>
      <trkpt lat="48.83786" lon="2.41003">
        <ele>100.7</ele>
        <time>2015-03-09T21:10:49.449Z</time>
      </trkpt>
      <trkpt lat="48.83786" lon="2.41008">
        <ele>100.6</ele>
        <time>2015-03-09T21:10:50.346Z</time>
      </trkpt>
      <trkpt lat="48.83787" lon="2.41016">
        <ele>101.1</ele>
        <time>2015-03-09T21:10:51.291Z</time>
      </trkpt>
      <trkpt lat="48.83788" lon="2.41023">
        <ele>100.9</ele>
        <time>2015-03-09T21:10:52.302Z</time>
      </trkpt>
      <trkpt lat="48.83788" lon="2.4103">
        <ele>100.8</ele>
        <time>2015-03-09T21:10:53.311Z</time>
      </trkpt>
      <trkpt lat="48.83788" lon="2.41037">
        <ele>100.7</ele>
        <time>2015-03-09T21:10:54.461Z</time>
      </trkpt>
      <trkpt lat="48.83788" lon="2.41045">
        <ele>100.7</ele>
        <time>2015-03-09T21:10:55.299Z</time>
      </trkpt>
      <trkpt lat="48.83791" lon="2.41054">
        <ele>100.3</ele>
        <time>2015-03-09T21:10:56.220Z</time>
      </trkpt>
      <trkpt lat="48.83792" lon="2.41063">
        <ele>100.1</ele>
        <time>2015-03-09T21:10:57.227Z</time>
      </trkpt>
      <trkpt lat="48.83793" lon="2.41073">
        <ele>99.1</ele>
        <time>2015-03-09T21:10:58.233Z</time>
      </trkpt>
      <trkpt lat="48.83795" lon="2.41081">
        <ele>98.3</ele>
        <time>2015-03-09T21:10:59.243Z</time>
      </trkpt>
      <trkpt lat="48.83797" lon="2.4109">
        <ele>98.3</ele>
        <time>2015-03-09T21:11:00.253Z</time>
      </trkpt>
      <trkpt lat="48.83799" lon="2.41096">
        <ele>98.4</ele>
        <time>2015-03-09T21:11:01.281Z</time>
      </trkpt>
      <trkpt lat="48.83802" lon="2.41105">
        <ele>98.2</ele>
        <time>2015-03-09T21:11:02.301Z</time>
      </trkpt>
      <trkpt lat="48.83804" lon="2.41114">
        <ele>98.1</ele>
        <time>2015-03-09T21:11:03.220Z</time>
      </trkpt>
      <trkpt lat="48.83806" lon="2.41122">
        <ele>98.2</ele>
        <time>2015-03-09T21:11:04.221Z</time>
      </trkpt>
      <trkpt lat="48.83808" lon="2.41131">
        <ele>97.6</ele>
        <time>2015-03-09T21:11:05.225Z</time>
      </trkpt>
      <trkpt lat="48.83811" lon="2.4114">
        <ele>97.1</ele>
        <time>2015-03-09T21:11:06.275Z</time>
      </trkpt>
      <trkpt lat="48.83812" lon="2.41149">
        <ele>96.8</ele>
        <time>2015-03-09T21:11:07.291Z</time>
      </trkpt>
      <trkpt lat="48.83814" lon="2.41159">
        <ele>96.2</ele>
        <time>2015-03-09T21:11:08.250Z</time>
      </trkpt>
      <trkpt lat="48.83815" lon="2.41168">
        <ele>96.7</ele>
        <time>2015-03-09T21:11:09.245Z</time>
      </trkpt>
      <trkpt lat="48.83817" lon="2.41176">
        <ele>96.7</ele>
        <time>2015-03-09T21:11:10.305Z</time>
      </trkpt>
      <trkpt lat="48.83818" lon="2.41185">
        <ele>97.1</ele>
        <time>2015-03-09T21:11:11.305Z</time>
      </trkpt>
      <trkpt lat="48.8382" lon="2.41193">
        <ele>97.5</ele>
        <time>2015-03-09T21:11:12.283Z</time>
      </trkpt>
      <trkpt lat="48.83821" lon="2.41201">
        <ele>97.9</ele>
        <time>2015-03-09T21:11:13.310Z</time>
      </trkpt>
      <trkpt lat="48.83822" lon="2.4121">
        <ele>98.4</ele>
        <time>2015-03-09T21:11:14.262Z</time>
      </trkpt>
      <trkpt lat="48.83823" lon="2.41218">
        <ele>98.7</ele>
        <time>2015-03-09T21:11:15.284Z</time>
      </trkpt>
      <trkpt lat="48.83825" lon="2.41227">
        <ele>98.7</ele>
        <time>2015-03-09T21:11:16.288Z</time>
      </trkpt>
      <trkpt lat="48.83826" lon="2.41235">
        <ele>98.8</ele>
        <time>2015-03-09T21:11:17.292Z</time>
      </trkpt>
      <trkpt lat="48.83828" lon="2.41242">
        <ele>99</ele>
        <time>2015-03-09T21:11:18.307Z</time>
      </trkpt>
      <trkpt lat="48.83832" lon="2.4125">
        <ele>99.7</ele>
        <time>2015-03-09T21:11:19.311Z</time>
      </trkpt>
      <trkpt lat="48.83838" lon="2.41255">
        <ele>99.3</ele>
        <time>2015-03-09T21:11:21.224Z</time>
      </trkpt>
      <trkpt lat="48.83842" lon="2.41257">
        <ele>99.5</ele>
        <time>2015-03-09T21:11:22.246Z</time>
      </trkpt>
      <trkpt lat="48.83849" lon="2.4126">
        <ele>99.9</ele>
        <time>2015-03-09T21:11:24.252Z</time>
      </trkpt>
      <trkpt lat="48.83853" lon="2.41261">
        <ele>99.9</ele>
        <time>2015-03-09T21:11:25.276Z</time>
      </trkpt>
      <trkpt lat="48.83861" lon="2.41265">
        <ele>99.8</ele>
        <time>2015-03-09T21:11:27.294Z</time>
      </trkpt>
      <trkpt lat="48.83865" lon="2.41266">
        <ele>99.9</ele>
        <time>2015-03-09T21:11:28.310Z</time>
      </trkpt>
      <trkpt lat="48.83872" lon="2.41268">
        <ele>99.2</ele>
        <time>2015-03-09T21:11:30.216Z</time>
      </trkpt>
      <trkpt lat="48.83876" lon="2.41269">
        <ele>99</ele>
        <time>2015-03-09T21:11:31.291Z</time>
      </trkpt>
      <trkpt lat="48.83881" lon="2.41268">
        <ele>99.1</ele>
        <time>2015-03-09T21:11:32.217Z</time>
      </trkpt>
      <trkpt lat="48.83885" lon="2.41269">
        <ele>99.1</ele>
        <time>2015-03-09T21:11:33.212Z</time>
      </trkpt>
      <trkpt lat="48.8389" lon="2.41269">
        <ele>99.2</ele>
        <time>2015-03-09T21:11:34.300Z</time>
      </trkpt>
      <trkpt lat="48.83894" lon="2.4127">
        <ele>99.3</ele>
        <time>2015-03-09T21:11:35.291Z</time>
      </trkpt>
      <trkpt lat="48.83899" lon="2.41271">
        <ele>99.3</ele>
        <time>2015-03-09T21:11:36.187Z</time>
      </trkpt>
      <trkpt lat="48.83903" lon="2.41273">
        <ele>99</ele>
        <time>2015-03-09T21:11:37.239Z</time>
      </trkpt>
      <trkpt lat="48.83908" lon="2.41275">
        <ele>98.8</ele>
        <time>2015-03-09T21:11:38.249Z</time>
      </trkpt>
      <trkpt lat="48.83913" lon="2.41275">
        <ele>98.5</ele>
        <time>2015-03-09T21:11:39.261Z</time>
      </trkpt>
      <trkpt lat="48.83917" lon="2.41276">
        <ele>98.5</ele>
        <time>2015-03-09T21:11:40.289Z</time>
      </trkpt>
      <trkpt lat="48.83922" lon="2.41277">
        <ele>98.7</ele>
        <time>2015-03-09T21:11:41.255Z</time>
      </trkpt>
      <trkpt lat="48.83927" lon="2.41279">
        <ele>98.5</ele>
        <time>2015-03-09T21:11:42.267Z</time>
      </trkpt>
      <trkpt lat="48.83932" lon="2.41281">
        <ele>98.4</ele>
        <time>2015-03-09T21:11:43.284Z</time>
      </trkpt>
      <trkpt lat="48.83936" lon="2.41283">
        <ele>98.4</ele>
        <time>2015-03-09T21:11:44.301Z</time>
      </trkpt>
      <trkpt lat="48.83941" lon="2.41285">
        <ele>98.4</ele>
        <time>2015-03-09T21:11:45.209Z</time>
      </trkpt>
      <trkpt lat="48.83945" lon="2.41286">
        <ele>98.3</ele>
        <time>2015-03-09T21:11:46.210Z</time>
      </trkpt>
      <trkpt lat="48.8395" lon="2.41288">
        <ele>97.8</ele>
        <time>2015-03-09T21:11:47.268Z</time>
      </trkpt>
      <trkpt lat="48.83954" lon="2.4129">
        <ele>97.2</ele>
        <time>2015-03-09T21:11:48.317Z</time>
      </trkpt>
      <trkpt lat="48.83959" lon="2.41293">
        <ele>97.1</ele>
        <time>2015-03-09T21:11:49.322Z</time>
      </trkpt>
      <trkpt lat="48.83964" lon="2.41294">
        <ele>97.1</ele>
        <time>2015-03-09T21:11:50.243Z</time>
      </trkpt>
      <trkpt lat="48.83969" lon="2.41296">
        <ele>96.9</ele>
        <time>2015-03-09T21:11:51.284Z</time>
      </trkpt>
      <trkpt lat="48.83974" lon="2.41296">
        <ele>97</ele>
        <time>2015-03-09T21:11:52.226Z</time>
      </trkpt>
      <trkpt lat="48.83978" lon="2.41298">
        <ele>96.8</ele>
        <time>2015-03-09T21:11:53.242Z</time>
      </trkpt>
      <trkpt lat="48.83983" lon="2.413">
        <ele>96.6</ele>
        <time>2015-03-09T21:11:54.260Z</time>
      </trkpt>
      <trkpt lat="48.83987" lon="2.41304">
        <ele>96.4</ele>
        <time>2015-03-09T21:11:55.267Z</time>
      </trkpt>
      <trkpt lat="48.83992" lon="2.41315">
        <ele>96.4</ele>
        <time>2015-03-09T21:11:57.180Z</time>
      </trkpt>
      <trkpt lat="48.83994" lon="2.41319">
        <ele>96.4</ele>
        <time>2015-03-09T21:11:58.294Z</time>
      </trkpt>
      <trkpt lat="48.83995" lon="2.41342">
        <ele>96</ele>
        <time>2015-03-09T21:12:07.200Z</time>
      </trkpt>
      <trkpt lat="48.83987" lon="2.41351">
        <ele>94.8</ele>
        <time>2015-03-09T21:12:08.214Z</time>
      </trkpt>
      <trkpt lat="48.83983" lon="2.41361">
        <ele>95.6</ele>
        <time>2015-03-09T21:12:10.235Z</time>
      </trkpt>
      <trkpt lat="48.83981" lon="2.41365">
        <ele>95.6</ele>
        <time>2015-03-09T21:12:11.181Z</time>
      </trkpt>
      <trkpt lat="48.83983" lon="2.41378">
        <ele>92.5</ele>
        <time>2015-03-09T21:12:29.213Z</time>
      </trkpt>
      <trkpt lat="48.83984" lon="2.41378">
        <ele>92.8</ele>
        <time>2015-03-09T21:12:30.226Z</time>
      </trkpt>
      <trkpt lat="48.8399" lon="2.41381">
        <ele>95.2</ele>
        <time>2015-03-09T21:12:32.290Z</time>
      </trkpt>
      <trkpt lat="48.83993" lon="2.41382">
        <ele>95.9</ele>
        <time>2015-03-09T21:12:33.297Z</time>
      </trkpt>
      <trkpt lat="48.84" lon="2.41386">
        <ele>97.1</ele>
        <time>2015-03-09T21:12:35.199Z</time>
      </trkpt>
      <trkpt lat="48.84003" lon="2.41387">
        <ele>97.6</ele>
        <time>2015-03-09T21:12:36.225Z</time>
      </trkpt>
      <trkpt lat="48.8401" lon="2.41389">
        <ele>99.2</ele>
        <time>2015-03-09T21:12:38.233Z</time>
      </trkpt>
      <trkpt lat="48.84013" lon="2.4139">
        <ele>100.5</ele>
        <time>2015-03-09T21:12:39.259Z</time>
      </trkpt>
      <trkpt lat="48.8402" lon="2.41391">
        <ele>102.8</ele>
        <time>2015-03-09T21:12:41.200Z</time>
      </trkpt>
      <trkpt lat="48.84023" lon="2.41391">
        <ele>103.5</ele>
        <time>2015-03-09T21:12:42.227Z</time>
      </trkpt>
      <trkpt lat="48.8403" lon="2.41392">
        <ele>103.8</ele>
        <time>2015-03-09T21:12:46.284Z</time>
      </trkpt>
      <trkpt lat="48.84034" lon="2.41394">
        <ele>102.6</ele>
        <time>2015-03-09T21:12:47.298Z</time>
      </trkpt>
      <trkpt lat="48.8404" lon="2.41396">
        <ele>101.1</ele>
        <time>2015-03-09T21:12:49.240Z</time>
      </trkpt>
      <trkpt lat="48.84043" lon="2.41397">
        <ele>101.1</ele>
        <time>2015-03-09T21:12:50.244Z</time>
      </trkpt>
      <trkpt lat="48.84051" lon="2.41397">
        <ele>101.6</ele>
        <time>2015-03-09T21:12:53.218Z</time>
      </trkpt>
      <trkpt lat="48.84053" lon="2.41397">
        <ele>101.7</ele>
        <time>2015-03-09T21:12:54.229Z</time>
      </trkpt>
      <trkpt lat="48.84061" lon="2.414">
        <ele>102.9</ele>
        <time>2015-03-09T21:12:58.280Z</time>
      </trkpt>
      <trkpt lat="48.84063" lon="2.414">
        <ele>103</ele>
        <time>2015-03-09T21:12:59.293Z</time>
      </trkpt>
      <trkpt lat="48.8407" lon="2.41401">
        <ele>102.5</ele>
        <time>2015-03-09T21:13:03.277Z</time>
      </trkpt>
      <trkpt lat="48.84073" lon="2.41402">
        <ele>102.6</ele>
        <time>2015-03-09T21:13:04.180Z</time>
      </trkpt>
      <trkpt lat="48.8408" lon="2.41403">
        <ele>102.8</ele>
        <time>2015-03-09T21:13:06.252Z</time>
      </trkpt>
      <trkpt lat="48.84084" lon="2.41403">
        <ele>102.3</ele>
        <time>2015-03-09T21:13:07.305Z</time>
      </trkpt>
      <trkpt lat="48.84091" lon="2.41405">
        <ele>102.4</ele>
        <time>2015-03-09T21:13:09.186Z</time>
      </trkpt>
      <trkpt lat="48.84094" lon="2.41405">
        <ele>102.5</ele>
        <time>2015-03-09T21:13:10.204Z</time>
      </trkpt>
      <trkpt lat="48.84102" lon="2.41406">
        <ele>103.1</ele>
        <time>2015-03-09T21:13:14.063Z</time>
      </trkpt>
      <trkpt lat="48.84105" lon="2.41407">
        <ele>103.1</ele>
        <time>2015-03-09T21:13:14.156Z</time>
      </trkpt>
      <trkpt lat="48.84111" lon="2.41408">
        <ele>102.9</ele>
        <time>2015-03-09T21:13:16.203Z</time>
      </trkpt>
      <trkpt lat="48.84115" lon="2.41408">
        <ele>102.2</ele>
        <time>2015-03-09T21:13:17.223Z</time>
      </trkpt>
      <trkpt lat="48.84123" lon="2.41406">
        <ele>99.5</ele>
        <time>2015-03-09T21:13:19.246Z</time>
      </trkpt>
      <trkpt lat="48.84127" lon="2.41405">
        <ele>98.9</ele>
        <time>2015-03-09T21:13:20.340Z</time>
      </trkpt>
      <trkpt lat="48.84135" lon="2.41409">
        <ele>99.6</ele>
        <time>2015-03-09T21:13:24.117Z</time>
      </trkpt>
      <trkpt lat="48.84137" lon="2.4141">
        <ele>99.5</ele>
        <time>2015-03-09T21:13:24.193Z</time>
      </trkpt>
      <trkpt lat="48.84145" lon="2.41415">
        <ele>99.7</ele>
        <time>2015-03-09T21:13:27.225Z</time>
      </trkpt>
      <trkpt lat="48.84149" lon="2.41414">
        <ele>99</ele>
        <time>2015-03-09T21:13:28.228Z</time>
      </trkpt>
      <trkpt lat="48.84156" lon="2.41414">
        <ele>98.4</ele>
        <time>2015-03-09T21:13:30.188Z</time>
      </trkpt>
      <trkpt lat="48.84159" lon="2.41415">
        <ele>98.5</ele>
        <time>2015-03-09T21:13:31.212Z</time>
      </trkpt>
      <trkpt lat="48.84166" lon="2.41418">
        <ele>98.9</ele>
        <time>2015-03-09T21:13:33.247Z</time>
      </trkpt>
      <trkpt lat="48.8417" lon="2.41421">
        <ele>98.9</ele>
        <time>2015-03-09T21:13:34.455Z</time>
      </trkpt>
      <trkpt lat="48.84175" lon="2.41425">
        <ele>99.1</ele>
        <time>2015-03-09T21:13:36.206Z</time>
      </trkpt>
      <trkpt lat="48.84179" lon="2.41426">
        <ele>98.4</ele>
        <time>2015-03-09T21:13:37.222Z</time>
      </trkpt>
      <trkpt lat="48.84185" lon="2.41427">
        <ele>97.8</ele>
        <time>2015-03-09T21:13:39.480Z</time>
      </trkpt>
      <trkpt lat="48.84188" lon="2.41428">
        <ele>98</ele>
        <time>2015-03-09T21:13:40.244Z</time>
      </trkpt>
      <trkpt lat="48.84195" lon="2.41429">
        <ele>98.3</ele>
        <time>2015-03-09T21:13:42.279Z</time>
      </trkpt>
      <trkpt lat="48.84199" lon="2.4143">
        <ele>98.2</ele>
        <time>2015-03-09T21:13:43.302Z</time>
      </trkpt>
      <trkpt lat="48.84206" lon="2.41432">
        <ele>97.2</ele>
        <time>2015-03-09T21:13:45.192Z</time>
      </trkpt>
      <trkpt lat="48.8421" lon="2.41433">
        <ele>97</ele>
        <time>2015-03-09T21:13:46.196Z</time>
      </trkpt>
      <trkpt lat="48.84218" lon="2.41434">
        <ele>97</ele>
        <time>2015-03-09T21:13:48.242Z</time>
      </trkpt>
      <trkpt lat="48.84221" lon="2.41435">
        <ele>96.8</ele>
        <time>2015-03-09T21:13:49.257Z</time>
      </trkpt>
      <trkpt lat="48.84229" lon="2.41436">
        <ele>96.4</ele>
        <time>2015-03-09T21:13:51.273Z</time>
      </trkpt>
      <trkpt lat="48.84233" lon="2.41437">
        <ele>96.4</ele>
        <time>2015-03-09T21:13:52.280Z</time>
      </trkpt>
      <trkpt lat="48.84239" lon="2.41437">
        <ele>96.7</ele>
        <time>2015-03-09T21:13:54.437Z</time>
      </trkpt>
      <trkpt lat="48.84242" lon="2.41437">
        <ele>96.8</ele>
        <time>2015-03-09T21:13:55.224Z</time>
      </trkpt>
      <trkpt lat="48.84251" lon="2.41438">
        <ele>96.4</ele>
        <time>2015-03-09T21:13:57.245Z</time>
      </trkpt>
      <trkpt lat="48.84255" lon="2.41439">
        <ele>96.3</ele>
        <time>2015-03-09T21:13:58.251Z</time>
      </trkpt>
      <trkpt lat="48.8426" lon="2.41437">
        <ele>95.9</ele>
        <time>2015-03-09T21:13:59.452Z</time>
      </trkpt>
      <trkpt lat="48.84265" lon="2.41436">
        <ele>95.6</ele>
        <time>2015-03-09T21:14:00.322Z</time>
      </trkpt>
      <trkpt lat="48.84273" lon="2.41437">
        <ele>95.6</ele>
        <time>2015-03-09T21:14:02.186Z</time>
      </trkpt>
      <trkpt lat="48.84276" lon="2.41437">
        <ele>95.9</ele>
        <time>2015-03-09T21:14:03.190Z</time>
      </trkpt>
      <trkpt lat="48.84282" lon="2.41438">
        <ele>96.3</ele>
        <time>2015-03-09T21:14:05.237Z</time>
      </trkpt>
      <trkpt lat="48.84286" lon="2.41439">
        <ele>96.3</ele>
        <time>2015-03-09T21:14:06.236Z</time>
      </trkpt>
      <trkpt lat="48.84294" lon="2.41439">
        <ele>96.7</ele>
        <time>2015-03-09T21:14:08.190Z</time>
      </trkpt>
      <trkpt lat="48.84298" lon="2.4144">
        <ele>96.7</ele>
        <time>2015-03-09T21:14:09.310Z</time>
      </trkpt>
      <trkpt lat="48.84306" lon="2.41442">
        <ele>96.6</ele>
        <time>2015-03-09T21:14:11.210Z</time>
      </trkpt>
      <trkpt lat="48.84311" lon="2.41443">
        <ele>96.5</ele>
        <time>2015-03-09T21:14:12.237Z</time>
      </trkpt>
      <trkpt lat="48.84316" lon="2.41445">
        <ele>95.6</ele>
        <time>2015-03-09T21:14:13.241Z</time>
      </trkpt>
      <trkpt lat="48.8432" lon="2.41446">
        <ele>95</ele>
        <time>2015-03-09T21:14:14.252Z</time>
      </trkpt>
      <trkpt lat="48.84326" lon="2.41447">
        <ele>94.2</ele>
        <time>2015-03-09T21:14:15.255Z</time>
      </trkpt>
      <trkpt lat="48.84331" lon="2.41447">
        <ele>93.6</ele>
        <time>2015-03-09T21:14:16.261Z</time>
      </trkpt>
      <trkpt lat="48.84336" lon="2.41447">
        <ele>92.8</ele>
        <time>2015-03-09T21:14:17.273Z</time>
      </trkpt>
      <trkpt lat="48.8434" lon="2.41447">
        <ele>92.9</ele>
        <time>2015-03-09T21:14:18.183Z</time>
      </trkpt>
      <trkpt lat="48.84349" lon="2.41448">
        <ele>92.7</ele>
        <time>2015-03-09T21:14:20.241Z</time>
      </trkpt>
      <trkpt lat="48.84353" lon="2.41449">
        <ele>92.8</ele>
        <time>2015-03-09T21:14:21.258Z</time>
      </trkpt>
      <trkpt lat="48.84361" lon="2.41449">
        <ele>92.9</ele>
        <time>2015-03-09T21:14:23.280Z</time>
      </trkpt>
      <trkpt lat="48.84365" lon="2.41449">
        <ele>92.4</ele>
        <time>2015-03-09T21:14:24.299Z</time>
      </trkpt>
      <trkpt lat="48.84374" lon="2.41453">
        <ele>93.3</ele>
        <time>2015-03-09T21:14:27.207Z</time>
      </trkpt>
      <trkpt lat="48.84375" lon="2.41454">
        <ele>93.9</ele>
        <time>2015-03-09T21:14:28.218Z</time>
      </trkpt>
      <trkpt lat="48.84382" lon="2.41446">
        <ele>97.4</ele>
        <time>2015-03-09T21:14:45.265Z</time>
      </trkpt>
      <trkpt lat="48.84384" lon="2.41445">
        <ele>97.2</ele>
        <time>2015-03-09T21:14:46.308Z</time>
      </trkpt>
      <trkpt lat="48.8439" lon="2.41438">
        <ele>97.3</ele>
        <time>2015-03-09T21:14:49.246Z</time>
      </trkpt>
      <trkpt lat="48.84393" lon="2.41435">
        <ele>97.8</ele>
        <time>2015-03-09T21:14:50.271Z</time>
      </trkpt>
      <trkpt lat="48.84398" lon="2.41425">
        <ele>97.7</ele>
        <time>2015-03-09T21:14:53.218Z</time>
      </trkpt>
      <trkpt lat="48.844" lon="2.41421">
        <ele>98.2</ele>
        <time>2015-03-09T21:14:54.239Z</time>
      </trkpt>
      <trkpt lat="48.84403" lon="2.41409">
        <ele>99</ele>
        <time>2015-03-09T21:14:57.181Z</time>
      </trkpt>
      <trkpt lat="48.84403" lon="2.41405">
        <ele>98.9</ele>
        <time>2015-03-09T21:14:58.215Z</time>
      </trkpt>
      <trkpt lat="48.84404" lon="2.41392">
        <ele>98.6</ele>
        <time>2015-03-09T21:15:01.260Z</time>
      </trkpt>
      <trkpt lat="48.84404" lon="2.41387">
        <ele>98.8</ele>
        <time>2015-03-09T21:15:02.194Z</time>
      </trkpt>
      <trkpt lat="48.84406" lon="2.41377">
        <ele>99</ele>
        <time>2015-03-09T21:15:04.217Z</time>
      </trkpt>
      <trkpt lat="48.84406" lon="2.41371">
        <ele>99.1</ele>
        <time>2015-03-09T21:15:05.389Z</time>
      </trkpt>
      <trkpt lat="48.84409" lon="2.41361">
        <ele>99.3</ele>
        <time>2015-03-09T21:15:07.343Z</time>
      </trkpt>
      <trkpt lat="48.84409" lon="2.41356">
        <ele>99.4</ele>
        <time>2015-03-09T21:15:08.338Z</time>
      </trkpt>
      <trkpt lat="48.8441" lon="2.41346">
        <ele>99.9</ele>
        <time>2015-03-09T21:15:10.283Z</time>
      </trkpt>
      <trkpt lat="48.84411" lon="2.41341">
        <ele>100</ele>
        <time>2015-03-09T21:15:11.272Z</time>
      </trkpt>
      <trkpt lat="48.84413" lon="2.4133">
        <ele>100.7</ele>
        <time>2015-03-09T21:15:14.212Z</time>
      </trkpt>
      <trkpt lat="48.84413" lon="2.41327">
        <ele>100.9</ele>
        <time>2015-03-09T21:15:15.234Z</time>
      </trkpt>
      <trkpt lat="48.84412" lon="2.41316">
        <ele>101.2</ele>
        <time>2015-03-09T21:15:18.307Z</time>
      </trkpt>
      <trkpt lat="48.84412" lon="2.41312">
        <ele>101.1</ele>
        <time>2015-03-09T21:15:19.260Z</time>
      </trkpt>
      <trkpt lat="48.84413" lon="2.41303">
        <ele>101.1</ele>
        <time>2015-03-09T21:15:21.274Z</time>
      </trkpt>
      <trkpt lat="48.84414" lon="2.41297">
        <ele>101.2</ele>
        <time>2015-03-09T21:15:22.287Z</time>
      </trkpt>
      <trkpt lat="48.84416" lon="2.41287">
        <ele>101.5</ele>
        <time>2015-03-09T21:15:24.209Z</time>
      </trkpt>
      <trkpt lat="48.84416" lon="2.4128">
        <ele>101.8</ele>
        <time>2015-03-09T21:15:25.255Z</time>
      </trkpt>
      <trkpt lat="48.84418" lon="2.41269">
        <ele>101.9</ele>
        <time>2015-03-09T21:15:27.283Z</time>
      </trkpt>
      <trkpt lat="48.84419" lon="2.41263">
        <ele>101.7</ele>
        <time>2015-03-09T21:15:28.289Z</time>
      </trkpt>
      <trkpt lat="48.84421" lon="2.41251">
        <ele>101.8</ele>
        <time>2015-03-09T21:15:30.212Z</time>
      </trkpt>
      <trkpt lat="48.84423" lon="2.41245">
        <ele>101.9</ele>
        <time>2015-03-09T21:15:31.267Z</time>
      </trkpt>
      <trkpt lat="48.84425" lon="2.41235">
        <ele>101.8</ele>
        <time>2015-03-09T21:15:33.174Z</time>
      </trkpt>
      <trkpt lat="48.84426" lon="2.4123">
        <ele>101.5</ele>
        <time>2015-03-09T21:15:34.180Z</time>
      </trkpt>
      <trkpt lat="48.84428" lon="2.41217">
        <ele>101.1</ele>
        <time>2015-03-09T21:15:36.212Z</time>
      </trkpt>
      <trkpt lat="48.84428" lon="2.41211">
        <ele>100.9</ele>
        <time>2015-03-09T21:15:37.211Z</time>
      </trkpt>
      <trkpt lat="48.84431" lon="2.41201">
        <ele>100.6</ele>
        <time>2015-03-09T21:15:39.414Z</time>
      </trkpt>
      <trkpt lat="48.84433" lon="2.41196">
        <ele>100.5</ele>
        <time>2015-03-09T21:15:40.191Z</time>
      </trkpt>
      <trkpt lat="48.84436" lon="2.41184">
        <ele>100.2</ele>
        <time>2015-03-09T21:15:42.250Z</time>
      </trkpt>
      <trkpt lat="48.84437" lon="2.41176">
        <ele>100</ele>
        <time>2015-03-09T21:15:43.278Z</time>
      </trkpt>
      <trkpt lat="48.84437" lon="2.41168">
        <ele>99.9</ele>
        <time>2015-03-09T21:15:44.293Z</time>
      </trkpt>
      <trkpt lat="48.84438" lon="2.41161">
        <ele>99.9</ele>
        <time>2015-03-09T21:15:45.267Z</time>
      </trkpt>
      <trkpt lat="48.84438" lon="2.41153">
        <ele>99.8</ele>
        <time>2015-03-09T21:15:46.209Z</time>
      </trkpt>
      <trkpt lat="48.84438" lon="2.41146">
        <ele>99.8</ele>
        <time>2015-03-09T21:15:47.234Z</time>
      </trkpt>
      <trkpt lat="48.84438" lon="2.4114">
        <ele>99.7</ele>
        <time>2015-03-09T21:15:48.240Z</time>
      </trkpt>
      <trkpt lat="48.84436" lon="2.41133">
        <ele>99.7</ele>
        <time>2015-03-09T21:15:49.374Z</time>
      </trkpt>
      <trkpt lat="48.84434" lon="2.41126">
        <ele>99.6</ele>
        <time>2015-03-09T21:15:50.168Z</time>
      </trkpt>
      <trkpt lat="48.84433" lon="2.41119">
        <ele>99.5</ele>
        <time>2015-03-09T21:15:51.192Z</time>
      </trkpt>
      <trkpt lat="48.84433" lon="2.41106">
        <ele>99.4</ele>
        <time>2015-03-09T21:15:53.196Z</time>
      </trkpt>
      <trkpt lat="48.84434" lon="2.41098">
        <ele>99.7</ele>
        <time>2015-03-09T21:15:54.258Z</time>
      </trkpt>
      <trkpt lat="48.84435" lon="2.41088">
        <ele>99.4</ele>
        <time>2015-03-09T21:15:55.343Z</time>
      </trkpt>
      <trkpt lat="48.84436" lon="2.41082">
        <ele>99.3</ele>
        <time>2015-03-09T21:15:56.190Z</time>
      </trkpt>
      <trkpt lat="48.84435" lon="2.4107">
        <ele>99.6</ele>
        <time>2015-03-09T21:15:58.216Z</time>
      </trkpt>
      <trkpt lat="48.84434" lon="2.41066">
        <ele>99.6</ele>
        <time>2015-03-09T21:15:59.222Z</time>
      </trkpt>
      <trkpt lat="48.84433" lon="2.41056">
        <ele>99.7</ele>
        <time>2015-03-09T21:16:01.271Z</time>
      </trkpt>
      <trkpt lat="48.84434" lon="2.4105">
        <ele>99.7</ele>
        <time>2015-03-09T21:16:02.272Z</time>
      </trkpt>
      <trkpt lat="48.84435" lon="2.4104">
        <ele>99.7</ele>
        <time>2015-03-09T21:16:04.188Z</time>
      </trkpt>
      <trkpt lat="48.84436" lon="2.41035">
        <ele>99.6</ele>
        <time>2015-03-09T21:16:05.200Z</time>
      </trkpt>
      <trkpt lat="48.84435" lon="2.41025">
        <ele>101</ele>
        <time>2015-03-09T21:16:07.276Z</time>
      </trkpt>
      <trkpt lat="48.84434" lon="2.41019">
        <ele>101.6</ele>
        <time>2015-03-09T21:16:08.277Z</time>
      </trkpt>
      <trkpt lat="48.84434" lon="2.41006">
        <ele>103.2</ele>
        <time>2015-03-09T21:16:10.246Z</time>
      </trkpt>
      <trkpt lat="48.84434" lon="2.40999">
        <ele>103.8</ele>
        <time>2015-03-09T21:16:11.334Z</time>
      </trkpt>
      <trkpt lat="48.84435" lon="2.40991">
        <ele>104.4</ele>
        <time>2015-03-09T21:16:12.213Z</time>
      </trkpt>
      <trkpt lat="48.84436" lon="2.40982">
        <ele>104.7</ele>
        <time>2015-03-09T21:16:13.221Z</time>
      </trkpt>
      <trkpt lat="48.84435" lon="2.40975">
        <ele>105.1</ele>
        <time>2015-03-09T21:16:14.266Z</time>
      </trkpt>
      <trkpt lat="48.84434" lon="2.40968">
        <ele>105.6</ele>
        <time>2015-03-09T21:16:15.283Z</time>
      </trkpt>
      <trkpt lat="48.84435" lon="2.40961">
        <ele>105.9</ele>
        <time>2015-03-09T21:16:16.206Z</time>
      </trkpt>
      <trkpt lat="48.84435" lon="2.40953">
        <ele>106.2</ele>
        <time>2015-03-09T21:16:17.216Z</time>
      </trkpt>
      <trkpt lat="48.84435" lon="2.40946">
        <ele>106.5</ele>
        <time>2015-03-09T21:16:18.228Z</time>
      </trkpt>
      <trkpt lat="48.84436" lon="2.40938">
        <ele>106.3</ele>
        <time>2015-03-09T21:16:19.300Z</time>
      </trkpt>
      <trkpt lat="48.84437" lon="2.40929">
        <ele>106.5</ele>
        <time>2015-03-09T21:16:20.261Z</time>
      </trkpt>
      <trkpt lat="48.84436" lon="2.40923">
        <ele>106.7</ele>
        <time>2015-03-09T21:16:21.262Z</time>
      </trkpt>
      <trkpt lat="48.84439" lon="2.4089">
        <ele>105.2</ele>
        <time>2015-03-09T21:16:25.340Z</time>
      </trkpt>
      <trkpt lat="48.8444" lon="2.4088">
        <ele>105.4</ele>
        <time>2015-03-09T21:16:26.218Z</time>
      </trkpt>
      <trkpt lat="48.84439" lon="2.40871">
        <ele>105.3</ele>
        <time>2015-03-09T21:16:27.224Z</time>
      </trkpt>
      <trkpt lat="48.8444" lon="2.40861">
        <ele>105.4</ele>
        <time>2015-03-09T21:16:28.270Z</time>
      </trkpt>
      <trkpt lat="48.8444" lon="2.40851">
        <ele>105.6</ele>
        <time>2015-03-09T21:16:29.215Z</time>
      </trkpt>
      <trkpt lat="48.84442" lon="2.40841">
        <ele>105.7</ele>
        <time>2015-03-09T21:16:30.243Z</time>
      </trkpt>
      <trkpt lat="48.84442" lon="2.40831">
        <ele>105.7</ele>
        <time>2015-03-09T21:16:31.276Z</time>
      </trkpt>
      <trkpt lat="48.84442" lon="2.4082">
        <ele>105.8</ele>
        <time>2015-03-09T21:16:32.295Z</time>
      </trkpt>
      <trkpt lat="48.84443" lon="2.40811">
        <ele>105.7</ele>
        <time>2015-03-09T21:16:33.204Z</time>
      </trkpt>
      <trkpt lat="48.84443" lon="2.408">
        <ele>105.7</ele>
        <time>2015-03-09T21:16:34.221Z</time>
      </trkpt>
      <trkpt lat="48.84444" lon="2.4079">
        <ele>105.7</ele>
        <time>2015-03-09T21:16:35.181Z</time>
      </trkpt>
      <trkpt lat="48.84445" lon="2.40779">
        <ele>105.8</ele>
        <time>2015-03-09T21:16:36.194Z</time>
      </trkpt>
      <trkpt lat="48.84446" lon="2.40767">
        <ele>105.9</ele>
        <time>2015-03-09T21:16:37.210Z</time>
      </trkpt>
      <trkpt lat="48.84447" lon="2.40753">
        <ele>105.9</ele>
        <time>2015-03-09T21:16:38.231Z</time>
      </trkpt>
      <trkpt lat="48.84449" lon="2.40741">
        <ele>105.9</ele>
        <time>2015-03-09T21:16:39.216Z</time>
      </trkpt>
      <trkpt lat="48.84451" lon="2.4073">
        <ele>106.2</ele>
        <time>2015-03-09T21:16:40.231Z</time>
      </trkpt>
      <trkpt lat="48.84454" lon="2.40719">
        <ele>106.5</ele>
        <time>2015-03-09T21:16:41.237Z</time>
      </trkpt>
      <trkpt lat="48.84457" lon="2.40709">
        <ele>106.9</ele>
        <time>2015-03-09T21:16:42.249Z</time>
      </trkpt>
      <trkpt lat="48.8446" lon="2.40698">
        <ele>107.3</ele>
        <time>2015-03-09T21:16:43.270Z</time>
      </trkpt>
      <trkpt lat="48.84462" lon="2.4069">
        <ele>107.4</ele>
        <time>2015-03-09T21:16:44.169Z</time>
      </trkpt>
      <trkpt lat="48.84465" lon="2.40681">
        <ele>107.5</ele>
        <time>2015-03-09T21:16:45.193Z</time>
      </trkpt>
      <trkpt lat="48.84466" lon="2.40673">
        <ele>106.9</ele>
        <time>2015-03-09T21:16:46.208Z</time>
      </trkpt>
      <trkpt lat="48.84466" lon="2.40664">
        <ele>106.6</ele>
        <time>2015-03-09T21:16:47.264Z</time>
      </trkpt>
      <trkpt lat="48.84467" lon="2.40656">
        <ele>106.4</ele>
        <time>2015-03-09T21:16:48.207Z</time>
      </trkpt>
      <trkpt lat="48.84469" lon="2.40647">
        <ele>106.8</ele>
        <time>2015-03-09T21:16:49.233Z</time>
      </trkpt>
      <trkpt lat="48.84471" lon="2.4064">
        <ele>107.2</ele>
        <time>2015-03-09T21:16:50.235Z</time>
      </trkpt>
      <trkpt lat="48.84473" lon="2.40633">
        <ele>107.3</ele>
        <time>2015-03-09T21:16:51.380Z</time>
      </trkpt>
      <trkpt lat="48.84475" lon="2.40626">
        <ele>107.6</ele>
        <time>2015-03-09T21:16:52.235Z</time>
      </trkpt>
      <trkpt lat="48.8448" lon="2.40617">
        <ele>108</ele>
        <time>2015-03-09T21:16:54.180Z</time>
      </trkpt>
      <trkpt lat="48.84481" lon="2.40612">
        <ele>108.1</ele>
        <time>2015-03-09T21:16:55.208Z</time>
      </trkpt>
      <trkpt lat="48.8448" lon="2.40602">
        <ele>108</ele>
        <time>2015-03-09T21:16:57.168Z</time>
      </trkpt>
      <trkpt lat="48.8448" lon="2.40597">
        <ele>108</ele>
        <time>2015-03-09T21:16:58.177Z</time>
      </trkpt>
      <trkpt lat="48.8448" lon="2.40592">
        <ele>107.4</ele>
        <time>2015-03-09T21:17:20.188Z</time>
      </trkpt>
      <trkpt lat="48.84463" lon="2.40568">
        <ele>107.5</ele>
        <time>2015-03-09T21:17:21.186Z</time>
      </trkpt>
      <trkpt lat="48.84465" lon="2.40556">
        <ele>108.6</ele>
        <time>2015-03-09T21:17:25.229Z</time>
      </trkpt>
      <trkpt lat="48.84467" lon="2.40552">
        <ele>108.6</ele>
        <time>2015-03-09T21:17:26.195Z</time>
      </trkpt>
      <trkpt lat="48.84471" lon="2.40543">
        <ele>108.9</ele>
        <time>2015-03-09T21:17:28.200Z</time>
      </trkpt>
      <trkpt lat="48.84474" lon="2.40539">
        <ele>109.2</ele>
        <time>2015-03-09T21:17:29.241Z</time>
      </trkpt>
      <trkpt lat="48.84478" lon="2.4053">
        <ele>109.5</ele>
        <time>2015-03-09T21:17:31.240Z</time>
      </trkpt>
      <trkpt lat="48.84479" lon="2.40524">
        <ele>109.6</ele>
        <time>2015-03-09T21:17:32.165Z</time>
      </trkpt>
      <trkpt lat="48.84481" lon="2.40516">
        <ele>109.8</ele>
        <time>2015-03-09T21:17:33.171Z</time>
      </trkpt>
      <trkpt lat="48.84482" lon="2.40507">
        <ele>110.2</ele>
        <time>2015-03-09T21:17:34.334Z</time>
      </trkpt>
      <trkpt lat="48.84482" lon="2.40498">
        <ele>110.3</ele>
        <time>2015-03-09T21:17:35.255Z</time>
      </trkpt>
      <trkpt lat="48.84482" lon="2.40488">
        <ele>110.5</ele>
        <time>2015-03-09T21:17:36.173Z</time>
      </trkpt>
      <trkpt lat="48.84482" lon="2.40478">
        <ele>110.7</ele>
        <time>2015-03-09T21:17:37.196Z</time>
      </trkpt>
      <trkpt lat="48.84482" lon="2.40466">
        <ele>111</ele>
        <time>2015-03-09T21:17:38.255Z</time>
      </trkpt>
      <trkpt lat="48.84481" lon="2.40455">
        <ele>111.3</ele>
        <time>2015-03-09T21:17:39.283Z</time>
      </trkpt>
      <trkpt lat="48.8448" lon="2.40445">
        <ele>111.4</ele>
        <time>2015-03-09T21:17:40.180Z</time>
      </trkpt>
      <trkpt lat="48.84478" lon="2.40435">
        <ele>111.8</ele>
        <time>2015-03-09T21:17:41.195Z</time>
      </trkpt>
      <trkpt lat="48.84477" lon="2.40425">
        <ele>112.1</ele>
        <time>2015-03-09T21:17:42.194Z</time>
      </trkpt>
      <trkpt lat="48.84478" lon="2.40414">
        <ele>112.4</ele>
        <time>2015-03-09T21:17:43.236Z</time>
      </trkpt>
      <trkpt lat="48.84479" lon="2.40404">
        <ele>112.6</ele>
        <time>2015-03-09T21:17:44.180Z</time>
      </trkpt>
      <trkpt lat="48.8448" lon="2.40393">
        <ele>112.9</ele>
        <time>2015-03-09T21:17:45.176Z</time>
      </trkpt>
      <trkpt lat="48.84483" lon="2.40383">
        <ele>113.2</ele>
        <time>2015-03-09T21:17:46.185Z</time>
      </trkpt>
      <trkpt lat="48.84484" lon="2.40373">
        <ele>112.8</ele>
        <time>2015-03-09T21:17:47.219Z</time>
      </trkpt>
      <trkpt lat="48.84486" lon="2.40362">
        <ele>112.6</ele>
        <time>2015-03-09T21:17:48.226Z</time>
      </trkpt>
      <trkpt lat="48.8449" lon="2.40351">
        <ele>112.7</ele>
        <time>2015-03-09T21:17:49.235Z</time>
      </trkpt>
      <trkpt lat="48.84493" lon="2.40339">
        <ele>112.9</ele>
        <time>2015-03-09T21:17:50.235Z</time>
      </trkpt>
      <trkpt lat="48.84494" lon="2.40327">
        <ele>113.8</ele>
        <time>2015-03-09T21:17:51.255Z</time>
      </trkpt>
      <trkpt lat="48.84495" lon="2.40316">
        <ele>114.1</ele>
        <time>2015-03-09T21:17:52.176Z</time>
      </trkpt>
      <trkpt lat="48.84494" lon="2.40306">
        <ele>114.5</ele>
        <time>2015-03-09T21:17:53.182Z</time>
      </trkpt>
      <trkpt lat="48.84494" lon="2.40298">
        <ele>114.3</ele>
        <time>2015-03-09T21:17:54.202Z</time>
      </trkpt>
      <trkpt lat="48.84508" lon="2.40247">
        <ele>113.1</ele>
        <time>2015-03-09T21:18:03.191Z</time>
      </trkpt>
      <trkpt lat="48.84507" lon="2.40237">
        <ele>113.1</ele>
        <time>2015-03-09T21:18:05.186Z</time>
      </trkpt>
      <trkpt lat="48.84506" lon="2.40231">
        <ele>113</ele>
        <time>2015-03-09T21:18:06.183Z</time>
      </trkpt>
      <trkpt lat="48.84506" lon="2.40221">
        <ele>113.3</ele>
        <time>2015-03-09T21:18:08.213Z</time>
      </trkpt>
      <trkpt lat="48.84504" lon="2.40216">
        <ele>113.5</ele>
        <time>2015-03-09T21:18:09.222Z</time>
      </trkpt>
      <trkpt lat="48.845" lon="2.40207">
        <ele>111.9</ele>
        <time>2015-03-09T21:18:14.256Z</time>
      </trkpt>
      <trkpt lat="48.845" lon="2.40207">
        <ele>111.8</ele>
        <time>2015-03-09T21:18:15.158Z</time>
      </trkpt>
      <trkpt lat="48.84501" lon="2.40208">
        <ele>111.3</ele>
        <time>2015-03-09T21:18:30.242Z</time>
      </trkpt>
      <trkpt lat="48.84497" lon="2.40199">
        <ele>110.8</ele>
        <time>2015-03-09T21:18:31.254Z</time>
      </trkpt>
      <trkpt lat="48.84492" lon="2.40193">
        <ele>110.8</ele>
        <time>2015-03-09T21:18:33.177Z</time>
      </trkpt>
      <trkpt lat="48.84491" lon="2.40189">
        <ele>110.5</ele>
        <time>2015-03-09T21:18:34.191Z</time>
      </trkpt>
      <trkpt lat="48.84489" lon="2.40179">
        <ele>110.5</ele>
        <time>2015-03-09T21:18:36.242Z</time>
      </trkpt>
      <trkpt lat="48.8449" lon="2.40174">
        <ele>110.5</ele>
        <time>2015-03-09T21:18:37.177Z</time>
      </trkpt>
      <trkpt lat="48.84491" lon="2.40163">
        <ele>110.6</ele>
        <time>2015-03-09T21:18:39.214Z</time>
      </trkpt>
      <trkpt lat="48.84492" lon="2.40158">
        <ele>110.6</ele>
        <time>2015-03-09T21:18:40.245Z</time>
      </trkpt>
      <trkpt lat="48.84493" lon="2.40148">
        <ele>110.7</ele>
        <time>2015-03-09T21:18:42.265Z</time>
      </trkpt>
      <trkpt lat="48.84494" lon="2.40141">
        <ele>110.7</ele>
        <time>2015-03-09T21:18:43.272Z</time>
      </trkpt>
      <trkpt lat="48.84498" lon="2.4013">
        <ele>110.7</ele>
        <time>2015-03-09T21:18:45.177Z</time>
      </trkpt>
      <trkpt lat="48.84501" lon="2.40122">
        <ele>110.7</ele>
        <time>2015-03-09T21:18:46.213Z</time>
      </trkpt>
      <trkpt lat="48.84506" lon="2.40112">
        <ele>110.7</ele>
        <time>2015-03-09T21:18:47.231Z</time>
      </trkpt>
      <trkpt lat="48.84509" lon="2.40101">
        <ele>110.6</ele>
        <time>2015-03-09T21:18:48.241Z</time>
      </trkpt>
      <trkpt lat="48.84511" lon="2.40092">
        <ele>111</ele>
        <time>2015-03-09T21:18:49.262Z</time>
      </trkpt>
      <trkpt lat="48.84514" lon="2.40083">
        <ele>111.2</ele>
        <time>2015-03-09T21:18:50.169Z</time>
      </trkpt>
      <trkpt lat="48.84518" lon="2.40072">
        <ele>111.2</ele>
        <time>2015-03-09T21:18:51.161Z</time>
      </trkpt>
      <trkpt lat="48.84523" lon="2.40061">
        <ele>110.9</ele>
        <time>2015-03-09T21:18:52.178Z</time>
      </trkpt>
      <trkpt lat="48.84523" lon="2.40061">
        <ele>110.9</ele>
        <time>2015-03-09T21:18:52.167Z</time>
      </trkpt>
      <trkpt lat="48.84538" lon="2.40005">
        <ele>111.2</ele>
        <time>2015-03-09T21:18:57.253Z</time>
      </trkpt>
      <trkpt lat="48.84538" lon="2.39997">
        <ele>111.6</ele>
        <time>2015-03-09T21:18:58.170Z</time>
      </trkpt>
      <trkpt lat="48.84538" lon="2.39987">
        <ele>112.1</ele>
        <time>2015-03-09T21:18:59.167Z</time>
      </trkpt>
      <trkpt lat="48.84538" lon="2.39978">
        <ele>112.6</ele>
        <time>2015-03-09T21:19:00.169Z</time>
      </trkpt>
      <trkpt lat="48.84539" lon="2.39969">
        <ele>113.1</ele>
        <time>2015-03-09T21:19:01.209Z</time>
      </trkpt>
      <trkpt lat="48.8454" lon="2.39961">
        <ele>113.6</ele>
        <time>2015-03-09T21:19:02.233Z</time>
      </trkpt>
      <trkpt lat="48.8454" lon="2.39954">
        <ele>114.1</ele>
        <time>2015-03-09T21:19:03.240Z</time>
      </trkpt>
      <trkpt lat="48.84537" lon="2.39945">
        <ele>114.5</ele>
        <time>2015-03-09T21:19:05.174Z</time>
      </trkpt>
      <trkpt lat="48.84536" lon="2.3994">
        <ele>115</ele>
        <time>2015-03-09T21:19:06.210Z</time>
      </trkpt>
      <trkpt lat="48.84536" lon="2.39929">
        <ele>115.3</ele>
        <time>2015-03-09T21:19:09.002Z</time>
      </trkpt>
      <trkpt lat="48.84537" lon="2.39925">
        <ele>115.6</ele>
        <time>2015-03-09T21:19:09.244Z</time>
      </trkpt>
      <trkpt lat="48.84536" lon="2.39921">
        <ele>115.5</ele>
        <time>2015-03-09T21:19:10.262Z</time>
      </trkpt>
      <trkpt lat="48.84542" lon="2.39874">
        <ele>110.2</ele>
        <time>2015-03-09T21:19:20.237Z</time>
      </trkpt>
      <trkpt lat="48.84547" lon="2.39855">
        <ele>110.5</ele>
        <time>2015-03-09T21:19:22.284Z</time>
      </trkpt>
      <trkpt lat="48.8455" lon="2.39846">
        <ele>110.5</ele>
        <time>2015-03-09T21:19:23.173Z</time>
      </trkpt>
      <trkpt lat="48.84552" lon="2.39837">
        <ele>110.4</ele>
        <time>2015-03-09T21:19:24.202Z</time>
      </trkpt>
      <trkpt lat="48.84554" lon="2.39827">
        <ele>110.4</ele>
        <time>2015-03-09T21:19:25.231Z</time>
      </trkpt>
      <trkpt lat="48.84555" lon="2.39818">
        <ele>110.4</ele>
        <time>2015-03-09T21:19:26.227Z</time>
      </trkpt>
      <trkpt lat="48.84557" lon="2.39807">
        <ele>110.8</ele>
        <time>2015-03-09T21:19:27.162Z</time>
      </trkpt>
      <trkpt lat="48.84558" lon="2.39798">
        <ele>110.8</ele>
        <time>2015-03-09T21:19:28.189Z</time>
      </trkpt>
      <trkpt lat="48.84558" lon="2.39787">
        <ele>110.7</ele>
        <time>2015-03-09T21:19:29.604Z</time>
      </trkpt>
      <trkpt lat="48.84559" lon="2.39777">
        <ele>110.7</ele>
        <time>2015-03-09T21:19:30.171Z</time>
      </trkpt>
      <trkpt lat="48.84558" lon="2.39768">
        <ele>110.7</ele>
        <time>2015-03-09T21:19:31.228Z</time>
      </trkpt>
      <trkpt lat="48.84558" lon="2.3976">
        <ele>110.8</ele>
        <time>2015-03-09T21:19:32.239Z</time>
      </trkpt>
      <trkpt lat="48.84556" lon="2.39751">
        <ele>110.9</ele>
        <time>2015-03-09T21:19:33.205Z</time>
      </trkpt>
      <trkpt lat="48.84555" lon="2.39743">
        <ele>111</ele>
        <time>2015-03-09T21:19:34.198Z</time>
      </trkpt>
      <trkpt lat="48.84553" lon="2.39735">
        <ele>111.2</ele>
        <time>2015-03-09T21:19:35.201Z</time>
      </trkpt>
      <trkpt lat="48.84551" lon="2.39727">
        <ele>111.4</ele>
        <time>2015-03-09T21:19:36.211Z</time>
      </trkpt>
      <trkpt lat="48.84549" lon="2.39718">
        <ele>111.6</ele>
        <time>2015-03-09T21:19:37.272Z</time>
      </trkpt>
      <trkpt lat="48.84548" lon="2.39711">
        <ele>111.8</ele>
        <time>2015-03-09T21:19:38.253Z</time>
      </trkpt>
      <trkpt lat="48.84548" lon="2.39701">
        <ele>111.7</ele>
        <time>2015-03-09T21:19:40.274Z</time>
      </trkpt>
      <trkpt lat="48.84549" lon="2.39697">
        <ele>111.8</ele>
        <time>2015-03-09T21:19:41.290Z</time>
      </trkpt>
      <trkpt lat="48.84556" lon="2.39688">
        <ele>112.2</ele>
        <time>2015-03-09T21:19:42.200Z</time>
      </trkpt>
      <trkpt lat="48.84562" lon="2.39681">
        <ele>112.3</ele>
        <time>2015-03-09T21:19:43.227Z</time>
      </trkpt>
      <trkpt lat="48.84566" lon="2.39675">
        <ele>112.2</ele>
        <time>2015-03-09T21:19:44.228Z</time>
      </trkpt>
      <trkpt lat="48.84569" lon="2.39669">
        <ele>112</ele>
        <time>2015-03-09T21:19:45.256Z</time>
      </trkpt>
      <trkpt lat="48.84571" lon="2.39662">
        <ele>111.9</ele>
        <time>2015-03-09T21:19:46.152Z</time>
      </trkpt>
      <trkpt lat="48.84577" lon="2.39634">
        <ele>112.1</ele>
        <time>2015-03-09T21:19:49.255Z</time>
      </trkpt>
      <trkpt lat="48.84578" lon="2.39625">
        <ele>112.5</ele>
        <time>2015-03-09T21:19:50.282Z</time>
      </trkpt>
      <trkpt lat="48.8458" lon="2.39616">
        <ele>112.8</ele>
        <time>2015-03-09T21:19:51.171Z</time>
      </trkpt>
      <trkpt lat="48.84582" lon="2.39604">
        <ele>113.2</ele>
        <time>2015-03-09T21:19:53.187Z</time>
      </trkpt>
      <trkpt lat="48.84581" lon="2.39599">
        <ele>113.5</ele>
        <time>2015-03-09T21:19:54.241Z</time>
      </trkpt>
      <trkpt lat="48.84577" lon="2.39591">
        <ele>113.2</ele>
        <time>2015-03-09T21:19:55.193Z</time>
      </trkpt>
      <trkpt lat="48.8457" lon="2.39579">
        <ele>111.9</ele>
        <time>2015-03-09T21:19:56.199Z</time>
      </trkpt>
      <trkpt lat="48.84563" lon="2.39571">
        <ele>110.6</ele>
        <time>2015-03-09T21:19:57.222Z</time>
      </trkpt>
      <trkpt lat="48.84559" lon="2.39564">
        <ele>110.4</ele>
        <time>2015-03-09T21:19:58.234Z</time>
      </trkpt>
      <trkpt lat="48.84553" lon="2.39558">
        <ele>112.1</ele>
        <time>2015-03-09T21:19:59.189Z</time>
      </trkpt>
      <trkpt lat="48.8455" lon="2.39554">
        <ele>112.3</ele>
        <time>2015-03-09T21:20:00.226Z</time>
      </trkpt>
      <trkpt lat="48.8455" lon="2.39554">
        <ele>112.3</ele>
        <time>2015-03-09T21:20:13.210Z</time>
      </trkpt>
      <trkpt lat="48.84556" lon="2.39539">
        <ele>120.6</ele>
        <time>2015-03-09T21:20:14.286Z</time>
      </trkpt>
      <trkpt lat="48.8456" lon="2.39533">
        <ele>118</ele>
        <time>2015-03-09T21:20:15.189Z</time>
      </trkpt>
      <trkpt lat="48.84564" lon="2.39528">
        <ele>116.2</ele>
        <time>2015-03-09T21:20:16.194Z</time>
      </trkpt>
      <trkpt lat="48.84568" lon="2.3952">
        <ele>113</ele>
        <time>2015-03-09T21:20:17.239Z</time>
      </trkpt>
      <trkpt lat="48.8457" lon="2.39515">
        <ele>112.7</ele>
        <time>2015-03-09T21:20:18.255Z</time>
      </trkpt>
      <trkpt lat="48.84571" lon="2.39507">
        <ele>111.1</ele>
        <time>2015-03-09T21:20:19.261Z</time>
      </trkpt>
      <trkpt lat="48.84571" lon="2.39498">
        <ele>109.4</ele>
        <time>2015-03-09T21:20:20.189Z</time>
      </trkpt>
      <trkpt lat="48.84571" lon="2.39487">
        <ele>108</ele>
        <time>2015-03-09T21:20:21.196Z</time>
      </trkpt>
      <trkpt lat="48.84572" lon="2.39476">
        <ele>106.9</ele>
        <time>2015-03-09T21:20:22.206Z</time>
      </trkpt>
      <trkpt lat="48.84572" lon="2.39467">
        <ele>106.3</ele>
        <time>2015-03-09T21:20:23.222Z</time>
      </trkpt>
      <trkpt lat="48.84573" lon="2.39457">
        <ele>105.6</ele>
        <time>2015-03-09T21:20:24.225Z</time>
      </trkpt>
      <trkpt lat="48.84573" lon="2.39446">
        <ele>104.7</ele>
        <time>2015-03-09T21:20:25.265Z</time>
      </trkpt>
      <trkpt lat="48.84573" lon="2.39436">
        <ele>103.8</ele>
        <time>2015-03-09T21:20:26.257Z</time>
      </trkpt>
      <trkpt lat="48.84575" lon="2.39426">
        <ele>103.2</ele>
        <time>2015-03-09T21:20:27.256Z</time>
      </trkpt>
      <trkpt lat="48.84576" lon="2.39418">
        <ele>103.2</ele>
        <time>2015-03-09T21:20:28.330Z</time>
      </trkpt>
      <trkpt lat="48.8458" lon="2.39412">
        <ele>102.5</ele>
        <time>2015-03-09T21:20:29.159Z</time>
      </trkpt>
      <trkpt lat="48.84582" lon="2.39407">
        <ele>102</ele>
        <time>2015-03-09T21:20:30.246Z</time>
      </trkpt>
      <trkpt lat="48.84588" lon="2.394">
        <ele>99.5</ele>
        <time>2015-03-09T21:20:32.181Z</time>
      </trkpt>
      <trkpt lat="48.84591" lon="2.39398">
        <ele>98.9</ele>
        <time>2015-03-09T21:20:33.214Z</time>
      </trkpt>
      <trkpt lat="48.84596" lon="2.3939">
        <ele>97.6</ele>
        <time>2015-03-09T21:20:35.244Z</time>
      </trkpt>
      <trkpt lat="48.84599" lon="2.39384">
        <ele>96.9</ele>
        <time>2015-03-09T21:20:36.255Z</time>
      </trkpt>
      <trkpt lat="48.84602" lon="2.39381">
        <ele>96.5</ele>
        <time>2015-03-09T21:20:37.266Z</time>
      </trkpt>
      <trkpt lat="48.84607" lon="2.39376">
        <ele>95.7</ele>
        <time>2015-03-09T21:20:38.194Z</time>
      </trkpt>
      <trkpt lat="48.84612" lon="2.39372">
        <ele>95</ele>
        <time>2015-03-09T21:20:39.198Z</time>
      </trkpt>
      <trkpt lat="48.84618" lon="2.3937">
        <ele>94.4</ele>
        <time>2015-03-09T21:20:40.209Z</time>
      </trkpt>
      <trkpt lat="48.84623" lon="2.39367">
        <ele>93.9</ele>
        <time>2015-03-09T21:20:41.226Z</time>
      </trkpt>
      <trkpt lat="48.84629" lon="2.39364">
        <ele>93.8</ele>
        <time>2015-03-09T21:20:42.233Z</time>
      </trkpt>
      <trkpt lat="48.84634" lon="2.39361">
        <ele>93.7</ele>
        <time>2015-03-09T21:20:44.066Z</time>
      </trkpt>
      <trkpt lat="48.84638" lon="2.39358">
        <ele>93.6</ele>
        <time>2015-03-09T21:20:44.150Z</time>
      </trkpt>
      <trkpt lat="48.84646" lon="2.39351">
        <ele>93</ele>
        <time>2015-03-09T21:20:46.185Z</time>
      </trkpt>
      <trkpt lat="48.8465" lon="2.39347">
        <ele>92.8</ele>
        <time>2015-03-09T21:20:47.191Z</time>
      </trkpt>
      <trkpt lat="48.84655" lon="2.39343">
        <ele>92.7</ele>
        <time>2015-03-09T21:20:48.218Z</time>
      </trkpt>
      <trkpt lat="48.84663" lon="2.39343">
        <ele>92.2</ele>
        <time>2015-03-09T21:20:49.221Z</time>
      </trkpt>
      <trkpt lat="48.84671" lon="2.39343">
        <ele>91.7</ele>
        <time>2015-03-09T21:20:50.242Z</time>
      </trkpt>
      <trkpt lat="48.84676" lon="2.3934">
        <ele>91.6</ele>
        <time>2015-03-09T21:20:51.248Z</time>
      </trkpt>
      <trkpt lat="48.84682" lon="2.39336">
        <ele>91.6</ele>
        <time>2015-03-09T21:20:52.163Z</time>
      </trkpt>
      <trkpt lat="48.84689" lon="2.39334">
        <ele>91</ele>
        <time>2015-03-09T21:20:53.167Z</time>
      </trkpt>
      <trkpt lat="48.84697" lon="2.39332">
        <ele>90.5</ele>
        <time>2015-03-09T21:20:54.200Z</time>
      </trkpt>
      <trkpt lat="48.84705" lon="2.39331">
        <ele>89.8</ele>
        <time>2015-03-09T21:20:55.280Z</time>
      </trkpt>
      <trkpt lat="48.84713" lon="2.39331">
        <ele>89</ele>
        <time>2015-03-09T21:20:56.182Z</time>
      </trkpt>
      <trkpt lat="48.84721" lon="2.3933">
        <ele>88.3</ele>
        <time>2015-03-09T21:20:57.180Z</time>
      </trkpt>
      <trkpt lat="48.8473" lon="2.3933">
        <ele>87.9</ele>
        <time>2015-03-09T21:20:58.195Z</time>
      </trkpt>
      <trkpt lat="48.84741" lon="2.39328">
        <ele>88.9</ele>
        <time>2015-03-09T21:20:59.207Z</time>
      </trkpt>
      <trkpt lat="48.84748" lon="2.39326">
        <ele>88.7</ele>
        <time>2015-03-09T21:21:00.215Z</time>
      </trkpt>
      <trkpt lat="48.84756" lon="2.39323">
        <ele>89.1</ele>
        <time>2015-03-09T21:21:01.225Z</time>
      </trkpt>
      <trkpt lat="48.84764" lon="2.39319">
        <ele>89.7</ele>
        <time>2015-03-09T21:21:02.232Z</time>
      </trkpt>
      <trkpt lat="48.8477" lon="2.39317">
        <ele>89.3</ele>
        <time>2015-03-09T21:21:03.239Z</time>
      </trkpt>
      <trkpt lat="48.84778" lon="2.3931">
        <ele>88.8</ele>
        <time>2015-03-09T21:21:05.139Z</time>
      </trkpt>
      <trkpt lat="48.8478" lon="2.39308">
        <ele>88.9</ele>
        <time>2015-03-09T21:21:06.192Z</time>
      </trkpt>
      <trkpt lat="48.84789" lon="2.39304">
        <ele>89.3</ele>
        <time>2015-03-09T21:21:09.253Z</time>
      </trkpt>
      <trkpt lat="48.84791" lon="2.39302">
        <ele>89.4</ele>
        <time>2015-03-09T21:21:10.290Z</time>
      </trkpt>
      <trkpt lat="48.84794" lon="2.39297">
        <ele>89.1</ele>
        <time>2015-03-09T21:21:31.227Z</time>
      </trkpt>
      <trkpt lat="48.84799" lon="2.39287">
        <ele>91.6</ele>
        <time>2015-03-09T21:21:32.307Z</time>
      </trkpt>
      <trkpt lat="48.84804" lon="2.39278">
        <ele>91.3</ele>
        <time>2015-03-09T21:21:35.221Z</time>
      </trkpt>
      <trkpt lat="48.84808" lon="2.39276">
        <ele>90.8</ele>
        <time>2015-03-09T21:21:36.261Z</time>
      </trkpt>
      <trkpt lat="48.84816" lon="2.39273">
        <ele>90.2</ele>
        <time>2015-03-09T21:21:38.188Z</time>
      </trkpt>
      <trkpt lat="48.84821" lon="2.39272">
        <ele>90.1</ele>
        <time>2015-03-09T21:21:39.190Z</time>
      </trkpt>
      <trkpt lat="48.84825" lon="2.39271">
        <ele>89.9</ele>
        <time>2015-03-09T21:21:40.224Z</time>
      </trkpt>
      <trkpt lat="48.8483" lon="2.3927">
        <ele>89.9</ele>
        <time>2015-03-09T21:21:41.234Z</time>
      </trkpt>
      <trkpt lat="48.84834" lon="2.39266">
        <ele>89.7</ele>
        <time>2015-03-09T21:21:42.256Z</time>
      </trkpt>
      <trkpt lat="48.84839" lon="2.39262">
        <ele>89.6</ele>
        <time>2015-03-09T21:21:43.254Z</time>
      </trkpt>
      <trkpt lat="48.84845" lon="2.39256">
        <ele>89.3</ele>
        <time>2015-03-09T21:21:45.206Z</time>
      </trkpt>
      <trkpt lat="48.84848" lon="2.39254">
        <ele>89.1</ele>
        <time>2015-03-09T21:21:46.142Z</time>
      </trkpt>
      <trkpt lat="48.84872" lon="2.39237">
        <ele>87.8</ele>
        <time>2015-03-09T21:21:52.260Z</time>
      </trkpt>
      <trkpt lat="48.84877" lon="2.39234">
        <ele>87.6</ele>
        <time>2015-03-09T21:21:53.193Z</time>
      </trkpt>
      <trkpt lat="48.84882" lon="2.39231">
        <ele>87.7</ele>
        <time>2015-03-09T21:21:54.211Z</time>
      </trkpt>
      <trkpt lat="48.84886" lon="2.39227">
        <ele>87.8</ele>
        <time>2015-03-09T21:21:55.247Z</time>
      </trkpt>
      <trkpt lat="48.84891" lon="2.39222">
        <ele>88.2</ele>
        <time>2015-03-09T21:21:56.163Z</time>
      </trkpt>
      <trkpt lat="48.84895" lon="2.39217">
        <ele>88.6</ele>
        <time>2015-03-09T21:21:57.174Z</time>
      </trkpt>
      <trkpt lat="48.84898" lon="2.39209">
        <ele>88.9</ele>
        <time>2015-03-09T21:21:58.176Z</time>
      </trkpt>
      <trkpt lat="48.84901" lon="2.39202">
        <ele>89.1</ele>
        <time>2015-03-09T21:21:59.210Z</time>
      </trkpt>
      <trkpt lat="48.84903" lon="2.39192">
        <ele>89.4</ele>
        <time>2015-03-09T21:22:00.216Z</time>
      </trkpt>
      <trkpt lat="48.84906" lon="2.39183">
        <ele>89.7</ele>
        <time>2015-03-09T21:22:01.253Z</time>
      </trkpt>
      <trkpt lat="48.84907" lon="2.39176">
        <ele>89.5</ele>
        <time>2015-03-09T21:22:02.256Z</time>
      </trkpt>
      <trkpt lat="48.8491" lon="2.3917">
        <ele>89.8</ele>
        <time>2015-03-09T21:22:03.177Z</time>
      </trkpt>
      <trkpt lat="48.84912" lon="2.39162">
        <ele>89.8</ele>
        <time>2015-03-09T21:22:04.176Z</time>
      </trkpt>
      <trkpt lat="48.84916" lon="2.39152">
        <ele>90.3</ele>
        <time>2015-03-09T21:22:05.198Z</time>
      </trkpt>
      <trkpt lat="48.84919" lon="2.39144">
        <ele>90.1</ele>
        <time>2015-03-09T21:22:06.210Z</time>
      </trkpt>
      <trkpt lat="48.84922" lon="2.39135">
        <ele>90</ele>
        <time>2015-03-09T21:22:07.216Z</time>
      </trkpt>
      <trkpt lat="48.84924" lon="2.39127">
        <ele>90</ele>
        <time>2015-03-09T21:22:08.232Z</time>
      </trkpt>
      <trkpt lat="48.84927" lon="2.39118">
        <ele>89.9</ele>
        <time>2015-03-09T21:22:09.229Z</time>
      </trkpt>
      <trkpt lat="48.84928" lon="2.39111">
        <ele>89.7</ele>
        <time>2015-03-09T21:22:10.343Z</time>
      </trkpt>
      <trkpt lat="48.84931" lon="2.39104">
        <ele>89.6</ele>
        <time>2015-03-09T21:22:11.180Z</time>
      </trkpt>
      <trkpt lat="48.84935" lon="2.39097">
        <ele>89.6</ele>
        <time>2015-03-09T21:22:12.186Z</time>
      </trkpt>
      <trkpt lat="48.84935" lon="2.39097">
        <ele>89.6</ele>
        <time>2015-03-09T21:22:12.889Z</time>
      </trkpt>
      <trkpt lat="48.8499" lon="2.38967">
        <ele>88.1</ele>
        <time>2015-03-09T21:22:27.190Z</time>
      </trkpt>
      <trkpt lat="48.84986" lon="2.3896">
        <ele>87.6</ele>
        <time>2015-03-09T21:22:29.218Z</time>
      </trkpt>
      <trkpt lat="48.84989" lon="2.38953">
        <ele>88</ele>
        <time>2015-03-09T21:22:30.300Z</time>
      </trkpt>
      <trkpt lat="48.84991" lon="2.38946">
        <ele>88.5</ele>
        <time>2015-03-09T21:22:31.310Z</time>
      </trkpt>
      <trkpt lat="48.84993" lon="2.3894">
        <ele>89</ele>
        <time>2015-03-09T21:22:32.178Z</time>
      </trkpt>
      <trkpt lat="48.84992" lon="2.38928">
        <ele>89.9</ele>
        <time>2015-03-09T21:22:34.177Z</time>
      </trkpt>
      <trkpt lat="48.8499" lon="2.38923">
        <ele>90.3</ele>
        <time>2015-03-09T21:22:35.191Z</time>
      </trkpt>
      <trkpt lat="48.84992" lon="2.3891">
        <ele>90.4</ele>
        <time>2015-03-09T21:22:38.157Z</time>
      </trkpt>
      <trkpt lat="48.84993" lon="2.38905">
        <ele>90.7</ele>
        <time>2015-03-09T21:22:39.182Z</time>
      </trkpt>
      <trkpt lat="48.84995" lon="2.38898">
        <ele>90.9</ele>
        <time>2015-03-09T21:22:40.248Z</time>
      </trkpt>
      <trkpt lat="48.84997" lon="2.38891">
        <ele>91</ele>
        <time>2015-03-09T21:22:41.207Z</time>
      </trkpt>
      <trkpt lat="48.85001" lon="2.38882">
        <ele>91.2</ele>
        <time>2015-03-09T21:22:42.247Z</time>
      </trkpt>
      <trkpt lat="48.85006" lon="2.38873">
        <ele>91.4</ele>
        <time>2015-03-09T21:22:43.266Z</time>
      </trkpt>
      <trkpt lat="48.8501" lon="2.38865">
        <ele>91.6</ele>
        <time>2015-03-09T21:22:45.192Z</time>
      </trkpt>
      <trkpt lat="48.85013" lon="2.38859">
        <ele>91.9</ele>
        <time>2015-03-09T21:22:45.274Z</time>
      </trkpt>
      <trkpt lat="48.85017" lon="2.38849">
        <ele>92</ele>
        <time>2015-03-09T21:22:47.173Z</time>
      </trkpt>
      <trkpt lat="48.85018" lon="2.38845">
        <ele>92.1</ele>
        <time>2015-03-09T21:22:48.202Z</time>
      </trkpt>
      <trkpt lat="48.85025" lon="2.38836">
        <ele>95.8</ele>
        <time>2015-03-09T21:22:59.544Z</time>
      </trkpt>
      <trkpt lat="48.85025" lon="2.38833">
        <ele>96</ele>
        <time>2015-03-09T21:23:00.155Z</time>
      </trkpt>
      <trkpt lat="48.85024" lon="2.38824">
        <ele>96.7</ele>
        <time>2015-03-09T21:23:02.175Z</time>
      </trkpt>
      <trkpt lat="48.85023" lon="2.38819">
        <ele>97.2</ele>
        <time>2015-03-09T21:23:03.207Z</time>
      </trkpt>
      <trkpt lat="48.85027" lon="2.38808">
        <ele>99</ele>
        <time>2015-03-09T21:23:06.274Z</time>
      </trkpt>
      <trkpt lat="48.85028" lon="2.38805">
        <ele>99.4</ele>
        <time>2015-03-09T21:23:07.290Z</time>
      </trkpt>
      <trkpt lat="48.85032" lon="2.38798">
        <ele>100.1</ele>
        <time>2015-03-09T21:23:09.201Z</time>
      </trkpt>
      <trkpt lat="48.85034" lon="2.38792">
        <ele>100.8</ele>
        <time>2015-03-09T21:23:10.212Z</time>
      </trkpt>
      <trkpt lat="48.85038" lon="2.38781">
        <ele>101.9</ele>
        <time>2015-03-09T21:23:12.228Z</time>
      </trkpt>
      <trkpt lat="48.85041" lon="2.38773">
        <ele>102.7</ele>
        <time>2015-03-09T21:23:13.269Z</time>
      </trkpt>
      <trkpt lat="48.85043" lon="2.38766">
        <ele>103.5</ele>
        <time>2015-03-09T21:23:14.867Z</time>
      </trkpt>
      <trkpt lat="48.85046" lon="2.3876">
        <ele>104.3</ele>
        <time>2015-03-09T21:23:15.178Z</time>
      </trkpt>
      <trkpt lat="48.8505" lon="2.38754">
        <ele>104.9</ele>
        <time>2015-03-09T21:23:16.262Z</time>
      </trkpt>
      <trkpt lat="48.85059" lon="2.3874">
        <ele>107.5</ele>
        <time>2015-03-09T21:23:17.278Z</time>
      </trkpt>
      <trkpt lat="48.85064" lon="2.38727">
        <ele>110.4</ele>
        <time>2015-03-09T21:23:18.198Z</time>
      </trkpt>
      <trkpt lat="48.85067" lon="2.38715">
        <ele>111.2</ele>
        <time>2015-03-09T21:23:19.971Z</time>
      </trkpt>
      <trkpt lat="48.85064" lon="2.38708">
        <ele>110.5</ele>
        <time>2015-03-09T21:23:20.190Z</time>
      </trkpt>
      <trkpt lat="48.85064" lon="2.38708">
        <ele>110.5</ele>
        <time>2015-03-09T21:23:30.176Z</time>
      </trkpt>
      <trkpt lat="48.85061" lon="2.3865">
        <ele>106.6</ele>
        <time>2015-03-09T21:23:31.267Z</time>
      </trkpt>
      <trkpt lat="48.85061" lon="2.3864">
        <ele>107.1</ele>
        <time>2015-03-09T21:23:33.221Z</time>
      </trkpt>
      <trkpt lat="48.8506" lon="2.38636">
        <ele>107.3</ele>
        <time>2015-03-09T21:23:34.240Z</time>
      </trkpt>
      <trkpt lat="48.85063" lon="2.38624">
        <ele>108.2</ele>
        <time>2015-03-09T21:23:36.264Z</time>
      </trkpt>
      <trkpt lat="48.85064" lon="2.38615">
        <ele>109.1</ele>
        <time>2015-03-09T21:23:37.285Z</time>
      </trkpt>
      <trkpt lat="48.85065" lon="2.38608">
        <ele>109.7</ele>
        <time>2015-03-09T21:23:38.191Z</time>
      </trkpt>
      <trkpt lat="48.85067" lon="2.386">
        <ele>110.2</ele>
        <time>2015-03-09T21:23:39.190Z</time>
      </trkpt>
      <trkpt lat="48.85068" lon="2.38592">
        <ele>110.6</ele>
        <time>2015-03-09T21:23:40.266Z</time>
      </trkpt>
      <trkpt lat="48.85069" lon="2.38583">
        <ele>111</ele>
        <time>2015-03-09T21:23:41.212Z</time>
      </trkpt>
      <trkpt lat="48.85071" lon="2.38574">
        <ele>111.2</ele>
        <time>2015-03-09T21:23:42.209Z</time>
      </trkpt>
      <trkpt lat="48.85072" lon="2.38566">
        <ele>111.4</ele>
        <time>2015-03-09T21:23:43.230Z</time>
      </trkpt>
      <trkpt lat="48.85073" lon="2.38556">
        <ele>111.5</ele>
        <time>2015-03-09T21:23:44.243Z</time>
      </trkpt>
      <trkpt lat="48.85074" lon="2.38547">
        <ele>111.7</ele>
        <time>2015-03-09T21:23:45.254Z</time>
      </trkpt>
      <trkpt lat="48.85075" lon="2.38539">
        <ele>111.7</ele>
        <time>2015-03-09T21:23:46.266Z</time>
      </trkpt>
      <trkpt lat="48.85076" lon="2.38531">
        <ele>111.8</ele>
        <time>2015-03-09T21:23:47.297Z</time>
      </trkpt>
      <trkpt lat="48.85076" lon="2.38521">
        <ele>112.3</ele>
        <time>2015-03-09T21:23:48.206Z</time>
      </trkpt>
      <trkpt lat="48.85076" lon="2.38512">
        <ele>112.9</ele>
        <time>2015-03-09T21:23:49.320Z</time>
      </trkpt>
      <trkpt lat="48.85078" lon="2.38502">
        <ele>113</ele>
        <time>2015-03-09T21:23:50.203Z</time>
      </trkpt>
      <trkpt lat="48.85081" lon="2.38493">
        <ele>113</ele>
        <time>2015-03-09T21:23:51.203Z</time>
      </trkpt>
      <trkpt lat="48.85084" lon="2.38483">
        <ele>113</ele>
        <time>2015-03-09T21:23:52.207Z</time>
      </trkpt>
      <trkpt lat="48.85087" lon="2.38473">
        <ele>113.3</ele>
        <time>2015-03-09T21:23:53.219Z</time>
      </trkpt>
      <trkpt lat="48.8509" lon="2.38464">
        <ele>113.7</ele>
        <time>2015-03-09T21:23:54.437Z</time>
      </trkpt>
      <trkpt lat="48.85092" lon="2.38454">
        <ele>114.1</ele>
        <time>2015-03-09T21:23:55.238Z</time>
      </trkpt>
      <trkpt lat="48.85093" lon="2.38444">
        <ele>114.4</ele>
        <time>2015-03-09T21:23:56.262Z</time>
      </trkpt>
      <trkpt lat="48.85094" lon="2.38433">
        <ele>114.6</ele>
        <time>2015-03-09T21:23:57.272Z</time>
      </trkpt>
      <trkpt lat="48.85094" lon="2.38423">
        <ele>114.8</ele>
        <time>2015-03-09T21:23:58.189Z</time>
      </trkpt>
      <trkpt lat="48.85093" lon="2.38413">
        <ele>115.2</ele>
        <time>2015-03-09T21:23:59.196Z</time>
      </trkpt>
      <trkpt lat="48.8509" lon="2.38405">
        <ele>115.3</ele>
        <time>2015-03-09T21:24:00.209Z</time>
      </trkpt>
      <trkpt lat="48.85087" lon="2.38396">
        <ele>115.1</ele>
        <time>2015-03-09T21:24:01.241Z</time>
      </trkpt>
      <trkpt lat="48.85084" lon="2.38389">
        <ele>114.8</ele>
        <time>2015-03-09T21:24:02.248Z</time>
      </trkpt>
      <trkpt lat="48.85082" lon="2.38381">
        <ele>114.5</ele>
        <time>2015-03-09T21:24:03.254Z</time>
      </trkpt>
      <trkpt lat="48.85067" lon="2.38249">
        <ele>113.8</ele>
        <time>2015-03-09T21:24:17.198Z</time>
      </trkpt>
      <trkpt lat="48.85074" lon="2.38203">
        <ele>111.8</ele>
        <time>2015-03-09T21:24:22.233Z</time>
      </trkpt>
      <trkpt lat="48.85073" lon="2.38195">
        <ele>110.9</ele>
        <time>2015-03-09T21:24:23.280Z</time>
      </trkpt>
      <trkpt lat="48.85082" lon="2.38073">
        <ele>101.6</ele>
        <time>2015-03-09T21:24:36.179Z</time>
      </trkpt>
      <trkpt lat="48.85085" lon="2.38063">
        <ele>101.4</ele>
        <time>2015-03-09T21:24:37.236Z</time>
      </trkpt>
      <trkpt lat="48.85088" lon="2.38053">
        <ele>101.4</ele>
        <time>2015-03-09T21:24:38.169Z</time>
      </trkpt>
      <trkpt lat="48.85088" lon="2.38045">
        <ele>101.3</ele>
        <time>2015-03-09T21:24:39.185Z</time>
      </trkpt>
      <trkpt lat="48.8509" lon="2.38037">
        <ele>101.3</ele>
        <time>2015-03-09T21:24:40.196Z</time>
      </trkpt>
      <trkpt lat="48.85089" lon="2.38029">
        <ele>101.4</ele>
        <time>2015-03-09T21:24:41.260Z</time>
      </trkpt>
      <trkpt lat="48.85089" lon="2.38019">
        <ele>101.4</ele>
        <time>2015-03-09T21:24:42.201Z</time>
      </trkpt>
      <trkpt lat="48.8509" lon="2.38011">
        <ele>101.3</ele>
        <time>2015-03-09T21:24:43.307Z</time>
      </trkpt>
      <trkpt lat="48.8509" lon="2.38002">
        <ele>101.4</ele>
        <time>2015-03-09T21:24:44.199Z</time>
      </trkpt>
      <trkpt lat="48.85092" lon="2.37992">
        <ele>101.4</ele>
        <time>2015-03-09T21:24:45.251Z</time>
      </trkpt>
      <trkpt lat="48.85093" lon="2.37984">
        <ele>101.5</ele>
        <time>2015-03-09T21:24:46.197Z</time>
      </trkpt>
      <trkpt lat="48.85093" lon="2.37976">
        <ele>101.9</ele>
        <time>2015-03-09T21:24:47.249Z</time>
      </trkpt>
      <trkpt lat="48.85091" lon="2.37968">
        <ele>102.2</ele>
        <time>2015-03-09T21:24:48.268Z</time>
      </trkpt>
      <trkpt lat="48.85089" lon="2.3796">
        <ele>102.8</ele>
        <time>2015-03-09T21:24:49.246Z</time>
      </trkpt>
      <trkpt lat="48.85086" lon="2.37954">
        <ele>103.1</ele>
        <time>2015-03-09T21:24:50.269Z</time>
      </trkpt>
      <trkpt lat="48.85085" lon="2.37946">
        <ele>103.6</ele>
        <time>2015-03-09T21:24:51.182Z</time>
      </trkpt>
      <trkpt lat="48.85083" lon="2.37939">
        <ele>104.1</ele>
        <time>2015-03-09T21:24:52.189Z</time>
      </trkpt>
      <trkpt lat="48.85079" lon="2.37783">
        <ele>99.1</ele>
        <time>2015-03-09T21:25:09.204Z</time>
      </trkpt>
      <trkpt lat="48.85083" lon="2.37775">
        <ele>99.2</ele>
        <time>2015-03-09T21:25:10.238Z</time>
      </trkpt>
      <trkpt lat="48.85085" lon="2.37767">
        <ele>99.3</ele>
        <time>2015-03-09T21:25:11.270Z</time>
      </trkpt>
      <trkpt lat="48.85093" lon="2.3776">
        <ele>99.9</ele>
        <time>2015-03-09T21:25:12.188Z</time>
      </trkpt>
      <trkpt lat="48.85097" lon="2.37752">
        <ele>100.7</ele>
        <time>2015-03-09T21:25:13.209Z</time>
      </trkpt>
      <trkpt lat="48.85119" lon="2.37689">
        <ele>99.7</ele>
        <time>2015-03-09T21:25:21.217Z</time>
      </trkpt>
      <trkpt lat="48.85122" lon="2.37681">
        <ele>100</ele>
        <time>2015-03-09T21:25:22.262Z</time>
      </trkpt>
      <trkpt lat="48.85124" lon="2.37673">
        <ele>100.3</ele>
        <time>2015-03-09T21:25:23.173Z</time>
      </trkpt>
      <trkpt lat="48.8513" lon="2.37656">
        <ele>100.3</ele>
        <time>2015-03-09T21:25:25.233Z</time>
      </trkpt>
      <trkpt lat="48.85135" lon="2.37648">
        <ele>100.6</ele>
        <time>2015-03-09T21:25:26.261Z</time>
      </trkpt>
      <trkpt lat="48.85139" lon="2.37641">
        <ele>100.8</ele>
        <time>2015-03-09T21:25:27.275Z</time>
      </trkpt>
      <trkpt lat="48.85144" lon="2.37632">
        <ele>101.2</ele>
        <time>2015-03-09T21:25:29.202Z</time>
      </trkpt>
      <trkpt lat="48.85145" lon="2.37626">
        <ele>101.4</ele>
        <time>2015-03-09T21:25:30.215Z</time>
      </trkpt>
      <trkpt lat="48.85153" lon="2.37612">
        <ele>96.3</ele>
        <time>2015-03-09T21:25:31.272Z</time>
      </trkpt>
      <trkpt lat="48.85156" lon="2.37603">
        <ele>94.4</ele>
        <time>2015-03-09T21:25:32.156Z</time>
      </trkpt>
      <trkpt lat="48.85158" lon="2.37594">
        <ele>93.4</ele>
        <time>2015-03-09T21:25:33.185Z</time>
      </trkpt>
      <trkpt lat="48.8516" lon="2.37586">
        <ele>93</ele>
        <time>2015-03-09T21:25:34.188Z</time>
      </trkpt>
      <trkpt lat="48.85162" lon="2.37579">
        <ele>92.3</ele>
        <time>2015-03-09T21:25:35.199Z</time>
      </trkpt>
      <trkpt lat="48.85165" lon="2.37573">
        <ele>91.8</ele>
        <time>2015-03-09T21:25:36.198Z</time>
      </trkpt>
      <trkpt lat="48.85168" lon="2.37566">
        <ele>91.8</ele>
        <time>2015-03-09T21:25:37.240Z</time>
      </trkpt>
      <trkpt lat="48.85171" lon="2.37559">
        <ele>91.1</ele>
        <time>2015-03-09T21:25:38.269Z</time>
      </trkpt>
      <trkpt lat="48.85172" lon="2.3755">
        <ele>91.1</ele>
        <time>2015-03-09T21:25:39.247Z</time>
      </trkpt>
      <trkpt lat="48.85173" lon="2.37541">
        <ele>91.1</ele>
        <time>2015-03-09T21:25:40.154Z</time>
      </trkpt>
      <trkpt lat="48.85173" lon="2.3753">
        <ele>90.9</ele>
        <time>2015-03-09T21:25:41.155Z</time>
      </trkpt>
      <trkpt lat="48.85175" lon="2.3752">
        <ele>90.6</ele>
        <time>2015-03-09T21:25:42.182Z</time>
      </trkpt>
      <trkpt lat="48.85177" lon="2.37509">
        <ele>89.9</ele>
        <time>2015-03-09T21:25:43.214Z</time>
      </trkpt>
      <trkpt lat="48.85178" lon="2.37497">
        <ele>89.1</ele>
        <time>2015-03-09T21:25:44.242Z</time>
      </trkpt>
      <trkpt lat="48.85179" lon="2.37485">
        <ele>88.3</ele>
        <time>2015-03-09T21:25:45.255Z</time>
      </trkpt>
      <trkpt lat="48.85181" lon="2.37474">
        <ele>87.5</ele>
        <time>2015-03-09T21:25:46.275Z</time>
      </trkpt>
      <trkpt lat="48.85183" lon="2.37463">
        <ele>86.9</ele>
        <time>2015-03-09T21:25:47.323Z</time>
      </trkpt>
      <trkpt lat="48.85184" lon="2.37452">
        <ele>86.1</ele>
        <time>2015-03-09T21:25:48.191Z</time>
      </trkpt>
      <trkpt lat="48.85185" lon="2.37443">
        <ele>85.7</ele>
        <time>2015-03-09T21:25:49.216Z</time>
      </trkpt>
      <trkpt lat="48.85187" lon="2.37433">
        <ele>85.4</ele>
        <time>2015-03-09T21:25:50.238Z</time>
      </trkpt>
      <trkpt lat="48.85189" lon="2.37424">
        <ele>85.2</ele>
        <time>2015-03-09T21:25:51.250Z</time>
      </trkpt>
      <trkpt lat="48.85191" lon="2.37416">
        <ele>84.7</ele>
        <time>2015-03-09T21:25:52.191Z</time>
      </trkpt>
      <trkpt lat="48.85193" lon="2.37407">
        <ele>84.3</ele>
        <time>2015-03-09T21:25:53.208Z</time>
      </trkpt>
      <trkpt lat="48.85195" lon="2.37397">
        <ele>84</ele>
        <time>2015-03-09T21:25:54.246Z</time>
      </trkpt>
      <trkpt lat="48.85195" lon="2.37384">
        <ele>83.1</ele>
        <time>2015-03-09T21:25:55.255Z</time>
      </trkpt>
      <trkpt lat="48.85197" lon="2.37373">
        <ele>83</ele>
        <time>2015-03-09T21:25:56.165Z</time>
      </trkpt>
      <trkpt lat="48.852" lon="2.37363">
        <ele>82.2</ele>
        <time>2015-03-09T21:25:57.171Z</time>
      </trkpt>
      <trkpt lat="48.85203" lon="2.37354">
        <ele>81.8</ele>
        <time>2015-03-09T21:25:58.176Z</time>
      </trkpt>
      <trkpt lat="48.85205" lon="2.37345">
        <ele>80.8</ele>
        <time>2015-03-09T21:25:59.186Z</time>
      </trkpt>
      <trkpt lat="48.85207" lon="2.37335">
        <ele>79.8</ele>
        <time>2015-03-09T21:26:00.188Z</time>
      </trkpt>
      <trkpt lat="48.85209" lon="2.37325">
        <ele>79.4</ele>
        <time>2015-03-09T21:26:01.203Z</time>
      </trkpt>
      <trkpt lat="48.85212" lon="2.37315">
        <ele>79.1</ele>
        <time>2015-03-09T21:26:02.214Z</time>
      </trkpt>
      <trkpt lat="48.85217" lon="2.37307">
        <ele>79.8</ele>
        <time>2015-03-09T21:26:03.224Z</time>
      </trkpt>
      <trkpt lat="48.8522" lon="2.37298">
        <ele>80.5</ele>
        <time>2015-03-09T21:26:04.249Z</time>
      </trkpt>
      <trkpt lat="48.85222" lon="2.37289">
        <ele>81</ele>
        <time>2015-03-09T21:26:05.156Z</time>
      </trkpt>
      <trkpt lat="48.85224" lon="2.3728">
        <ele>81.3</ele>
        <time>2015-03-09T21:26:06.160Z</time>
      </trkpt>
      <trkpt lat="48.85227" lon="2.37271">
        <ele>81.7</ele>
        <time>2015-03-09T21:26:07.191Z</time>
      </trkpt>
      <trkpt lat="48.85231" lon="2.37262">
        <ele>82.4</ele>
        <time>2015-03-09T21:26:08.188Z</time>
      </trkpt>
      <trkpt lat="48.85236" lon="2.37254">
        <ele>83.1</ele>
        <time>2015-03-09T21:26:09.199Z</time>
      </trkpt>
      <trkpt lat="48.8524" lon="2.37246">
        <ele>84</ele>
        <time>2015-03-09T21:26:10.210Z</time>
      </trkpt>
      <trkpt lat="48.85243" lon="2.37239">
        <ele>84.3</ele>
        <time>2015-03-09T21:26:11.224Z</time>
      </trkpt>
      <trkpt lat="48.85245" lon="2.37233">
        <ele>84.5</ele>
        <time>2015-03-09T21:26:12.231Z</time>
      </trkpt>
      <trkpt lat="48.85246" lon="2.37226">
        <ele>84.9</ele>
        <time>2015-03-09T21:26:13.234Z</time>
      </trkpt>
      <trkpt lat="48.85249" lon="2.37219">
        <ele>85.3</ele>
        <time>2015-03-09T21:26:14.238Z</time>
      </trkpt>
      <trkpt lat="48.85251" lon="2.37211">
        <ele>85.7</ele>
        <time>2015-03-09T21:26:15.242Z</time>
      </trkpt>
      <trkpt lat="48.85254" lon="2.37204">
        <ele>86</ele>
        <time>2015-03-09T21:26:16.253Z</time>
      </trkpt>
      <trkpt lat="48.85255" lon="2.37197">
        <ele>85.9</ele>
        <time>2015-03-09T21:26:17.163Z</time>
      </trkpt>
      <trkpt lat="48.85255" lon="2.37189">
        <ele>85.5</ele>
        <time>2015-03-09T21:26:18.179Z</time>
      </trkpt>
      <trkpt lat="48.85256" lon="2.37182">
        <ele>85.3</ele>
        <time>2015-03-09T21:26:19.226Z</time>
      </trkpt>
      <trkpt lat="48.85258" lon="2.37175">
        <ele>85.2</ele>
        <time>2015-03-09T21:26:20.262Z</time>
      </trkpt>
      <trkpt lat="48.85261" lon="2.37169">
        <ele>85.2</ele>
        <time>2015-03-09T21:26:21.177Z</time>
      </trkpt>
      <trkpt lat="48.85266" lon="2.37159">
        <ele>85.8</ele>
        <time>2015-03-09T21:26:23.199Z</time>
      </trkpt>
      <trkpt lat="48.85267" lon="2.37154">
        <ele>86.1</ele>
        <time>2015-03-09T21:26:24.211Z</time>
      </trkpt>
      <trkpt lat="48.8527" lon="2.37147">
        <ele>86.5</ele>
        <time>2015-03-09T21:26:25.261Z</time>
      </trkpt>
      <trkpt lat="48.85272" lon="2.3714">
        <ele>86.7</ele>
        <time>2015-03-09T21:26:26.178Z</time>
      </trkpt>
      <trkpt lat="48.85277" lon="2.37129">
        <ele>87.3</ele>
        <time>2015-03-09T21:26:28.817Z</time>
      </trkpt>
      <trkpt lat="48.8528" lon="2.37124">
        <ele>87.6</ele>
        <time>2015-03-09T21:26:29.196Z</time>
      </trkpt>
      <trkpt lat="48.85286" lon="2.37115">
        <ele>88.5</ele>
        <time>2015-03-09T21:26:32.082Z</time>
      </trkpt>
      <trkpt lat="48.85289" lon="2.37112">
        <ele>88.4</ele>
        <time>2015-03-09T21:26:32.144Z</time>
      </trkpt>
      <trkpt lat="48.85294" lon="2.37101">
        <ele>87.6</ele>
        <time>2015-03-09T21:26:34.210Z</time>
      </trkpt>
      <trkpt lat="48.85298" lon="2.37096">
        <ele>86.9</ele>
        <time>2015-03-09T21:26:35.230Z</time>
      </trkpt>
      <trkpt lat="48.85303" lon="2.37091">
        <ele>86.2</ele>
        <time>2015-03-09T21:26:37.161Z</time>
      </trkpt>
      <trkpt lat="48.85307" lon="2.37086">
        <ele>86.2</ele>
        <time>2015-03-09T21:26:37.255Z</time>
      </trkpt>
      <trkpt lat="48.85312" lon="2.3708">
        <ele>85.9</ele>
        <time>2015-03-09T21:26:38.268Z</time>
      </trkpt>
      <trkpt lat="48.85317" lon="2.37073">
        <ele>85.7</ele>
        <time>2015-03-09T21:26:39.171Z</time>
      </trkpt>
      <trkpt lat="48.85321" lon="2.37068">
        <ele>86</ele>
        <time>2015-03-09T21:26:40.181Z</time>
      </trkpt>
      <trkpt lat="48.85324" lon="2.37062">
        <ele>86.2</ele>
        <time>2015-03-09T21:26:41.197Z</time>
      </trkpt>
      <trkpt lat="48.8533" lon="2.37052">
        <ele>87</ele>
        <time>2015-03-09T21:26:43.236Z</time>
      </trkpt>
      <trkpt lat="48.85334" lon="2.3705">
        <ele>87.4</ele>
        <time>2015-03-09T21:26:44.266Z</time>
      </trkpt>
      <trkpt lat="48.85337" lon="2.37044">
        <ele>88.1</ele>
        <time>2015-03-09T21:26:45.184Z</time>
      </trkpt>
      <trkpt lat="48.85341" lon="2.37038">
        <ele>89.7</ele>
        <time>2015-03-09T21:26:46.179Z</time>
      </trkpt>
      <trkpt lat="48.85343" lon="2.37026">
        <ele>88.6</ele>
        <time>2015-03-09T21:26:49.255Z</time>
      </trkpt>
      <trkpt lat="48.85343" lon="2.37018">
        <ele>89.1</ele>
        <time>2015-03-09T21:26:50.442Z</time>
      </trkpt>
      <trkpt lat="48.85342" lon="2.37008">
        <ele>88.2</ele>
        <time>2015-03-09T21:26:52.187Z</time>
      </trkpt>
      <trkpt lat="48.85342" lon="2.37003">
        <ele>88.2</ele>
        <time>2015-03-09T21:26:53.231Z</time>
      </trkpt>
      <trkpt lat="48.85341" lon="2.36993">
        <ele>88.4</ele>
        <time>2015-03-09T21:26:55.252Z</time>
      </trkpt>
      <trkpt lat="48.85341" lon="2.36988">
        <ele>88.7</ele>
        <time>2015-03-09T21:26:56.274Z</time>
      </trkpt>
      <trkpt lat="48.85341" lon="2.36983">
        <ele>88.4</ele>
        <time>2015-03-09T21:27:44.154Z</time>
      </trkpt>
      <trkpt lat="48.85345" lon="2.36976">
        <ele>89.6</ele>
        <time>2015-03-09T21:27:45.173Z</time>
      </trkpt>
      <trkpt lat="48.85353" lon="2.36972">
        <ele>88.2</ele>
        <time>2015-03-09T21:27:49.372Z</time>
      </trkpt>
      <trkpt lat="48.85355" lon="2.36971">
        <ele>88.1</ele>
        <time>2015-03-09T21:27:50.216Z</time>
      </trkpt>
      <trkpt lat="48.85362" lon="2.36964">
        <ele>88.9</ele>
        <time>2015-03-09T21:27:55.262Z</time>
      </trkpt>
      <trkpt lat="48.85364" lon="2.36962">
        <ele>89.5</ele>
        <time>2015-03-09T21:27:56.261Z</time>
      </trkpt>
      <trkpt lat="48.85367" lon="2.36953">
        <ele>90.8</ele>
        <time>2015-03-09T21:28:00.231Z</time>
      </trkpt>
      <trkpt lat="48.85368" lon="2.36949">
        <ele>91.3</ele>
        <time>2015-03-09T21:28:01.325Z</time>
      </trkpt>
      <trkpt lat="48.8537" lon="2.36938">
        <ele>92.6</ele>
        <time>2015-03-09T21:28:05.203Z</time>
      </trkpt>
      <trkpt lat="48.8537" lon="2.36935">
        <ele>92.9</ele>
        <time>2015-03-09T21:28:06.213Z</time>
      </trkpt>
      <trkpt lat="48.85371" lon="2.36929">
        <ele>94</ele>
        <time>2015-03-09T21:28:12.240Z</time>
      </trkpt>
      <trkpt lat="48.85375" lon="2.3692">
        <ele>96.1</ele>
        <time>2015-03-09T21:28:13.250Z</time>
      </trkpt>
      <trkpt lat="48.85376" lon="2.36907">
        <ele>96.9</ele>
        <time>2015-03-09T21:28:18.176Z</time>
      </trkpt>
      <trkpt lat="48.85376" lon="2.36905">
        <ele>97.1</ele>
        <time>2015-03-09T21:28:19.387Z</time>
      </trkpt>
      <trkpt lat="48.85376" lon="2.36905">
        <ele>97.4</ele>
        <time>2015-03-09T21:28:50.239Z</time>
      </trkpt>
      <trkpt lat="48.85373" lon="2.3688">
        <ele>104.8</ele>
        <time>2015-03-09T21:28:51.174Z</time>
      </trkpt>
      <trkpt lat="48.8537" lon="2.36867">
        <ele>104</ele>
        <time>2015-03-09T21:28:56.194Z</time>
      </trkpt>
      <trkpt lat="48.8537" lon="2.36864">
        <ele>103.6</ele>
        <time>2015-03-09T21:28:57.202Z</time>
      </trkpt>
      <trkpt lat="48.85373" lon="2.36853">
        <ele>103.2</ele>
        <time>2015-03-09T21:29:02.239Z</time>
      </trkpt>
      <trkpt lat="48.85373" lon="2.3685">
        <ele>103</ele>
        <time>2015-03-09T21:29:03.197Z</time>
      </trkpt>
      <trkpt lat="48.85376" lon="2.36841">
        <ele>102.9</ele>
        <time>2015-03-09T21:29:07.400Z</time>
      </trkpt>
      <trkpt lat="48.85377" lon="2.36838">
        <ele>103.1</ele>
        <time>2015-03-09T21:29:08.217Z</time>
      </trkpt>
      <trkpt lat="48.8538" lon="2.36827">
        <ele>104.1</ele>
        <time>2015-03-09T21:29:11.217Z</time>
      </trkpt>
      <trkpt lat="48.8538" lon="2.36823">
        <ele>104.5</ele>
        <time>2015-03-09T21:29:12.226Z</time>
      </trkpt>
      <trkpt lat="48.85379" lon="2.36811">
        <ele>104.5</ele>
        <time>2015-03-09T21:29:15.258Z</time>
      </trkpt>
      <trkpt lat="48.8538" lon="2.36809">
        <ele>104.8</ele>
        <time>2015-03-09T21:29:16.161Z</time>
      </trkpt>
      <trkpt lat="48.85386" lon="2.36773">
        <ele>102.8</ele>
        <time>2015-03-09T21:29:24.194Z</time>
      </trkpt>
      <trkpt lat="48.85384" lon="2.36765">
        <ele>102.6</ele>
        <time>2015-03-09T21:29:26.253Z</time>
      </trkpt>
      <trkpt lat="48.85372" lon="2.36751">
        <ele>101.8</ele>
        <time>2015-03-09T21:29:31.292Z</time>
      </trkpt>
      <trkpt lat="48.85362" lon="2.36715">
        <ele>99.7</ele>
        <time>2015-03-09T21:29:45.150Z</time>
      </trkpt>
      <trkpt lat="48.85365" lon="2.36708">
        <ele>99.7</ele>
        <time>2015-03-09T21:29:46.155Z</time>
      </trkpt>
      <trkpt lat="48.85367" lon="2.36701">
        <ele>99.9</ele>
        <time>2015-03-09T21:29:47.185Z</time>
      </trkpt>
      <trkpt lat="48.85369" lon="2.36696">
        <ele>99.7</ele>
        <time>2015-03-09T21:29:48.211Z</time>
      </trkpt>
      <trkpt lat="48.85373" lon="2.36689">
        <ele>98.4</ele>
        <time>2015-03-09T21:29:49.236Z</time>
      </trkpt>
      <trkpt lat="48.85376" lon="2.36678">
        <ele>98.3</ele>
        <time>2015-03-09T21:29:51.242Z</time>
      </trkpt>
      <trkpt lat="48.85377" lon="2.36671">
        <ele>98.2</ele>
        <time>2015-03-09T21:29:52.268Z</time>
      </trkpt>
      <trkpt lat="48.85379" lon="2.36661">
        <ele>97.9</ele>
        <time>2015-03-09T21:29:54.645Z</time>
      </trkpt>
      <trkpt lat="48.8538" lon="2.36656">
        <ele>97.8</ele>
        <time>2015-03-09T21:29:55.202Z</time>
      </trkpt>
      <trkpt lat="48.85382" lon="2.36644">
        <ele>97.3</ele>
        <time>2015-03-09T21:29:57.220Z</time>
      </trkpt>
      <trkpt lat="48.85383" lon="2.36639">
        <ele>97.2</ele>
        <time>2015-03-09T21:29:58.240Z</time>
      </trkpt>
      <trkpt lat="48.85386" lon="2.36628">
        <ele>97.2</ele>
        <time>2015-03-09T21:30:00.162Z</time>
      </trkpt>
      <trkpt lat="48.85386" lon="2.36621">
        <ele>97.1</ele>
        <time>2015-03-09T21:30:01.270Z</time>
      </trkpt>
      <trkpt lat="48.85388" lon="2.36614">
        <ele>97.1</ele>
        <time>2015-03-09T21:30:02.179Z</time>
      </trkpt>
      <trkpt lat="48.85388" lon="2.36607">
        <ele>96.9</ele>
        <time>2015-03-09T21:30:03.191Z</time>
      </trkpt>
      <trkpt lat="48.85387" lon="2.36598">
        <ele>96.8</ele>
        <time>2015-03-09T21:30:04.920Z</time>
      </trkpt>
      <trkpt lat="48.85387" lon="2.36589">
        <ele>96.6</ele>
        <time>2015-03-09T21:30:05.208Z</time>
      </trkpt>
      <trkpt lat="48.85387" lon="2.36582">
        <ele>96.2</ele>
        <time>2015-03-09T21:30:06.209Z</time>
      </trkpt>
      <trkpt lat="48.85388" lon="2.36575">
        <ele>95.8</ele>
        <time>2015-03-09T21:30:07.223Z</time>
      </trkpt>
      <trkpt lat="48.85389" lon="2.36568">
        <ele>95.4</ele>
        <time>2015-03-09T21:30:08.140Z</time>
      </trkpt>
      <trkpt lat="48.85391" lon="2.36562">
        <ele>95</ele>
        <time>2015-03-09T21:30:09.160Z</time>
      </trkpt>
      <trkpt lat="48.85391" lon="2.36555">
        <ele>94</ele>
        <time>2015-03-09T21:30:10.161Z</time>
      </trkpt>
      <trkpt lat="48.85392" lon="2.36548">
        <ele>93</ele>
        <time>2015-03-09T21:30:11.162Z</time>
      </trkpt>
      <trkpt lat="48.85394" lon="2.36541">
        <ele>92.5</ele>
        <time>2015-03-09T21:30:12.190Z</time>
      </trkpt>
      <trkpt lat="48.85396" lon="2.36532">
        <ele>92.4</ele>
        <time>2015-03-09T21:30:13.199Z</time>
      </trkpt>
      <trkpt lat="48.85397" lon="2.36523">
        <ele>91.9</ele>
        <time>2015-03-09T21:30:14.987Z</time>
      </trkpt>
      <trkpt lat="48.854" lon="2.36515">
        <ele>91.4</ele>
        <time>2015-03-09T21:30:15.129Z</time>
      </trkpt>
      <trkpt lat="48.85402" lon="2.36506">
        <ele>90.8</ele>
        <time>2015-03-09T21:30:16.159Z</time>
      </trkpt>
      <trkpt lat="48.85404" lon="2.36497">
        <ele>90.3</ele>
        <time>2015-03-09T21:30:17.163Z</time>
      </trkpt>
      <trkpt lat="48.85405" lon="2.36488">
        <ele>89.8</ele>
        <time>2015-03-09T21:30:18.201Z</time>
      </trkpt>
      <trkpt lat="48.85406" lon="2.3648">
        <ele>89.5</ele>
        <time>2015-03-09T21:30:19.225Z</time>
      </trkpt>
      <trkpt lat="48.85406" lon="2.36469">
        <ele>88.6</ele>
        <time>2015-03-09T21:30:20.234Z</time>
      </trkpt>
      <trkpt lat="48.85406" lon="2.36457">
        <ele>87.3</ele>
        <time>2015-03-09T21:30:21.257Z</time>
      </trkpt>
      <trkpt lat="48.85407" lon="2.36448">
        <ele>87.1</ele>
        <time>2015-03-09T21:30:22.196Z</time>
      </trkpt>
      <trkpt lat="48.85408" lon="2.36438">
        <ele>86.6</ele>
        <time>2015-03-09T21:30:23.251Z</time>
      </trkpt>
      <trkpt lat="48.85411" lon="2.36429">
        <ele>86.2</ele>
        <time>2015-03-09T21:30:24.233Z</time>
      </trkpt>
      <trkpt lat="48.85413" lon="2.36419">
        <ele>85.9</ele>
        <time>2015-03-09T21:30:25.246Z</time>
      </trkpt>
      <trkpt lat="48.85415" lon="2.3641">
        <ele>85.6</ele>
        <time>2015-03-09T21:30:26.169Z</time>
      </trkpt>
      <trkpt lat="48.85417" lon="2.36401">
        <ele>85.5</ele>
        <time>2015-03-09T21:30:27.196Z</time>
      </trkpt>
      <trkpt lat="48.85418" lon="2.36393">
        <ele>85</ele>
        <time>2015-03-09T21:30:28.201Z</time>
      </trkpt>
      <trkpt lat="48.85421" lon="2.36384">
        <ele>84.4</ele>
        <time>2015-03-09T21:30:29.216Z</time>
      </trkpt>
      <trkpt lat="48.85424" lon="2.36376">
        <ele>84</ele>
        <time>2015-03-09T21:30:30.155Z</time>
      </trkpt>
      <trkpt lat="48.85428" lon="2.36369">
        <ele>83.5</ele>
        <time>2015-03-09T21:30:31.189Z</time>
      </trkpt>
      <trkpt lat="48.85431" lon="2.3636">
        <ele>83</ele>
        <time>2015-03-09T21:30:32.255Z</time>
      </trkpt>
      <trkpt lat="48.85434" lon="2.36353">
        <ele>82.8</ele>
        <time>2015-03-09T21:30:33.163Z</time>
      </trkpt>
      <trkpt lat="48.85436" lon="2.36345">
        <ele>82.6</ele>
        <time>2015-03-09T21:30:34.180Z</time>
      </trkpt>
      <trkpt lat="48.85439" lon="2.36338">
        <ele>82.3</ele>
        <time>2015-03-09T21:30:35.197Z</time>
      </trkpt>
      <trkpt lat="48.85442" lon="2.36331">
        <ele>82.2</ele>
        <time>2015-03-09T21:30:36.199Z</time>
      </trkpt>
      <trkpt lat="48.85445" lon="2.36325">
        <ele>81.8</ele>
        <time>2015-03-09T21:30:37.210Z</time>
      </trkpt>
      <trkpt lat="48.85449" lon="2.36317">
        <ele>81.5</ele>
        <time>2015-03-09T21:30:38.227Z</time>
      </trkpt>
      <trkpt lat="48.85453" lon="2.3631">
        <ele>81</ele>
        <time>2015-03-09T21:30:39.237Z</time>
      </trkpt>
      <trkpt lat="48.85455" lon="2.36301">
        <ele>80.8</ele>
        <time>2015-03-09T21:30:40.155Z</time>
      </trkpt>
      <trkpt lat="48.85458" lon="2.36293">
        <ele>80.9</ele>
        <time>2015-03-09T21:30:41.215Z</time>
      </trkpt>
      <trkpt lat="48.85462" lon="2.36285">
        <ele>81</ele>
        <time>2015-03-09T21:30:42.249Z</time>
      </trkpt>
      <trkpt lat="48.85465" lon="2.36277">
        <ele>80.6</ele>
        <time>2015-03-09T21:30:43.255Z</time>
      </trkpt>
      <trkpt lat="48.85467" lon="2.3627">
        <ele>80.3</ele>
        <time>2015-03-09T21:30:44.162Z</time>
      </trkpt>
      <trkpt lat="48.8547" lon="2.36263">
        <ele>80.1</ele>
        <time>2015-03-09T21:30:45.170Z</time>
      </trkpt>
      <trkpt lat="48.85473" lon="2.36257">
        <ele>80.5</ele>
        <time>2015-03-09T21:30:46.174Z</time>
      </trkpt>
      <trkpt lat="48.85476" lon="2.36249">
        <ele>80.6</ele>
        <time>2015-03-09T21:30:47.177Z</time>
      </trkpt>
      <trkpt lat="48.85478" lon="2.36242">
        <ele>80.3</ele>
        <time>2015-03-09T21:30:48.184Z</time>
      </trkpt>
      <trkpt lat="48.85481" lon="2.36236">
        <ele>80.4</ele>
        <time>2015-03-09T21:30:49.196Z</time>
      </trkpt>
      <trkpt lat="48.85484" lon="2.3623">
        <ele>80.4</ele>
        <time>2015-03-09T21:30:50.257Z</time>
      </trkpt>
      <trkpt lat="48.85486" lon="2.36222">
        <ele>80.1</ele>
        <time>2015-03-09T21:30:51.230Z</time>
      </trkpt>
      <trkpt lat="48.85489" lon="2.36215">
        <ele>80.1</ele>
        <time>2015-03-09T21:30:52.169Z</time>
      </trkpt>
      <trkpt lat="48.85491" lon="2.36208">
        <ele>79.9</ele>
        <time>2015-03-09T21:30:53.182Z</time>
      </trkpt>
      <trkpt lat="48.85494" lon="2.36202">
        <ele>79.6</ele>
        <time>2015-03-09T21:30:54.191Z</time>
      </trkpt>
      <trkpt lat="48.85498" lon="2.36195">
        <ele>79.9</ele>
        <time>2015-03-09T21:30:55.200Z</time>
      </trkpt>
      <trkpt lat="48.85502" lon="2.3619">
        <ele>80.3</ele>
        <time>2015-03-09T21:30:56.259Z</time>
      </trkpt>
      <trkpt lat="48.85504" lon="2.36183">
        <ele>80.4</ele>
        <time>2015-03-09T21:30:57.160Z</time>
      </trkpt>
      <trkpt lat="48.85506" lon="2.36173">
        <ele>80.7</ele>
        <time>2015-03-09T21:30:58.176Z</time>
      </trkpt>
      <trkpt lat="48.85509" lon="2.36166">
        <ele>80.6</ele>
        <time>2015-03-09T21:30:59.180Z</time>
      </trkpt>
      <trkpt lat="48.85511" lon="2.36159">
        <ele>81.1</ele>
        <time>2015-03-09T21:31:00.153Z</time>
      </trkpt>
      <trkpt lat="48.85513" lon="2.36151">
        <ele>81.2</ele>
        <time>2015-03-09T21:31:01.276Z</time>
      </trkpt>
      <trkpt lat="48.85514" lon="2.36142">
        <ele>81.3</ele>
        <time>2015-03-09T21:31:02.157Z</time>
      </trkpt>
      <trkpt lat="48.85516" lon="2.36133">
        <ele>81.5</ele>
        <time>2015-03-09T21:31:03.165Z</time>
      </trkpt>
      <trkpt lat="48.85517" lon="2.36125">
        <ele>81.7</ele>
        <time>2015-03-09T21:31:04.175Z</time>
      </trkpt>
      <trkpt lat="48.85518" lon="2.36116">
        <ele>82.2</ele>
        <time>2015-03-09T21:31:05.170Z</time>
      </trkpt>
      <trkpt lat="48.8552" lon="2.36107">
        <ele>82.1</ele>
        <time>2015-03-09T21:31:06.192Z</time>
      </trkpt>
      <trkpt lat="48.85523" lon="2.36099">
        <ele>82</ele>
        <time>2015-03-09T21:31:07.202Z</time>
      </trkpt>
      <trkpt lat="48.85525" lon="2.36091">
        <ele>82</ele>
        <time>2015-03-09T21:31:08.208Z</time>
      </trkpt>
      <trkpt lat="48.85526" lon="2.36081">
        <ele>81.4</ele>
        <time>2015-03-09T21:31:09.220Z</time>
      </trkpt>
      <trkpt lat="48.85528" lon="2.36072">
        <ele>81.2</ele>
        <time>2015-03-09T21:31:10.226Z</time>
      </trkpt>
      <trkpt lat="48.85529" lon="2.36063">
        <ele>81.4</ele>
        <time>2015-03-09T21:31:11.170Z</time>
      </trkpt>
      <trkpt lat="48.85529" lon="2.36054">
        <ele>81.4</ele>
        <time>2015-03-09T21:31:12.188Z</time>
      </trkpt>
      <trkpt lat="48.85531" lon="2.36045">
        <ele>81.4</ele>
        <time>2015-03-09T21:31:13.204Z</time>
      </trkpt>
      <trkpt lat="48.85534" lon="2.36036">
        <ele>81</ele>
        <time>2015-03-09T21:31:14.205Z</time>
      </trkpt>
      <trkpt lat="48.85535" lon="2.36025">
        <ele>80.9</ele>
        <time>2015-03-09T21:31:15.215Z</time>
      </trkpt>
      <trkpt lat="48.85538" lon="2.36015">
        <ele>81</ele>
        <time>2015-03-09T21:31:16.218Z</time>
      </trkpt>
      <trkpt lat="48.8554" lon="2.36006">
        <ele>80.5</ele>
        <time>2015-03-09T21:31:17.230Z</time>
      </trkpt>
      <trkpt lat="48.85545" lon="2.35998">
        <ele>80.6</ele>
        <time>2015-03-09T21:31:18.290Z</time>
      </trkpt>
      <trkpt lat="48.85548" lon="2.35988">
        <ele>80.6</ele>
        <time>2015-03-09T21:31:19.215Z</time>
      </trkpt>
      <trkpt lat="48.85552" lon="2.35979">
        <ele>80.6</ele>
        <time>2015-03-09T21:31:20.166Z</time>
      </trkpt>
      <trkpt lat="48.85555" lon="2.35969">
        <ele>80.2</ele>
        <time>2015-03-09T21:31:21.172Z</time>
      </trkpt>
      <trkpt lat="48.85557" lon="2.3596">
        <ele>79.6</ele>
        <time>2015-03-09T21:31:22.176Z</time>
      </trkpt>
      <trkpt lat="48.85559" lon="2.3595">
        <ele>79.3</ele>
        <time>2015-03-09T21:31:23.185Z</time>
      </trkpt>
      <trkpt lat="48.85562" lon="2.35941">
        <ele>79.3</ele>
        <time>2015-03-09T21:31:24.229Z</time>
      </trkpt>
      <trkpt lat="48.85566" lon="2.35933">
        <ele>79.1</ele>
        <time>2015-03-09T21:31:25.236Z</time>
      </trkpt>
      <trkpt lat="48.85569" lon="2.35924">
        <ele>79.3</ele>
        <time>2015-03-09T21:31:26.259Z</time>
      </trkpt>
      <trkpt lat="48.85571" lon="2.35914">
        <ele>79.1</ele>
        <time>2015-03-09T21:31:27.173Z</time>
      </trkpt>
      <trkpt lat="48.85573" lon="2.35905">
        <ele>78.9</ele>
        <time>2015-03-09T21:31:28.233Z</time>
      </trkpt>
      <trkpt lat="48.85576" lon="2.35896">
        <ele>78.6</ele>
        <time>2015-03-09T21:31:29.309Z</time>
      </trkpt>
      <trkpt lat="48.85579" lon="2.35886">
        <ele>78.5</ele>
        <time>2015-03-09T21:31:30.248Z</time>
      </trkpt>
      <trkpt lat="48.85581" lon="2.35877">
        <ele>78.1</ele>
        <time>2015-03-09T21:31:31.262Z</time>
      </trkpt>
      <trkpt lat="48.85582" lon="2.35867">
        <ele>78</ele>
        <time>2015-03-09T21:31:32.166Z</time>
      </trkpt>
      <trkpt lat="48.85583" lon="2.35859">
        <ele>77.9</ele>
        <time>2015-03-09T21:31:33.166Z</time>
      </trkpt>
      <trkpt lat="48.85585" lon="2.3585">
        <ele>77.5</ele>
        <time>2015-03-09T21:31:34.178Z</time>
      </trkpt>
      <trkpt lat="48.85587" lon="2.35842">
        <ele>77.2</ele>
        <time>2015-03-09T21:31:35.200Z</time>
      </trkpt>
      <trkpt lat="48.85588" lon="2.35833">
        <ele>77</ele>
        <time>2015-03-09T21:31:36.217Z</time>
      </trkpt>
      <trkpt lat="48.85589" lon="2.35824">
        <ele>76.8</ele>
        <time>2015-03-09T21:31:37.233Z</time>
      </trkpt>
      <trkpt lat="48.8559" lon="2.35815">
        <ele>76.7</ele>
        <time>2015-03-09T21:31:38.239Z</time>
      </trkpt>
      <trkpt lat="48.85591" lon="2.35805">
        <ele>76.6</ele>
        <time>2015-03-09T21:31:39.162Z</time>
      </trkpt>
      <trkpt lat="48.85593" lon="2.35797">
        <ele>76.5</ele>
        <time>2015-03-09T21:31:40.265Z</time>
      </trkpt>
      <trkpt lat="48.85597" lon="2.3579">
        <ele>77.1</ele>
        <time>2015-03-09T21:31:41.169Z</time>
      </trkpt>
      <trkpt lat="48.85601" lon="2.35783">
        <ele>77.3</ele>
        <time>2015-03-09T21:31:42.184Z</time>
      </trkpt>
      <trkpt lat="48.85604" lon="2.35777">
        <ele>77.4</ele>
        <time>2015-03-09T21:31:43.216Z</time>
      </trkpt>
      <trkpt lat="48.85607" lon="2.35769">
        <ele>77.5</ele>
        <time>2015-03-09T21:31:44.211Z</time>
      </trkpt>
      <trkpt lat="48.85608" lon="2.3576">
        <ele>77.4</ele>
        <time>2015-03-09T21:31:45.218Z</time>
      </trkpt>
      <trkpt lat="48.8561" lon="2.3575">
        <ele>77.3</ele>
        <time>2015-03-09T21:31:46.234Z</time>
      </trkpt>
      <trkpt lat="48.85611" lon="2.35741">
        <ele>77</ele>
        <time>2015-03-09T21:31:47.249Z</time>
      </trkpt>
      <trkpt lat="48.85612" lon="2.35733">
        <ele>77.1</ele>
        <time>2015-03-09T21:31:48.172Z</time>
      </trkpt>
      <trkpt lat="48.85613" lon="2.35724">
        <ele>77.2</ele>
        <time>2015-03-09T21:31:49.267Z</time>
      </trkpt>
      <trkpt lat="48.85614" lon="2.35715">
        <ele>77.1</ele>
        <time>2015-03-09T21:31:50.181Z</time>
      </trkpt>
      <trkpt lat="48.85616" lon="2.35707">
        <ele>77.3</ele>
        <time>2015-03-09T21:31:51.176Z</time>
      </trkpt>
      <trkpt lat="48.85618" lon="2.35698">
        <ele>78.1</ele>
        <time>2015-03-09T21:31:52.180Z</time>
      </trkpt>
      <trkpt lat="48.85619" lon="2.3569">
        <ele>78.2</ele>
        <time>2015-03-09T21:31:53.186Z</time>
      </trkpt>
      <trkpt lat="48.85621" lon="2.35683">
        <ele>78.2</ele>
        <time>2015-03-09T21:31:54.202Z</time>
      </trkpt>
      <trkpt lat="48.85623" lon="2.35675">
        <ele>78.3</ele>
        <time>2015-03-09T21:31:55.211Z</time>
      </trkpt>
      <trkpt lat="48.85625" lon="2.35668">
        <ele>78.6</ele>
        <time>2015-03-09T21:31:56.255Z</time>
      </trkpt>
      <trkpt lat="48.85627" lon="2.35661">
        <ele>78.6</ele>
        <time>2015-03-09T21:31:57.172Z</time>
      </trkpt>
      <trkpt lat="48.85629" lon="2.35653">
        <ele>78.6</ele>
        <time>2015-03-09T21:31:58.193Z</time>
      </trkpt>
      <trkpt lat="48.85632" lon="2.35645">
        <ele>78.6</ele>
        <time>2015-03-09T21:31:59.202Z</time>
      </trkpt>
      <trkpt lat="48.85634" lon="2.35637">
        <ele>78.7</ele>
        <time>2015-03-09T21:32:00.208Z</time>
      </trkpt>
      <trkpt lat="48.85635" lon="2.35629">
        <ele>78.5</ele>
        <time>2015-03-09T21:32:01.229Z</time>
      </trkpt>
      <trkpt lat="48.85637" lon="2.3562">
        <ele>78.5</ele>
        <time>2015-03-09T21:32:02.244Z</time>
      </trkpt>
      <trkpt lat="48.85639" lon="2.35611">
        <ele>78.4</ele>
        <time>2015-03-09T21:32:03.250Z</time>
      </trkpt>
      <trkpt lat="48.85643" lon="2.356">
        <ele>77.7</ele>
        <time>2015-03-09T21:32:05.204Z</time>
      </trkpt>
      <trkpt lat="48.85644" lon="2.35595">
        <ele>77.6</ele>
        <time>2015-03-09T21:32:06.213Z</time>
      </trkpt>
      <trkpt lat="48.85648" lon="2.35584">
        <ele>77.9</ele>
        <time>2015-03-09T21:32:08.150Z</time>
      </trkpt>
      <trkpt lat="48.85652" lon="2.35578">
        <ele>77.9</ele>
        <time>2015-03-09T21:32:09.206Z</time>
      </trkpt>
      <trkpt lat="48.85656" lon="2.35571">
        <ele>77.8</ele>
        <time>2015-03-09T21:32:10.248Z</time>
      </trkpt>
      <trkpt lat="48.85661" lon="2.35565">
        <ele>77.6</ele>
        <time>2015-03-09T21:32:11.257Z</time>
      </trkpt>
      <trkpt lat="48.85665" lon="2.35559">
        <ele>78.3</ele>
        <time>2015-03-09T21:32:12.159Z</time>
      </trkpt>
      <trkpt lat="48.85669" lon="2.35553">
        <ele>78.7</ele>
        <time>2015-03-09T21:32:13.200Z</time>
      </trkpt>
      <trkpt lat="48.85673" lon="2.35546">
        <ele>78.9</ele>
        <time>2015-03-09T21:32:14.212Z</time>
      </trkpt>
      <trkpt lat="48.85675" lon="2.35538">
        <ele>79.1</ele>
        <time>2015-03-09T21:32:15.225Z</time>
      </trkpt>
      <trkpt lat="48.85678" lon="2.35528">
        <ele>79.1</ele>
        <time>2015-03-09T21:32:16.234Z</time>
      </trkpt>
      <trkpt lat="48.85681" lon="2.35518">
        <ele>79.2</ele>
        <time>2015-03-09T21:32:17.279Z</time>
      </trkpt>
      <trkpt lat="48.85683" lon="2.35505">
        <ele>79.8</ele>
        <time>2015-03-09T21:32:18.157Z</time>
      </trkpt>
      <trkpt lat="48.85686" lon="2.35479">
        <ele>80.4</ele>
        <time>2015-03-09T21:32:20.200Z</time>
      </trkpt>
      <trkpt lat="48.85687" lon="2.35467">
        <ele>81</ele>
        <time>2015-03-09T21:32:21.231Z</time>
      </trkpt>
      <trkpt lat="48.85688" lon="2.35455">
        <ele>81.7</ele>
        <time>2015-03-09T21:32:22.244Z</time>
      </trkpt>
      <trkpt lat="48.85691" lon="2.35445">
        <ele>81.7</ele>
        <time>2015-03-09T21:32:23.255Z</time>
      </trkpt>
      <trkpt lat="48.85692" lon="2.35435">
        <ele>81.9</ele>
        <time>2015-03-09T21:32:24.165Z</time>
      </trkpt>
      <trkpt lat="48.85694" lon="2.35427">
        <ele>82.2</ele>
        <time>2015-03-09T21:32:25.189Z</time>
      </trkpt>
      <trkpt lat="48.85696" lon="2.35419">
        <ele>82.8</ele>
        <time>2015-03-09T21:32:26.202Z</time>
      </trkpt>
      <trkpt lat="48.85698" lon="2.35406">
        <ele>82.3</ele>
        <time>2015-03-09T21:32:28.214Z</time>
      </trkpt>
      <trkpt lat="48.857" lon="2.354">
        <ele>82</ele>
        <time>2015-03-09T21:32:29.237Z</time>
      </trkpt>
      <trkpt lat="48.85705" lon="2.35388">
        <ele>81.8</ele>
        <time>2015-03-09T21:32:31.215Z</time>
      </trkpt>
      <trkpt lat="48.85707" lon="2.35383">
        <ele>82</ele>
        <time>2015-03-09T21:32:32.212Z</time>
      </trkpt>
      <trkpt lat="48.85711" lon="2.35371">
        <ele>82.6</ele>
        <time>2015-03-09T21:32:35.198Z</time>
      </trkpt>
      <trkpt lat="48.85711" lon="2.35365">
        <ele>82.1</ele>
        <time>2015-03-09T21:32:35.235Z</time>
      </trkpt>
      <trkpt lat="48.85711" lon="2.35357">
        <ele>81.8</ele>
        <time>2015-03-09T21:32:36.185Z</time>
      </trkpt>
      <trkpt lat="48.85712" lon="2.3535">
        <ele>81.6</ele>
        <time>2015-03-09T21:32:37.207Z</time>
      </trkpt>
      <trkpt lat="48.85714" lon="2.35343">
        <ele>81.3</ele>
        <time>2015-03-09T21:32:38.216Z</time>
      </trkpt>
      <trkpt lat="48.85715" lon="2.35334">
        <ele>81</ele>
        <time>2015-03-09T21:32:39.239Z</time>
      </trkpt>
      <trkpt lat="48.85714" lon="2.35323">
        <ele>80.8</ele>
        <time>2015-03-09T21:32:40.227Z</time>
      </trkpt>
      <trkpt lat="48.85712" lon="2.35311">
        <ele>80.4</ele>
        <time>2015-03-09T21:32:41.163Z</time>
      </trkpt>
      <trkpt lat="48.85712" lon="2.35292">
        <ele>79.9</ele>
        <time>2015-03-09T21:32:43.236Z</time>
      </trkpt>
      <trkpt lat="48.85713" lon="2.35283">
        <ele>79.7</ele>
        <time>2015-03-09T21:32:44.137Z</time>
      </trkpt>
      <trkpt lat="48.85713" lon="2.35274">
        <ele>79.7</ele>
        <time>2015-03-09T21:32:45.198Z</time>
      </trkpt>
      <trkpt lat="48.85717" lon="2.35266">
        <ele>79.5</ele>
        <time>2015-03-09T21:32:46.175Z</time>
      </trkpt>
      <trkpt lat="48.85719" lon="2.35258">
        <ele>79.1</ele>
        <time>2015-03-09T21:32:47.186Z</time>
      </trkpt>
      <trkpt lat="48.85722" lon="2.3525">
        <ele>78.7</ele>
        <time>2015-03-09T21:32:48.199Z</time>
      </trkpt>
      <trkpt lat="48.85732" lon="2.35218">
        <ele>77.3</ele>
        <time>2015-03-09T21:32:52.182Z</time>
      </trkpt>
      <trkpt lat="48.85733" lon="2.3521">
        <ele>77.1</ele>
        <time>2015-03-09T21:32:53.216Z</time>
      </trkpt>
      <trkpt lat="48.85735" lon="2.35201">
        <ele>77.2</ele>
        <time>2015-03-09T21:32:54.222Z</time>
      </trkpt>
      <trkpt lat="48.85739" lon="2.35193">
        <ele>78.5</ele>
        <time>2015-03-09T21:32:55.282Z</time>
      </trkpt>
      <trkpt lat="48.85743" lon="2.35184">
        <ele>78.9</ele>
        <time>2015-03-09T21:32:56.178Z</time>
      </trkpt>
      <trkpt lat="48.85745" lon="2.35176">
        <ele>78.9</ele>
        <time>2015-03-09T21:32:57.241Z</time>
      </trkpt>
      <trkpt lat="48.85747" lon="2.35167">
        <ele>78.9</ele>
        <time>2015-03-09T21:32:58.274Z</time>
      </trkpt>
      <trkpt lat="48.85748" lon="2.35157">
        <ele>78.7</ele>
        <time>2015-03-09T21:32:59.183Z</time>
      </trkpt>
      <trkpt lat="48.85751" lon="2.35148">
        <ele>79</ele>
        <time>2015-03-09T21:33:00.222Z</time>
      </trkpt>
      <trkpt lat="48.85754" lon="2.3514">
        <ele>79</ele>
        <time>2015-03-09T21:33:01.216Z</time>
      </trkpt>
      <trkpt lat="48.85757" lon="2.35132">
        <ele>79.3</ele>
        <time>2015-03-09T21:33:02.213Z</time>
      </trkpt>
      <trkpt lat="48.8576" lon="2.35122">
        <ele>79.3</ele>
        <time>2015-03-09T21:33:03.223Z</time>
      </trkpt>
      <trkpt lat="48.85764" lon="2.35112">
        <ele>79.8</ele>
        <time>2015-03-09T21:33:04.229Z</time>
      </trkpt>
      <trkpt lat="48.85766" lon="2.35102">
        <ele>79.9</ele>
        <time>2015-03-09T21:33:05.246Z</time>
      </trkpt>
      <trkpt lat="48.85769" lon="2.35092">
        <ele>79.9</ele>
        <time>2015-03-09T21:33:06.249Z</time>
      </trkpt>
      <trkpt lat="48.85772" lon="2.35081">
        <ele>80</ele>
        <time>2015-03-09T21:33:07.294Z</time>
      </trkpt>
      <trkpt lat="48.85774" lon="2.35071">
        <ele>80.3</ele>
        <time>2015-03-09T21:33:08.178Z</time>
      </trkpt>
      <trkpt lat="48.85777" lon="2.35061">
        <ele>80.7</ele>
        <time>2015-03-09T21:33:09.195Z</time>
      </trkpt>
      <trkpt lat="48.8578" lon="2.35051">
        <ele>80.9</ele>
        <time>2015-03-09T21:33:10.203Z</time>
      </trkpt>
      <trkpt lat="48.85783" lon="2.35041">
        <ele>81.1</ele>
        <time>2015-03-09T21:33:11.172Z</time>
      </trkpt>
      <trkpt lat="48.85786" lon="2.35031">
        <ele>81.2</ele>
        <time>2015-03-09T21:33:12.172Z</time>
      </trkpt>
      <trkpt lat="48.85789" lon="2.35022">
        <ele>81.1</ele>
        <time>2015-03-09T21:33:13.201Z</time>
      </trkpt>
      <trkpt lat="48.85794" lon="2.35013">
        <ele>80.9</ele>
        <time>2015-03-09T21:33:14.200Z</time>
      </trkpt>
      <trkpt lat="48.85797" lon="2.35004">
        <ele>81</ele>
        <time>2015-03-09T21:33:15.155Z</time>
      </trkpt>
      <trkpt lat="48.858" lon="2.34994">
        <ele>81</ele>
        <time>2015-03-09T21:33:16.188Z</time>
      </trkpt>
      <trkpt lat="48.85805" lon="2.34984">
        <ele>80.9</ele>
        <time>2015-03-09T21:33:17.171Z</time>
      </trkpt>
      <trkpt lat="48.85809" lon="2.34974">
        <ele>81.3</ele>
        <time>2015-03-09T21:33:18.193Z</time>
      </trkpt>
      <trkpt lat="48.85812" lon="2.34965">
        <ele>81.7</ele>
        <time>2015-03-09T21:33:19.240Z</time>
      </trkpt>
      <trkpt lat="48.85816" lon="2.34957">
        <ele>81.8</ele>
        <time>2015-03-09T21:33:20.243Z</time>
      </trkpt>
      <trkpt lat="48.8582" lon="2.34949">
        <ele>81.7</ele>
        <time>2015-03-09T21:33:21.145Z</time>
      </trkpt>
      <trkpt lat="48.85821" lon="2.34939">
        <ele>81.2</ele>
        <time>2015-03-09T21:33:22.155Z</time>
      </trkpt>
      <trkpt lat="48.85824" lon="2.34928">
        <ele>80.8</ele>
        <time>2015-03-09T21:33:23.171Z</time>
      </trkpt>
      <trkpt lat="48.85826" lon="2.34919">
        <ele>80.8</ele>
        <time>2015-03-09T21:33:24.224Z</time>
      </trkpt>
      <trkpt lat="48.8583" lon="2.34909">
        <ele>80.8</ele>
        <time>2015-03-09T21:33:25.252Z</time>
      </trkpt>
      <trkpt lat="48.85834" lon="2.34899">
        <ele>80.7</ele>
        <time>2015-03-09T21:33:26.156Z</time>
      </trkpt>
      <trkpt lat="48.85836" lon="2.34889">
        <ele>80.7</ele>
        <time>2015-03-09T21:33:27.177Z</time>
      </trkpt>
      <trkpt lat="48.85838" lon="2.34878">
        <ele>80.6</ele>
        <time>2015-03-09T21:33:28.171Z</time>
      </trkpt>
      <trkpt lat="48.85841" lon="2.34868">
        <ele>80.4</ele>
        <time>2015-03-09T21:33:29.171Z</time>
      </trkpt>
      <trkpt lat="48.85844" lon="2.3486">
        <ele>80.1</ele>
        <time>2015-03-09T21:33:30.212Z</time>
      </trkpt>
      <trkpt lat="48.85847" lon="2.34851">
        <ele>80</ele>
        <time>2015-03-09T21:33:31.259Z</time>
      </trkpt>
      <trkpt lat="48.85851" lon="2.34843">
        <ele>80.1</ele>
        <time>2015-03-09T21:33:32.170Z</time>
      </trkpt>
      <trkpt lat="48.85853" lon="2.34834">
        <ele>80</ele>
        <time>2015-03-09T21:33:33.190Z</time>
      </trkpt>
      <trkpt lat="48.85856" lon="2.34827">
        <ele>80.2</ele>
        <time>2015-03-09T21:33:34.228Z</time>
      </trkpt>
      <trkpt lat="48.85859" lon="2.3482">
        <ele>80.6</ele>
        <time>2015-03-09T21:33:35.254Z</time>
      </trkpt>
      <trkpt lat="48.85863" lon="2.34813">
        <ele>80.7</ele>
        <time>2015-03-09T21:33:36.172Z</time>
      </trkpt>
      <trkpt lat="48.85866" lon="2.34807">
        <ele>80.7</ele>
        <time>2015-03-09T21:33:37.290Z</time>
      </trkpt>
      <trkpt lat="48.85869" lon="2.348">
        <ele>80.9</ele>
        <time>2015-03-09T21:33:38.192Z</time>
      </trkpt>
      <trkpt lat="48.85872" lon="2.34793">
        <ele>80.9</ele>
        <time>2015-03-09T21:33:39.231Z</time>
      </trkpt>
      <trkpt lat="48.85874" lon="2.34785">
        <ele>80.9</ele>
        <time>2015-03-09T21:33:40.231Z</time>
      </trkpt>
      <trkpt lat="48.85876" lon="2.34777">
        <ele>81</ele>
        <time>2015-03-09T21:33:41.233Z</time>
      </trkpt>
      <trkpt lat="48.85878" lon="2.34769">
        <ele>80.7</ele>
        <time>2015-03-09T21:33:42.246Z</time>
      </trkpt>
      <trkpt lat="48.85879" lon="2.34762">
        <ele>80.7</ele>
        <time>2015-03-09T21:33:43.257Z</time>
      </trkpt>
      <trkpt lat="48.85881" lon="2.34756">
        <ele>80.6</ele>
        <time>2015-03-09T21:33:44.162Z</time>
      </trkpt>
      <trkpt lat="48.85888" lon="2.34751">
        <ele>80.7</ele>
        <time>2015-03-09T21:33:46.171Z</time>
      </trkpt>
      <trkpt lat="48.85891" lon="2.3475">
        <ele>81.1</ele>
        <time>2015-03-09T21:33:47.196Z</time>
      </trkpt>
      <trkpt lat="48.85899" lon="2.34747">
        <ele>83.1</ele>
        <time>2015-03-09T21:33:49.220Z</time>
      </trkpt>
      <trkpt lat="48.85901" lon="2.34746">
        <ele>83.7</ele>
        <time>2015-03-09T21:33:50.243Z</time>
      </trkpt>
      <trkpt lat="48.85907" lon="2.34743">
        <ele>83.9</ele>
        <time>2015-03-09T21:33:52.166Z</time>
      </trkpt>
      <trkpt lat="48.8591" lon="2.34741">
        <ele>84.3</ele>
        <time>2015-03-09T21:33:53.206Z</time>
      </trkpt>
      <trkpt lat="48.85917" lon="2.34732">
        <ele>84.3</ele>
        <time>2015-03-09T21:33:56.239Z</time>
      </trkpt>
      <trkpt lat="48.85919" lon="2.3473">
        <ele>84.2</ele>
        <time>2015-03-09T21:33:57.282Z</time>
      </trkpt>
      <trkpt lat="48.85924" lon="2.34723">
        <ele>84.1</ele>
        <time>2015-03-09T21:33:59.165Z</time>
      </trkpt>
      <trkpt lat="48.85927" lon="2.34719">
        <ele>84.3</ele>
        <time>2015-03-09T21:34:00.198Z</time>
      </trkpt>
      <trkpt lat="48.85931" lon="2.34714">
        <ele>84.7</ele>
        <time>2015-03-09T21:34:02.242Z</time>
      </trkpt>
      <trkpt lat="48.85936" lon="2.34714">
        <ele>83.6</ele>
        <time>2015-03-09T21:34:03.292Z</time>
      </trkpt>
      <trkpt lat="48.85943" lon="2.34714">
        <ele>84.1</ele>
        <time>2015-03-09T21:34:06.214Z</time>
      </trkpt>
      <trkpt lat="48.85946" lon="2.34717">
        <ele>85.1</ele>
        <time>2015-03-09T21:34:07.316Z</time>
      </trkpt>
      <trkpt lat="48.85949" lon="2.3472">
        <ele>86.7</ele>
        <time>2015-03-09T21:34:27.238Z</time>
      </trkpt>
      <trkpt lat="48.85961" lon="2.34725">
        <ele>97.9</ele>
        <time>2015-03-09T21:34:28.132Z</time>
      </trkpt>
    </trkseg>
  </trk>
</gpx>